<?xml version="1.0" encoding="UTF-8" standalone="no" ?>
<gpx xmlns="http://www.topografix.com/GPX/1/1" xmlns:xsi="http://www.w3.org/2001/XMLSchema-instance" xsi:schemaLocation="http://www.topografix.com/GPX/1/1 http://www.topografix.com/GPX/1/1/gpx.xsd" version="1.1" creator="VisuGPX - https://www.visugpx.com">
  <metadata>
    <name>Selle du Puy Gris</name>
    <desc><![CDATA[Selle du Puy Gris sens Tepey Roches
D+ réel 1650, le gps s'est perdu rive dte et rive gauche au départ]]></desc>
  </metadata>
  <trk>
    <name><![CDATA[2019-03-31 08-04]]></name>
    <trkseg>
      <trkpt lat="45.28304" lon="6.21003">
        <ele>1202.6</ele>
        <time>2019-03-31T06:07:02Z</time>
      </trkpt>
      <trkpt lat="45.28301" lon="6.21003">
        <ele>1204.4</ele>
        <time>2019-03-31T06:07:17Z</time>
      </trkpt>
      <trkpt lat="45.28299" lon="6.21003">
        <ele>1207.8</ele>
        <time>2019-03-31T06:07:37Z</time>
      </trkpt>
      <trkpt lat="45.28296" lon="6.21001">
        <ele>1210.8</ele>
        <time>2019-03-31T06:08:17Z</time>
      </trkpt>
      <trkpt lat="45.28289" lon="6.20999">
        <ele>1206.6</ele>
        <time>2019-03-31T06:08:22Z</time>
      </trkpt>
      <trkpt lat="45.28284" lon="6.20998">
        <ele>1209.6</ele>
        <time>2019-03-31T06:08:27Z</time>
      </trkpt>
      <trkpt lat="45.28278" lon="6.20997">
        <ele>1210.6</ele>
        <time>2019-03-31T06:08:32Z</time>
      </trkpt>
      <trkpt lat="45.28273" lon="6.20994">
        <ele>1208</ele>
        <time>2019-03-31T06:08:37Z</time>
      </trkpt>
      <trkpt lat="45.28269" lon="6.20993">
        <ele>1208.2</ele>
        <time>2019-03-31T06:08:42Z</time>
      </trkpt>
      <trkpt lat="45.28264" lon="6.20993">
        <ele>1209.8</ele>
        <time>2019-03-31T06:08:47Z</time>
      </trkpt>
      <trkpt lat="45.28259" lon="6.20995">
        <ele>1213.8</ele>
        <time>2019-03-31T06:08:52Z</time>
      </trkpt>
      <trkpt lat="45.28256" lon="6.20997">
        <ele>1213.6</ele>
        <time>2019-03-31T06:08:57Z</time>
      </trkpt>
      <trkpt lat="45.28254" lon="6.21">
        <ele>1212.4</ele>
        <time>2019-03-31T06:09:02Z</time>
      </trkpt>
      <trkpt lat="45.28251" lon="6.21005">
        <ele>1213.8</ele>
        <time>2019-03-31T06:09:07Z</time>
      </trkpt>
      <trkpt lat="45.2825" lon="6.21009">
        <ele>1210.8</ele>
        <time>2019-03-31T06:09:12Z</time>
      </trkpt>
      <trkpt lat="45.28247" lon="6.21014">
        <ele>1217.6</ele>
        <time>2019-03-31T06:09:17Z</time>
      </trkpt>
      <trkpt lat="45.28245" lon="6.21022">
        <ele>1215</ele>
        <time>2019-03-31T06:09:22Z</time>
      </trkpt>
      <trkpt lat="45.28243" lon="6.21029">
        <ele>1216.2</ele>
        <time>2019-03-31T06:09:27Z</time>
      </trkpt>
      <trkpt lat="45.28238" lon="6.21032">
        <ele>1217.2</ele>
        <time>2019-03-31T06:09:32Z</time>
      </trkpt>
      <trkpt lat="45.28235" lon="6.21032">
        <ele>1218.4</ele>
        <time>2019-03-31T06:09:37Z</time>
      </trkpt>
      <trkpt lat="45.28235" lon="6.21033">
        <ele>1216.8</ele>
        <time>2019-03-31T06:10:22Z</time>
      </trkpt>
      <trkpt lat="45.28233" lon="6.21033">
        <ele>1216.8</ele>
        <time>2019-03-31T06:10:27Z</time>
      </trkpt>
      <trkpt lat="45.2823" lon="6.21033">
        <ele>1216.4</ele>
        <time>2019-03-31T06:10:32Z</time>
      </trkpt>
      <trkpt lat="45.2823" lon="6.21033">
        <ele>1216</ele>
        <time>2019-03-31T06:10:37Z</time>
      </trkpt>
      <trkpt lat="45.28226" lon="6.21032">
        <ele>1215.4</ele>
        <time>2019-03-31T06:10:42Z</time>
      </trkpt>
      <trkpt lat="45.28222" lon="6.21032">
        <ele>1213.8</ele>
        <time>2019-03-31T06:11:47Z</time>
      </trkpt>
      <trkpt lat="45.28223" lon="6.21031">
        <ele>1215</ele>
        <time>2019-03-31T06:12:42Z</time>
      </trkpt>
      <trkpt lat="45.28223" lon="6.21027">
        <ele>1214</ele>
        <time>2019-03-31T06:13:02Z</time>
      </trkpt>
      <trkpt lat="45.28222" lon="6.21024">
        <ele>1219.4</ele>
        <time>2019-03-31T06:13:07Z</time>
      </trkpt>
      <trkpt lat="45.28222" lon="6.21018">
        <ele>1216.4</ele>
        <time>2019-03-31T06:13:12Z</time>
      </trkpt>
      <trkpt lat="45.28223" lon="6.21013">
        <ele>1215.8</ele>
        <time>2019-03-31T06:13:17Z</time>
      </trkpt>
      <trkpt lat="45.28223" lon="6.2101">
        <ele>1214.6</ele>
        <time>2019-03-31T06:13:22Z</time>
      </trkpt>
      <trkpt lat="45.28223" lon="6.21009">
        <ele>1215</ele>
        <time>2019-03-31T06:13:27Z</time>
      </trkpt>
      <trkpt lat="45.28222" lon="6.21006">
        <ele>1215.2</ele>
        <time>2019-03-31T06:13:32Z</time>
      </trkpt>
      <trkpt lat="45.28219" lon="6.21004">
        <ele>1217</ele>
        <time>2019-03-31T06:13:37Z</time>
      </trkpt>
      <trkpt lat="45.28219" lon="6.20999">
        <ele>1220.2</ele>
        <time>2019-03-31T06:13:42Z</time>
      </trkpt>
      <trkpt lat="45.28221" lon="6.20994">
        <ele>1223</ele>
        <time>2019-03-31T06:13:47Z</time>
      </trkpt>
      <trkpt lat="45.28222" lon="6.2099">
        <ele>1219.6</ele>
        <time>2019-03-31T06:13:52Z</time>
      </trkpt>
      <trkpt lat="45.28224" lon="6.20985">
        <ele>1225.2</ele>
        <time>2019-03-31T06:13:57Z</time>
      </trkpt>
      <trkpt lat="45.28225" lon="6.20982">
        <ele>1224.4</ele>
        <time>2019-03-31T06:14:02Z</time>
      </trkpt>
      <trkpt lat="45.28226" lon="6.2098">
        <ele>1224.8</ele>
        <time>2019-03-31T06:14:07Z</time>
      </trkpt>
      <trkpt lat="45.28226" lon="6.20979">
        <ele>1220.8</ele>
        <time>2019-03-31T06:14:22Z</time>
      </trkpt>
      <trkpt lat="45.28226" lon="6.20974">
        <ele>1223.2</ele>
        <time>2019-03-31T06:14:27Z</time>
      </trkpt>
      <trkpt lat="45.28227" lon="6.2097">
        <ele>1227.2</ele>
        <time>2019-03-31T06:14:32Z</time>
      </trkpt>
      <trkpt lat="45.28228" lon="6.20967">
        <ele>1226.6</ele>
        <time>2019-03-31T06:14:37Z</time>
      </trkpt>
      <trkpt lat="45.28229" lon="6.20965">
        <ele>1226.4</ele>
        <time>2019-03-31T06:14:42Z</time>
      </trkpt>
      <trkpt lat="45.2823" lon="6.20961">
        <ele>1230.6</ele>
        <time>2019-03-31T06:14:47Z</time>
      </trkpt>
      <trkpt lat="45.28231" lon="6.20958">
        <ele>1228</ele>
        <time>2019-03-31T06:14:52Z</time>
      </trkpt>
      <trkpt lat="45.28231" lon="6.20957">
        <ele>1229.6</ele>
        <time>2019-03-31T06:15:42Z</time>
      </trkpt>
      <trkpt lat="45.28233" lon="6.20952">
        <ele>1232.4</ele>
        <time>2019-03-31T06:15:47Z</time>
      </trkpt>
      <trkpt lat="45.28235" lon="6.20945">
        <ele>1230.2</ele>
        <time>2019-03-31T06:15:52Z</time>
      </trkpt>
      <trkpt lat="45.28236" lon="6.20938">
        <ele>1232.6</ele>
        <time>2019-03-31T06:15:57Z</time>
      </trkpt>
      <trkpt lat="45.28236" lon="6.20933">
        <ele>1231.2</ele>
        <time>2019-03-31T06:16:02Z</time>
      </trkpt>
      <trkpt lat="45.28237" lon="6.20929">
        <ele>1233.4</ele>
        <time>2019-03-31T06:16:07Z</time>
      </trkpt>
      <trkpt lat="45.28238" lon="6.20926">
        <ele>1231.8</ele>
        <time>2019-03-31T06:16:12Z</time>
      </trkpt>
      <trkpt lat="45.28238" lon="6.20922">
        <ele>1233.6</ele>
        <time>2019-03-31T06:16:18Z</time>
      </trkpt>
      <trkpt lat="45.28236" lon="6.20919">
        <ele>1235.2</ele>
        <time>2019-03-31T06:16:23Z</time>
      </trkpt>
      <trkpt lat="45.28236" lon="6.20914">
        <ele>1234.8</ele>
        <time>2019-03-31T06:16:28Z</time>
      </trkpt>
      <trkpt lat="45.28235" lon="6.2091">
        <ele>1235.4</ele>
        <time>2019-03-31T06:16:33Z</time>
      </trkpt>
      <trkpt lat="45.28234" lon="6.20906">
        <ele>1237.6</ele>
        <time>2019-03-31T06:16:38Z</time>
      </trkpt>
      <trkpt lat="45.28234" lon="6.20903">
        <ele>1239</ele>
        <time>2019-03-31T06:16:43Z</time>
      </trkpt>
      <trkpt lat="45.28235" lon="6.20899">
        <ele>1240.4</ele>
        <time>2019-03-31T06:16:48Z</time>
      </trkpt>
      <trkpt lat="45.28236" lon="6.20896">
        <ele>1238.8</ele>
        <time>2019-03-31T06:16:53Z</time>
      </trkpt>
      <trkpt lat="45.28237" lon="6.20892">
        <ele>1241.2</ele>
        <time>2019-03-31T06:16:58Z</time>
      </trkpt>
      <trkpt lat="45.28237" lon="6.20889">
        <ele>1244</ele>
        <time>2019-03-31T06:17:03Z</time>
      </trkpt>
      <trkpt lat="45.28238" lon="6.20885">
        <ele>1244.6</ele>
        <time>2019-03-31T06:17:08Z</time>
      </trkpt>
      <trkpt lat="45.28238" lon="6.20882">
        <ele>1243.4</ele>
        <time>2019-03-31T06:17:13Z</time>
      </trkpt>
      <trkpt lat="45.28238" lon="6.20879">
        <ele>1242.8</ele>
        <time>2019-03-31T06:17:18Z</time>
      </trkpt>
      <trkpt lat="45.28237" lon="6.20876">
        <ele>1246.8</ele>
        <time>2019-03-31T06:17:23Z</time>
      </trkpt>
      <trkpt lat="45.28233" lon="6.20873">
        <ele>1246</ele>
        <time>2019-03-31T06:17:28Z</time>
      </trkpt>
      <trkpt lat="45.28233" lon="6.20869">
        <ele>1248</ele>
        <time>2019-03-31T06:17:33Z</time>
      </trkpt>
      <trkpt lat="45.28235" lon="6.20865">
        <ele>1248.4</ele>
        <time>2019-03-31T06:17:38Z</time>
      </trkpt>
      <trkpt lat="45.28234" lon="6.20861">
        <ele>1246.4</ele>
        <time>2019-03-31T06:17:43Z</time>
      </trkpt>
      <trkpt lat="45.28232" lon="6.2086">
        <ele>1246.6</ele>
        <time>2019-03-31T06:17:48Z</time>
      </trkpt>
      <trkpt lat="45.28231" lon="6.20859">
        <ele>1248</ele>
        <time>2019-03-31T06:17:53Z</time>
      </trkpt>
      <trkpt lat="45.28231" lon="6.20859">
        <ele>1248</ele>
        <time>2019-03-31T06:17:58Z</time>
      </trkpt>
      <trkpt lat="45.2823" lon="6.20857">
        <ele>1248.4</ele>
        <time>2019-03-31T06:18:03Z</time>
      </trkpt>
      <trkpt lat="45.28229" lon="6.20854">
        <ele>1252</ele>
        <time>2019-03-31T06:18:08Z</time>
      </trkpt>
      <trkpt lat="45.2823" lon="6.20851">
        <ele>1255.6</ele>
        <time>2019-03-31T06:18:13Z</time>
      </trkpt>
      <trkpt lat="45.2823" lon="6.20848">
        <ele>1252.2</ele>
        <time>2019-03-31T06:18:18Z</time>
      </trkpt>
      <trkpt lat="45.2823" lon="6.20845">
        <ele>1255.2</ele>
        <time>2019-03-31T06:18:23Z</time>
      </trkpt>
      <trkpt lat="45.28231" lon="6.20842">
        <ele>1253.6</ele>
        <time>2019-03-31T06:18:28Z</time>
      </trkpt>
      <trkpt lat="45.28232" lon="6.2084">
        <ele>1256.6</ele>
        <time>2019-03-31T06:18:33Z</time>
      </trkpt>
      <trkpt lat="45.28233" lon="6.20836">
        <ele>1255</ele>
        <time>2019-03-31T06:18:38Z</time>
      </trkpt>
      <trkpt lat="45.28233" lon="6.20833">
        <ele>1255.8</ele>
        <time>2019-03-31T06:18:43Z</time>
      </trkpt>
      <trkpt lat="45.28232" lon="6.20831">
        <ele>1257.4</ele>
        <time>2019-03-31T06:18:48Z</time>
      </trkpt>
      <trkpt lat="45.28231" lon="6.2083">
        <ele>1254.4</ele>
        <time>2019-03-31T06:18:53Z</time>
      </trkpt>
      <trkpt lat="45.28229" lon="6.20829">
        <ele>1254.8</ele>
        <time>2019-03-31T06:18:58Z</time>
      </trkpt>
      <trkpt lat="45.28228" lon="6.20828">
        <ele>1256.6</ele>
        <time>2019-03-31T06:19:03Z</time>
      </trkpt>
      <trkpt lat="45.28228" lon="6.20824">
        <ele>1257</ele>
        <time>2019-03-31T06:19:08Z</time>
      </trkpt>
      <trkpt lat="45.28228" lon="6.2082">
        <ele>1262.6</ele>
        <time>2019-03-31T06:19:13Z</time>
      </trkpt>
      <trkpt lat="45.28228" lon="6.20816">
        <ele>1261.8</ele>
        <time>2019-03-31T06:19:18Z</time>
      </trkpt>
      <trkpt lat="45.28228" lon="6.20812">
        <ele>1267</ele>
        <time>2019-03-31T06:19:23Z</time>
      </trkpt>
      <trkpt lat="45.28228" lon="6.20807">
        <ele>1266.6</ele>
        <time>2019-03-31T06:19:28Z</time>
      </trkpt>
      <trkpt lat="45.28228" lon="6.20803">
        <ele>1266.8</ele>
        <time>2019-03-31T06:19:33Z</time>
      </trkpt>
      <trkpt lat="45.2823" lon="6.20799">
        <ele>1269.2</ele>
        <time>2019-03-31T06:19:38Z</time>
      </trkpt>
      <trkpt lat="45.28232" lon="6.20794">
        <ele>1271.8</ele>
        <time>2019-03-31T06:19:43Z</time>
      </trkpt>
      <trkpt lat="45.28233" lon="6.20791">
        <ele>1268.2</ele>
        <time>2019-03-31T06:19:48Z</time>
      </trkpt>
      <trkpt lat="45.28233" lon="6.20788">
        <ele>1276.6</ele>
        <time>2019-03-31T06:19:53Z</time>
      </trkpt>
      <trkpt lat="45.28234" lon="6.20785">
        <ele>1273.2</ele>
        <time>2019-03-31T06:19:58Z</time>
      </trkpt>
      <trkpt lat="45.28234" lon="6.20784">
        <ele>1273.6</ele>
        <time>2019-03-31T06:20:03Z</time>
      </trkpt>
      <trkpt lat="45.28233" lon="6.20784">
        <ele>1274.4</ele>
        <time>2019-03-31T06:20:08Z</time>
      </trkpt>
      <trkpt lat="45.28231" lon="6.20782">
        <ele>1274.2</ele>
        <time>2019-03-31T06:20:13Z</time>
      </trkpt>
      <trkpt lat="45.28228" lon="6.20781">
        <ele>1273</ele>
        <time>2019-03-31T06:20:18Z</time>
      </trkpt>
      <trkpt lat="45.28226" lon="6.20778">
        <ele>1277.8</ele>
        <time>2019-03-31T06:20:23Z</time>
      </trkpt>
      <trkpt lat="45.28226" lon="6.20776">
        <ele>1276.6</ele>
        <time>2019-03-31T06:20:28Z</time>
      </trkpt>
      <trkpt lat="45.28226" lon="6.20775">
        <ele>1277.2</ele>
        <time>2019-03-31T06:20:33Z</time>
      </trkpt>
      <trkpt lat="45.28226" lon="6.20775">
        <ele>1276.2</ele>
        <time>2019-03-31T06:20:38Z</time>
      </trkpt>
      <trkpt lat="45.28226" lon="6.20773">
        <ele>1279.2</ele>
        <time>2019-03-31T06:20:43Z</time>
      </trkpt>
      <trkpt lat="45.28226" lon="6.2077">
        <ele>1279.2</ele>
        <time>2019-03-31T06:20:48Z</time>
      </trkpt>
      <trkpt lat="45.28227" lon="6.20766">
        <ele>1276.6</ele>
        <time>2019-03-31T06:20:53Z</time>
      </trkpt>
      <trkpt lat="45.28228" lon="6.20765">
        <ele>1275.8</ele>
        <time>2019-03-31T06:20:58Z</time>
      </trkpt>
      <trkpt lat="45.28228" lon="6.20765">
        <ele>1274.8</ele>
        <time>2019-03-31T06:21:28Z</time>
      </trkpt>
      <trkpt lat="45.28229" lon="6.20764">
        <ele>1274.8</ele>
        <time>2019-03-31T06:21:33Z</time>
      </trkpt>
      <trkpt lat="45.2823" lon="6.20763">
        <ele>1275</ele>
        <time>2019-03-31T06:21:38Z</time>
      </trkpt>
      <trkpt lat="45.2823" lon="6.20762">
        <ele>1276.2</ele>
        <time>2019-03-31T06:22:03Z</time>
      </trkpt>
      <trkpt lat="45.28229" lon="6.20762">
        <ele>1276.4</ele>
        <time>2019-03-31T06:22:08Z</time>
      </trkpt>
      <trkpt lat="45.28225" lon="6.20758">
        <ele>1279</ele>
        <time>2019-03-31T06:22:13Z</time>
      </trkpt>
      <trkpt lat="45.28224" lon="6.20753">
        <ele>1279.2</ele>
        <time>2019-03-31T06:22:18Z</time>
      </trkpt>
      <trkpt lat="45.28223" lon="6.20749">
        <ele>1278.8</ele>
        <time>2019-03-31T06:22:23Z</time>
      </trkpt>
      <trkpt lat="45.28223" lon="6.20749">
        <ele>1281</ele>
        <time>2019-03-31T06:22:28Z</time>
      </trkpt>
      <trkpt lat="45.28223" lon="6.20748">
        <ele>1282.2</ele>
        <time>2019-03-31T06:22:33Z</time>
      </trkpt>
      <trkpt lat="45.28223" lon="6.20745">
        <ele>1287</ele>
        <time>2019-03-31T06:22:38Z</time>
      </trkpt>
      <trkpt lat="45.28223" lon="6.20744">
        <ele>1284.4</ele>
        <time>2019-03-31T06:22:43Z</time>
      </trkpt>
      <trkpt lat="45.28222" lon="6.20743">
        <ele>1284.8</ele>
        <time>2019-03-31T06:22:48Z</time>
      </trkpt>
      <trkpt lat="45.28219" lon="6.20741">
        <ele>1284</ele>
        <time>2019-03-31T06:22:53Z</time>
      </trkpt>
      <trkpt lat="45.28219" lon="6.20734">
        <ele>1284.4</ele>
        <time>2019-03-31T06:23:03Z</time>
      </trkpt>
      <trkpt lat="45.28218" lon="6.2073">
        <ele>1286.4</ele>
        <time>2019-03-31T06:23:08Z</time>
      </trkpt>
      <trkpt lat="45.28218" lon="6.20726">
        <ele>1289.2</ele>
        <time>2019-03-31T06:23:13Z</time>
      </trkpt>
      <trkpt lat="45.28219" lon="6.20722">
        <ele>1288.2</ele>
        <time>2019-03-31T06:23:18Z</time>
      </trkpt>
      <trkpt lat="45.28219" lon="6.20722">
        <ele>1286.8</ele>
        <time>2019-03-31T06:23:23Z</time>
      </trkpt>
      <trkpt lat="45.28221" lon="6.20723">
        <ele>1285.6</ele>
        <time>2019-03-31T06:23:28Z</time>
      </trkpt>
      <trkpt lat="45.28223" lon="6.20721">
        <ele>1284.6</ele>
        <time>2019-03-31T06:23:33Z</time>
      </trkpt>
      <trkpt lat="45.28224" lon="6.20719">
        <ele>1283.6</ele>
        <time>2019-03-31T06:23:38Z</time>
      </trkpt>
      <trkpt lat="45.28226" lon="6.20714">
        <ele>1284.2</ele>
        <time>2019-03-31T06:23:43Z</time>
      </trkpt>
      <trkpt lat="45.28227" lon="6.20709">
        <ele>1285.2</ele>
        <time>2019-03-31T06:23:48Z</time>
      </trkpt>
      <trkpt lat="45.2823" lon="6.20704">
        <ele>1283.4</ele>
        <time>2019-03-31T06:23:53Z</time>
      </trkpt>
      <trkpt lat="45.28231" lon="6.20701">
        <ele>1281.6</ele>
        <time>2019-03-31T06:23:58Z</time>
      </trkpt>
      <trkpt lat="45.28233" lon="6.20697">
        <ele>1282</ele>
        <time>2019-03-31T06:24:03Z</time>
      </trkpt>
      <trkpt lat="45.28235" lon="6.20692">
        <ele>1279.8</ele>
        <time>2019-03-31T06:24:08Z</time>
      </trkpt>
      <trkpt lat="45.28236" lon="6.20687">
        <ele>1281.4</ele>
        <time>2019-03-31T06:24:13Z</time>
      </trkpt>
      <trkpt lat="45.28235" lon="6.20682">
        <ele>1282.2</ele>
        <time>2019-03-31T06:24:18Z</time>
      </trkpt>
      <trkpt lat="45.28231" lon="6.2068">
        <ele>1284</ele>
        <time>2019-03-31T06:24:23Z</time>
      </trkpt>
      <trkpt lat="45.28228" lon="6.20679">
        <ele>1283.6</ele>
        <time>2019-03-31T06:24:28Z</time>
      </trkpt>
      <trkpt lat="45.28226" lon="6.20679">
        <ele>1286.2</ele>
        <time>2019-03-31T06:24:33Z</time>
      </trkpt>
      <trkpt lat="45.28224" lon="6.20675">
        <ele>1287.8</ele>
        <time>2019-03-31T06:24:38Z</time>
      </trkpt>
      <trkpt lat="45.28223" lon="6.2067">
        <ele>1283.2</ele>
        <time>2019-03-31T06:24:43Z</time>
      </trkpt>
      <trkpt lat="45.28224" lon="6.20666">
        <ele>1288</ele>
        <time>2019-03-31T06:24:48Z</time>
      </trkpt>
      <trkpt lat="45.28222" lon="6.20663">
        <ele>1287.8</ele>
        <time>2019-03-31T06:24:53Z</time>
      </trkpt>
      <trkpt lat="45.28222" lon="6.20658">
        <ele>1288</ele>
        <time>2019-03-31T06:24:58Z</time>
      </trkpt>
      <trkpt lat="45.28224" lon="6.20655">
        <ele>1291.2</ele>
        <time>2019-03-31T06:25:03Z</time>
      </trkpt>
      <trkpt lat="45.28224" lon="6.20649">
        <ele>1289.6</ele>
        <time>2019-03-31T06:25:13Z</time>
      </trkpt>
      <trkpt lat="45.28225" lon="6.20645">
        <ele>1291.2</ele>
        <time>2019-03-31T06:25:18Z</time>
      </trkpt>
      <trkpt lat="45.28228" lon="6.20644">
        <ele>1291.4</ele>
        <time>2019-03-31T06:25:23Z</time>
      </trkpt>
      <trkpt lat="45.28231" lon="6.20641">
        <ele>1291.2</ele>
        <time>2019-03-31T06:25:28Z</time>
      </trkpt>
      <trkpt lat="45.28228" lon="6.20638">
        <ele>1292.4</ele>
        <time>2019-03-31T06:25:33Z</time>
      </trkpt>
      <trkpt lat="45.28222" lon="6.20637">
        <ele>1296.8</ele>
        <time>2019-03-31T06:25:43Z</time>
      </trkpt>
      <trkpt lat="45.2822" lon="6.20636">
        <ele>1294.4</ele>
        <time>2019-03-31T06:25:48Z</time>
      </trkpt>
      <trkpt lat="45.28219" lon="6.20633">
        <ele>1295</ele>
        <time>2019-03-31T06:25:53Z</time>
      </trkpt>
      <trkpt lat="45.28223" lon="6.20628">
        <ele>1296.4</ele>
        <time>2019-03-31T06:25:58Z</time>
      </trkpt>
      <trkpt lat="45.28224" lon="6.20625">
        <ele>1298</ele>
        <time>2019-03-31T06:26:03Z</time>
      </trkpt>
      <trkpt lat="45.28226" lon="6.20622">
        <ele>1296.4</ele>
        <time>2019-03-31T06:26:08Z</time>
      </trkpt>
      <trkpt lat="45.28228" lon="6.20618">
        <ele>1299</ele>
        <time>2019-03-31T06:26:13Z</time>
      </trkpt>
      <trkpt lat="45.28226" lon="6.20612">
        <ele>1300.6</ele>
        <time>2019-03-31T06:26:18Z</time>
      </trkpt>
      <trkpt lat="45.28225" lon="6.20608">
        <ele>1298.4</ele>
        <time>2019-03-31T06:26:23Z</time>
      </trkpt>
      <trkpt lat="45.28224" lon="6.20603">
        <ele>1299.6</ele>
        <time>2019-03-31T06:26:28Z</time>
      </trkpt>
      <trkpt lat="45.28224" lon="6.20598">
        <ele>1300.8</ele>
        <time>2019-03-31T06:26:33Z</time>
      </trkpt>
      <trkpt lat="45.28223" lon="6.20593">
        <ele>1298.8</ele>
        <time>2019-03-31T06:26:38Z</time>
      </trkpt>
      <trkpt lat="45.28224" lon="6.2059">
        <ele>1299.2</ele>
        <time>2019-03-31T06:26:43Z</time>
      </trkpt>
      <trkpt lat="45.28218" lon="6.20585">
        <ele>1301.4</ele>
        <time>2019-03-31T06:26:53Z</time>
      </trkpt>
      <trkpt lat="45.28221" lon="6.20582">
        <ele>1300.8</ele>
        <time>2019-03-31T06:26:58Z</time>
      </trkpt>
      <trkpt lat="45.28223" lon="6.20579">
        <ele>1301.8</ele>
        <time>2019-03-31T06:27:03Z</time>
      </trkpt>
      <trkpt lat="45.28222" lon="6.20575">
        <ele>1302.4</ele>
        <time>2019-03-31T06:27:08Z</time>
      </trkpt>
      <trkpt lat="45.2822" lon="6.20572">
        <ele>1301.8</ele>
        <time>2019-03-31T06:27:13Z</time>
      </trkpt>
      <trkpt lat="45.28216" lon="6.20568">
        <ele>1298.4</ele>
        <time>2019-03-31T06:27:18Z</time>
      </trkpt>
      <trkpt lat="45.28216" lon="6.20565">
        <ele>1294.6</ele>
        <time>2019-03-31T06:27:23Z</time>
      </trkpt>
      <trkpt lat="45.28217" lon="6.20561">
        <ele>1298.4</ele>
        <time>2019-03-31T06:27:28Z</time>
      </trkpt>
      <trkpt lat="45.28215" lon="6.20559">
        <ele>1299</ele>
        <time>2019-03-31T06:27:33Z</time>
      </trkpt>
      <trkpt lat="45.28215" lon="6.20556">
        <ele>1300.2</ele>
        <time>2019-03-31T06:27:38Z</time>
      </trkpt>
      <trkpt lat="45.28218" lon="6.2055">
        <ele>1301.2</ele>
        <time>2019-03-31T06:27:43Z</time>
      </trkpt>
      <trkpt lat="45.28218" lon="6.20545">
        <ele>1300</ele>
        <time>2019-03-31T06:27:48Z</time>
      </trkpt>
      <trkpt lat="45.28218" lon="6.20542">
        <ele>1300.2</ele>
        <time>2019-03-31T06:27:53Z</time>
      </trkpt>
      <trkpt lat="45.2822" lon="6.20538">
        <ele>1300.2</ele>
        <time>2019-03-31T06:27:58Z</time>
      </trkpt>
      <trkpt lat="45.28222" lon="6.20533">
        <ele>1301.4</ele>
        <time>2019-03-31T06:28:03Z</time>
      </trkpt>
      <trkpt lat="45.28222" lon="6.20528">
        <ele>1300.4</ele>
        <time>2019-03-31T06:28:09Z</time>
      </trkpt>
      <trkpt lat="45.28221" lon="6.20524">
        <ele>1300.6</ele>
        <time>2019-03-31T06:28:14Z</time>
      </trkpt>
      <trkpt lat="45.2822" lon="6.20521">
        <ele>1302.6</ele>
        <time>2019-03-31T06:28:19Z</time>
      </trkpt>
      <trkpt lat="45.2822" lon="6.20518">
        <ele>1303</ele>
        <time>2019-03-31T06:28:24Z</time>
      </trkpt>
      <trkpt lat="45.2822" lon="6.20513">
        <ele>1302.6</ele>
        <time>2019-03-31T06:28:29Z</time>
      </trkpt>
      <trkpt lat="45.28218" lon="6.20509">
        <ele>1302.2</ele>
        <time>2019-03-31T06:28:34Z</time>
      </trkpt>
      <trkpt lat="45.28217" lon="6.20506">
        <ele>1305.4</ele>
        <time>2019-03-31T06:28:39Z</time>
      </trkpt>
      <trkpt lat="45.28215" lon="6.20503">
        <ele>1308.6</ele>
        <time>2019-03-31T06:28:44Z</time>
      </trkpt>
      <trkpt lat="45.28219" lon="6.205">
        <ele>1310</ele>
        <time>2019-03-31T06:28:54Z</time>
      </trkpt>
      <trkpt lat="45.28221" lon="6.20499">
        <ele>1311.6</ele>
        <time>2019-03-31T06:28:59Z</time>
      </trkpt>
      <trkpt lat="45.28222" lon="6.20497">
        <ele>1308.6</ele>
        <time>2019-03-31T06:29:04Z</time>
      </trkpt>
      <trkpt lat="45.28222" lon="6.20494">
        <ele>1307.8</ele>
        <time>2019-03-31T06:29:09Z</time>
      </trkpt>
      <trkpt lat="45.28221" lon="6.20491">
        <ele>1309</ele>
        <time>2019-03-31T06:29:14Z</time>
      </trkpt>
      <trkpt lat="45.28218" lon="6.20487">
        <ele>1312.8</ele>
        <time>2019-03-31T06:29:19Z</time>
      </trkpt>
      <trkpt lat="45.28215" lon="6.20483">
        <ele>1312.6</ele>
        <time>2019-03-31T06:29:24Z</time>
      </trkpt>
      <trkpt lat="45.28213" lon="6.20479">
        <ele>1314</ele>
        <time>2019-03-31T06:29:29Z</time>
      </trkpt>
      <trkpt lat="45.2821" lon="6.20475">
        <ele>1315.4</ele>
        <time>2019-03-31T06:29:34Z</time>
      </trkpt>
      <trkpt lat="45.2821" lon="6.20471">
        <ele>1315.8</ele>
        <time>2019-03-31T06:29:39Z</time>
      </trkpt>
      <trkpt lat="45.2821" lon="6.20467">
        <ele>1316.2</ele>
        <time>2019-03-31T06:29:44Z</time>
      </trkpt>
      <trkpt lat="45.2821" lon="6.20465">
        <ele>1317.4</ele>
        <time>2019-03-31T06:29:49Z</time>
      </trkpt>
      <trkpt lat="45.28211" lon="6.2046">
        <ele>1320.2</ele>
        <time>2019-03-31T06:29:54Z</time>
      </trkpt>
      <trkpt lat="45.28214" lon="6.20455">
        <ele>1319.6</ele>
        <time>2019-03-31T06:29:59Z</time>
      </trkpt>
      <trkpt lat="45.28215" lon="6.20452">
        <ele>1320.6</ele>
        <time>2019-03-31T06:30:04Z</time>
      </trkpt>
      <trkpt lat="45.28216" lon="6.20447">
        <ele>1321</ele>
        <time>2019-03-31T06:30:09Z</time>
      </trkpt>
      <trkpt lat="45.28215" lon="6.20444">
        <ele>1320.6</ele>
        <time>2019-03-31T06:30:14Z</time>
      </trkpt>
      <trkpt lat="45.28218" lon="6.20434">
        <ele>1323.2</ele>
        <time>2019-03-31T06:30:49Z</time>
      </trkpt>
      <trkpt lat="45.28217" lon="6.20432">
        <ele>1323.2</ele>
        <time>2019-03-31T06:30:54Z</time>
      </trkpt>
      <trkpt lat="45.28218" lon="6.2043">
        <ele>1327.2</ele>
        <time>2019-03-31T06:30:59Z</time>
      </trkpt>
      <trkpt lat="45.28218" lon="6.2043">
        <ele>1327.6</ele>
        <time>2019-03-31T06:31:24Z</time>
      </trkpt>
      <trkpt lat="45.28217" lon="6.20429">
        <ele>1327.6</ele>
        <time>2019-03-31T06:31:29Z</time>
      </trkpt>
      <trkpt lat="45.28216" lon="6.20429">
        <ele>1327.8</ele>
        <time>2019-03-31T06:31:34Z</time>
      </trkpt>
      <trkpt lat="45.28214" lon="6.20424">
        <ele>1327.2</ele>
        <time>2019-03-31T06:31:39Z</time>
      </trkpt>
      <trkpt lat="45.28213" lon="6.2042">
        <ele>1328</ele>
        <time>2019-03-31T06:31:44Z</time>
      </trkpt>
      <trkpt lat="45.28212" lon="6.20416">
        <ele>1326.8</ele>
        <time>2019-03-31T06:31:49Z</time>
      </trkpt>
      <trkpt lat="45.28208" lon="6.20415">
        <ele>1328.4</ele>
        <time>2019-03-31T06:31:54Z</time>
      </trkpt>
      <trkpt lat="45.28203" lon="6.20415">
        <ele>1331.4</ele>
        <time>2019-03-31T06:31:59Z</time>
      </trkpt>
      <trkpt lat="45.28201" lon="6.20413">
        <ele>1332.8</ele>
        <time>2019-03-31T06:32:04Z</time>
      </trkpt>
      <trkpt lat="45.28199" lon="6.20411">
        <ele>1334.8</ele>
        <time>2019-03-31T06:32:09Z</time>
      </trkpt>
      <trkpt lat="45.282" lon="6.20407">
        <ele>1336.6</ele>
        <time>2019-03-31T06:32:14Z</time>
      </trkpt>
      <trkpt lat="45.28197" lon="6.20404">
        <ele>1339.2</ele>
        <time>2019-03-31T06:32:19Z</time>
      </trkpt>
      <trkpt lat="45.28191" lon="6.20403">
        <ele>1340.6</ele>
        <time>2019-03-31T06:32:24Z</time>
      </trkpt>
      <trkpt lat="45.28188" lon="6.20401">
        <ele>1345.6</ele>
        <time>2019-03-31T06:32:29Z</time>
      </trkpt>
      <trkpt lat="45.28188" lon="6.20401">
        <ele>1342.6</ele>
        <time>2019-03-31T06:32:39Z</time>
      </trkpt>
      <trkpt lat="45.28185" lon="6.20398">
        <ele>1343</ele>
        <time>2019-03-31T06:32:49Z</time>
      </trkpt>
      <trkpt lat="45.28183" lon="6.20394">
        <ele>1342.4</ele>
        <time>2019-03-31T06:32:54Z</time>
      </trkpt>
      <trkpt lat="45.28183" lon="6.20393">
        <ele>1342.6</ele>
        <time>2019-03-31T06:32:59Z</time>
      </trkpt>
      <trkpt lat="45.28183" lon="6.20392">
        <ele>1345.4</ele>
        <time>2019-03-31T06:33:04Z</time>
      </trkpt>
      <trkpt lat="45.28182" lon="6.2039">
        <ele>1345</ele>
        <time>2019-03-31T06:33:09Z</time>
      </trkpt>
      <trkpt lat="45.28183" lon="6.20386">
        <ele>1346.6</ele>
        <time>2019-03-31T06:33:14Z</time>
      </trkpt>
      <trkpt lat="45.28185" lon="6.20381">
        <ele>1344</ele>
        <time>2019-03-31T06:33:19Z</time>
      </trkpt>
      <trkpt lat="45.28185" lon="6.20378">
        <ele>1343.8</ele>
        <time>2019-03-31T06:33:24Z</time>
      </trkpt>
      <trkpt lat="45.28183" lon="6.20374">
        <ele>1343.6</ele>
        <time>2019-03-31T06:33:29Z</time>
      </trkpt>
      <trkpt lat="45.2818" lon="6.20365">
        <ele>1341.6</ele>
        <time>2019-03-31T06:33:39Z</time>
      </trkpt>
      <trkpt lat="45.28176" lon="6.2036">
        <ele>1342.2</ele>
        <time>2019-03-31T06:33:49Z</time>
      </trkpt>
      <trkpt lat="45.28175" lon="6.20357">
        <ele>1341.6</ele>
        <time>2019-03-31T06:33:54Z</time>
      </trkpt>
      <trkpt lat="45.28176" lon="6.20352">
        <ele>1338.2</ele>
        <time>2019-03-31T06:33:59Z</time>
      </trkpt>
      <trkpt lat="45.28177" lon="6.20346">
        <ele>1337.6</ele>
        <time>2019-03-31T06:34:04Z</time>
      </trkpt>
      <trkpt lat="45.28176" lon="6.20342">
        <ele>1340</ele>
        <time>2019-03-31T06:34:09Z</time>
      </trkpt>
      <trkpt lat="45.28176" lon="6.20338">
        <ele>1341.2</ele>
        <time>2019-03-31T06:34:14Z</time>
      </trkpt>
      <trkpt lat="45.28172" lon="6.20333">
        <ele>1341.8</ele>
        <time>2019-03-31T06:34:19Z</time>
      </trkpt>
      <trkpt lat="45.28168" lon="6.20329">
        <ele>1340.2</ele>
        <time>2019-03-31T06:34:24Z</time>
      </trkpt>
      <trkpt lat="45.28163" lon="6.20326">
        <ele>1338</ele>
        <time>2019-03-31T06:34:29Z</time>
      </trkpt>
      <trkpt lat="45.2816" lon="6.20322">
        <ele>1339.2</ele>
        <time>2019-03-31T06:34:34Z</time>
      </trkpt>
      <trkpt lat="45.28159" lon="6.20318">
        <ele>1340.6</ele>
        <time>2019-03-31T06:34:39Z</time>
      </trkpt>
      <trkpt lat="45.28159" lon="6.20317">
        <ele>1340.4</ele>
        <time>2019-03-31T06:34:44Z</time>
      </trkpt>
      <trkpt lat="45.28159" lon="6.20315">
        <ele>1345.4</ele>
        <time>2019-03-31T06:34:49Z</time>
      </trkpt>
      <trkpt lat="45.28158" lon="6.20311">
        <ele>1344.4</ele>
        <time>2019-03-31T06:34:54Z</time>
      </trkpt>
      <trkpt lat="45.28157" lon="6.20307">
        <ele>1344</ele>
        <time>2019-03-31T06:34:59Z</time>
      </trkpt>
      <trkpt lat="45.28157" lon="6.20302">
        <ele>1344.6</ele>
        <time>2019-03-31T06:35:04Z</time>
      </trkpt>
      <trkpt lat="45.28157" lon="6.20299">
        <ele>1345.2</ele>
        <time>2019-03-31T06:35:09Z</time>
      </trkpt>
      <trkpt lat="45.28156" lon="6.20295">
        <ele>1343.2</ele>
        <time>2019-03-31T06:35:14Z</time>
      </trkpt>
      <trkpt lat="45.28157" lon="6.2029">
        <ele>1344.8</ele>
        <time>2019-03-31T06:35:19Z</time>
      </trkpt>
      <trkpt lat="45.28156" lon="6.2028">
        <ele>1346</ele>
        <time>2019-03-31T06:35:29Z</time>
      </trkpt>
      <trkpt lat="45.28153" lon="6.20277">
        <ele>1346</ele>
        <time>2019-03-31T06:35:34Z</time>
      </trkpt>
      <trkpt lat="45.28153" lon="6.20273">
        <ele>1345.6</ele>
        <time>2019-03-31T06:35:39Z</time>
      </trkpt>
      <trkpt lat="45.28152" lon="6.20269">
        <ele>1350.6</ele>
        <time>2019-03-31T06:35:44Z</time>
      </trkpt>
      <trkpt lat="45.28154" lon="6.20265">
        <ele>1352.6</ele>
        <time>2019-03-31T06:35:49Z</time>
      </trkpt>
      <trkpt lat="45.28153" lon="6.20262">
        <ele>1353.8</ele>
        <time>2019-03-31T06:35:54Z</time>
      </trkpt>
      <trkpt lat="45.28149" lon="6.20259">
        <ele>1352</ele>
        <time>2019-03-31T06:35:59Z</time>
      </trkpt>
      <trkpt lat="45.28144" lon="6.20257">
        <ele>1354</ele>
        <time>2019-03-31T06:36:04Z</time>
      </trkpt>
      <trkpt lat="45.28143" lon="6.20254">
        <ele>1350.6</ele>
        <time>2019-03-31T06:36:09Z</time>
      </trkpt>
      <trkpt lat="45.28139" lon="6.20253">
        <ele>1352.4</ele>
        <time>2019-03-31T06:36:14Z</time>
      </trkpt>
      <trkpt lat="45.28137" lon="6.20251">
        <ele>1352.6</ele>
        <time>2019-03-31T06:36:19Z</time>
      </trkpt>
      <trkpt lat="45.28135" lon="6.20249">
        <ele>1353.8</ele>
        <time>2019-03-31T06:36:24Z</time>
      </trkpt>
      <trkpt lat="45.28132" lon="6.20246">
        <ele>1356</ele>
        <time>2019-03-31T06:36:29Z</time>
      </trkpt>
      <trkpt lat="45.28131" lon="6.20243">
        <ele>1355.8</ele>
        <time>2019-03-31T06:36:34Z</time>
      </trkpt>
      <trkpt lat="45.28127" lon="6.20242">
        <ele>1357.4</ele>
        <time>2019-03-31T06:36:39Z</time>
      </trkpt>
      <trkpt lat="45.28124" lon="6.20241">
        <ele>1357.6</ele>
        <time>2019-03-31T06:36:44Z</time>
      </trkpt>
      <trkpt lat="45.28122" lon="6.20238">
        <ele>1356</ele>
        <time>2019-03-31T06:36:49Z</time>
      </trkpt>
      <trkpt lat="45.28121" lon="6.20235">
        <ele>1359.2</ele>
        <time>2019-03-31T06:36:54Z</time>
      </trkpt>
      <trkpt lat="45.28117" lon="6.20232">
        <ele>1358.8</ele>
        <time>2019-03-31T06:36:59Z</time>
      </trkpt>
      <trkpt lat="45.28115" lon="6.20226">
        <ele>1359.4</ele>
        <time>2019-03-31T06:37:04Z</time>
      </trkpt>
      <trkpt lat="45.28113" lon="6.20222">
        <ele>1357.8</ele>
        <time>2019-03-31T06:37:09Z</time>
      </trkpt>
      <trkpt lat="45.28113" lon="6.20219">
        <ele>1361.6</ele>
        <time>2019-03-31T06:37:14Z</time>
      </trkpt>
      <trkpt lat="45.28115" lon="6.20217">
        <ele>1362.2</ele>
        <time>2019-03-31T06:37:19Z</time>
      </trkpt>
      <trkpt lat="45.2812" lon="6.20214">
        <ele>1363</ele>
        <time>2019-03-31T06:37:24Z</time>
      </trkpt>
      <trkpt lat="45.28121" lon="6.20212">
        <ele>1364.6</ele>
        <time>2019-03-31T06:37:29Z</time>
      </trkpt>
      <trkpt lat="45.28124" lon="6.20209">
        <ele>1365.8</ele>
        <time>2019-03-31T06:37:34Z</time>
      </trkpt>
      <trkpt lat="45.28128" lon="6.20205">
        <ele>1366.4</ele>
        <time>2019-03-31T06:37:39Z</time>
      </trkpt>
      <trkpt lat="45.2813" lon="6.20202">
        <ele>1369.6</ele>
        <time>2019-03-31T06:37:44Z</time>
      </trkpt>
      <trkpt lat="45.2813" lon="6.20201">
        <ele>1370.4</ele>
        <time>2019-03-31T06:37:49Z</time>
      </trkpt>
      <trkpt lat="45.28126" lon="6.20198">
        <ele>1373.8</ele>
        <time>2019-03-31T06:37:54Z</time>
      </trkpt>
      <trkpt lat="45.28123" lon="6.20191">
        <ele>1374</ele>
        <time>2019-03-31T06:38:04Z</time>
      </trkpt>
      <trkpt lat="45.28122" lon="6.20186">
        <ele>1372.4</ele>
        <time>2019-03-31T06:38:09Z</time>
      </trkpt>
      <trkpt lat="45.2812" lon="6.20179">
        <ele>1374</ele>
        <time>2019-03-31T06:38:14Z</time>
      </trkpt>
      <trkpt lat="45.28116" lon="6.20171">
        <ele>1373.6</ele>
        <time>2019-03-31T06:38:19Z</time>
      </trkpt>
      <trkpt lat="45.28116" lon="6.20165">
        <ele>1375.6</ele>
        <time>2019-03-31T06:38:24Z</time>
      </trkpt>
      <trkpt lat="45.28121" lon="6.20158">
        <ele>1377.8</ele>
        <time>2019-03-31T06:38:29Z</time>
      </trkpt>
      <trkpt lat="45.28123" lon="6.20152">
        <ele>1378.6</ele>
        <time>2019-03-31T06:38:34Z</time>
      </trkpt>
      <trkpt lat="45.28123" lon="6.20148">
        <ele>1377.4</ele>
        <time>2019-03-31T06:38:39Z</time>
      </trkpt>
      <trkpt lat="45.28123" lon="6.20143">
        <ele>1379.4</ele>
        <time>2019-03-31T06:38:44Z</time>
      </trkpt>
      <trkpt lat="45.28123" lon="6.20138">
        <ele>1381.8</ele>
        <time>2019-03-31T06:38:49Z</time>
      </trkpt>
      <trkpt lat="45.28123" lon="6.20133">
        <ele>1382.2</ele>
        <time>2019-03-31T06:38:54Z</time>
      </trkpt>
      <trkpt lat="45.28122" lon="6.20128">
        <ele>1385.4</ele>
        <time>2019-03-31T06:38:59Z</time>
      </trkpt>
      <trkpt lat="45.28123" lon="6.20124">
        <ele>1385.8</ele>
        <time>2019-03-31T06:39:04Z</time>
      </trkpt>
      <trkpt lat="45.28121" lon="6.20121">
        <ele>1383.6</ele>
        <time>2019-03-31T06:39:09Z</time>
      </trkpt>
      <trkpt lat="45.28117" lon="6.20118">
        <ele>1385.8</ele>
        <time>2019-03-31T06:39:14Z</time>
      </trkpt>
      <trkpt lat="45.28115" lon="6.20115">
        <ele>1389.6</ele>
        <time>2019-03-31T06:39:19Z</time>
      </trkpt>
      <trkpt lat="45.28112" lon="6.20112">
        <ele>1386.6</ele>
        <time>2019-03-31T06:39:24Z</time>
      </trkpt>
      <trkpt lat="45.2811" lon="6.20108">
        <ele>1388.8</ele>
        <time>2019-03-31T06:39:29Z</time>
      </trkpt>
      <trkpt lat="45.2811" lon="6.20104">
        <ele>1387.4</ele>
        <time>2019-03-31T06:39:34Z</time>
      </trkpt>
      <trkpt lat="45.28107" lon="6.20098">
        <ele>1390</ele>
        <time>2019-03-31T06:39:44Z</time>
      </trkpt>
      <trkpt lat="45.28104" lon="6.20095">
        <ele>1388.4</ele>
        <time>2019-03-31T06:39:49Z</time>
      </trkpt>
      <trkpt lat="45.28101" lon="6.20093">
        <ele>1390.8</ele>
        <time>2019-03-31T06:39:54Z</time>
      </trkpt>
      <trkpt lat="45.28097" lon="6.20088">
        <ele>1389.6</ele>
        <time>2019-03-31T06:39:59Z</time>
      </trkpt>
      <trkpt lat="45.28092" lon="6.20082">
        <ele>1394.4</ele>
        <time>2019-03-31T06:40:04Z</time>
      </trkpt>
      <trkpt lat="45.2809" lon="6.20077">
        <ele>1387.8</ele>
        <time>2019-03-31T06:40:09Z</time>
      </trkpt>
      <trkpt lat="45.28091" lon="6.20069">
        <ele>1393.6</ele>
        <time>2019-03-31T06:40:14Z</time>
      </trkpt>
      <trkpt lat="45.28092" lon="6.20063">
        <ele>1391.6</ele>
        <time>2019-03-31T06:40:19Z</time>
      </trkpt>
      <trkpt lat="45.28092" lon="6.20058">
        <ele>1396.6</ele>
        <time>2019-03-31T06:40:24Z</time>
      </trkpt>
      <trkpt lat="45.28091" lon="6.20053">
        <ele>1397.4</ele>
        <time>2019-03-31T06:40:30Z</time>
      </trkpt>
      <trkpt lat="45.28089" lon="6.2005">
        <ele>1399</ele>
        <time>2019-03-31T06:40:35Z</time>
      </trkpt>
      <trkpt lat="45.28088" lon="6.20046">
        <ele>1403</ele>
        <time>2019-03-31T06:40:40Z</time>
      </trkpt>
      <trkpt lat="45.28086" lon="6.20042">
        <ele>1402.4</ele>
        <time>2019-03-31T06:40:45Z</time>
      </trkpt>
      <trkpt lat="45.28084" lon="6.20038">
        <ele>1404.8</ele>
        <time>2019-03-31T06:40:50Z</time>
      </trkpt>
      <trkpt lat="45.28084" lon="6.20032">
        <ele>1406.6</ele>
        <time>2019-03-31T06:40:55Z</time>
      </trkpt>
      <trkpt lat="45.28084" lon="6.20027">
        <ele>1406.2</ele>
        <time>2019-03-31T06:41:00Z</time>
      </trkpt>
      <trkpt lat="45.28084" lon="6.20022">
        <ele>1406.8</ele>
        <time>2019-03-31T06:41:05Z</time>
      </trkpt>
      <trkpt lat="45.28082" lon="6.20018">
        <ele>1409</ele>
        <time>2019-03-31T06:41:10Z</time>
      </trkpt>
      <trkpt lat="45.28078" lon="6.20014">
        <ele>1414</ele>
        <time>2019-03-31T06:41:15Z</time>
      </trkpt>
      <trkpt lat="45.28076" lon="6.20009">
        <ele>1417</ele>
        <time>2019-03-31T06:41:20Z</time>
      </trkpt>
      <trkpt lat="45.28073" lon="6.20005">
        <ele>1415.2</ele>
        <time>2019-03-31T06:41:25Z</time>
      </trkpt>
      <trkpt lat="45.28074" lon="6.2">
        <ele>1418.8</ele>
        <time>2019-03-31T06:41:30Z</time>
      </trkpt>
      <trkpt lat="45.28073" lon="6.19995">
        <ele>1420.8</ele>
        <time>2019-03-31T06:41:35Z</time>
      </trkpt>
      <trkpt lat="45.2807" lon="6.19992">
        <ele>1422.8</ele>
        <time>2019-03-31T06:41:40Z</time>
      </trkpt>
      <trkpt lat="45.28072" lon="6.19985">
        <ele>1423.4</ele>
        <time>2019-03-31T06:41:45Z</time>
      </trkpt>
      <trkpt lat="45.28074" lon="6.19979">
        <ele>1427.6</ele>
        <time>2019-03-31T06:41:50Z</time>
      </trkpt>
      <trkpt lat="45.28074" lon="6.19974">
        <ele>1429.2</ele>
        <time>2019-03-31T06:41:55Z</time>
      </trkpt>
      <trkpt lat="45.28076" lon="6.19969">
        <ele>1430.4</ele>
        <time>2019-03-31T06:42:00Z</time>
      </trkpt>
      <trkpt lat="45.28074" lon="6.19965">
        <ele>1428</ele>
        <time>2019-03-31T06:42:05Z</time>
      </trkpt>
      <trkpt lat="45.28074" lon="6.19961">
        <ele>1432</ele>
        <time>2019-03-31T06:42:10Z</time>
      </trkpt>
      <trkpt lat="45.28075" lon="6.19955">
        <ele>1434</ele>
        <time>2019-03-31T06:42:15Z</time>
      </trkpt>
      <trkpt lat="45.28074" lon="6.1995">
        <ele>1435.4</ele>
        <time>2019-03-31T06:42:20Z</time>
      </trkpt>
      <trkpt lat="45.28073" lon="6.19947">
        <ele>1438</ele>
        <time>2019-03-31T06:42:25Z</time>
      </trkpt>
      <trkpt lat="45.28073" lon="6.19942">
        <ele>1437.6</ele>
        <time>2019-03-31T06:42:30Z</time>
      </trkpt>
      <trkpt lat="45.28073" lon="6.19938">
        <ele>1438.2</ele>
        <time>2019-03-31T06:42:35Z</time>
      </trkpt>
      <trkpt lat="45.28069" lon="6.19935">
        <ele>1440.6</ele>
        <time>2019-03-31T06:42:40Z</time>
      </trkpt>
      <trkpt lat="45.28068" lon="6.19931">
        <ele>1440.2</ele>
        <time>2019-03-31T06:42:45Z</time>
      </trkpt>
      <trkpt lat="45.2807" lon="6.1992">
        <ele>1446.8</ele>
        <time>2019-03-31T06:42:55Z</time>
      </trkpt>
      <trkpt lat="45.28069" lon="6.19916">
        <ele>1448.8</ele>
        <time>2019-03-31T06:43:00Z</time>
      </trkpt>
      <trkpt lat="45.28063" lon="6.19913">
        <ele>1447</ele>
        <time>2019-03-31T06:43:05Z</time>
      </trkpt>
      <trkpt lat="45.28058" lon="6.1991">
        <ele>1449</ele>
        <time>2019-03-31T06:43:10Z</time>
      </trkpt>
      <trkpt lat="45.28054" lon="6.19906">
        <ele>1447.2</ele>
        <time>2019-03-31T06:43:15Z</time>
      </trkpt>
      <trkpt lat="45.28054" lon="6.199">
        <ele>1444.6</ele>
        <time>2019-03-31T06:43:20Z</time>
      </trkpt>
      <trkpt lat="45.28053" lon="6.19894">
        <ele>1444</ele>
        <time>2019-03-31T06:43:25Z</time>
      </trkpt>
      <trkpt lat="45.28049" lon="6.19889">
        <ele>1445.4</ele>
        <time>2019-03-31T06:43:30Z</time>
      </trkpt>
      <trkpt lat="45.28046" lon="6.19884">
        <ele>1443</ele>
        <time>2019-03-31T06:43:35Z</time>
      </trkpt>
      <trkpt lat="45.28044" lon="6.19879">
        <ele>1443.6</ele>
        <time>2019-03-31T06:43:40Z</time>
      </trkpt>
      <trkpt lat="45.28042" lon="6.19875">
        <ele>1440.2</ele>
        <time>2019-03-31T06:43:45Z</time>
      </trkpt>
      <trkpt lat="45.28041" lon="6.19869">
        <ele>1440.6</ele>
        <time>2019-03-31T06:43:50Z</time>
      </trkpt>
      <trkpt lat="45.28038" lon="6.19864">
        <ele>1441.6</ele>
        <time>2019-03-31T06:43:55Z</time>
      </trkpt>
      <trkpt lat="45.28037" lon="6.19859">
        <ele>1442.8</ele>
        <time>2019-03-31T06:44:00Z</time>
      </trkpt>
      <trkpt lat="45.28035" lon="6.19855">
        <ele>1441.2</ele>
        <time>2019-03-31T06:44:05Z</time>
      </trkpt>
      <trkpt lat="45.28033" lon="6.1985">
        <ele>1441.6</ele>
        <time>2019-03-31T06:44:10Z</time>
      </trkpt>
      <trkpt lat="45.2803" lon="6.19847">
        <ele>1441.2</ele>
        <time>2019-03-31T06:44:15Z</time>
      </trkpt>
      <trkpt lat="45.28026" lon="6.19844">
        <ele>1439.6</ele>
        <time>2019-03-31T06:44:20Z</time>
      </trkpt>
      <trkpt lat="45.28026" lon="6.19838">
        <ele>1443.2</ele>
        <time>2019-03-31T06:44:25Z</time>
      </trkpt>
      <trkpt lat="45.28022" lon="6.19833">
        <ele>1443.6</ele>
        <time>2019-03-31T06:44:30Z</time>
      </trkpt>
      <trkpt lat="45.2802" lon="6.19828">
        <ele>1440.6</ele>
        <time>2019-03-31T06:44:35Z</time>
      </trkpt>
      <trkpt lat="45.28022" lon="6.19819">
        <ele>1439.2</ele>
        <time>2019-03-31T06:44:40Z</time>
      </trkpt>
      <trkpt lat="45.28023" lon="6.19814">
        <ele>1439.8</ele>
        <time>2019-03-31T06:44:45Z</time>
      </trkpt>
      <trkpt lat="45.28021" lon="6.19809">
        <ele>1439.8</ele>
        <time>2019-03-31T06:44:50Z</time>
      </trkpt>
      <trkpt lat="45.2802" lon="6.19804">
        <ele>1438.2</ele>
        <time>2019-03-31T06:44:55Z</time>
      </trkpt>
      <trkpt lat="45.28019" lon="6.19799">
        <ele>1440.4</ele>
        <time>2019-03-31T06:45:00Z</time>
      </trkpt>
      <trkpt lat="45.28019" lon="6.19793">
        <ele>1430.8</ele>
        <time>2019-03-31T06:45:21Z</time>
      </trkpt>
      <trkpt lat="45.28019" lon="6.19792">
        <ele>1426</ele>
        <time>2019-03-31T06:45:31Z</time>
      </trkpt>
      <trkpt lat="45.28017" lon="6.19789">
        <ele>1423.6</ele>
        <time>2019-03-31T06:45:36Z</time>
      </trkpt>
      <trkpt lat="45.28016" lon="6.19788">
        <ele>1420</ele>
        <time>2019-03-31T06:45:41Z</time>
      </trkpt>
      <trkpt lat="45.28016" lon="6.19788">
        <ele>1417.4</ele>
        <time>2019-03-31T06:46:11Z</time>
      </trkpt>
      <trkpt lat="45.28016" lon="6.19789">
        <ele>1417.2</ele>
        <time>2019-03-31T06:46:17Z</time>
      </trkpt>
      <trkpt lat="45.28013" lon="6.19789">
        <ele>1413.4</ele>
        <time>2019-03-31T06:46:22Z</time>
      </trkpt>
      <trkpt lat="45.27999" lon="6.19787">
        <ele>1412.6</ele>
        <time>2019-03-31T06:46:27Z</time>
      </trkpt>
      <trkpt lat="45.27993" lon="6.19785">
        <ele>1406.2</ele>
        <time>2019-03-31T06:46:32Z</time>
      </trkpt>
      <trkpt lat="45.27984" lon="6.19782">
        <ele>1402.6</ele>
        <time>2019-03-31T06:46:37Z</time>
      </trkpt>
      <trkpt lat="45.27978" lon="6.19778">
        <ele>1398</ele>
        <time>2019-03-31T06:46:42Z</time>
      </trkpt>
      <trkpt lat="45.27975" lon="6.19774">
        <ele>1392.4</ele>
        <time>2019-03-31T06:46:47Z</time>
      </trkpt>
      <trkpt lat="45.27974" lon="6.19769">
        <ele>1386</ele>
        <time>2019-03-31T06:46:52Z</time>
      </trkpt>
      <trkpt lat="45.27973" lon="6.19764">
        <ele>1385.6</ele>
        <time>2019-03-31T06:46:57Z</time>
      </trkpt>
      <trkpt lat="45.27972" lon="6.19758">
        <ele>1384.6</ele>
        <time>2019-03-31T06:47:02Z</time>
      </trkpt>
      <trkpt lat="45.27971" lon="6.19754">
        <ele>1379.8</ele>
        <time>2019-03-31T06:47:07Z</time>
      </trkpt>
      <trkpt lat="45.27969" lon="6.19749">
        <ele>1382</ele>
        <time>2019-03-31T06:47:12Z</time>
      </trkpt>
      <trkpt lat="45.27969" lon="6.19744">
        <ele>1380.6</ele>
        <time>2019-03-31T06:47:17Z</time>
      </trkpt>
      <trkpt lat="45.27969" lon="6.1974">
        <ele>1380.8</ele>
        <time>2019-03-31T06:47:22Z</time>
      </trkpt>
      <trkpt lat="45.27969" lon="6.19734">
        <ele>1379.2</ele>
        <time>2019-03-31T06:47:27Z</time>
      </trkpt>
      <trkpt lat="45.27967" lon="6.19729">
        <ele>1381.2</ele>
        <time>2019-03-31T06:47:32Z</time>
      </trkpt>
      <trkpt lat="45.27966" lon="6.19725">
        <ele>1384.4</ele>
        <time>2019-03-31T06:47:37Z</time>
      </trkpt>
      <trkpt lat="45.27963" lon="6.19722">
        <ele>1386.4</ele>
        <time>2019-03-31T06:47:42Z</time>
      </trkpt>
      <trkpt lat="45.27962" lon="6.19717">
        <ele>1384</ele>
        <time>2019-03-31T06:47:47Z</time>
      </trkpt>
      <trkpt lat="45.27961" lon="6.19712">
        <ele>1383.8</ele>
        <time>2019-03-31T06:47:52Z</time>
      </trkpt>
      <trkpt lat="45.2796" lon="6.19708">
        <ele>1382.4</ele>
        <time>2019-03-31T06:47:57Z</time>
      </trkpt>
      <trkpt lat="45.27959" lon="6.19704">
        <ele>1385.2</ele>
        <time>2019-03-31T06:48:02Z</time>
      </trkpt>
      <trkpt lat="45.27958" lon="6.19698">
        <ele>1383.4</ele>
        <time>2019-03-31T06:48:07Z</time>
      </trkpt>
      <trkpt lat="45.27958" lon="6.19693">
        <ele>1386.2</ele>
        <time>2019-03-31T06:48:12Z</time>
      </trkpt>
      <trkpt lat="45.27956" lon="6.19688">
        <ele>1387.4</ele>
        <time>2019-03-31T06:48:17Z</time>
      </trkpt>
      <trkpt lat="45.27955" lon="6.19684">
        <ele>1387</ele>
        <time>2019-03-31T06:48:22Z</time>
      </trkpt>
      <trkpt lat="45.27954" lon="6.19679">
        <ele>1387</ele>
        <time>2019-03-31T06:48:27Z</time>
      </trkpt>
      <trkpt lat="45.27954" lon="6.19675">
        <ele>1386.6</ele>
        <time>2019-03-31T06:48:32Z</time>
      </trkpt>
      <trkpt lat="45.27954" lon="6.19671">
        <ele>1388.8</ele>
        <time>2019-03-31T06:48:37Z</time>
      </trkpt>
      <trkpt lat="45.27954" lon="6.19668">
        <ele>1387.8</ele>
        <time>2019-03-31T06:48:42Z</time>
      </trkpt>
      <trkpt lat="45.27952" lon="6.19666">
        <ele>1388.4</ele>
        <time>2019-03-31T06:48:47Z</time>
      </trkpt>
      <trkpt lat="45.27953" lon="6.19662">
        <ele>1389</ele>
        <time>2019-03-31T06:48:52Z</time>
      </trkpt>
      <trkpt lat="45.27954" lon="6.19657">
        <ele>1392.2</ele>
        <time>2019-03-31T06:48:57Z</time>
      </trkpt>
      <trkpt lat="45.27955" lon="6.19653">
        <ele>1389.6</ele>
        <time>2019-03-31T06:49:02Z</time>
      </trkpt>
      <trkpt lat="45.27957" lon="6.19653">
        <ele>1391.8</ele>
        <time>2019-03-31T06:49:07Z</time>
      </trkpt>
      <trkpt lat="45.27958" lon="6.19654">
        <ele>1393.4</ele>
        <time>2019-03-31T06:49:12Z</time>
      </trkpt>
      <trkpt lat="45.27959" lon="6.19654">
        <ele>1394.2</ele>
        <time>2019-03-31T06:49:17Z</time>
      </trkpt>
      <trkpt lat="45.2796" lon="6.19654">
        <ele>1393</ele>
        <time>2019-03-31T06:49:22Z</time>
      </trkpt>
      <trkpt lat="45.27961" lon="6.19655">
        <ele>1392.6</ele>
        <time>2019-03-31T06:49:27Z</time>
      </trkpt>
      <trkpt lat="45.27961" lon="6.19655">
        <ele>1392.6</ele>
        <time>2019-03-31T06:49:32Z</time>
      </trkpt>
      <trkpt lat="45.27962" lon="6.19655">
        <ele>1392.6</ele>
        <time>2019-03-31T06:49:37Z</time>
      </trkpt>
      <trkpt lat="45.27963" lon="6.19654">
        <ele>1391.4</ele>
        <time>2019-03-31T06:49:42Z</time>
      </trkpt>
      <trkpt lat="45.27963" lon="6.19654">
        <ele>1392.4</ele>
        <time>2019-03-31T06:49:47Z</time>
      </trkpt>
      <trkpt lat="45.27962" lon="6.19651">
        <ele>1391.2</ele>
        <time>2019-03-31T06:49:52Z</time>
      </trkpt>
      <trkpt lat="45.27961" lon="6.19646">
        <ele>1391</ele>
        <time>2019-03-31T06:49:57Z</time>
      </trkpt>
      <trkpt lat="45.2796" lon="6.19642">
        <ele>1396</ele>
        <time>2019-03-31T06:50:02Z</time>
      </trkpt>
      <trkpt lat="45.2796" lon="6.19639">
        <ele>1397.4</ele>
        <time>2019-03-31T06:50:07Z</time>
      </trkpt>
      <trkpt lat="45.2796" lon="6.19634">
        <ele>1396.8</ele>
        <time>2019-03-31T06:50:12Z</time>
      </trkpt>
      <trkpt lat="45.2796" lon="6.19628">
        <ele>1396.4</ele>
        <time>2019-03-31T06:50:17Z</time>
      </trkpt>
      <trkpt lat="45.27958" lon="6.19625">
        <ele>1400.6</ele>
        <time>2019-03-31T06:50:22Z</time>
      </trkpt>
      <trkpt lat="45.27956" lon="6.19622">
        <ele>1399.2</ele>
        <time>2019-03-31T06:50:27Z</time>
      </trkpt>
      <trkpt lat="45.27954" lon="6.19619">
        <ele>1401.4</ele>
        <time>2019-03-31T06:50:32Z</time>
      </trkpt>
      <trkpt lat="45.27952" lon="6.19616">
        <ele>1401.6</ele>
        <time>2019-03-31T06:50:37Z</time>
      </trkpt>
      <trkpt lat="45.2795" lon="6.19613">
        <ele>1401.4</ele>
        <time>2019-03-31T06:50:42Z</time>
      </trkpt>
      <trkpt lat="45.27949" lon="6.19609">
        <ele>1401</ele>
        <time>2019-03-31T06:50:47Z</time>
      </trkpt>
      <trkpt lat="45.27948" lon="6.19604">
        <ele>1402.6</ele>
        <time>2019-03-31T06:50:52Z</time>
      </trkpt>
      <trkpt lat="45.27947" lon="6.196">
        <ele>1404.2</ele>
        <time>2019-03-31T06:50:57Z</time>
      </trkpt>
      <trkpt lat="45.27946" lon="6.19596">
        <ele>1405.2</ele>
        <time>2019-03-31T06:51:02Z</time>
      </trkpt>
      <trkpt lat="45.27946" lon="6.19593">
        <ele>1403</ele>
        <time>2019-03-31T06:51:07Z</time>
      </trkpt>
      <trkpt lat="45.27945" lon="6.19588">
        <ele>1403.4</ele>
        <time>2019-03-31T06:51:12Z</time>
      </trkpt>
      <trkpt lat="45.27945" lon="6.19584">
        <ele>1401.8</ele>
        <time>2019-03-31T06:51:17Z</time>
      </trkpt>
      <trkpt lat="45.27943" lon="6.1958">
        <ele>1405.4</ele>
        <time>2019-03-31T06:51:22Z</time>
      </trkpt>
      <trkpt lat="45.27942" lon="6.19576">
        <ele>1404.4</ele>
        <time>2019-03-31T06:51:27Z</time>
      </trkpt>
      <trkpt lat="45.27941" lon="6.19571">
        <ele>1407.6</ele>
        <time>2019-03-31T06:51:32Z</time>
      </trkpt>
      <trkpt lat="45.27939" lon="6.19567">
        <ele>1407.4</ele>
        <time>2019-03-31T06:51:37Z</time>
      </trkpt>
      <trkpt lat="45.27939" lon="6.19564">
        <ele>1406.2</ele>
        <time>2019-03-31T06:51:42Z</time>
      </trkpt>
      <trkpt lat="45.27939" lon="6.1956">
        <ele>1406.8</ele>
        <time>2019-03-31T06:51:47Z</time>
      </trkpt>
      <trkpt lat="45.2794" lon="6.19556">
        <ele>1408.4</ele>
        <time>2019-03-31T06:51:52Z</time>
      </trkpt>
      <trkpt lat="45.27942" lon="6.19553">
        <ele>1406.6</ele>
        <time>2019-03-31T06:51:57Z</time>
      </trkpt>
      <trkpt lat="45.27944" lon="6.19551">
        <ele>1410</ele>
        <time>2019-03-31T06:52:02Z</time>
      </trkpt>
      <trkpt lat="45.27947" lon="6.19551">
        <ele>1407.8</ele>
        <time>2019-03-31T06:52:07Z</time>
      </trkpt>
      <trkpt lat="45.27949" lon="6.1955">
        <ele>1412.6</ele>
        <time>2019-03-31T06:52:12Z</time>
      </trkpt>
      <trkpt lat="45.27951" lon="6.19546">
        <ele>1412</ele>
        <time>2019-03-31T06:52:17Z</time>
      </trkpt>
      <trkpt lat="45.27952" lon="6.19542">
        <ele>1414.4</ele>
        <time>2019-03-31T06:52:22Z</time>
      </trkpt>
      <trkpt lat="45.27951" lon="6.19538">
        <ele>1412.8</ele>
        <time>2019-03-31T06:52:27Z</time>
      </trkpt>
      <trkpt lat="45.27952" lon="6.19535">
        <ele>1417.6</ele>
        <time>2019-03-31T06:52:32Z</time>
      </trkpt>
      <trkpt lat="45.27953" lon="6.19532">
        <ele>1416.8</ele>
        <time>2019-03-31T06:52:37Z</time>
      </trkpt>
      <trkpt lat="45.27952" lon="6.19528">
        <ele>1419.4</ele>
        <time>2019-03-31T06:52:42Z</time>
      </trkpt>
      <trkpt lat="45.27951" lon="6.19524">
        <ele>1421.6</ele>
        <time>2019-03-31T06:52:47Z</time>
      </trkpt>
      <trkpt lat="45.27951" lon="6.19519">
        <ele>1420.8</ele>
        <time>2019-03-31T06:52:52Z</time>
      </trkpt>
      <trkpt lat="45.27951" lon="6.19518">
        <ele>1416</ele>
        <time>2019-03-31T06:58:28Z</time>
      </trkpt>
      <trkpt lat="45.27949" lon="6.19519">
        <ele>1414.8</ele>
        <time>2019-03-31T06:59:08Z</time>
      </trkpt>
      <trkpt lat="45.27949" lon="6.19519">
        <ele>1413.6</ele>
        <time>2019-03-31T07:02:23Z</time>
      </trkpt>
      <trkpt lat="45.27947" lon="6.19519">
        <ele>1412.6</ele>
        <time>2019-03-31T07:02:28Z</time>
      </trkpt>
      <trkpt lat="45.27946" lon="6.19517">
        <ele>1417.6</ele>
        <time>2019-03-31T07:02:33Z</time>
      </trkpt>
      <trkpt lat="45.27945" lon="6.19514">
        <ele>1415</ele>
        <time>2019-03-31T07:02:38Z</time>
      </trkpt>
      <trkpt lat="45.27945" lon="6.19513">
        <ele>1419</ele>
        <time>2019-03-31T07:04:18Z</time>
      </trkpt>
      <trkpt lat="45.27946" lon="6.19513">
        <ele>1419</ele>
        <time>2019-03-31T07:04:23Z</time>
      </trkpt>
      <trkpt lat="45.27947" lon="6.19511">
        <ele>1419.8</ele>
        <time>2019-03-31T07:04:28Z</time>
      </trkpt>
      <trkpt lat="45.27948" lon="6.19507">
        <ele>1420.2</ele>
        <time>2019-03-31T07:04:33Z</time>
      </trkpt>
      <trkpt lat="45.27947" lon="6.19501">
        <ele>1423</ele>
        <time>2019-03-31T07:04:38Z</time>
      </trkpt>
      <trkpt lat="45.27945" lon="6.19496">
        <ele>1423</ele>
        <time>2019-03-31T07:04:43Z</time>
      </trkpt>
      <trkpt lat="45.27943" lon="6.19491">
        <ele>1421.6</ele>
        <time>2019-03-31T07:04:48Z</time>
      </trkpt>
      <trkpt lat="45.27942" lon="6.19487">
        <ele>1424.2</ele>
        <time>2019-03-31T07:04:53Z</time>
      </trkpt>
      <trkpt lat="45.2794" lon="6.19483">
        <ele>1423</ele>
        <time>2019-03-31T07:04:58Z</time>
      </trkpt>
      <trkpt lat="45.27941" lon="6.1948">
        <ele>1426</ele>
        <time>2019-03-31T07:05:03Z</time>
      </trkpt>
      <trkpt lat="45.27945" lon="6.19478">
        <ele>1428.4</ele>
        <time>2019-03-31T07:05:08Z</time>
      </trkpt>
      <trkpt lat="45.27947" lon="6.19475">
        <ele>1427.2</ele>
        <time>2019-03-31T07:05:13Z</time>
      </trkpt>
      <trkpt lat="45.27949" lon="6.19471">
        <ele>1432.6</ele>
        <time>2019-03-31T07:05:18Z</time>
      </trkpt>
      <trkpt lat="45.27952" lon="6.1947">
        <ele>1428.8</ele>
        <time>2019-03-31T07:05:23Z</time>
      </trkpt>
      <trkpt lat="45.27953" lon="6.19469">
        <ele>1431.6</ele>
        <time>2019-03-31T07:05:28Z</time>
      </trkpt>
      <trkpt lat="45.27954" lon="6.19468">
        <ele>1430.6</ele>
        <time>2019-03-31T07:05:33Z</time>
      </trkpt>
      <trkpt lat="45.27955" lon="6.19465">
        <ele>1431</ele>
        <time>2019-03-31T07:05:38Z</time>
      </trkpt>
      <trkpt lat="45.27955" lon="6.19461">
        <ele>1432.8</ele>
        <time>2019-03-31T07:05:43Z</time>
      </trkpt>
      <trkpt lat="45.27956" lon="6.19458">
        <ele>1435.2</ele>
        <time>2019-03-31T07:05:48Z</time>
      </trkpt>
      <trkpt lat="45.27957" lon="6.19454">
        <ele>1435.4</ele>
        <time>2019-03-31T07:05:53Z</time>
      </trkpt>
      <trkpt lat="45.27958" lon="6.1945">
        <ele>1437</ele>
        <time>2019-03-31T07:05:58Z</time>
      </trkpt>
      <trkpt lat="45.27956" lon="6.19446">
        <ele>1436.4</ele>
        <time>2019-03-31T07:06:03Z</time>
      </trkpt>
      <trkpt lat="45.27955" lon="6.19443">
        <ele>1435.6</ele>
        <time>2019-03-31T07:06:08Z</time>
      </trkpt>
      <trkpt lat="45.27953" lon="6.19441">
        <ele>1438</ele>
        <time>2019-03-31T07:06:13Z</time>
      </trkpt>
      <trkpt lat="45.27952" lon="6.19438">
        <ele>1437.4</ele>
        <time>2019-03-31T07:06:18Z</time>
      </trkpt>
      <trkpt lat="45.27949" lon="6.19434">
        <ele>1434.6</ele>
        <time>2019-03-31T07:06:23Z</time>
      </trkpt>
      <trkpt lat="45.27946" lon="6.1943">
        <ele>1438.8</ele>
        <time>2019-03-31T07:06:28Z</time>
      </trkpt>
      <trkpt lat="45.27943" lon="6.19426">
        <ele>1438.2</ele>
        <time>2019-03-31T07:06:33Z</time>
      </trkpt>
      <trkpt lat="45.2794" lon="6.19421">
        <ele>1438.6</ele>
        <time>2019-03-31T07:06:38Z</time>
      </trkpt>
      <trkpt lat="45.27938" lon="6.19416">
        <ele>1441.6</ele>
        <time>2019-03-31T07:06:43Z</time>
      </trkpt>
      <trkpt lat="45.27935" lon="6.19412">
        <ele>1444</ele>
        <time>2019-03-31T07:06:48Z</time>
      </trkpt>
      <trkpt lat="45.27932" lon="6.19409">
        <ele>1447.6</ele>
        <time>2019-03-31T07:06:53Z</time>
      </trkpt>
      <trkpt lat="45.27929" lon="6.19405">
        <ele>1443</ele>
        <time>2019-03-31T07:06:58Z</time>
      </trkpt>
      <trkpt lat="45.27926" lon="6.19401">
        <ele>1441.8</ele>
        <time>2019-03-31T07:07:03Z</time>
      </trkpt>
      <trkpt lat="45.27924" lon="6.19397">
        <ele>1444.8</ele>
        <time>2019-03-31T07:07:08Z</time>
      </trkpt>
      <trkpt lat="45.27922" lon="6.19393">
        <ele>1447</ele>
        <time>2019-03-31T07:07:13Z</time>
      </trkpt>
      <trkpt lat="45.2792" lon="6.1939">
        <ele>1447</ele>
        <time>2019-03-31T07:07:18Z</time>
      </trkpt>
      <trkpt lat="45.27918" lon="6.19385">
        <ele>1448</ele>
        <time>2019-03-31T07:07:23Z</time>
      </trkpt>
      <trkpt lat="45.27917" lon="6.19381">
        <ele>1448.8</ele>
        <time>2019-03-31T07:07:28Z</time>
      </trkpt>
      <trkpt lat="45.27916" lon="6.19377">
        <ele>1450.2</ele>
        <time>2019-03-31T07:07:33Z</time>
      </trkpt>
      <trkpt lat="45.27914" lon="6.19374">
        <ele>1447.8</ele>
        <time>2019-03-31T07:07:38Z</time>
      </trkpt>
      <trkpt lat="45.27912" lon="6.1937">
        <ele>1448.4</ele>
        <time>2019-03-31T07:07:43Z</time>
      </trkpt>
      <trkpt lat="45.27911" lon="6.19365">
        <ele>1452</ele>
        <time>2019-03-31T07:07:48Z</time>
      </trkpt>
      <trkpt lat="45.27911" lon="6.19361">
        <ele>1450.6</ele>
        <time>2019-03-31T07:07:53Z</time>
      </trkpt>
      <trkpt lat="45.2791" lon="6.19357">
        <ele>1450.2</ele>
        <time>2019-03-31T07:07:58Z</time>
      </trkpt>
      <trkpt lat="45.27909" lon="6.19352">
        <ele>1452</ele>
        <time>2019-03-31T07:08:03Z</time>
      </trkpt>
      <trkpt lat="45.27908" lon="6.19348">
        <ele>1450.8</ele>
        <time>2019-03-31T07:08:08Z</time>
      </trkpt>
      <trkpt lat="45.27907" lon="6.19344">
        <ele>1451.2</ele>
        <time>2019-03-31T07:08:13Z</time>
      </trkpt>
      <trkpt lat="45.27906" lon="6.19339">
        <ele>1454.8</ele>
        <time>2019-03-31T07:08:18Z</time>
      </trkpt>
      <trkpt lat="45.27906" lon="6.19334">
        <ele>1456.4</ele>
        <time>2019-03-31T07:08:23Z</time>
      </trkpt>
      <trkpt lat="45.27905" lon="6.1933">
        <ele>1455.6</ele>
        <time>2019-03-31T07:08:28Z</time>
      </trkpt>
      <trkpt lat="45.27904" lon="6.19326">
        <ele>1454</ele>
        <time>2019-03-31T07:08:33Z</time>
      </trkpt>
      <trkpt lat="45.27904" lon="6.19321">
        <ele>1454.2</ele>
        <time>2019-03-31T07:08:38Z</time>
      </trkpt>
      <trkpt lat="45.27903" lon="6.19317">
        <ele>1459</ele>
        <time>2019-03-31T07:08:43Z</time>
      </trkpt>
      <trkpt lat="45.27902" lon="6.19313">
        <ele>1457.4</ele>
        <time>2019-03-31T07:08:48Z</time>
      </trkpt>
      <trkpt lat="45.27901" lon="6.19308">
        <ele>1457.4</ele>
        <time>2019-03-31T07:08:53Z</time>
      </trkpt>
      <trkpt lat="45.279" lon="6.19304">
        <ele>1459.4</ele>
        <time>2019-03-31T07:08:58Z</time>
      </trkpt>
      <trkpt lat="45.279" lon="6.193">
        <ele>1457.6</ele>
        <time>2019-03-31T07:09:03Z</time>
      </trkpt>
      <trkpt lat="45.27899" lon="6.19295">
        <ele>1463.4</ele>
        <time>2019-03-31T07:09:08Z</time>
      </trkpt>
      <trkpt lat="45.27899" lon="6.19291">
        <ele>1460.2</ele>
        <time>2019-03-31T07:09:13Z</time>
      </trkpt>
      <trkpt lat="45.27899" lon="6.19286">
        <ele>1460.2</ele>
        <time>2019-03-31T07:09:18Z</time>
      </trkpt>
      <trkpt lat="45.27898" lon="6.19281">
        <ele>1463.8</ele>
        <time>2019-03-31T07:09:23Z</time>
      </trkpt>
      <trkpt lat="45.27897" lon="6.19276">
        <ele>1462.6</ele>
        <time>2019-03-31T07:09:28Z</time>
      </trkpt>
      <trkpt lat="45.27896" lon="6.19271">
        <ele>1464.2</ele>
        <time>2019-03-31T07:09:33Z</time>
      </trkpt>
      <trkpt lat="45.27895" lon="6.19266">
        <ele>1462.2</ele>
        <time>2019-03-31T07:09:38Z</time>
      </trkpt>
      <trkpt lat="45.27894" lon="6.19261">
        <ele>1462.4</ele>
        <time>2019-03-31T07:09:44Z</time>
      </trkpt>
      <trkpt lat="45.27893" lon="6.19256">
        <ele>1465</ele>
        <time>2019-03-31T07:09:49Z</time>
      </trkpt>
      <trkpt lat="45.27893" lon="6.19252">
        <ele>1462.4</ele>
        <time>2019-03-31T07:09:54Z</time>
      </trkpt>
      <trkpt lat="45.27891" lon="6.19247">
        <ele>1466.4</ele>
        <time>2019-03-31T07:09:59Z</time>
      </trkpt>
      <trkpt lat="45.2789" lon="6.19242">
        <ele>1468.4</ele>
        <time>2019-03-31T07:10:04Z</time>
      </trkpt>
      <trkpt lat="45.27888" lon="6.19238">
        <ele>1465.8</ele>
        <time>2019-03-31T07:10:09Z</time>
      </trkpt>
      <trkpt lat="45.27886" lon="6.19232">
        <ele>1469.4</ele>
        <time>2019-03-31T07:10:14Z</time>
      </trkpt>
      <trkpt lat="45.27885" lon="6.19227">
        <ele>1466.6</ele>
        <time>2019-03-31T07:10:19Z</time>
      </trkpt>
      <trkpt lat="45.27883" lon="6.19221">
        <ele>1464.8</ele>
        <time>2019-03-31T07:10:24Z</time>
      </trkpt>
      <trkpt lat="45.27882" lon="6.19216">
        <ele>1467.4</ele>
        <time>2019-03-31T07:10:29Z</time>
      </trkpt>
      <trkpt lat="45.2788" lon="6.19211">
        <ele>1469.2</ele>
        <time>2019-03-31T07:10:34Z</time>
      </trkpt>
      <trkpt lat="45.27879" lon="6.19206">
        <ele>1470.2</ele>
        <time>2019-03-31T07:10:39Z</time>
      </trkpt>
      <trkpt lat="45.27879" lon="6.19201">
        <ele>1469.4</ele>
        <time>2019-03-31T07:10:44Z</time>
      </trkpt>
      <trkpt lat="45.27879" lon="6.19196">
        <ele>1471.2</ele>
        <time>2019-03-31T07:10:49Z</time>
      </trkpt>
      <trkpt lat="45.2788" lon="6.1919">
        <ele>1469.4</ele>
        <time>2019-03-31T07:10:54Z</time>
      </trkpt>
      <trkpt lat="45.27881" lon="6.19185">
        <ele>1472.8</ele>
        <time>2019-03-31T07:10:59Z</time>
      </trkpt>
      <trkpt lat="45.27882" lon="6.19181">
        <ele>1470.6</ele>
        <time>2019-03-31T07:11:04Z</time>
      </trkpt>
      <trkpt lat="45.27883" lon="6.19175">
        <ele>1471.4</ele>
        <time>2019-03-31T07:11:09Z</time>
      </trkpt>
      <trkpt lat="45.27882" lon="6.19171">
        <ele>1474.8</ele>
        <time>2019-03-31T07:11:14Z</time>
      </trkpt>
      <trkpt lat="45.27881" lon="6.19167">
        <ele>1473.4</ele>
        <time>2019-03-31T07:11:19Z</time>
      </trkpt>
      <trkpt lat="45.27882" lon="6.19163">
        <ele>1471.8</ele>
        <time>2019-03-31T07:11:24Z</time>
      </trkpt>
      <trkpt lat="45.27882" lon="6.1916">
        <ele>1472.6</ele>
        <time>2019-03-31T07:11:29Z</time>
      </trkpt>
      <trkpt lat="45.2788" lon="6.19159">
        <ele>1476.6</ele>
        <time>2019-03-31T07:11:34Z</time>
      </trkpt>
      <trkpt lat="45.27878" lon="6.19156">
        <ele>1476</ele>
        <time>2019-03-31T07:11:39Z</time>
      </trkpt>
      <trkpt lat="45.27876" lon="6.19155">
        <ele>1476.8</ele>
        <time>2019-03-31T07:11:44Z</time>
      </trkpt>
      <trkpt lat="45.27873" lon="6.19152">
        <ele>1475.4</ele>
        <time>2019-03-31T07:11:49Z</time>
      </trkpt>
      <trkpt lat="45.27871" lon="6.19148">
        <ele>1478.6</ele>
        <time>2019-03-31T07:11:54Z</time>
      </trkpt>
      <trkpt lat="45.2787" lon="6.19143">
        <ele>1477.6</ele>
        <time>2019-03-31T07:11:59Z</time>
      </trkpt>
      <trkpt lat="45.27869" lon="6.19139">
        <ele>1479.2</ele>
        <time>2019-03-31T07:12:04Z</time>
      </trkpt>
      <trkpt lat="45.27868" lon="6.19134">
        <ele>1477.8</ele>
        <time>2019-03-31T07:12:09Z</time>
      </trkpt>
      <trkpt lat="45.27867" lon="6.19129">
        <ele>1480.2</ele>
        <time>2019-03-31T07:12:14Z</time>
      </trkpt>
      <trkpt lat="45.27865" lon="6.19124">
        <ele>1479.8</ele>
        <time>2019-03-31T07:12:19Z</time>
      </trkpt>
      <trkpt lat="45.27864" lon="6.19119">
        <ele>1481.2</ele>
        <time>2019-03-31T07:12:24Z</time>
      </trkpt>
      <trkpt lat="45.27863" lon="6.19114">
        <ele>1481</ele>
        <time>2019-03-31T07:12:29Z</time>
      </trkpt>
      <trkpt lat="45.27861" lon="6.19109">
        <ele>1479.8</ele>
        <time>2019-03-31T07:12:34Z</time>
      </trkpt>
      <trkpt lat="45.27861" lon="6.19105">
        <ele>1483.2</ele>
        <time>2019-03-31T07:12:39Z</time>
      </trkpt>
      <trkpt lat="45.2786" lon="6.191">
        <ele>1482.4</ele>
        <time>2019-03-31T07:12:44Z</time>
      </trkpt>
      <trkpt lat="45.27859" lon="6.19095">
        <ele>1482.4</ele>
        <time>2019-03-31T07:12:49Z</time>
      </trkpt>
      <trkpt lat="45.27857" lon="6.1909">
        <ele>1481.2</ele>
        <time>2019-03-31T07:12:54Z</time>
      </trkpt>
      <trkpt lat="45.27855" lon="6.19085">
        <ele>1482.6</ele>
        <time>2019-03-31T07:12:59Z</time>
      </trkpt>
      <trkpt lat="45.27854" lon="6.19081">
        <ele>1483.2</ele>
        <time>2019-03-31T07:13:04Z</time>
      </trkpt>
      <trkpt lat="45.27852" lon="6.19077">
        <ele>1481.2</ele>
        <time>2019-03-31T07:13:09Z</time>
      </trkpt>
      <trkpt lat="45.27849" lon="6.19072">
        <ele>1483.2</ele>
        <time>2019-03-31T07:13:14Z</time>
      </trkpt>
      <trkpt lat="45.27847" lon="6.19067">
        <ele>1484.4</ele>
        <time>2019-03-31T07:13:19Z</time>
      </trkpt>
      <trkpt lat="45.27844" lon="6.1906">
        <ele>1484.4</ele>
        <time>2019-03-31T07:13:25Z</time>
      </trkpt>
      <trkpt lat="45.27843" lon="6.19053">
        <ele>1484.6</ele>
        <time>2019-03-31T07:13:31Z</time>
      </trkpt>
      <trkpt lat="45.27842" lon="6.19047">
        <ele>1485.6</ele>
        <time>2019-03-31T07:13:36Z</time>
      </trkpt>
      <trkpt lat="45.27842" lon="6.19041">
        <ele>1483.6</ele>
        <time>2019-03-31T07:13:41Z</time>
      </trkpt>
      <trkpt lat="45.27843" lon="6.19035">
        <ele>1486.6</ele>
        <time>2019-03-31T07:13:46Z</time>
      </trkpt>
      <trkpt lat="45.27844" lon="6.1903">
        <ele>1486.2</ele>
        <time>2019-03-31T07:13:51Z</time>
      </trkpt>
      <trkpt lat="45.27845" lon="6.19025">
        <ele>1483</ele>
        <time>2019-03-31T07:13:56Z</time>
      </trkpt>
      <trkpt lat="45.27846" lon="6.19021">
        <ele>1486.6</ele>
        <time>2019-03-31T07:14:01Z</time>
      </trkpt>
      <trkpt lat="45.27848" lon="6.19017">
        <ele>1490.2</ele>
        <time>2019-03-31T07:14:06Z</time>
      </trkpt>
      <trkpt lat="45.27849" lon="6.19013">
        <ele>1484.2</ele>
        <time>2019-03-31T07:14:11Z</time>
      </trkpt>
      <trkpt lat="45.27851" lon="6.19011">
        <ele>1486.4</ele>
        <time>2019-03-31T07:14:16Z</time>
      </trkpt>
      <trkpt lat="45.27853" lon="6.19007">
        <ele>1489.4</ele>
        <time>2019-03-31T07:14:21Z</time>
      </trkpt>
      <trkpt lat="45.27854" lon="6.19003">
        <ele>1491.4</ele>
        <time>2019-03-31T07:14:26Z</time>
      </trkpt>
      <trkpt lat="45.27855" lon="6.18999">
        <ele>1490.8</ele>
        <time>2019-03-31T07:14:31Z</time>
      </trkpt>
      <trkpt lat="45.27854" lon="6.18996">
        <ele>1493.6</ele>
        <time>2019-03-31T07:14:36Z</time>
      </trkpt>
      <trkpt lat="45.27855" lon="6.18995">
        <ele>1492.6</ele>
        <time>2019-03-31T07:14:51Z</time>
      </trkpt>
      <trkpt lat="45.27851" lon="6.18987">
        <ele>1492</ele>
        <time>2019-03-31T07:15:06Z</time>
      </trkpt>
      <trkpt lat="45.2785" lon="6.18987">
        <ele>1491.4</ele>
        <time>2019-03-31T07:15:11Z</time>
      </trkpt>
      <trkpt lat="45.2785" lon="6.18988">
        <ele>1490.6</ele>
        <time>2019-03-31T07:15:21Z</time>
      </trkpt>
      <trkpt lat="45.27849" lon="6.18987">
        <ele>1490.6</ele>
        <time>2019-03-31T07:15:26Z</time>
      </trkpt>
      <trkpt lat="45.27847" lon="6.18983">
        <ele>1490.8</ele>
        <time>2019-03-31T07:15:31Z</time>
      </trkpt>
      <trkpt lat="45.27846" lon="6.18979">
        <ele>1491</ele>
        <time>2019-03-31T07:15:36Z</time>
      </trkpt>
      <trkpt lat="45.27846" lon="6.18974">
        <ele>1491</ele>
        <time>2019-03-31T07:15:41Z</time>
      </trkpt>
      <trkpt lat="45.27846" lon="6.1897">
        <ele>1492.6</ele>
        <time>2019-03-31T07:15:46Z</time>
      </trkpt>
      <trkpt lat="45.27846" lon="6.18966">
        <ele>1494.2</ele>
        <time>2019-03-31T07:15:51Z</time>
      </trkpt>
      <trkpt lat="45.27847" lon="6.18963">
        <ele>1493.6</ele>
        <time>2019-03-31T07:15:56Z</time>
      </trkpt>
      <trkpt lat="45.27848" lon="6.1896">
        <ele>1495</ele>
        <time>2019-03-31T07:16:01Z</time>
      </trkpt>
      <trkpt lat="45.2785" lon="6.18956">
        <ele>1497</ele>
        <time>2019-03-31T07:16:06Z</time>
      </trkpt>
      <trkpt lat="45.27851" lon="6.18952">
        <ele>1498.2</ele>
        <time>2019-03-31T07:16:11Z</time>
      </trkpt>
      <trkpt lat="45.27852" lon="6.18948">
        <ele>1496.4</ele>
        <time>2019-03-31T07:16:16Z</time>
      </trkpt>
      <trkpt lat="45.27853" lon="6.18944">
        <ele>1497</ele>
        <time>2019-03-31T07:16:21Z</time>
      </trkpt>
      <trkpt lat="45.27854" lon="6.18939">
        <ele>1499.8</ele>
        <time>2019-03-31T07:16:26Z</time>
      </trkpt>
      <trkpt lat="45.27855" lon="6.18935">
        <ele>1497</ele>
        <time>2019-03-31T07:16:31Z</time>
      </trkpt>
      <trkpt lat="45.27856" lon="6.18931">
        <ele>1500.8</ele>
        <time>2019-03-31T07:16:36Z</time>
      </trkpt>
      <trkpt lat="45.27857" lon="6.18926">
        <ele>1500.8</ele>
        <time>2019-03-31T07:16:41Z</time>
      </trkpt>
      <trkpt lat="45.27857" lon="6.18921">
        <ele>1501.6</ele>
        <time>2019-03-31T07:16:46Z</time>
      </trkpt>
      <trkpt lat="45.27858" lon="6.18917">
        <ele>1498.6</ele>
        <time>2019-03-31T07:16:51Z</time>
      </trkpt>
      <trkpt lat="45.27859" lon="6.18912">
        <ele>1499.4</ele>
        <time>2019-03-31T07:16:56Z</time>
      </trkpt>
      <trkpt lat="45.2786" lon="6.18908">
        <ele>1506</ele>
        <time>2019-03-31T07:17:01Z</time>
      </trkpt>
      <trkpt lat="45.27861" lon="6.18903">
        <ele>1503</ele>
        <time>2019-03-31T07:17:06Z</time>
      </trkpt>
      <trkpt lat="45.27863" lon="6.189">
        <ele>1503.4</ele>
        <time>2019-03-31T07:17:11Z</time>
      </trkpt>
      <trkpt lat="45.27865" lon="6.18896">
        <ele>1502.8</ele>
        <time>2019-03-31T07:17:16Z</time>
      </trkpt>
      <trkpt lat="45.27867" lon="6.18893">
        <ele>1502.8</ele>
        <time>2019-03-31T07:17:21Z</time>
      </trkpt>
      <trkpt lat="45.27869" lon="6.18889">
        <ele>1505.4</ele>
        <time>2019-03-31T07:17:26Z</time>
      </trkpt>
      <trkpt lat="45.27871" lon="6.18885">
        <ele>1504.8</ele>
        <time>2019-03-31T07:17:31Z</time>
      </trkpt>
      <trkpt lat="45.27873" lon="6.18882">
        <ele>1508.2</ele>
        <time>2019-03-31T07:17:36Z</time>
      </trkpt>
      <trkpt lat="45.27875" lon="6.18878">
        <ele>1504.4</ele>
        <time>2019-03-31T07:17:41Z</time>
      </trkpt>
      <trkpt lat="45.27876" lon="6.18877">
        <ele>1505.2</ele>
        <time>2019-03-31T07:18:36Z</time>
      </trkpt>
      <trkpt lat="45.27878" lon="6.18875">
        <ele>1503.6</ele>
        <time>2019-03-31T07:18:41Z</time>
      </trkpt>
      <trkpt lat="45.2788" lon="6.18871">
        <ele>1508.6</ele>
        <time>2019-03-31T07:18:46Z</time>
      </trkpt>
      <trkpt lat="45.27882" lon="6.18867">
        <ele>1507.6</ele>
        <time>2019-03-31T07:18:51Z</time>
      </trkpt>
      <trkpt lat="45.27885" lon="6.18864">
        <ele>1508.4</ele>
        <time>2019-03-31T07:18:56Z</time>
      </trkpt>
      <trkpt lat="45.27888" lon="6.1886">
        <ele>1505</ele>
        <time>2019-03-31T07:19:01Z</time>
      </trkpt>
      <trkpt lat="45.27891" lon="6.18857">
        <ele>1508.4</ele>
        <time>2019-03-31T07:19:06Z</time>
      </trkpt>
      <trkpt lat="45.27894" lon="6.18853">
        <ele>1508.8</ele>
        <time>2019-03-31T07:19:11Z</time>
      </trkpt>
      <trkpt lat="45.27896" lon="6.18848">
        <ele>1511</ele>
        <time>2019-03-31T07:19:16Z</time>
      </trkpt>
      <trkpt lat="45.27898" lon="6.18843">
        <ele>1510.2</ele>
        <time>2019-03-31T07:19:21Z</time>
      </trkpt>
      <trkpt lat="45.27901" lon="6.18838">
        <ele>1511</ele>
        <time>2019-03-31T07:19:26Z</time>
      </trkpt>
      <trkpt lat="45.27904" lon="6.18833">
        <ele>1510</ele>
        <time>2019-03-31T07:19:31Z</time>
      </trkpt>
      <trkpt lat="45.27906" lon="6.18828">
        <ele>1512.4</ele>
        <time>2019-03-31T07:19:36Z</time>
      </trkpt>
      <trkpt lat="45.27909" lon="6.18823">
        <ele>1512</ele>
        <time>2019-03-31T07:19:41Z</time>
      </trkpt>
      <trkpt lat="45.27911" lon="6.18818">
        <ele>1513</ele>
        <time>2019-03-31T07:19:46Z</time>
      </trkpt>
      <trkpt lat="45.27914" lon="6.18813">
        <ele>1513</ele>
        <time>2019-03-31T07:19:51Z</time>
      </trkpt>
      <trkpt lat="45.27916" lon="6.18807">
        <ele>1513.4</ele>
        <time>2019-03-31T07:19:56Z</time>
      </trkpt>
      <trkpt lat="45.27917" lon="6.18803">
        <ele>1514.6</ele>
        <time>2019-03-31T07:20:01Z</time>
      </trkpt>
      <trkpt lat="45.27919" lon="6.18796">
        <ele>1513.8</ele>
        <time>2019-03-31T07:20:06Z</time>
      </trkpt>
      <trkpt lat="45.2792" lon="6.18789">
        <ele>1512.6</ele>
        <time>2019-03-31T07:20:11Z</time>
      </trkpt>
      <trkpt lat="45.2792" lon="6.18783">
        <ele>1512.2</ele>
        <time>2019-03-31T07:20:16Z</time>
      </trkpt>
      <trkpt lat="45.2792" lon="6.18777">
        <ele>1515.8</ele>
        <time>2019-03-31T07:20:21Z</time>
      </trkpt>
      <trkpt lat="45.2792" lon="6.1877">
        <ele>1514.4</ele>
        <time>2019-03-31T07:20:26Z</time>
      </trkpt>
      <trkpt lat="45.2792" lon="6.18764">
        <ele>1514.8</ele>
        <time>2019-03-31T07:20:31Z</time>
      </trkpt>
      <trkpt lat="45.2792" lon="6.18758">
        <ele>1513</ele>
        <time>2019-03-31T07:20:36Z</time>
      </trkpt>
      <trkpt lat="45.2792" lon="6.18751">
        <ele>1515.4</ele>
        <time>2019-03-31T07:20:41Z</time>
      </trkpt>
      <trkpt lat="45.27919" lon="6.18744">
        <ele>1515</ele>
        <time>2019-03-31T07:20:46Z</time>
      </trkpt>
      <trkpt lat="45.27917" lon="6.18739">
        <ele>1517.2</ele>
        <time>2019-03-31T07:20:51Z</time>
      </trkpt>
      <trkpt lat="45.27915" lon="6.18734">
        <ele>1518</ele>
        <time>2019-03-31T07:20:56Z</time>
      </trkpt>
      <trkpt lat="45.27913" lon="6.18729">
        <ele>1516.4</ele>
        <time>2019-03-31T07:21:01Z</time>
      </trkpt>
      <trkpt lat="45.27912" lon="6.18722">
        <ele>1515.4</ele>
        <time>2019-03-31T07:21:06Z</time>
      </trkpt>
      <trkpt lat="45.27911" lon="6.18715">
        <ele>1518.4</ele>
        <time>2019-03-31T07:21:11Z</time>
      </trkpt>
      <trkpt lat="45.2791" lon="6.1871">
        <ele>1517.4</ele>
        <time>2019-03-31T07:21:16Z</time>
      </trkpt>
      <trkpt lat="45.27909" lon="6.18704">
        <ele>1519</ele>
        <time>2019-03-31T07:21:21Z</time>
      </trkpt>
      <trkpt lat="45.27908" lon="6.18698">
        <ele>1517.2</ele>
        <time>2019-03-31T07:21:26Z</time>
      </trkpt>
      <trkpt lat="45.27908" lon="6.18692">
        <ele>1519.8</ele>
        <time>2019-03-31T07:21:31Z</time>
      </trkpt>
      <trkpt lat="45.27908" lon="6.18685">
        <ele>1518.2</ele>
        <time>2019-03-31T07:21:36Z</time>
      </trkpt>
      <trkpt lat="45.27907" lon="6.18679">
        <ele>1521.2</ele>
        <time>2019-03-31T07:21:41Z</time>
      </trkpt>
      <trkpt lat="45.27907" lon="6.18673">
        <ele>1519.4</ele>
        <time>2019-03-31T07:21:46Z</time>
      </trkpt>
      <trkpt lat="45.27906" lon="6.18667">
        <ele>1519.8</ele>
        <time>2019-03-31T07:21:51Z</time>
      </trkpt>
      <trkpt lat="45.27906" lon="6.18661">
        <ele>1521.8</ele>
        <time>2019-03-31T07:21:56Z</time>
      </trkpt>
      <trkpt lat="45.27906" lon="6.18655">
        <ele>1519.4</ele>
        <time>2019-03-31T07:22:01Z</time>
      </trkpt>
      <trkpt lat="45.27905" lon="6.18649">
        <ele>1522</ele>
        <time>2019-03-31T07:22:06Z</time>
      </trkpt>
      <trkpt lat="45.27906" lon="6.18643">
        <ele>1522</ele>
        <time>2019-03-31T07:22:11Z</time>
      </trkpt>
      <trkpt lat="45.27906" lon="6.18638">
        <ele>1523.2</ele>
        <time>2019-03-31T07:22:16Z</time>
      </trkpt>
      <trkpt lat="45.27907" lon="6.18634">
        <ele>1521.6</ele>
        <time>2019-03-31T07:22:21Z</time>
      </trkpt>
      <trkpt lat="45.27907" lon="6.18629">
        <ele>1524</ele>
        <time>2019-03-31T07:22:26Z</time>
      </trkpt>
      <trkpt lat="45.27907" lon="6.18623">
        <ele>1523</ele>
        <time>2019-03-31T07:22:31Z</time>
      </trkpt>
      <trkpt lat="45.27906" lon="6.18619">
        <ele>1523.8</ele>
        <time>2019-03-31T07:22:36Z</time>
      </trkpt>
      <trkpt lat="45.27906" lon="6.18613">
        <ele>1525</ele>
        <time>2019-03-31T07:22:41Z</time>
      </trkpt>
      <trkpt lat="45.27906" lon="6.18607">
        <ele>1524.2</ele>
        <time>2019-03-31T07:22:46Z</time>
      </trkpt>
      <trkpt lat="45.27905" lon="6.18601">
        <ele>1527.2</ele>
        <time>2019-03-31T07:22:51Z</time>
      </trkpt>
      <trkpt lat="45.27904" lon="6.18595">
        <ele>1526.8</ele>
        <time>2019-03-31T07:22:56Z</time>
      </trkpt>
      <trkpt lat="45.27904" lon="6.1859">
        <ele>1527.2</ele>
        <time>2019-03-31T07:23:01Z</time>
      </trkpt>
      <trkpt lat="45.27904" lon="6.18585">
        <ele>1526.8</ele>
        <time>2019-03-31T07:23:06Z</time>
      </trkpt>
      <trkpt lat="45.27903" lon="6.1858">
        <ele>1528.4</ele>
        <time>2019-03-31T07:23:11Z</time>
      </trkpt>
      <trkpt lat="45.27903" lon="6.18576">
        <ele>1528.4</ele>
        <time>2019-03-31T07:23:16Z</time>
      </trkpt>
      <trkpt lat="45.27903" lon="6.18572">
        <ele>1526.4</ele>
        <time>2019-03-31T07:23:21Z</time>
      </trkpt>
      <trkpt lat="45.27904" lon="6.18567">
        <ele>1527.8</ele>
        <time>2019-03-31T07:23:26Z</time>
      </trkpt>
      <trkpt lat="45.27905" lon="6.18563">
        <ele>1529.6</ele>
        <time>2019-03-31T07:23:31Z</time>
      </trkpt>
      <trkpt lat="45.27907" lon="6.18559">
        <ele>1532.2</ele>
        <time>2019-03-31T07:23:36Z</time>
      </trkpt>
      <trkpt lat="45.27909" lon="6.18556">
        <ele>1531.6</ele>
        <time>2019-03-31T07:23:41Z</time>
      </trkpt>
      <trkpt lat="45.27911" lon="6.18553">
        <ele>1531.4</ele>
        <time>2019-03-31T07:23:46Z</time>
      </trkpt>
      <trkpt lat="45.27912" lon="6.18551">
        <ele>1532</ele>
        <time>2019-03-31T07:23:51Z</time>
      </trkpt>
      <trkpt lat="45.27912" lon="6.18546">
        <ele>1529.6</ele>
        <time>2019-03-31T07:23:56Z</time>
      </trkpt>
      <trkpt lat="45.27913" lon="6.18543">
        <ele>1535.4</ele>
        <time>2019-03-31T07:24:01Z</time>
      </trkpt>
      <trkpt lat="45.27915" lon="6.1854">
        <ele>1536.2</ele>
        <time>2019-03-31T07:24:06Z</time>
      </trkpt>
      <trkpt lat="45.27915" lon="6.18535">
        <ele>1536.6</ele>
        <time>2019-03-31T07:24:11Z</time>
      </trkpt>
      <trkpt lat="45.27915" lon="6.18531">
        <ele>1537.8</ele>
        <time>2019-03-31T07:24:16Z</time>
      </trkpt>
      <trkpt lat="45.27913" lon="6.18529">
        <ele>1536</ele>
        <time>2019-03-31T07:24:21Z</time>
      </trkpt>
      <trkpt lat="45.27911" lon="6.18527">
        <ele>1540.6</ele>
        <time>2019-03-31T07:24:26Z</time>
      </trkpt>
      <trkpt lat="45.2791" lon="6.18523">
        <ele>1540.4</ele>
        <time>2019-03-31T07:24:31Z</time>
      </trkpt>
      <trkpt lat="45.2791" lon="6.1852">
        <ele>1542.6</ele>
        <time>2019-03-31T07:24:36Z</time>
      </trkpt>
      <trkpt lat="45.27909" lon="6.18516">
        <ele>1544.8</ele>
        <time>2019-03-31T07:24:41Z</time>
      </trkpt>
      <trkpt lat="45.27909" lon="6.18513">
        <ele>1546.2</ele>
        <time>2019-03-31T07:24:46Z</time>
      </trkpt>
      <trkpt lat="45.27909" lon="6.1851">
        <ele>1545.8</ele>
        <time>2019-03-31T07:24:51Z</time>
      </trkpt>
      <trkpt lat="45.27908" lon="6.18507">
        <ele>1544.4</ele>
        <time>2019-03-31T07:24:56Z</time>
      </trkpt>
      <trkpt lat="45.27908" lon="6.18503">
        <ele>1549.8</ele>
        <time>2019-03-31T07:25:01Z</time>
      </trkpt>
      <trkpt lat="45.27909" lon="6.185">
        <ele>1545.6</ele>
        <time>2019-03-31T07:25:06Z</time>
      </trkpt>
      <trkpt lat="45.2791" lon="6.18497">
        <ele>1546.8</ele>
        <time>2019-03-31T07:25:11Z</time>
      </trkpt>
      <trkpt lat="45.27912" lon="6.18495">
        <ele>1543.8</ele>
        <time>2019-03-31T07:25:16Z</time>
      </trkpt>
      <trkpt lat="45.27914" lon="6.18492">
        <ele>1545</ele>
        <time>2019-03-31T07:25:21Z</time>
      </trkpt>
      <trkpt lat="45.27914" lon="6.18489">
        <ele>1548.6</ele>
        <time>2019-03-31T07:25:26Z</time>
      </trkpt>
      <trkpt lat="45.27915" lon="6.18486">
        <ele>1550.2</ele>
        <time>2019-03-31T07:25:31Z</time>
      </trkpt>
      <trkpt lat="45.27917" lon="6.18483">
        <ele>1547.6</ele>
        <time>2019-03-31T07:25:36Z</time>
      </trkpt>
      <trkpt lat="45.27919" lon="6.1848">
        <ele>1551.8</ele>
        <time>2019-03-31T07:25:41Z</time>
      </trkpt>
      <trkpt lat="45.27919" lon="6.18477">
        <ele>1553.4</ele>
        <time>2019-03-31T07:25:46Z</time>
      </trkpt>
      <trkpt lat="45.27919" lon="6.18473">
        <ele>1552</ele>
        <time>2019-03-31T07:25:51Z</time>
      </trkpt>
      <trkpt lat="45.27918" lon="6.18469">
        <ele>1553.8</ele>
        <time>2019-03-31T07:25:56Z</time>
      </trkpt>
      <trkpt lat="45.27918" lon="6.18465">
        <ele>1552.8</ele>
        <time>2019-03-31T07:26:01Z</time>
      </trkpt>
      <trkpt lat="45.27916" lon="6.18461">
        <ele>1555.2</ele>
        <time>2019-03-31T07:26:06Z</time>
      </trkpt>
      <trkpt lat="45.27915" lon="6.18457">
        <ele>1557.4</ele>
        <time>2019-03-31T07:26:11Z</time>
      </trkpt>
      <trkpt lat="45.27914" lon="6.18453">
        <ele>1552.8</ele>
        <time>2019-03-31T07:26:16Z</time>
      </trkpt>
      <trkpt lat="45.27912" lon="6.18449">
        <ele>1554.4</ele>
        <time>2019-03-31T07:26:21Z</time>
      </trkpt>
      <trkpt lat="45.27912" lon="6.18447">
        <ele>1554</ele>
        <time>2019-03-31T07:26:26Z</time>
      </trkpt>
      <trkpt lat="45.27911" lon="6.18444">
        <ele>1555.6</ele>
        <time>2019-03-31T07:26:31Z</time>
      </trkpt>
      <trkpt lat="45.2791" lon="6.18441">
        <ele>1556.2</ele>
        <time>2019-03-31T07:26:36Z</time>
      </trkpt>
      <trkpt lat="45.27908" lon="6.18438">
        <ele>1555.8</ele>
        <time>2019-03-31T07:26:41Z</time>
      </trkpt>
      <trkpt lat="45.27907" lon="6.18434">
        <ele>1556.8</ele>
        <time>2019-03-31T07:26:46Z</time>
      </trkpt>
      <trkpt lat="45.27907" lon="6.18431">
        <ele>1558.6</ele>
        <time>2019-03-31T07:26:51Z</time>
      </trkpt>
      <trkpt lat="45.27905" lon="6.18427">
        <ele>1558.4</ele>
        <time>2019-03-31T07:26:56Z</time>
      </trkpt>
      <trkpt lat="45.27904" lon="6.18424">
        <ele>1559</ele>
        <time>2019-03-31T07:27:01Z</time>
      </trkpt>
      <trkpt lat="45.27904" lon="6.1842">
        <ele>1558.4</ele>
        <time>2019-03-31T07:27:06Z</time>
      </trkpt>
      <trkpt lat="45.27904" lon="6.18417">
        <ele>1559</ele>
        <time>2019-03-31T07:27:11Z</time>
      </trkpt>
      <trkpt lat="45.27904" lon="6.18416">
        <ele>1561.2</ele>
        <time>2019-03-31T07:27:16Z</time>
      </trkpt>
      <trkpt lat="45.27906" lon="6.18416">
        <ele>1563.8</ele>
        <time>2019-03-31T07:27:21Z</time>
      </trkpt>
      <trkpt lat="45.2791" lon="6.18414">
        <ele>1565</ele>
        <time>2019-03-31T07:27:36Z</time>
      </trkpt>
      <trkpt lat="45.2791" lon="6.18414">
        <ele>1565.8</ele>
        <time>2019-03-31T07:27:56Z</time>
      </trkpt>
      <trkpt lat="45.27912" lon="6.18412">
        <ele>1566</ele>
        <time>2019-03-31T07:28:01Z</time>
      </trkpt>
      <trkpt lat="45.27913" lon="6.18409">
        <ele>1564.2</ele>
        <time>2019-03-31T07:28:06Z</time>
      </trkpt>
      <trkpt lat="45.27914" lon="6.18407">
        <ele>1561.6</ele>
        <time>2019-03-31T07:28:11Z</time>
      </trkpt>
      <trkpt lat="45.27916" lon="6.18408">
        <ele>1565</ele>
        <time>2019-03-31T07:28:16Z</time>
      </trkpt>
      <trkpt lat="45.27918" lon="6.18409">
        <ele>1566</ele>
        <time>2019-03-31T07:28:21Z</time>
      </trkpt>
      <trkpt lat="45.27924" lon="6.18406">
        <ele>1566.4</ele>
        <time>2019-03-31T07:28:37Z</time>
      </trkpt>
      <trkpt lat="45.27924" lon="6.18405">
        <ele>1569.2</ele>
        <time>2019-03-31T07:29:37Z</time>
      </trkpt>
      <trkpt lat="45.27924" lon="6.18405">
        <ele>1569.2</ele>
        <time>2019-03-31T07:29:42Z</time>
      </trkpt>
      <trkpt lat="45.27924" lon="6.18403">
        <ele>1570.8</ele>
        <time>2019-03-31T07:29:47Z</time>
      </trkpt>
      <trkpt lat="45.27927" lon="6.184">
        <ele>1570</ele>
        <time>2019-03-31T07:29:52Z</time>
      </trkpt>
      <trkpt lat="45.27929" lon="6.18397">
        <ele>1573</ele>
        <time>2019-03-31T07:29:57Z</time>
      </trkpt>
      <trkpt lat="45.27932" lon="6.18394">
        <ele>1571.4</ele>
        <time>2019-03-31T07:30:02Z</time>
      </trkpt>
      <trkpt lat="45.27934" lon="6.1839">
        <ele>1571.8</ele>
        <time>2019-03-31T07:30:07Z</time>
      </trkpt>
      <trkpt lat="45.27935" lon="6.18386">
        <ele>1570.4</ele>
        <time>2019-03-31T07:30:12Z</time>
      </trkpt>
      <trkpt lat="45.27936" lon="6.18382">
        <ele>1572.4</ele>
        <time>2019-03-31T07:30:17Z</time>
      </trkpt>
      <trkpt lat="45.27937" lon="6.18378">
        <ele>1575.2</ele>
        <time>2019-03-31T07:30:22Z</time>
      </trkpt>
      <trkpt lat="45.27938" lon="6.18374">
        <ele>1572</ele>
        <time>2019-03-31T07:30:27Z</time>
      </trkpt>
      <trkpt lat="45.27939" lon="6.18371">
        <ele>1576.2</ele>
        <time>2019-03-31T07:30:32Z</time>
      </trkpt>
      <trkpt lat="45.27943" lon="6.18369">
        <ele>1574.6</ele>
        <time>2019-03-31T07:30:42Z</time>
      </trkpt>
      <trkpt lat="45.27945" lon="6.18372">
        <ele>1576</ele>
        <time>2019-03-31T07:30:47Z</time>
      </trkpt>
      <trkpt lat="45.27948" lon="6.18373">
        <ele>1576.6</ele>
        <time>2019-03-31T07:30:52Z</time>
      </trkpt>
      <trkpt lat="45.2795" lon="6.18372">
        <ele>1579.4</ele>
        <time>2019-03-31T07:30:57Z</time>
      </trkpt>
      <trkpt lat="45.27951" lon="6.18369">
        <ele>1579.8</ele>
        <time>2019-03-31T07:31:02Z</time>
      </trkpt>
      <trkpt lat="45.27952" lon="6.18365">
        <ele>1579.2</ele>
        <time>2019-03-31T07:31:07Z</time>
      </trkpt>
      <trkpt lat="45.27953" lon="6.18361">
        <ele>1580.4</ele>
        <time>2019-03-31T07:31:12Z</time>
      </trkpt>
      <trkpt lat="45.27954" lon="6.18358">
        <ele>1577.6</ele>
        <time>2019-03-31T07:31:17Z</time>
      </trkpt>
      <trkpt lat="45.27955" lon="6.18355">
        <ele>1578.4</ele>
        <time>2019-03-31T07:31:22Z</time>
      </trkpt>
      <trkpt lat="45.27956" lon="6.18351">
        <ele>1578.8</ele>
        <time>2019-03-31T07:31:27Z</time>
      </trkpt>
      <trkpt lat="45.27957" lon="6.18347">
        <ele>1579</ele>
        <time>2019-03-31T07:31:32Z</time>
      </trkpt>
      <trkpt lat="45.27958" lon="6.18343">
        <ele>1580</ele>
        <time>2019-03-31T07:31:37Z</time>
      </trkpt>
      <trkpt lat="45.27959" lon="6.18338">
        <ele>1582.4</ele>
        <time>2019-03-31T07:31:42Z</time>
      </trkpt>
      <trkpt lat="45.27961" lon="6.18333">
        <ele>1582.2</ele>
        <time>2019-03-31T07:31:47Z</time>
      </trkpt>
      <trkpt lat="45.27962" lon="6.18327">
        <ele>1583.6</ele>
        <time>2019-03-31T07:31:52Z</time>
      </trkpt>
      <trkpt lat="45.27963" lon="6.18322">
        <ele>1581.4</ele>
        <time>2019-03-31T07:31:57Z</time>
      </trkpt>
      <trkpt lat="45.27965" lon="6.18317">
        <ele>1582.2</ele>
        <time>2019-03-31T07:32:02Z</time>
      </trkpt>
      <trkpt lat="45.27966" lon="6.18312">
        <ele>1583.8</ele>
        <time>2019-03-31T07:32:07Z</time>
      </trkpt>
      <trkpt lat="45.27968" lon="6.18307">
        <ele>1583</ele>
        <time>2019-03-31T07:32:12Z</time>
      </trkpt>
      <trkpt lat="45.27969" lon="6.18302">
        <ele>1582.6</ele>
        <time>2019-03-31T07:32:17Z</time>
      </trkpt>
      <trkpt lat="45.27971" lon="6.18297">
        <ele>1583.2</ele>
        <time>2019-03-31T07:32:22Z</time>
      </trkpt>
      <trkpt lat="45.27973" lon="6.18293">
        <ele>1582.4</ele>
        <time>2019-03-31T07:32:27Z</time>
      </trkpt>
      <trkpt lat="45.27975" lon="6.18289">
        <ele>1583.2</ele>
        <time>2019-03-31T07:32:32Z</time>
      </trkpt>
      <trkpt lat="45.27978" lon="6.18284">
        <ele>1586.8</ele>
        <time>2019-03-31T07:32:37Z</time>
      </trkpt>
      <trkpt lat="45.2798" lon="6.18279">
        <ele>1586</ele>
        <time>2019-03-31T07:32:42Z</time>
      </trkpt>
      <trkpt lat="45.27983" lon="6.18274">
        <ele>1583.2</ele>
        <time>2019-03-31T07:32:47Z</time>
      </trkpt>
      <trkpt lat="45.27986" lon="6.18269">
        <ele>1587.2</ele>
        <time>2019-03-31T07:32:52Z</time>
      </trkpt>
      <trkpt lat="45.27988" lon="6.18264">
        <ele>1585.8</ele>
        <time>2019-03-31T07:32:57Z</time>
      </trkpt>
      <trkpt lat="45.2799" lon="6.18259">
        <ele>1586.2</ele>
        <time>2019-03-31T07:33:02Z</time>
      </trkpt>
      <trkpt lat="45.27992" lon="6.18255">
        <ele>1585</ele>
        <time>2019-03-31T07:33:07Z</time>
      </trkpt>
      <trkpt lat="45.27993" lon="6.18251">
        <ele>1588.6</ele>
        <time>2019-03-31T07:33:12Z</time>
      </trkpt>
      <trkpt lat="45.27995" lon="6.18246">
        <ele>1584.2</ele>
        <time>2019-03-31T07:33:17Z</time>
      </trkpt>
      <trkpt lat="45.27996" lon="6.18242">
        <ele>1587.6</ele>
        <time>2019-03-31T07:33:22Z</time>
      </trkpt>
      <trkpt lat="45.27997" lon="6.18238">
        <ele>1589.8</ele>
        <time>2019-03-31T07:33:27Z</time>
      </trkpt>
      <trkpt lat="45.27998" lon="6.18235">
        <ele>1589.6</ele>
        <time>2019-03-31T07:33:32Z</time>
      </trkpt>
      <trkpt lat="45.27999" lon="6.18231">
        <ele>1589.4</ele>
        <time>2019-03-31T07:33:37Z</time>
      </trkpt>
      <trkpt lat="45.28" lon="6.18228">
        <ele>1589.8</ele>
        <time>2019-03-31T07:33:42Z</time>
      </trkpt>
      <trkpt lat="45.28" lon="6.18224">
        <ele>1589</ele>
        <time>2019-03-31T07:33:47Z</time>
      </trkpt>
      <trkpt lat="45.27999" lon="6.1822">
        <ele>1592.8</ele>
        <time>2019-03-31T07:33:52Z</time>
      </trkpt>
      <trkpt lat="45.27997" lon="6.18215">
        <ele>1592.4</ele>
        <time>2019-03-31T07:33:57Z</time>
      </trkpt>
      <trkpt lat="45.27996" lon="6.18211">
        <ele>1593</ele>
        <time>2019-03-31T07:34:02Z</time>
      </trkpt>
      <trkpt lat="45.27994" lon="6.18209">
        <ele>1592.8</ele>
        <time>2019-03-31T07:34:07Z</time>
      </trkpt>
      <trkpt lat="45.27993" lon="6.18206">
        <ele>1593</ele>
        <time>2019-03-31T07:34:12Z</time>
      </trkpt>
      <trkpt lat="45.27992" lon="6.18202">
        <ele>1594.2</ele>
        <time>2019-03-31T07:34:17Z</time>
      </trkpt>
      <trkpt lat="45.2799" lon="6.18199">
        <ele>1594.8</ele>
        <time>2019-03-31T07:34:22Z</time>
      </trkpt>
      <trkpt lat="45.27988" lon="6.18195">
        <ele>1596.4</ele>
        <time>2019-03-31T07:34:27Z</time>
      </trkpt>
      <trkpt lat="45.27987" lon="6.18191">
        <ele>1596.6</ele>
        <time>2019-03-31T07:34:32Z</time>
      </trkpt>
      <trkpt lat="45.27986" lon="6.18187">
        <ele>1600.6</ele>
        <time>2019-03-31T07:34:37Z</time>
      </trkpt>
      <trkpt lat="45.27985" lon="6.18182">
        <ele>1595.2</ele>
        <time>2019-03-31T07:34:42Z</time>
      </trkpt>
      <trkpt lat="45.27983" lon="6.18178">
        <ele>1596.4</ele>
        <time>2019-03-31T07:34:47Z</time>
      </trkpt>
      <trkpt lat="45.27982" lon="6.18174">
        <ele>1598</ele>
        <time>2019-03-31T07:34:52Z</time>
      </trkpt>
      <trkpt lat="45.27981" lon="6.1817">
        <ele>1597.2</ele>
        <time>2019-03-31T07:34:57Z</time>
      </trkpt>
      <trkpt lat="45.27981" lon="6.18166">
        <ele>1598</ele>
        <time>2019-03-31T07:35:02Z</time>
      </trkpt>
      <trkpt lat="45.27982" lon="6.18162">
        <ele>1597.4</ele>
        <time>2019-03-31T07:35:07Z</time>
      </trkpt>
      <trkpt lat="45.27982" lon="6.18157">
        <ele>1598.6</ele>
        <time>2019-03-31T07:35:12Z</time>
      </trkpt>
      <trkpt lat="45.27982" lon="6.18153">
        <ele>1600.4</ele>
        <time>2019-03-31T07:35:17Z</time>
      </trkpt>
      <trkpt lat="45.27982" lon="6.18148">
        <ele>1600.8</ele>
        <time>2019-03-31T07:35:22Z</time>
      </trkpt>
      <trkpt lat="45.27983" lon="6.18143">
        <ele>1600</ele>
        <time>2019-03-31T07:35:27Z</time>
      </trkpt>
      <trkpt lat="45.27983" lon="6.18138">
        <ele>1601</ele>
        <time>2019-03-31T07:35:32Z</time>
      </trkpt>
      <trkpt lat="45.27984" lon="6.18133">
        <ele>1601.8</ele>
        <time>2019-03-31T07:35:37Z</time>
      </trkpt>
      <trkpt lat="45.27985" lon="6.18128">
        <ele>1605.8</ele>
        <time>2019-03-31T07:35:42Z</time>
      </trkpt>
      <trkpt lat="45.27985" lon="6.18123">
        <ele>1602</ele>
        <time>2019-03-31T07:35:47Z</time>
      </trkpt>
      <trkpt lat="45.27986" lon="6.18118">
        <ele>1603.4</ele>
        <time>2019-03-31T07:35:52Z</time>
      </trkpt>
      <trkpt lat="45.27986" lon="6.18112">
        <ele>1602.6</ele>
        <time>2019-03-31T07:35:57Z</time>
      </trkpt>
      <trkpt lat="45.27986" lon="6.18108">
        <ele>1605.4</ele>
        <time>2019-03-31T07:36:02Z</time>
      </trkpt>
      <trkpt lat="45.27986" lon="6.18104">
        <ele>1603.4</ele>
        <time>2019-03-31T07:36:07Z</time>
      </trkpt>
      <trkpt lat="45.27985" lon="6.18099">
        <ele>1603.8</ele>
        <time>2019-03-31T07:36:12Z</time>
      </trkpt>
      <trkpt lat="45.27985" lon="6.18095">
        <ele>1606</ele>
        <time>2019-03-31T07:36:17Z</time>
      </trkpt>
      <trkpt lat="45.27984" lon="6.1809">
        <ele>1603.4</ele>
        <time>2019-03-31T07:36:22Z</time>
      </trkpt>
      <trkpt lat="45.27984" lon="6.18086">
        <ele>1606.6</ele>
        <time>2019-03-31T07:36:27Z</time>
      </trkpt>
      <trkpt lat="45.27984" lon="6.18083">
        <ele>1605</ele>
        <time>2019-03-31T07:36:32Z</time>
      </trkpt>
      <trkpt lat="45.27983" lon="6.18079">
        <ele>1608.8</ele>
        <time>2019-03-31T07:36:37Z</time>
      </trkpt>
      <trkpt lat="45.27983" lon="6.18074">
        <ele>1609.6</ele>
        <time>2019-03-31T07:36:42Z</time>
      </trkpt>
      <trkpt lat="45.27982" lon="6.18069">
        <ele>1608.6</ele>
        <time>2019-03-31T07:36:47Z</time>
      </trkpt>
      <trkpt lat="45.27982" lon="6.18064">
        <ele>1605.6</ele>
        <time>2019-03-31T07:36:52Z</time>
      </trkpt>
      <trkpt lat="45.27981" lon="6.1806">
        <ele>1607.8</ele>
        <time>2019-03-31T07:36:57Z</time>
      </trkpt>
      <trkpt lat="45.27981" lon="6.18056">
        <ele>1608.6</ele>
        <time>2019-03-31T07:37:02Z</time>
      </trkpt>
      <trkpt lat="45.2798" lon="6.18052">
        <ele>1608.6</ele>
        <time>2019-03-31T07:37:07Z</time>
      </trkpt>
      <trkpt lat="45.27979" lon="6.18047">
        <ele>1610.8</ele>
        <time>2019-03-31T07:37:12Z</time>
      </trkpt>
      <trkpt lat="45.27979" lon="6.18043">
        <ele>1612</ele>
        <time>2019-03-31T07:37:17Z</time>
      </trkpt>
      <trkpt lat="45.27978" lon="6.18038">
        <ele>1610.4</ele>
        <time>2019-03-31T07:37:22Z</time>
      </trkpt>
      <trkpt lat="45.27978" lon="6.18033">
        <ele>1612.2</ele>
        <time>2019-03-31T07:37:27Z</time>
      </trkpt>
      <trkpt lat="45.27977" lon="6.18029">
        <ele>1610.8</ele>
        <time>2019-03-31T07:37:32Z</time>
      </trkpt>
      <trkpt lat="45.27977" lon="6.18025">
        <ele>1611</ele>
        <time>2019-03-31T07:37:37Z</time>
      </trkpt>
      <trkpt lat="45.27976" lon="6.18021">
        <ele>1613</ele>
        <time>2019-03-31T07:37:42Z</time>
      </trkpt>
      <trkpt lat="45.27975" lon="6.18016">
        <ele>1611.8</ele>
        <time>2019-03-31T07:37:47Z</time>
      </trkpt>
      <trkpt lat="45.27975" lon="6.18011">
        <ele>1614.4</ele>
        <time>2019-03-31T07:37:52Z</time>
      </trkpt>
      <trkpt lat="45.27974" lon="6.18007">
        <ele>1612</ele>
        <time>2019-03-31T07:37:57Z</time>
      </trkpt>
      <trkpt lat="45.27974" lon="6.18003">
        <ele>1613.2</ele>
        <time>2019-03-31T07:38:02Z</time>
      </trkpt>
      <trkpt lat="45.27973" lon="6.17998">
        <ele>1613.8</ele>
        <time>2019-03-31T07:38:07Z</time>
      </trkpt>
      <trkpt lat="45.27973" lon="6.17994">
        <ele>1614.4</ele>
        <time>2019-03-31T07:38:12Z</time>
      </trkpt>
      <trkpt lat="45.27973" lon="6.17989">
        <ele>1614</ele>
        <time>2019-03-31T07:38:17Z</time>
      </trkpt>
      <trkpt lat="45.27973" lon="6.17984">
        <ele>1615.8</ele>
        <time>2019-03-31T07:38:22Z</time>
      </trkpt>
      <trkpt lat="45.27973" lon="6.17979">
        <ele>1616</ele>
        <time>2019-03-31T07:38:27Z</time>
      </trkpt>
      <trkpt lat="45.27972" lon="6.17975">
        <ele>1615.2</ele>
        <time>2019-03-31T07:38:32Z</time>
      </trkpt>
      <trkpt lat="45.27972" lon="6.1797">
        <ele>1618</ele>
        <time>2019-03-31T07:38:37Z</time>
      </trkpt>
      <trkpt lat="45.27972" lon="6.17965">
        <ele>1615.6</ele>
        <time>2019-03-31T07:38:42Z</time>
      </trkpt>
      <trkpt lat="45.27972" lon="6.1796">
        <ele>1618</ele>
        <time>2019-03-31T07:38:47Z</time>
      </trkpt>
      <trkpt lat="45.27973" lon="6.17955">
        <ele>1616.6</ele>
        <time>2019-03-31T07:38:52Z</time>
      </trkpt>
      <trkpt lat="45.27973" lon="6.17949">
        <ele>1619.2</ele>
        <time>2019-03-31T07:38:57Z</time>
      </trkpt>
      <trkpt lat="45.27973" lon="6.17945">
        <ele>1619.4</ele>
        <time>2019-03-31T07:39:02Z</time>
      </trkpt>
      <trkpt lat="45.27973" lon="6.17941">
        <ele>1617.6</ele>
        <time>2019-03-31T07:39:07Z</time>
      </trkpt>
      <trkpt lat="45.27973" lon="6.17937">
        <ele>1619.4</ele>
        <time>2019-03-31T07:39:12Z</time>
      </trkpt>
      <trkpt lat="45.27973" lon="6.17932">
        <ele>1618.6</ele>
        <time>2019-03-31T07:39:17Z</time>
      </trkpt>
      <trkpt lat="45.27974" lon="6.17927">
        <ele>1622.4</ele>
        <time>2019-03-31T07:39:22Z</time>
      </trkpt>
      <trkpt lat="45.27974" lon="6.17922">
        <ele>1621</ele>
        <time>2019-03-31T07:39:27Z</time>
      </trkpt>
      <trkpt lat="45.27974" lon="6.17917">
        <ele>1620.8</ele>
        <time>2019-03-31T07:39:32Z</time>
      </trkpt>
      <trkpt lat="45.27974" lon="6.17913">
        <ele>1621.4</ele>
        <time>2019-03-31T07:39:37Z</time>
      </trkpt>
      <trkpt lat="45.27974" lon="6.17908">
        <ele>1624.2</ele>
        <time>2019-03-31T07:39:42Z</time>
      </trkpt>
      <trkpt lat="45.27974" lon="6.17903">
        <ele>1622.8</ele>
        <time>2019-03-31T07:39:47Z</time>
      </trkpt>
      <trkpt lat="45.27975" lon="6.17898">
        <ele>1622.2</ele>
        <time>2019-03-31T07:39:52Z</time>
      </trkpt>
      <trkpt lat="45.27975" lon="6.17893">
        <ele>1625.4</ele>
        <time>2019-03-31T07:39:57Z</time>
      </trkpt>
      <trkpt lat="45.27976" lon="6.17888">
        <ele>1626</ele>
        <time>2019-03-31T07:40:02Z</time>
      </trkpt>
      <trkpt lat="45.27976" lon="6.17883">
        <ele>1623.2</ele>
        <time>2019-03-31T07:40:07Z</time>
      </trkpt>
      <trkpt lat="45.27977" lon="6.17878">
        <ele>1623</ele>
        <time>2019-03-31T07:40:12Z</time>
      </trkpt>
      <trkpt lat="45.27978" lon="6.17872">
        <ele>1624.8</ele>
        <time>2019-03-31T07:40:17Z</time>
      </trkpt>
      <trkpt lat="45.27978" lon="6.17867">
        <ele>1626.2</ele>
        <time>2019-03-31T07:40:22Z</time>
      </trkpt>
      <trkpt lat="45.27979" lon="6.17861">
        <ele>1626.6</ele>
        <time>2019-03-31T07:40:27Z</time>
      </trkpt>
      <trkpt lat="45.2798" lon="6.17856">
        <ele>1627.2</ele>
        <time>2019-03-31T07:40:32Z</time>
      </trkpt>
      <trkpt lat="45.2798" lon="6.17851">
        <ele>1627</ele>
        <time>2019-03-31T07:40:37Z</time>
      </trkpt>
      <trkpt lat="45.2798" lon="6.17846">
        <ele>1625.4</ele>
        <time>2019-03-31T07:40:42Z</time>
      </trkpt>
      <trkpt lat="45.27981" lon="6.17841">
        <ele>1628</ele>
        <time>2019-03-31T07:40:47Z</time>
      </trkpt>
      <trkpt lat="45.27982" lon="6.17835">
        <ele>1629</ele>
        <time>2019-03-31T07:40:52Z</time>
      </trkpt>
      <trkpt lat="45.27983" lon="6.1783">
        <ele>1628.2</ele>
        <time>2019-03-31T07:40:57Z</time>
      </trkpt>
      <trkpt lat="45.27983" lon="6.17825">
        <ele>1630.2</ele>
        <time>2019-03-31T07:41:02Z</time>
      </trkpt>
      <trkpt lat="45.27984" lon="6.1782">
        <ele>1629.8</ele>
        <time>2019-03-31T07:41:07Z</time>
      </trkpt>
      <trkpt lat="45.27984" lon="6.17815">
        <ele>1629</ele>
        <time>2019-03-31T07:41:12Z</time>
      </trkpt>
      <trkpt lat="45.27984" lon="6.17811">
        <ele>1633</ele>
        <time>2019-03-31T07:41:17Z</time>
      </trkpt>
      <trkpt lat="45.27984" lon="6.17806">
        <ele>1631.2</ele>
        <time>2019-03-31T07:41:22Z</time>
      </trkpt>
      <trkpt lat="45.27984" lon="6.17801">
        <ele>1631.2</ele>
        <time>2019-03-31T07:41:27Z</time>
      </trkpt>
      <trkpt lat="45.27984" lon="6.17797">
        <ele>1633.2</ele>
        <time>2019-03-31T07:41:32Z</time>
      </trkpt>
      <trkpt lat="45.27984" lon="6.17792">
        <ele>1630.6</ele>
        <time>2019-03-31T07:41:37Z</time>
      </trkpt>
      <trkpt lat="45.27984" lon="6.17788">
        <ele>1633.6</ele>
        <time>2019-03-31T07:41:42Z</time>
      </trkpt>
      <trkpt lat="45.27984" lon="6.17782">
        <ele>1633.2</ele>
        <time>2019-03-31T07:41:47Z</time>
      </trkpt>
      <trkpt lat="45.27984" lon="6.17778">
        <ele>1634.4</ele>
        <time>2019-03-31T07:41:52Z</time>
      </trkpt>
      <trkpt lat="45.27985" lon="6.17773">
        <ele>1635.4</ele>
        <time>2019-03-31T07:41:57Z</time>
      </trkpt>
      <trkpt lat="45.27985" lon="6.17769">
        <ele>1634.8</ele>
        <time>2019-03-31T07:42:02Z</time>
      </trkpt>
      <trkpt lat="45.27986" lon="6.17765">
        <ele>1635.6</ele>
        <time>2019-03-31T07:42:07Z</time>
      </trkpt>
      <trkpt lat="45.27987" lon="6.17761">
        <ele>1635.2</ele>
        <time>2019-03-31T07:42:12Z</time>
      </trkpt>
      <trkpt lat="45.27988" lon="6.17757">
        <ele>1639.8</ele>
        <time>2019-03-31T07:42:17Z</time>
      </trkpt>
      <trkpt lat="45.27989" lon="6.17752">
        <ele>1638.6</ele>
        <time>2019-03-31T07:42:22Z</time>
      </trkpt>
      <trkpt lat="45.27989" lon="6.17748">
        <ele>1640.2</ele>
        <time>2019-03-31T07:42:27Z</time>
      </trkpt>
      <trkpt lat="45.2799" lon="6.17744">
        <ele>1635.8</ele>
        <time>2019-03-31T07:42:32Z</time>
      </trkpt>
      <trkpt lat="45.27991" lon="6.1774">
        <ele>1640</ele>
        <time>2019-03-31T07:42:37Z</time>
      </trkpt>
      <trkpt lat="45.27992" lon="6.17736">
        <ele>1641</ele>
        <time>2019-03-31T07:42:42Z</time>
      </trkpt>
      <trkpt lat="45.27993" lon="6.17732">
        <ele>1641.6</ele>
        <time>2019-03-31T07:42:47Z</time>
      </trkpt>
      <trkpt lat="45.27994" lon="6.17728">
        <ele>1643</ele>
        <time>2019-03-31T07:42:52Z</time>
      </trkpt>
      <trkpt lat="45.27995" lon="6.17724">
        <ele>1644</ele>
        <time>2019-03-31T07:42:57Z</time>
      </trkpt>
      <trkpt lat="45.27996" lon="6.1772">
        <ele>1643.8</ele>
        <time>2019-03-31T07:43:02Z</time>
      </trkpt>
      <trkpt lat="45.27997" lon="6.17716">
        <ele>1641.4</ele>
        <time>2019-03-31T07:43:07Z</time>
      </trkpt>
      <trkpt lat="45.27997" lon="6.17711">
        <ele>1644.6</ele>
        <time>2019-03-31T07:43:12Z</time>
      </trkpt>
      <trkpt lat="45.27998" lon="6.17708">
        <ele>1645.6</ele>
        <time>2019-03-31T07:43:17Z</time>
      </trkpt>
      <trkpt lat="45.27999" lon="6.17704">
        <ele>1647</ele>
        <time>2019-03-31T07:43:22Z</time>
      </trkpt>
      <trkpt lat="45.28" lon="6.177">
        <ele>1649.8</ele>
        <time>2019-03-31T07:43:27Z</time>
      </trkpt>
      <trkpt lat="45.28002" lon="6.17696">
        <ele>1649</ele>
        <time>2019-03-31T07:43:32Z</time>
      </trkpt>
      <trkpt lat="45.28003" lon="6.17692">
        <ele>1649.4</ele>
        <time>2019-03-31T07:43:37Z</time>
      </trkpt>
      <trkpt lat="45.28004" lon="6.17688">
        <ele>1652</ele>
        <time>2019-03-31T07:43:42Z</time>
      </trkpt>
      <trkpt lat="45.28006" lon="6.17685">
        <ele>1649.6</ele>
        <time>2019-03-31T07:43:47Z</time>
      </trkpt>
      <trkpt lat="45.28007" lon="6.17681">
        <ele>1652.4</ele>
        <time>2019-03-31T07:43:52Z</time>
      </trkpt>
      <trkpt lat="45.28008" lon="6.17678">
        <ele>1651.8</ele>
        <time>2019-03-31T07:43:57Z</time>
      </trkpt>
      <trkpt lat="45.28009" lon="6.17674">
        <ele>1651.8</ele>
        <time>2019-03-31T07:44:02Z</time>
      </trkpt>
      <trkpt lat="45.2801" lon="6.1767">
        <ele>1651.6</ele>
        <time>2019-03-31T07:44:07Z</time>
      </trkpt>
      <trkpt lat="45.2801" lon="6.17665">
        <ele>1651.6</ele>
        <time>2019-03-31T07:44:12Z</time>
      </trkpt>
      <trkpt lat="45.2801" lon="6.17661">
        <ele>1654.8</ele>
        <time>2019-03-31T07:44:17Z</time>
      </trkpt>
      <trkpt lat="45.2801" lon="6.17658">
        <ele>1654.6</ele>
        <time>2019-03-31T07:44:22Z</time>
      </trkpt>
      <trkpt lat="45.28011" lon="6.17654">
        <ele>1659.6</ele>
        <time>2019-03-31T07:44:27Z</time>
      </trkpt>
      <trkpt lat="45.28012" lon="6.1765">
        <ele>1657</ele>
        <time>2019-03-31T07:44:32Z</time>
      </trkpt>
      <trkpt lat="45.28013" lon="6.17647">
        <ele>1659.4</ele>
        <time>2019-03-31T07:44:37Z</time>
      </trkpt>
      <trkpt lat="45.28014" lon="6.17642">
        <ele>1658.6</ele>
        <time>2019-03-31T07:44:42Z</time>
      </trkpt>
      <trkpt lat="45.28014" lon="6.17638">
        <ele>1659.6</ele>
        <time>2019-03-31T07:44:47Z</time>
      </trkpt>
      <trkpt lat="45.28015" lon="6.17635">
        <ele>1659.4</ele>
        <time>2019-03-31T07:44:52Z</time>
      </trkpt>
      <trkpt lat="45.28016" lon="6.17631">
        <ele>1661.4</ele>
        <time>2019-03-31T07:44:57Z</time>
      </trkpt>
      <trkpt lat="45.28017" lon="6.17626">
        <ele>1657.6</ele>
        <time>2019-03-31T07:45:02Z</time>
      </trkpt>
      <trkpt lat="45.28017" lon="6.17622">
        <ele>1657.6</ele>
        <time>2019-03-31T07:45:07Z</time>
      </trkpt>
      <trkpt lat="45.28018" lon="6.17618">
        <ele>1660.4</ele>
        <time>2019-03-31T07:45:12Z</time>
      </trkpt>
      <trkpt lat="45.28018" lon="6.17613">
        <ele>1663.6</ele>
        <time>2019-03-31T07:45:17Z</time>
      </trkpt>
      <trkpt lat="45.28018" lon="6.17609">
        <ele>1663.2</ele>
        <time>2019-03-31T07:45:22Z</time>
      </trkpt>
      <trkpt lat="45.28019" lon="6.17604">
        <ele>1665.8</ele>
        <time>2019-03-31T07:45:27Z</time>
      </trkpt>
      <trkpt lat="45.28019" lon="6.17599">
        <ele>1662.2</ele>
        <time>2019-03-31T07:45:32Z</time>
      </trkpt>
      <trkpt lat="45.28019" lon="6.17594">
        <ele>1665.2</ele>
        <time>2019-03-31T07:45:37Z</time>
      </trkpt>
      <trkpt lat="45.28019" lon="6.17589">
        <ele>1664.2</ele>
        <time>2019-03-31T07:45:42Z</time>
      </trkpt>
      <trkpt lat="45.2802" lon="6.17584">
        <ele>1663.4</ele>
        <time>2019-03-31T07:45:47Z</time>
      </trkpt>
      <trkpt lat="45.2802" lon="6.1758">
        <ele>1667.2</ele>
        <time>2019-03-31T07:45:52Z</time>
      </trkpt>
      <trkpt lat="45.28021" lon="6.17575">
        <ele>1664.6</ele>
        <time>2019-03-31T07:45:57Z</time>
      </trkpt>
      <trkpt lat="45.28021" lon="6.1757">
        <ele>1665.8</ele>
        <time>2019-03-31T07:46:02Z</time>
      </trkpt>
      <trkpt lat="45.28022" lon="6.17566">
        <ele>1667.4</ele>
        <time>2019-03-31T07:46:07Z</time>
      </trkpt>
      <trkpt lat="45.28022" lon="6.17561">
        <ele>1669.4</ele>
        <time>2019-03-31T07:46:12Z</time>
      </trkpt>
      <trkpt lat="45.28023" lon="6.17556">
        <ele>1669</ele>
        <time>2019-03-31T07:46:17Z</time>
      </trkpt>
      <trkpt lat="45.28024" lon="6.17551">
        <ele>1668</ele>
        <time>2019-03-31T07:46:22Z</time>
      </trkpt>
      <trkpt lat="45.28024" lon="6.17546">
        <ele>1666.4</ele>
        <time>2019-03-31T07:46:27Z</time>
      </trkpt>
      <trkpt lat="45.28024" lon="6.17542">
        <ele>1668.4</ele>
        <time>2019-03-31T07:46:32Z</time>
      </trkpt>
      <trkpt lat="45.28025" lon="6.17538">
        <ele>1669.4</ele>
        <time>2019-03-31T07:46:37Z</time>
      </trkpt>
      <trkpt lat="45.28025" lon="6.17533">
        <ele>1671.4</ele>
        <time>2019-03-31T07:46:42Z</time>
      </trkpt>
      <trkpt lat="45.28025" lon="6.1753">
        <ele>1668.2</ele>
        <time>2019-03-31T07:46:47Z</time>
      </trkpt>
      <trkpt lat="45.28025" lon="6.17525">
        <ele>1669</ele>
        <time>2019-03-31T07:46:52Z</time>
      </trkpt>
      <trkpt lat="45.28025" lon="6.17521">
        <ele>1672.4</ele>
        <time>2019-03-31T07:46:57Z</time>
      </trkpt>
      <trkpt lat="45.28025" lon="6.17516">
        <ele>1671.6</ele>
        <time>2019-03-31T07:47:02Z</time>
      </trkpt>
      <trkpt lat="45.28025" lon="6.17512">
        <ele>1674</ele>
        <time>2019-03-31T07:47:07Z</time>
      </trkpt>
      <trkpt lat="45.28025" lon="6.17507">
        <ele>1671</ele>
        <time>2019-03-31T07:47:12Z</time>
      </trkpt>
      <trkpt lat="45.28025" lon="6.17502">
        <ele>1673</ele>
        <time>2019-03-31T07:47:17Z</time>
      </trkpt>
      <trkpt lat="45.28025" lon="6.17498">
        <ele>1671.8</ele>
        <time>2019-03-31T07:47:22Z</time>
      </trkpt>
      <trkpt lat="45.28025" lon="6.17493">
        <ele>1672.6</ele>
        <time>2019-03-31T07:47:27Z</time>
      </trkpt>
      <trkpt lat="45.28025" lon="6.17487">
        <ele>1672.8</ele>
        <time>2019-03-31T07:47:32Z</time>
      </trkpt>
      <trkpt lat="45.28025" lon="6.17482">
        <ele>1671.8</ele>
        <time>2019-03-31T07:47:37Z</time>
      </trkpt>
      <trkpt lat="45.28024" lon="6.17478">
        <ele>1677.4</ele>
        <time>2019-03-31T07:47:42Z</time>
      </trkpt>
      <trkpt lat="45.28024" lon="6.17473">
        <ele>1676.2</ele>
        <time>2019-03-31T07:47:47Z</time>
      </trkpt>
      <trkpt lat="45.28023" lon="6.17469">
        <ele>1676</ele>
        <time>2019-03-31T07:47:52Z</time>
      </trkpt>
      <trkpt lat="45.28023" lon="6.17465">
        <ele>1676.4</ele>
        <time>2019-03-31T07:47:57Z</time>
      </trkpt>
      <trkpt lat="45.28022" lon="6.1746">
        <ele>1677.6</ele>
        <time>2019-03-31T07:48:02Z</time>
      </trkpt>
      <trkpt lat="45.28022" lon="6.17455">
        <ele>1679.4</ele>
        <time>2019-03-31T07:48:07Z</time>
      </trkpt>
      <trkpt lat="45.28022" lon="6.17449">
        <ele>1682.2</ele>
        <time>2019-03-31T07:48:12Z</time>
      </trkpt>
      <trkpt lat="45.28021" lon="6.17445">
        <ele>1677.6</ele>
        <time>2019-03-31T07:48:17Z</time>
      </trkpt>
      <trkpt lat="45.28021" lon="6.1744">
        <ele>1681</ele>
        <time>2019-03-31T07:48:22Z</time>
      </trkpt>
      <trkpt lat="45.28021" lon="6.17435">
        <ele>1678.6</ele>
        <time>2019-03-31T07:48:27Z</time>
      </trkpt>
      <trkpt lat="45.28021" lon="6.1743">
        <ele>1681</ele>
        <time>2019-03-31T07:48:32Z</time>
      </trkpt>
      <trkpt lat="45.2802" lon="6.17425">
        <ele>1679.8</ele>
        <time>2019-03-31T07:48:37Z</time>
      </trkpt>
      <trkpt lat="45.28019" lon="6.1742">
        <ele>1677</ele>
        <time>2019-03-31T07:48:42Z</time>
      </trkpt>
      <trkpt lat="45.28019" lon="6.17415">
        <ele>1681.6</ele>
        <time>2019-03-31T07:48:47Z</time>
      </trkpt>
      <trkpt lat="45.28018" lon="6.1741">
        <ele>1681.2</ele>
        <time>2019-03-31T07:48:52Z</time>
      </trkpt>
      <trkpt lat="45.28016" lon="6.17406">
        <ele>1683.6</ele>
        <time>2019-03-31T07:48:57Z</time>
      </trkpt>
      <trkpt lat="45.28016" lon="6.17401">
        <ele>1679.6</ele>
        <time>2019-03-31T07:49:02Z</time>
      </trkpt>
      <trkpt lat="45.28015" lon="6.17396">
        <ele>1681.6</ele>
        <time>2019-03-31T07:49:07Z</time>
      </trkpt>
      <trkpt lat="45.28014" lon="6.17391">
        <ele>1685.8</ele>
        <time>2019-03-31T07:49:12Z</time>
      </trkpt>
      <trkpt lat="45.28013" lon="6.17387">
        <ele>1683.4</ele>
        <time>2019-03-31T07:49:17Z</time>
      </trkpt>
      <trkpt lat="45.28012" lon="6.17382">
        <ele>1684</ele>
        <time>2019-03-31T07:49:22Z</time>
      </trkpt>
      <trkpt lat="45.28011" lon="6.17378">
        <ele>1684.2</ele>
        <time>2019-03-31T07:49:27Z</time>
      </trkpt>
      <trkpt lat="45.28011" lon="6.17374">
        <ele>1685.4</ele>
        <time>2019-03-31T07:49:32Z</time>
      </trkpt>
      <trkpt lat="45.2801" lon="6.1737">
        <ele>1687.8</ele>
        <time>2019-03-31T07:49:37Z</time>
      </trkpt>
      <trkpt lat="45.28009" lon="6.17366">
        <ele>1687.6</ele>
        <time>2019-03-31T07:49:42Z</time>
      </trkpt>
      <trkpt lat="45.28008" lon="6.17361">
        <ele>1688.8</ele>
        <time>2019-03-31T07:49:47Z</time>
      </trkpt>
      <trkpt lat="45.28007" lon="6.17357">
        <ele>1688.2</ele>
        <time>2019-03-31T07:49:52Z</time>
      </trkpt>
      <trkpt lat="45.28006" lon="6.17354">
        <ele>1692.6</ele>
        <time>2019-03-31T07:49:57Z</time>
      </trkpt>
      <trkpt lat="45.28004" lon="6.1735">
        <ele>1687.4</ele>
        <time>2019-03-31T07:50:02Z</time>
      </trkpt>
      <trkpt lat="45.28002" lon="6.17345">
        <ele>1689.2</ele>
        <time>2019-03-31T07:50:07Z</time>
      </trkpt>
      <trkpt lat="45.28001" lon="6.1734">
        <ele>1691</ele>
        <time>2019-03-31T07:50:12Z</time>
      </trkpt>
      <trkpt lat="45.28" lon="6.17335">
        <ele>1688.2</ele>
        <time>2019-03-31T07:50:17Z</time>
      </trkpt>
      <trkpt lat="45.27999" lon="6.1733">
        <ele>1688.6</ele>
        <time>2019-03-31T07:50:22Z</time>
      </trkpt>
      <trkpt lat="45.27998" lon="6.17326">
        <ele>1689.4</ele>
        <time>2019-03-31T07:50:27Z</time>
      </trkpt>
      <trkpt lat="45.27997" lon="6.17321">
        <ele>1692</ele>
        <time>2019-03-31T07:50:32Z</time>
      </trkpt>
      <trkpt lat="45.27996" lon="6.17317">
        <ele>1690.6</ele>
        <time>2019-03-31T07:50:37Z</time>
      </trkpt>
      <trkpt lat="45.27996" lon="6.17312">
        <ele>1691.6</ele>
        <time>2019-03-31T07:50:42Z</time>
      </trkpt>
      <trkpt lat="45.27997" lon="6.17308">
        <ele>1694.6</ele>
        <time>2019-03-31T07:50:47Z</time>
      </trkpt>
      <trkpt lat="45.27997" lon="6.17304">
        <ele>1693.4</ele>
        <time>2019-03-31T07:50:52Z</time>
      </trkpt>
      <trkpt lat="45.27997" lon="6.17299">
        <ele>1694.2</ele>
        <time>2019-03-31T07:50:57Z</time>
      </trkpt>
      <trkpt lat="45.27997" lon="6.17295">
        <ele>1692.2</ele>
        <time>2019-03-31T07:51:02Z</time>
      </trkpt>
      <trkpt lat="45.27997" lon="6.1729">
        <ele>1694.2</ele>
        <time>2019-03-31T07:51:07Z</time>
      </trkpt>
      <trkpt lat="45.27997" lon="6.17286">
        <ele>1693.4</ele>
        <time>2019-03-31T07:51:12Z</time>
      </trkpt>
      <trkpt lat="45.27998" lon="6.17282">
        <ele>1694.8</ele>
        <time>2019-03-31T07:51:17Z</time>
      </trkpt>
      <trkpt lat="45.27999" lon="6.17277">
        <ele>1697.4</ele>
        <time>2019-03-31T07:51:22Z</time>
      </trkpt>
      <trkpt lat="45.28" lon="6.17274">
        <ele>1698</ele>
        <time>2019-03-31T07:51:27Z</time>
      </trkpt>
      <trkpt lat="45.28001" lon="6.1727">
        <ele>1697.6</ele>
        <time>2019-03-31T07:51:32Z</time>
      </trkpt>
      <trkpt lat="45.28002" lon="6.17265">
        <ele>1701.6</ele>
        <time>2019-03-31T07:51:37Z</time>
      </trkpt>
      <trkpt lat="45.28003" lon="6.17262">
        <ele>1698.6</ele>
        <time>2019-03-31T07:51:42Z</time>
      </trkpt>
      <trkpt lat="45.28005" lon="6.17258">
        <ele>1698.2</ele>
        <time>2019-03-31T07:51:47Z</time>
      </trkpt>
      <trkpt lat="45.28006" lon="6.17254">
        <ele>1699</ele>
        <time>2019-03-31T07:51:52Z</time>
      </trkpt>
      <trkpt lat="45.28006" lon="6.1725">
        <ele>1701</ele>
        <time>2019-03-31T07:51:57Z</time>
      </trkpt>
      <trkpt lat="45.28005" lon="6.17246">
        <ele>1701.4</ele>
        <time>2019-03-31T07:52:02Z</time>
      </trkpt>
      <trkpt lat="45.28006" lon="6.17241">
        <ele>1704.2</ele>
        <time>2019-03-31T07:52:07Z</time>
      </trkpt>
      <trkpt lat="45.28005" lon="6.17237">
        <ele>1702.8</ele>
        <time>2019-03-31T07:52:12Z</time>
      </trkpt>
      <trkpt lat="45.28005" lon="6.17233">
        <ele>1705.4</ele>
        <time>2019-03-31T07:52:17Z</time>
      </trkpt>
      <trkpt lat="45.28006" lon="6.17228">
        <ele>1703.6</ele>
        <time>2019-03-31T07:52:22Z</time>
      </trkpt>
      <trkpt lat="45.28007" lon="6.17223">
        <ele>1706</ele>
        <time>2019-03-31T07:52:27Z</time>
      </trkpt>
      <trkpt lat="45.28007" lon="6.17217">
        <ele>1704.6</ele>
        <time>2019-03-31T07:52:32Z</time>
      </trkpt>
      <trkpt lat="45.28007" lon="6.17212">
        <ele>1705.8</ele>
        <time>2019-03-31T07:52:37Z</time>
      </trkpt>
      <trkpt lat="45.28007" lon="6.17206">
        <ele>1706</ele>
        <time>2019-03-31T07:52:42Z</time>
      </trkpt>
      <trkpt lat="45.28007" lon="6.17202">
        <ele>1703.4</ele>
        <time>2019-03-31T07:52:47Z</time>
      </trkpt>
      <trkpt lat="45.28007" lon="6.17196">
        <ele>1705.2</ele>
        <time>2019-03-31T07:52:52Z</time>
      </trkpt>
      <trkpt lat="45.28008" lon="6.17191">
        <ele>1708.2</ele>
        <time>2019-03-31T07:52:57Z</time>
      </trkpt>
      <trkpt lat="45.28009" lon="6.17187">
        <ele>1707.6</ele>
        <time>2019-03-31T07:53:02Z</time>
      </trkpt>
      <trkpt lat="45.28009" lon="6.17182">
        <ele>1710</ele>
        <time>2019-03-31T07:53:07Z</time>
      </trkpt>
      <trkpt lat="45.2801" lon="6.17177">
        <ele>1707.6</ele>
        <time>2019-03-31T07:53:12Z</time>
      </trkpt>
      <trkpt lat="45.28011" lon="6.17172">
        <ele>1709.6</ele>
        <time>2019-03-31T07:53:17Z</time>
      </trkpt>
      <trkpt lat="45.28011" lon="6.17168">
        <ele>1708.4</ele>
        <time>2019-03-31T07:53:22Z</time>
      </trkpt>
      <trkpt lat="45.28012" lon="6.17164">
        <ele>1707.4</ele>
        <time>2019-03-31T07:53:27Z</time>
      </trkpt>
      <trkpt lat="45.28013" lon="6.17159">
        <ele>1707.6</ele>
        <time>2019-03-31T07:53:32Z</time>
      </trkpt>
      <trkpt lat="45.28014" lon="6.17154">
        <ele>1708.8</ele>
        <time>2019-03-31T07:53:37Z</time>
      </trkpt>
      <trkpt lat="45.28015" lon="6.1715">
        <ele>1710.8</ele>
        <time>2019-03-31T07:53:42Z</time>
      </trkpt>
      <trkpt lat="45.28015" lon="6.17145">
        <ele>1711.8</ele>
        <time>2019-03-31T07:53:47Z</time>
      </trkpt>
      <trkpt lat="45.28016" lon="6.1714">
        <ele>1711</ele>
        <time>2019-03-31T07:53:52Z</time>
      </trkpt>
      <trkpt lat="45.28017" lon="6.17136">
        <ele>1711.4</ele>
        <time>2019-03-31T07:53:57Z</time>
      </trkpt>
      <trkpt lat="45.28019" lon="6.17132">
        <ele>1714.6</ele>
        <time>2019-03-31T07:54:02Z</time>
      </trkpt>
      <trkpt lat="45.2802" lon="6.17127">
        <ele>1713.8</ele>
        <time>2019-03-31T07:54:07Z</time>
      </trkpt>
      <trkpt lat="45.2802" lon="6.17122">
        <ele>1711.8</ele>
        <time>2019-03-31T07:54:12Z</time>
      </trkpt>
      <trkpt lat="45.28021" lon="6.17117">
        <ele>1711.8</ele>
        <time>2019-03-31T07:54:17Z</time>
      </trkpt>
      <trkpt lat="45.28021" lon="6.17111">
        <ele>1711.2</ele>
        <time>2019-03-31T07:54:22Z</time>
      </trkpt>
      <trkpt lat="45.28021" lon="6.17106">
        <ele>1713.6</ele>
        <time>2019-03-31T07:54:27Z</time>
      </trkpt>
      <trkpt lat="45.28022" lon="6.17101">
        <ele>1713.8</ele>
        <time>2019-03-31T07:54:32Z</time>
      </trkpt>
      <trkpt lat="45.28022" lon="6.17096">
        <ele>1715.6</ele>
        <time>2019-03-31T07:54:37Z</time>
      </trkpt>
      <trkpt lat="45.28022" lon="6.17092">
        <ele>1711</ele>
        <time>2019-03-31T07:54:42Z</time>
      </trkpt>
      <trkpt lat="45.28022" lon="6.17087">
        <ele>1713.4</ele>
        <time>2019-03-31T07:54:47Z</time>
      </trkpt>
      <trkpt lat="45.28022" lon="6.17082">
        <ele>1712.4</ele>
        <time>2019-03-31T07:54:52Z</time>
      </trkpt>
      <trkpt lat="45.28022" lon="6.17078">
        <ele>1713.8</ele>
        <time>2019-03-31T07:54:57Z</time>
      </trkpt>
      <trkpt lat="45.28022" lon="6.17073">
        <ele>1713.8</ele>
        <time>2019-03-31T07:55:02Z</time>
      </trkpt>
      <trkpt lat="45.28022" lon="6.17068">
        <ele>1716.6</ele>
        <time>2019-03-31T07:55:07Z</time>
      </trkpt>
      <trkpt lat="45.28022" lon="6.17063">
        <ele>1714.6</ele>
        <time>2019-03-31T07:55:12Z</time>
      </trkpt>
      <trkpt lat="45.28021" lon="6.17057">
        <ele>1717.2</ele>
        <time>2019-03-31T07:55:18Z</time>
      </trkpt>
      <trkpt lat="45.28021" lon="6.17052">
        <ele>1714.2</ele>
        <time>2019-03-31T07:55:23Z</time>
      </trkpt>
      <trkpt lat="45.2802" lon="6.17048">
        <ele>1721.2</ele>
        <time>2019-03-31T07:55:28Z</time>
      </trkpt>
      <trkpt lat="45.28019" lon="6.17044">
        <ele>1720.4</ele>
        <time>2019-03-31T07:55:33Z</time>
      </trkpt>
      <trkpt lat="45.28019" lon="6.17039">
        <ele>1719.2</ele>
        <time>2019-03-31T07:55:38Z</time>
      </trkpt>
      <trkpt lat="45.28019" lon="6.17034">
        <ele>1719.6</ele>
        <time>2019-03-31T07:55:43Z</time>
      </trkpt>
      <trkpt lat="45.28018" lon="6.17029">
        <ele>1720.8</ele>
        <time>2019-03-31T07:55:48Z</time>
      </trkpt>
      <trkpt lat="45.28018" lon="6.17024">
        <ele>1721.4</ele>
        <time>2019-03-31T07:55:53Z</time>
      </trkpt>
      <trkpt lat="45.28018" lon="6.17019">
        <ele>1720.6</ele>
        <time>2019-03-31T07:55:58Z</time>
      </trkpt>
      <trkpt lat="45.28019" lon="6.17014">
        <ele>1720.8</ele>
        <time>2019-03-31T07:56:03Z</time>
      </trkpt>
      <trkpt lat="45.28019" lon="6.17009">
        <ele>1720</ele>
        <time>2019-03-31T07:56:08Z</time>
      </trkpt>
      <trkpt lat="45.28019" lon="6.17004">
        <ele>1719.6</ele>
        <time>2019-03-31T07:56:13Z</time>
      </trkpt>
      <trkpt lat="45.28019" lon="6.16999">
        <ele>1724.8</ele>
        <time>2019-03-31T07:56:18Z</time>
      </trkpt>
      <trkpt lat="45.28017" lon="6.16994">
        <ele>1721.2</ele>
        <time>2019-03-31T07:56:23Z</time>
      </trkpt>
      <trkpt lat="45.28016" lon="6.16989">
        <ele>1720.2</ele>
        <time>2019-03-31T07:56:28Z</time>
      </trkpt>
      <trkpt lat="45.28015" lon="6.16983">
        <ele>1723.6</ele>
        <time>2019-03-31T07:56:33Z</time>
      </trkpt>
      <trkpt lat="45.28015" lon="6.16978">
        <ele>1725</ele>
        <time>2019-03-31T07:56:38Z</time>
      </trkpt>
      <trkpt lat="45.28015" lon="6.16973">
        <ele>1724.2</ele>
        <time>2019-03-31T07:56:43Z</time>
      </trkpt>
      <trkpt lat="45.28015" lon="6.16968">
        <ele>1721.2</ele>
        <time>2019-03-31T07:56:48Z</time>
      </trkpt>
      <trkpt lat="45.28016" lon="6.16963">
        <ele>1725</ele>
        <time>2019-03-31T07:56:53Z</time>
      </trkpt>
      <trkpt lat="45.28016" lon="6.16958">
        <ele>1725.2</ele>
        <time>2019-03-31T07:56:58Z</time>
      </trkpt>
      <trkpt lat="45.28016" lon="6.16954">
        <ele>1723</ele>
        <time>2019-03-31T07:57:03Z</time>
      </trkpt>
      <trkpt lat="45.28016" lon="6.1695">
        <ele>1723.4</ele>
        <time>2019-03-31T07:57:08Z</time>
      </trkpt>
      <trkpt lat="45.28016" lon="6.16946">
        <ele>1723.2</ele>
        <time>2019-03-31T07:57:13Z</time>
      </trkpt>
      <trkpt lat="45.28015" lon="6.16941">
        <ele>1727</ele>
        <time>2019-03-31T07:57:18Z</time>
      </trkpt>
      <trkpt lat="45.28015" lon="6.16937">
        <ele>1727.6</ele>
        <time>2019-03-31T07:57:23Z</time>
      </trkpt>
      <trkpt lat="45.28015" lon="6.16932">
        <ele>1727.6</ele>
        <time>2019-03-31T07:57:28Z</time>
      </trkpt>
      <trkpt lat="45.28016" lon="6.16927">
        <ele>1727.6</ele>
        <time>2019-03-31T07:57:33Z</time>
      </trkpt>
      <trkpt lat="45.28016" lon="6.16923">
        <ele>1728.4</ele>
        <time>2019-03-31T07:57:38Z</time>
      </trkpt>
      <trkpt lat="45.28017" lon="6.16919">
        <ele>1730.8</ele>
        <time>2019-03-31T07:57:43Z</time>
      </trkpt>
      <trkpt lat="45.28017" lon="6.16914">
        <ele>1728.8</ele>
        <time>2019-03-31T07:57:48Z</time>
      </trkpt>
      <trkpt lat="45.28018" lon="6.16908">
        <ele>1728.4</ele>
        <time>2019-03-31T07:57:53Z</time>
      </trkpt>
      <trkpt lat="45.28018" lon="6.16903">
        <ele>1729.2</ele>
        <time>2019-03-31T07:57:58Z</time>
      </trkpt>
      <trkpt lat="45.28018" lon="6.16898">
        <ele>1730</ele>
        <time>2019-03-31T07:58:03Z</time>
      </trkpt>
      <trkpt lat="45.28018" lon="6.16893">
        <ele>1731</ele>
        <time>2019-03-31T07:58:08Z</time>
      </trkpt>
      <trkpt lat="45.28018" lon="6.16888">
        <ele>1731.6</ele>
        <time>2019-03-31T07:58:13Z</time>
      </trkpt>
      <trkpt lat="45.28018" lon="6.16884">
        <ele>1732</ele>
        <time>2019-03-31T07:58:18Z</time>
      </trkpt>
      <trkpt lat="45.28018" lon="6.16878">
        <ele>1732.4</ele>
        <time>2019-03-31T07:58:23Z</time>
      </trkpt>
      <trkpt lat="45.28018" lon="6.16873">
        <ele>1733.8</ele>
        <time>2019-03-31T07:58:28Z</time>
      </trkpt>
      <trkpt lat="45.28019" lon="6.16868">
        <ele>1732</ele>
        <time>2019-03-31T07:58:33Z</time>
      </trkpt>
      <trkpt lat="45.28019" lon="6.16863">
        <ele>1732.4</ele>
        <time>2019-03-31T07:58:38Z</time>
      </trkpt>
      <trkpt lat="45.2802" lon="6.16858">
        <ele>1734</ele>
        <time>2019-03-31T07:58:43Z</time>
      </trkpt>
      <trkpt lat="45.2802" lon="6.16852">
        <ele>1735.6</ele>
        <time>2019-03-31T07:58:48Z</time>
      </trkpt>
      <trkpt lat="45.2802" lon="6.16847">
        <ele>1734.4</ele>
        <time>2019-03-31T07:58:53Z</time>
      </trkpt>
      <trkpt lat="45.28019" lon="6.16842">
        <ele>1732.4</ele>
        <time>2019-03-31T07:58:58Z</time>
      </trkpt>
      <trkpt lat="45.2802" lon="6.16837">
        <ele>1734.8</ele>
        <time>2019-03-31T07:59:03Z</time>
      </trkpt>
      <trkpt lat="45.2802" lon="6.16832">
        <ele>1735</ele>
        <time>2019-03-31T07:59:08Z</time>
      </trkpt>
      <trkpt lat="45.28021" lon="6.16826">
        <ele>1735</ele>
        <time>2019-03-31T07:59:13Z</time>
      </trkpt>
      <trkpt lat="45.28021" lon="6.1682">
        <ele>1735.2</ele>
        <time>2019-03-31T07:59:18Z</time>
      </trkpt>
      <trkpt lat="45.28021" lon="6.16815">
        <ele>1736.6</ele>
        <time>2019-03-31T07:59:23Z</time>
      </trkpt>
      <trkpt lat="45.28022" lon="6.16809">
        <ele>1736.6</ele>
        <time>2019-03-31T07:59:28Z</time>
      </trkpt>
      <trkpt lat="45.28022" lon="6.16804">
        <ele>1735.8</ele>
        <time>2019-03-31T07:59:33Z</time>
      </trkpt>
      <trkpt lat="45.28022" lon="6.16798">
        <ele>1735.2</ele>
        <time>2019-03-31T07:59:38Z</time>
      </trkpt>
      <trkpt lat="45.28022" lon="6.16793">
        <ele>1737</ele>
        <time>2019-03-31T07:59:43Z</time>
      </trkpt>
      <trkpt lat="45.28022" lon="6.16788">
        <ele>1732</ele>
        <time>2019-03-31T07:59:48Z</time>
      </trkpt>
      <trkpt lat="45.28022" lon="6.16783">
        <ele>1736.2</ele>
        <time>2019-03-31T07:59:53Z</time>
      </trkpt>
      <trkpt lat="45.28022" lon="6.16777">
        <ele>1735.8</ele>
        <time>2019-03-31T07:59:58Z</time>
      </trkpt>
      <trkpt lat="45.28022" lon="6.16773">
        <ele>1734.8</ele>
        <time>2019-03-31T08:00:03Z</time>
      </trkpt>
      <trkpt lat="45.28022" lon="6.16769">
        <ele>1738.2</ele>
        <time>2019-03-31T08:00:08Z</time>
      </trkpt>
      <trkpt lat="45.2802" lon="6.16766">
        <ele>1738.8</ele>
        <time>2019-03-31T08:00:13Z</time>
      </trkpt>
      <trkpt lat="45.28019" lon="6.16762">
        <ele>1738.2</ele>
        <time>2019-03-31T08:00:18Z</time>
      </trkpt>
      <trkpt lat="45.28018" lon="6.16759">
        <ele>1741.4</ele>
        <time>2019-03-31T08:00:23Z</time>
      </trkpt>
      <trkpt lat="45.28016" lon="6.16755">
        <ele>1739</ele>
        <time>2019-03-31T08:00:28Z</time>
      </trkpt>
      <trkpt lat="45.28014" lon="6.16751">
        <ele>1743</ele>
        <time>2019-03-31T08:00:33Z</time>
      </trkpt>
      <trkpt lat="45.28013" lon="6.16745">
        <ele>1739.6</ele>
        <time>2019-03-31T08:00:38Z</time>
      </trkpt>
      <trkpt lat="45.28011" lon="6.1674">
        <ele>1742.8</ele>
        <time>2019-03-31T08:00:43Z</time>
      </trkpt>
      <trkpt lat="45.2801" lon="6.16735">
        <ele>1740.4</ele>
        <time>2019-03-31T08:00:48Z</time>
      </trkpt>
      <trkpt lat="45.28009" lon="6.1673">
        <ele>1743.6</ele>
        <time>2019-03-31T08:00:53Z</time>
      </trkpt>
      <trkpt lat="45.28008" lon="6.16726">
        <ele>1742.8</ele>
        <time>2019-03-31T08:00:58Z</time>
      </trkpt>
      <trkpt lat="45.28007" lon="6.16722">
        <ele>1743.6</ele>
        <time>2019-03-31T08:01:03Z</time>
      </trkpt>
      <trkpt lat="45.28005" lon="6.16716">
        <ele>1743.8</ele>
        <time>2019-03-31T08:01:08Z</time>
      </trkpt>
      <trkpt lat="45.28003" lon="6.16711">
        <ele>1743.8</ele>
        <time>2019-03-31T08:01:13Z</time>
      </trkpt>
      <trkpt lat="45.28002" lon="6.16707">
        <ele>1742</ele>
        <time>2019-03-31T08:01:18Z</time>
      </trkpt>
      <trkpt lat="45.28002" lon="6.16705">
        <ele>1745</ele>
        <time>2019-03-31T08:01:23Z</time>
      </trkpt>
      <trkpt lat="45.28002" lon="6.16704">
        <ele>1744.2</ele>
        <time>2019-03-31T08:07:33Z</time>
      </trkpt>
      <trkpt lat="45.28002" lon="6.16701">
        <ele>1743.2</ele>
        <time>2019-03-31T08:07:38Z</time>
      </trkpt>
      <trkpt lat="45.28002" lon="6.16697">
        <ele>1744.4</ele>
        <time>2019-03-31T08:07:43Z</time>
      </trkpt>
      <trkpt lat="45.28002" lon="6.16693">
        <ele>1745</ele>
        <time>2019-03-31T08:07:48Z</time>
      </trkpt>
      <trkpt lat="45.28002" lon="6.16688">
        <ele>1746.8</ele>
        <time>2019-03-31T08:07:53Z</time>
      </trkpt>
      <trkpt lat="45.28002" lon="6.16684">
        <ele>1748.6</ele>
        <time>2019-03-31T08:07:58Z</time>
      </trkpt>
      <trkpt lat="45.28001" lon="6.16678">
        <ele>1747.6</ele>
        <time>2019-03-31T08:08:03Z</time>
      </trkpt>
      <trkpt lat="45.28" lon="6.16671">
        <ele>1747.2</ele>
        <time>2019-03-31T08:08:08Z</time>
      </trkpt>
      <trkpt lat="45.27999" lon="6.16665">
        <ele>1747.2</ele>
        <time>2019-03-31T08:08:13Z</time>
      </trkpt>
      <trkpt lat="45.27998" lon="6.1666">
        <ele>1746.8</ele>
        <time>2019-03-31T08:08:18Z</time>
      </trkpt>
      <trkpt lat="45.27997" lon="6.16656">
        <ele>1749</ele>
        <time>2019-03-31T08:08:23Z</time>
      </trkpt>
      <trkpt lat="45.27995" lon="6.16653">
        <ele>1749.6</ele>
        <time>2019-03-31T08:08:28Z</time>
      </trkpt>
      <trkpt lat="45.27994" lon="6.16649">
        <ele>1749</ele>
        <time>2019-03-31T08:08:33Z</time>
      </trkpt>
      <trkpt lat="45.27993" lon="6.16644">
        <ele>1747.8</ele>
        <time>2019-03-31T08:08:38Z</time>
      </trkpt>
      <trkpt lat="45.27992" lon="6.1664">
        <ele>1749.4</ele>
        <time>2019-03-31T08:08:43Z</time>
      </trkpt>
      <trkpt lat="45.27992" lon="6.16635">
        <ele>1752.2</ele>
        <time>2019-03-31T08:08:48Z</time>
      </trkpt>
      <trkpt lat="45.27991" lon="6.1663">
        <ele>1751.4</ele>
        <time>2019-03-31T08:08:53Z</time>
      </trkpt>
      <trkpt lat="45.2799" lon="6.16626">
        <ele>1752.4</ele>
        <time>2019-03-31T08:08:58Z</time>
      </trkpt>
      <trkpt lat="45.27988" lon="6.16621">
        <ele>1753.2</ele>
        <time>2019-03-31T08:09:03Z</time>
      </trkpt>
      <trkpt lat="45.27986" lon="6.16616">
        <ele>1752</ele>
        <time>2019-03-31T08:09:08Z</time>
      </trkpt>
      <trkpt lat="45.27986" lon="6.16611">
        <ele>1752.6</ele>
        <time>2019-03-31T08:09:13Z</time>
      </trkpt>
      <trkpt lat="45.27986" lon="6.16606">
        <ele>1754.8</ele>
        <time>2019-03-31T08:09:18Z</time>
      </trkpt>
      <trkpt lat="45.27985" lon="6.16602">
        <ele>1752.8</ele>
        <time>2019-03-31T08:09:23Z</time>
      </trkpt>
      <trkpt lat="45.27985" lon="6.16598">
        <ele>1755.8</ele>
        <time>2019-03-31T08:09:28Z</time>
      </trkpt>
      <trkpt lat="45.27985" lon="6.16594">
        <ele>1755.8</ele>
        <time>2019-03-31T08:09:33Z</time>
      </trkpt>
      <trkpt lat="45.27985" lon="6.16589">
        <ele>1759</ele>
        <time>2019-03-31T08:09:38Z</time>
      </trkpt>
      <trkpt lat="45.27985" lon="6.16585">
        <ele>1756.2</ele>
        <time>2019-03-31T08:09:43Z</time>
      </trkpt>
      <trkpt lat="45.27985" lon="6.16581">
        <ele>1756</ele>
        <time>2019-03-31T08:09:48Z</time>
      </trkpt>
      <trkpt lat="45.27982" lon="6.16579">
        <ele>1757.6</ele>
        <time>2019-03-31T08:09:53Z</time>
      </trkpt>
      <trkpt lat="45.2798" lon="6.16576">
        <ele>1758.2</ele>
        <time>2019-03-31T08:09:58Z</time>
      </trkpt>
      <trkpt lat="45.27977" lon="6.16573">
        <ele>1760.6</ele>
        <time>2019-03-31T08:10:03Z</time>
      </trkpt>
      <trkpt lat="45.27976" lon="6.16567">
        <ele>1759.2</ele>
        <time>2019-03-31T08:10:08Z</time>
      </trkpt>
      <trkpt lat="45.27974" lon="6.16565">
        <ele>1761</ele>
        <time>2019-03-31T08:10:13Z</time>
      </trkpt>
      <trkpt lat="45.27973" lon="6.16562">
        <ele>1765.4</ele>
        <time>2019-03-31T08:10:18Z</time>
      </trkpt>
      <trkpt lat="45.27973" lon="6.16562">
        <ele>1766.2</ele>
        <time>2019-03-31T08:10:23Z</time>
      </trkpt>
      <trkpt lat="45.27973" lon="6.1656">
        <ele>1766.2</ele>
        <time>2019-03-31T08:10:28Z</time>
      </trkpt>
      <trkpt lat="45.27972" lon="6.16556">
        <ele>1769.8</ele>
        <time>2019-03-31T08:10:33Z</time>
      </trkpt>
      <trkpt lat="45.27972" lon="6.16551">
        <ele>1767.2</ele>
        <time>2019-03-31T08:10:38Z</time>
      </trkpt>
      <trkpt lat="45.27972" lon="6.16546">
        <ele>1770</ele>
        <time>2019-03-31T08:10:43Z</time>
      </trkpt>
      <trkpt lat="45.27972" lon="6.16542">
        <ele>1773.2</ele>
        <time>2019-03-31T08:10:48Z</time>
      </trkpt>
      <trkpt lat="45.27972" lon="6.16537">
        <ele>1769.4</ele>
        <time>2019-03-31T08:10:53Z</time>
      </trkpt>
      <trkpt lat="45.27973" lon="6.16531">
        <ele>1768.4</ele>
        <time>2019-03-31T08:10:58Z</time>
      </trkpt>
      <trkpt lat="45.27972" lon="6.16527">
        <ele>1771.8</ele>
        <time>2019-03-31T08:11:03Z</time>
      </trkpt>
      <trkpt lat="45.27972" lon="6.16523">
        <ele>1770.2</ele>
        <time>2019-03-31T08:11:08Z</time>
      </trkpt>
      <trkpt lat="45.27973" lon="6.16518">
        <ele>1771.6</ele>
        <time>2019-03-31T08:11:13Z</time>
      </trkpt>
      <trkpt lat="45.27974" lon="6.16515">
        <ele>1771.6</ele>
        <time>2019-03-31T08:11:18Z</time>
      </trkpt>
      <trkpt lat="45.27974" lon="6.16511">
        <ele>1772</ele>
        <time>2019-03-31T08:11:23Z</time>
      </trkpt>
      <trkpt lat="45.27975" lon="6.16507">
        <ele>1771</ele>
        <time>2019-03-31T08:11:28Z</time>
      </trkpt>
      <trkpt lat="45.27975" lon="6.16503">
        <ele>1770.2</ele>
        <time>2019-03-31T08:11:33Z</time>
      </trkpt>
      <trkpt lat="45.27976" lon="6.16499">
        <ele>1772.8</ele>
        <time>2019-03-31T08:11:38Z</time>
      </trkpt>
      <trkpt lat="45.27977" lon="6.16496">
        <ele>1773</ele>
        <time>2019-03-31T08:11:43Z</time>
      </trkpt>
      <trkpt lat="45.27976" lon="6.16492">
        <ele>1773.2</ele>
        <time>2019-03-31T08:11:48Z</time>
      </trkpt>
      <trkpt lat="45.27976" lon="6.16487">
        <ele>1772.4</ele>
        <time>2019-03-31T08:11:53Z</time>
      </trkpt>
      <trkpt lat="45.27978" lon="6.16484">
        <ele>1773</ele>
        <time>2019-03-31T08:11:58Z</time>
      </trkpt>
      <trkpt lat="45.2798" lon="6.16481">
        <ele>1772.6</ele>
        <time>2019-03-31T08:12:03Z</time>
      </trkpt>
      <trkpt lat="45.27982" lon="6.16478">
        <ele>1774.4</ele>
        <time>2019-03-31T08:12:08Z</time>
      </trkpt>
      <trkpt lat="45.27985" lon="6.16476">
        <ele>1774.2</ele>
        <time>2019-03-31T08:12:13Z</time>
      </trkpt>
      <trkpt lat="45.27988" lon="6.16473">
        <ele>1776</ele>
        <time>2019-03-31T08:12:18Z</time>
      </trkpt>
      <trkpt lat="45.2799" lon="6.16471">
        <ele>1777.2</ele>
        <time>2019-03-31T08:12:23Z</time>
      </trkpt>
      <trkpt lat="45.2799" lon="6.16468">
        <ele>1777.8</ele>
        <time>2019-03-31T08:12:28Z</time>
      </trkpt>
      <trkpt lat="45.2799" lon="6.16464">
        <ele>1778.2</ele>
        <time>2019-03-31T08:12:33Z</time>
      </trkpt>
      <trkpt lat="45.27989" lon="6.16461">
        <ele>1779.8</ele>
        <time>2019-03-31T08:12:38Z</time>
      </trkpt>
      <trkpt lat="45.27988" lon="6.16457">
        <ele>1777.4</ele>
        <time>2019-03-31T08:12:43Z</time>
      </trkpt>
      <trkpt lat="45.27987" lon="6.16455">
        <ele>1777.6</ele>
        <time>2019-03-31T08:12:48Z</time>
      </trkpt>
      <trkpt lat="45.27986" lon="6.16452">
        <ele>1780.4</ele>
        <time>2019-03-31T08:12:53Z</time>
      </trkpt>
      <trkpt lat="45.27987" lon="6.16447">
        <ele>1781</ele>
        <time>2019-03-31T08:12:58Z</time>
      </trkpt>
      <trkpt lat="45.27988" lon="6.16442">
        <ele>1783.4</ele>
        <time>2019-03-31T08:13:03Z</time>
      </trkpt>
      <trkpt lat="45.27989" lon="6.16438">
        <ele>1784.4</ele>
        <time>2019-03-31T08:13:08Z</time>
      </trkpt>
      <trkpt lat="45.2799" lon="6.16434">
        <ele>1786</ele>
        <time>2019-03-31T08:13:13Z</time>
      </trkpt>
      <trkpt lat="45.27991" lon="6.1643">
        <ele>1784.4</ele>
        <time>2019-03-31T08:13:18Z</time>
      </trkpt>
      <trkpt lat="45.27991" lon="6.16426">
        <ele>1782.4</ele>
        <time>2019-03-31T08:13:23Z</time>
      </trkpt>
      <trkpt lat="45.27992" lon="6.16422">
        <ele>1786.4</ele>
        <time>2019-03-31T08:13:28Z</time>
      </trkpt>
      <trkpt lat="45.27993" lon="6.16418">
        <ele>1785.4</ele>
        <time>2019-03-31T08:13:33Z</time>
      </trkpt>
      <trkpt lat="45.27994" lon="6.16415">
        <ele>1784.8</ele>
        <time>2019-03-31T08:13:38Z</time>
      </trkpt>
      <trkpt lat="45.27995" lon="6.16412">
        <ele>1785.2</ele>
        <time>2019-03-31T08:13:43Z</time>
      </trkpt>
      <trkpt lat="45.27997" lon="6.16409">
        <ele>1786.4</ele>
        <time>2019-03-31T08:13:48Z</time>
      </trkpt>
      <trkpt lat="45.27999" lon="6.16406">
        <ele>1788.2</ele>
        <time>2019-03-31T08:13:53Z</time>
      </trkpt>
      <trkpt lat="45.28001" lon="6.16404">
        <ele>1784.2</ele>
        <time>2019-03-31T08:13:58Z</time>
      </trkpt>
      <trkpt lat="45.28002" lon="6.16401">
        <ele>1789.2</ele>
        <time>2019-03-31T08:14:03Z</time>
      </trkpt>
      <trkpt lat="45.28002" lon="6.16398">
        <ele>1788.6</ele>
        <time>2019-03-31T08:14:08Z</time>
      </trkpt>
      <trkpt lat="45.28001" lon="6.16395">
        <ele>1787.8</ele>
        <time>2019-03-31T08:14:13Z</time>
      </trkpt>
      <trkpt lat="45.27999" lon="6.16392">
        <ele>1787.4</ele>
        <time>2019-03-31T08:14:18Z</time>
      </trkpt>
      <trkpt lat="45.27998" lon="6.16389">
        <ele>1791.8</ele>
        <time>2019-03-31T08:14:23Z</time>
      </trkpt>
      <trkpt lat="45.27999" lon="6.16386">
        <ele>1791.6</ele>
        <time>2019-03-31T08:14:28Z</time>
      </trkpt>
      <trkpt lat="45.28001" lon="6.16383">
        <ele>1791</ele>
        <time>2019-03-31T08:14:33Z</time>
      </trkpt>
      <trkpt lat="45.28003" lon="6.1638">
        <ele>1792.8</ele>
        <time>2019-03-31T08:14:38Z</time>
      </trkpt>
      <trkpt lat="45.28006" lon="6.16378">
        <ele>1795.6</ele>
        <time>2019-03-31T08:14:43Z</time>
      </trkpt>
      <trkpt lat="45.28008" lon="6.16376">
        <ele>1795.4</ele>
        <time>2019-03-31T08:14:48Z</time>
      </trkpt>
      <trkpt lat="45.2801" lon="6.16374">
        <ele>1795.6</ele>
        <time>2019-03-31T08:14:53Z</time>
      </trkpt>
      <trkpt lat="45.28011" lon="6.16374">
        <ele>1798.2</ele>
        <time>2019-03-31T08:14:58Z</time>
      </trkpt>
      <trkpt lat="45.28012" lon="6.16372">
        <ele>1797.8</ele>
        <time>2019-03-31T08:15:03Z</time>
      </trkpt>
      <trkpt lat="45.28013" lon="6.16368">
        <ele>1797.8</ele>
        <time>2019-03-31T08:15:08Z</time>
      </trkpt>
      <trkpt lat="45.28014" lon="6.16364">
        <ele>1801</ele>
        <time>2019-03-31T08:15:13Z</time>
      </trkpt>
      <trkpt lat="45.28014" lon="6.1636">
        <ele>1802</ele>
        <time>2019-03-31T08:15:18Z</time>
      </trkpt>
      <trkpt lat="45.28015" lon="6.16356">
        <ele>1801.2</ele>
        <time>2019-03-31T08:15:23Z</time>
      </trkpt>
      <trkpt lat="45.28015" lon="6.16352">
        <ele>1802.4</ele>
        <time>2019-03-31T08:15:28Z</time>
      </trkpt>
      <trkpt lat="45.28015" lon="6.16349">
        <ele>1801.8</ele>
        <time>2019-03-31T08:15:33Z</time>
      </trkpt>
      <trkpt lat="45.28015" lon="6.16345">
        <ele>1800.2</ele>
        <time>2019-03-31T08:15:38Z</time>
      </trkpt>
      <trkpt lat="45.28015" lon="6.16342">
        <ele>1803</ele>
        <time>2019-03-31T08:15:43Z</time>
      </trkpt>
      <trkpt lat="45.28016" lon="6.16337">
        <ele>1802.4</ele>
        <time>2019-03-31T08:15:48Z</time>
      </trkpt>
      <trkpt lat="45.28017" lon="6.16332">
        <ele>1802</ele>
        <time>2019-03-31T08:15:53Z</time>
      </trkpt>
      <trkpt lat="45.28018" lon="6.16328">
        <ele>1802.6</ele>
        <time>2019-03-31T08:15:58Z</time>
      </trkpt>
      <trkpt lat="45.28018" lon="6.16325">
        <ele>1803</ele>
        <time>2019-03-31T08:16:03Z</time>
      </trkpt>
      <trkpt lat="45.28019" lon="6.16322">
        <ele>1801</ele>
        <time>2019-03-31T08:16:08Z</time>
      </trkpt>
      <trkpt lat="45.2802" lon="6.16319">
        <ele>1802.6</ele>
        <time>2019-03-31T08:16:13Z</time>
      </trkpt>
      <trkpt lat="45.28023" lon="6.16315">
        <ele>1805.8</ele>
        <time>2019-03-31T08:16:18Z</time>
      </trkpt>
      <trkpt lat="45.28025" lon="6.16313">
        <ele>1807</ele>
        <time>2019-03-31T08:16:23Z</time>
      </trkpt>
      <trkpt lat="45.28026" lon="6.16311">
        <ele>1805.2</ele>
        <time>2019-03-31T08:16:28Z</time>
      </trkpt>
      <trkpt lat="45.28028" lon="6.16309">
        <ele>1806.8</ele>
        <time>2019-03-31T08:16:33Z</time>
      </trkpt>
      <trkpt lat="45.28029" lon="6.16305">
        <ele>1808.2</ele>
        <time>2019-03-31T08:16:38Z</time>
      </trkpt>
      <trkpt lat="45.2803" lon="6.16302">
        <ele>1809.6</ele>
        <time>2019-03-31T08:16:43Z</time>
      </trkpt>
      <trkpt lat="45.28031" lon="6.163">
        <ele>1810.8</ele>
        <time>2019-03-31T08:16:48Z</time>
      </trkpt>
      <trkpt lat="45.28033" lon="6.16297">
        <ele>1808</ele>
        <time>2019-03-31T08:16:53Z</time>
      </trkpt>
      <trkpt lat="45.28034" lon="6.16294">
        <ele>1807.6</ele>
        <time>2019-03-31T08:16:58Z</time>
      </trkpt>
      <trkpt lat="45.28038" lon="6.16293">
        <ele>1810</ele>
        <time>2019-03-31T08:17:03Z</time>
      </trkpt>
      <trkpt lat="45.2804" lon="6.16294">
        <ele>1809.4</ele>
        <time>2019-03-31T08:17:08Z</time>
      </trkpt>
      <trkpt lat="45.28042" lon="6.16294">
        <ele>1810.4</ele>
        <time>2019-03-31T08:17:13Z</time>
      </trkpt>
      <trkpt lat="45.28045" lon="6.16292">
        <ele>1812.4</ele>
        <time>2019-03-31T08:17:18Z</time>
      </trkpt>
      <trkpt lat="45.28046" lon="6.16289">
        <ele>1810.6</ele>
        <time>2019-03-31T08:17:23Z</time>
      </trkpt>
      <trkpt lat="45.28049" lon="6.16286">
        <ele>1813.4</ele>
        <time>2019-03-31T08:17:29Z</time>
      </trkpt>
      <trkpt lat="45.28051" lon="6.16284">
        <ele>1812.2</ele>
        <time>2019-03-31T08:17:34Z</time>
      </trkpt>
      <trkpt lat="45.28053" lon="6.16281">
        <ele>1813.6</ele>
        <time>2019-03-31T08:17:39Z</time>
      </trkpt>
      <trkpt lat="45.28055" lon="6.16278">
        <ele>1813</ele>
        <time>2019-03-31T08:17:44Z</time>
      </trkpt>
      <trkpt lat="45.28058" lon="6.16276">
        <ele>1813.2</ele>
        <time>2019-03-31T08:17:49Z</time>
      </trkpt>
      <trkpt lat="45.28059" lon="6.16274">
        <ele>1813.8</ele>
        <time>2019-03-31T08:17:54Z</time>
      </trkpt>
      <trkpt lat="45.28061" lon="6.16271">
        <ele>1815.6</ele>
        <time>2019-03-31T08:17:59Z</time>
      </trkpt>
      <trkpt lat="45.28063" lon="6.16269">
        <ele>1816.6</ele>
        <time>2019-03-31T08:18:04Z</time>
      </trkpt>
      <trkpt lat="45.28066" lon="6.16267">
        <ele>1819</ele>
        <time>2019-03-31T08:18:09Z</time>
      </trkpt>
      <trkpt lat="45.2807" lon="6.16266">
        <ele>1819</ele>
        <time>2019-03-31T08:18:14Z</time>
      </trkpt>
      <trkpt lat="45.28072" lon="6.16264">
        <ele>1819.8</ele>
        <time>2019-03-31T08:18:19Z</time>
      </trkpt>
      <trkpt lat="45.28074" lon="6.16262">
        <ele>1820</ele>
        <time>2019-03-31T08:18:24Z</time>
      </trkpt>
      <trkpt lat="45.28076" lon="6.1626">
        <ele>1819.2</ele>
        <time>2019-03-31T08:18:29Z</time>
      </trkpt>
      <trkpt lat="45.28077" lon="6.16258">
        <ele>1821.6</ele>
        <time>2019-03-31T08:18:34Z</time>
      </trkpt>
      <trkpt lat="45.2808" lon="6.16256">
        <ele>1822</ele>
        <time>2019-03-31T08:18:39Z</time>
      </trkpt>
      <trkpt lat="45.28082" lon="6.16254">
        <ele>1823.8</ele>
        <time>2019-03-31T08:18:44Z</time>
      </trkpt>
      <trkpt lat="45.28084" lon="6.16252">
        <ele>1823.6</ele>
        <time>2019-03-31T08:18:49Z</time>
      </trkpt>
      <trkpt lat="45.28087" lon="6.1625">
        <ele>1822.8</ele>
        <time>2019-03-31T08:18:54Z</time>
      </trkpt>
      <trkpt lat="45.28089" lon="6.16248">
        <ele>1824.4</ele>
        <time>2019-03-31T08:18:59Z</time>
      </trkpt>
      <trkpt lat="45.28092" lon="6.16247">
        <ele>1823.2</ele>
        <time>2019-03-31T08:19:04Z</time>
      </trkpt>
      <trkpt lat="45.28093" lon="6.16246">
        <ele>1825.2</ele>
        <time>2019-03-31T08:19:09Z</time>
      </trkpt>
      <trkpt lat="45.28095" lon="6.16244">
        <ele>1823.8</ele>
        <time>2019-03-31T08:19:14Z</time>
      </trkpt>
      <trkpt lat="45.28097" lon="6.16243">
        <ele>1825.2</ele>
        <time>2019-03-31T08:19:19Z</time>
      </trkpt>
      <trkpt lat="45.28099" lon="6.16241">
        <ele>1826.6</ele>
        <time>2019-03-31T08:19:24Z</time>
      </trkpt>
      <trkpt lat="45.28101" lon="6.1624">
        <ele>1825.2</ele>
        <time>2019-03-31T08:19:29Z</time>
      </trkpt>
      <trkpt lat="45.28104" lon="6.16238">
        <ele>1826.6</ele>
        <time>2019-03-31T08:19:34Z</time>
      </trkpt>
      <trkpt lat="45.28107" lon="6.16236">
        <ele>1828.2</ele>
        <time>2019-03-31T08:19:39Z</time>
      </trkpt>
      <trkpt lat="45.28109" lon="6.16235">
        <ele>1829</ele>
        <time>2019-03-31T08:19:44Z</time>
      </trkpt>
      <trkpt lat="45.28112" lon="6.16233">
        <ele>1827.6</ele>
        <time>2019-03-31T08:19:49Z</time>
      </trkpt>
      <trkpt lat="45.28115" lon="6.16232">
        <ele>1829.4</ele>
        <time>2019-03-31T08:19:54Z</time>
      </trkpt>
      <trkpt lat="45.28117" lon="6.1623">
        <ele>1829.6</ele>
        <time>2019-03-31T08:19:59Z</time>
      </trkpt>
      <trkpt lat="45.2812" lon="6.16229">
        <ele>1831</ele>
        <time>2019-03-31T08:20:04Z</time>
      </trkpt>
      <trkpt lat="45.28122" lon="6.16227">
        <ele>1830.6</ele>
        <time>2019-03-31T08:20:09Z</time>
      </trkpt>
      <trkpt lat="45.28125" lon="6.16225">
        <ele>1830.2</ele>
        <time>2019-03-31T08:20:14Z</time>
      </trkpt>
      <trkpt lat="45.28124" lon="6.16221">
        <ele>1834</ele>
        <time>2019-03-31T08:20:19Z</time>
      </trkpt>
      <trkpt lat="45.28123" lon="6.16218">
        <ele>1833</ele>
        <time>2019-03-31T08:20:24Z</time>
      </trkpt>
      <trkpt lat="45.28121" lon="6.16215">
        <ele>1834</ele>
        <time>2019-03-31T08:20:29Z</time>
      </trkpt>
      <trkpt lat="45.2812" lon="6.16212">
        <ele>1840.4</ele>
        <time>2019-03-31T08:20:34Z</time>
      </trkpt>
      <trkpt lat="45.2812" lon="6.16208">
        <ele>1835</ele>
        <time>2019-03-31T08:20:39Z</time>
      </trkpt>
      <trkpt lat="45.2812" lon="6.16204">
        <ele>1836.4</ele>
        <time>2019-03-31T08:20:44Z</time>
      </trkpt>
      <trkpt lat="45.2812" lon="6.16201">
        <ele>1835.4</ele>
        <time>2019-03-31T08:20:49Z</time>
      </trkpt>
      <trkpt lat="45.2812" lon="6.16198">
        <ele>1836.6</ele>
        <time>2019-03-31T08:20:54Z</time>
      </trkpt>
      <trkpt lat="45.28121" lon="6.16194">
        <ele>1837.4</ele>
        <time>2019-03-31T08:20:59Z</time>
      </trkpt>
      <trkpt lat="45.28122" lon="6.16191">
        <ele>1838.4</ele>
        <time>2019-03-31T08:21:04Z</time>
      </trkpt>
      <trkpt lat="45.28123" lon="6.16188">
        <ele>1838.4</ele>
        <time>2019-03-31T08:21:09Z</time>
      </trkpt>
      <trkpt lat="45.28124" lon="6.16185">
        <ele>1837.8</ele>
        <time>2019-03-31T08:21:14Z</time>
      </trkpt>
      <trkpt lat="45.28125" lon="6.16182">
        <ele>1841.8</ele>
        <time>2019-03-31T08:21:19Z</time>
      </trkpt>
      <trkpt lat="45.28127" lon="6.16179">
        <ele>1840.6</ele>
        <time>2019-03-31T08:21:24Z</time>
      </trkpt>
      <trkpt lat="45.28128" lon="6.16177">
        <ele>1840.4</ele>
        <time>2019-03-31T08:21:29Z</time>
      </trkpt>
      <trkpt lat="45.28129" lon="6.16173">
        <ele>1840</ele>
        <time>2019-03-31T08:21:34Z</time>
      </trkpt>
      <trkpt lat="45.2813" lon="6.16169">
        <ele>1841.8</ele>
        <time>2019-03-31T08:21:39Z</time>
      </trkpt>
      <trkpt lat="45.28131" lon="6.16166">
        <ele>1841.6</ele>
        <time>2019-03-31T08:21:44Z</time>
      </trkpt>
      <trkpt lat="45.28132" lon="6.16163">
        <ele>1840.4</ele>
        <time>2019-03-31T08:21:49Z</time>
      </trkpt>
      <trkpt lat="45.28132" lon="6.16159">
        <ele>1844.2</ele>
        <time>2019-03-31T08:21:54Z</time>
      </trkpt>
      <trkpt lat="45.28135" lon="6.16158">
        <ele>1844.2</ele>
        <time>2019-03-31T08:21:59Z</time>
      </trkpt>
      <trkpt lat="45.28138" lon="6.1616">
        <ele>1842.6</ele>
        <time>2019-03-31T08:22:04Z</time>
      </trkpt>
      <trkpt lat="45.28141" lon="6.16161">
        <ele>1845.8</ele>
        <time>2019-03-31T08:22:09Z</time>
      </trkpt>
      <trkpt lat="45.28143" lon="6.16162">
        <ele>1846.6</ele>
        <time>2019-03-31T08:22:14Z</time>
      </trkpt>
      <trkpt lat="45.28145" lon="6.1616">
        <ele>1847.6</ele>
        <time>2019-03-31T08:22:19Z</time>
      </trkpt>
      <trkpt lat="45.28145" lon="6.16157">
        <ele>1845</ele>
        <time>2019-03-31T08:22:24Z</time>
      </trkpt>
      <trkpt lat="45.28146" lon="6.16154">
        <ele>1845.8</ele>
        <time>2019-03-31T08:22:29Z</time>
      </trkpt>
      <trkpt lat="45.28146" lon="6.1615">
        <ele>1848.4</ele>
        <time>2019-03-31T08:22:34Z</time>
      </trkpt>
      <trkpt lat="45.28146" lon="6.16147">
        <ele>1847</ele>
        <time>2019-03-31T08:22:39Z</time>
      </trkpt>
      <trkpt lat="45.28147" lon="6.16143">
        <ele>1849.8</ele>
        <time>2019-03-31T08:22:44Z</time>
      </trkpt>
      <trkpt lat="45.28149" lon="6.16142">
        <ele>1849.4</ele>
        <time>2019-03-31T08:22:49Z</time>
      </trkpt>
      <trkpt lat="45.28151" lon="6.16143">
        <ele>1851.2</ele>
        <time>2019-03-31T08:22:54Z</time>
      </trkpt>
      <trkpt lat="45.28154" lon="6.16144">
        <ele>1851.8</ele>
        <time>2019-03-31T08:22:59Z</time>
      </trkpt>
      <trkpt lat="45.28157" lon="6.16146">
        <ele>1849.4</ele>
        <time>2019-03-31T08:23:04Z</time>
      </trkpt>
      <trkpt lat="45.28159" lon="6.16147">
        <ele>1849.4</ele>
        <time>2019-03-31T08:23:09Z</time>
      </trkpt>
      <trkpt lat="45.28161" lon="6.16148">
        <ele>1848.6</ele>
        <time>2019-03-31T08:23:14Z</time>
      </trkpt>
      <trkpt lat="45.28163" lon="6.1615">
        <ele>1848.6</ele>
        <time>2019-03-31T08:23:19Z</time>
      </trkpt>
      <trkpt lat="45.28165" lon="6.16153">
        <ele>1849.8</ele>
        <time>2019-03-31T08:23:24Z</time>
      </trkpt>
      <trkpt lat="45.28167" lon="6.16151">
        <ele>1849.8</ele>
        <time>2019-03-31T08:23:30Z</time>
      </trkpt>
      <trkpt lat="45.28168" lon="6.16148">
        <ele>1852.2</ele>
        <time>2019-03-31T08:23:35Z</time>
      </trkpt>
      <trkpt lat="45.2817" lon="6.16145">
        <ele>1852.2</ele>
        <time>2019-03-31T08:23:40Z</time>
      </trkpt>
      <trkpt lat="45.28171" lon="6.16142">
        <ele>1852.4</ele>
        <time>2019-03-31T08:23:45Z</time>
      </trkpt>
      <trkpt lat="45.28172" lon="6.16139">
        <ele>1854</ele>
        <time>2019-03-31T08:23:50Z</time>
      </trkpt>
      <trkpt lat="45.28174" lon="6.16139">
        <ele>1853.4</ele>
        <time>2019-03-31T08:23:55Z</time>
      </trkpt>
      <trkpt lat="45.28176" lon="6.16141">
        <ele>1854</ele>
        <time>2019-03-31T08:24:00Z</time>
      </trkpt>
      <trkpt lat="45.28178" lon="6.16143">
        <ele>1854.4</ele>
        <time>2019-03-31T08:24:05Z</time>
      </trkpt>
      <trkpt lat="45.28179" lon="6.16145">
        <ele>1854.2</ele>
        <time>2019-03-31T08:24:10Z</time>
      </trkpt>
      <trkpt lat="45.28181" lon="6.16148">
        <ele>1856.8</ele>
        <time>2019-03-31T08:24:15Z</time>
      </trkpt>
      <trkpt lat="45.28183" lon="6.16149">
        <ele>1858</ele>
        <time>2019-03-31T08:24:20Z</time>
      </trkpt>
      <trkpt lat="45.28186" lon="6.16149">
        <ele>1857</ele>
        <time>2019-03-31T08:24:25Z</time>
      </trkpt>
      <trkpt lat="45.28189" lon="6.16148">
        <ele>1858.2</ele>
        <time>2019-03-31T08:24:30Z</time>
      </trkpt>
      <trkpt lat="45.2819" lon="6.16146">
        <ele>1858.4</ele>
        <time>2019-03-31T08:24:35Z</time>
      </trkpt>
      <trkpt lat="45.28192" lon="6.16143">
        <ele>1857.8</ele>
        <time>2019-03-31T08:24:40Z</time>
      </trkpt>
      <trkpt lat="45.28195" lon="6.1614">
        <ele>1860.4</ele>
        <time>2019-03-31T08:24:45Z</time>
      </trkpt>
      <trkpt lat="45.28196" lon="6.16137">
        <ele>1860.4</ele>
        <time>2019-03-31T08:24:50Z</time>
      </trkpt>
      <trkpt lat="45.28198" lon="6.16134">
        <ele>1863.8</ele>
        <time>2019-03-31T08:24:55Z</time>
      </trkpt>
      <trkpt lat="45.28199" lon="6.16131">
        <ele>1864.4</ele>
        <time>2019-03-31T08:25:00Z</time>
      </trkpt>
      <trkpt lat="45.282" lon="6.16129">
        <ele>1866.2</ele>
        <time>2019-03-31T08:25:05Z</time>
      </trkpt>
      <trkpt lat="45.28202" lon="6.16127">
        <ele>1863</ele>
        <time>2019-03-31T08:25:10Z</time>
      </trkpt>
      <trkpt lat="45.28203" lon="6.16129">
        <ele>1868</ele>
        <time>2019-03-31T08:25:15Z</time>
      </trkpt>
      <trkpt lat="45.28205" lon="6.16132">
        <ele>1868.2</ele>
        <time>2019-03-31T08:25:20Z</time>
      </trkpt>
      <trkpt lat="45.28207" lon="6.16135">
        <ele>1864.2</ele>
        <time>2019-03-31T08:25:25Z</time>
      </trkpt>
      <trkpt lat="45.28209" lon="6.16136">
        <ele>1870</ele>
        <time>2019-03-31T08:25:30Z</time>
      </trkpt>
      <trkpt lat="45.2821" lon="6.16139">
        <ele>1867.6</ele>
        <time>2019-03-31T08:25:35Z</time>
      </trkpt>
      <trkpt lat="45.28211" lon="6.16142">
        <ele>1870.4</ele>
        <time>2019-03-31T08:25:40Z</time>
      </trkpt>
      <trkpt lat="45.28214" lon="6.1614">
        <ele>1869.2</ele>
        <time>2019-03-31T08:25:45Z</time>
      </trkpt>
      <trkpt lat="45.28216" lon="6.16139">
        <ele>1868.6</ele>
        <time>2019-03-31T08:25:50Z</time>
      </trkpt>
      <trkpt lat="45.28218" lon="6.16136">
        <ele>1869.4</ele>
        <time>2019-03-31T08:25:55Z</time>
      </trkpt>
      <trkpt lat="45.2822" lon="6.16133">
        <ele>1870.8</ele>
        <time>2019-03-31T08:26:00Z</time>
      </trkpt>
      <trkpt lat="45.28221" lon="6.1613">
        <ele>1872</ele>
        <time>2019-03-31T08:26:05Z</time>
      </trkpt>
      <trkpt lat="45.28222" lon="6.16127">
        <ele>1872.4</ele>
        <time>2019-03-31T08:26:10Z</time>
      </trkpt>
      <trkpt lat="45.28222" lon="6.16124">
        <ele>1873.2</ele>
        <time>2019-03-31T08:26:15Z</time>
      </trkpt>
      <trkpt lat="45.28222" lon="6.16121">
        <ele>1873.6</ele>
        <time>2019-03-31T08:26:20Z</time>
      </trkpt>
      <trkpt lat="45.28223" lon="6.16122">
        <ele>1873.4</ele>
        <time>2019-03-31T08:26:25Z</time>
      </trkpt>
      <trkpt lat="45.28225" lon="6.16123">
        <ele>1876.4</ele>
        <time>2019-03-31T08:26:30Z</time>
      </trkpt>
      <trkpt lat="45.28227" lon="6.16124">
        <ele>1875</ele>
        <time>2019-03-31T08:26:35Z</time>
      </trkpt>
      <trkpt lat="45.28228" lon="6.16126">
        <ele>1875.8</ele>
        <time>2019-03-31T08:26:40Z</time>
      </trkpt>
      <trkpt lat="45.28229" lon="6.16128">
        <ele>1875</ele>
        <time>2019-03-31T08:26:45Z</time>
      </trkpt>
      <trkpt lat="45.2823" lon="6.1613">
        <ele>1876.8</ele>
        <time>2019-03-31T08:26:50Z</time>
      </trkpt>
      <trkpt lat="45.28232" lon="6.16133">
        <ele>1876.2</ele>
        <time>2019-03-31T08:26:55Z</time>
      </trkpt>
      <trkpt lat="45.28233" lon="6.16135">
        <ele>1875.4</ele>
        <time>2019-03-31T08:27:00Z</time>
      </trkpt>
      <trkpt lat="45.28235" lon="6.16136">
        <ele>1876</ele>
        <time>2019-03-31T08:27:05Z</time>
      </trkpt>
      <trkpt lat="45.28236" lon="6.16134">
        <ele>1876.6</ele>
        <time>2019-03-31T08:27:10Z</time>
      </trkpt>
      <trkpt lat="45.28238" lon="6.16132">
        <ele>1880.4</ele>
        <time>2019-03-31T08:27:15Z</time>
      </trkpt>
      <trkpt lat="45.28239" lon="6.16129">
        <ele>1877.8</ele>
        <time>2019-03-31T08:27:20Z</time>
      </trkpt>
      <trkpt lat="45.28239" lon="6.16125">
        <ele>1880.6</ele>
        <time>2019-03-31T08:27:25Z</time>
      </trkpt>
      <trkpt lat="45.2824" lon="6.16122">
        <ele>1881.4</ele>
        <time>2019-03-31T08:27:30Z</time>
      </trkpt>
      <trkpt lat="45.28242" lon="6.16119">
        <ele>1881.2</ele>
        <time>2019-03-31T08:27:35Z</time>
      </trkpt>
      <trkpt lat="45.28243" lon="6.16116">
        <ele>1880</ele>
        <time>2019-03-31T08:27:40Z</time>
      </trkpt>
      <trkpt lat="45.28244" lon="6.16113">
        <ele>1883.6</ele>
        <time>2019-03-31T08:27:45Z</time>
      </trkpt>
      <trkpt lat="45.28245" lon="6.1611">
        <ele>1883.8</ele>
        <time>2019-03-31T08:27:50Z</time>
      </trkpt>
      <trkpt lat="45.28245" lon="6.16107">
        <ele>1885.2</ele>
        <time>2019-03-31T08:27:55Z</time>
      </trkpt>
      <trkpt lat="45.28244" lon="6.16103">
        <ele>1884.8</ele>
        <time>2019-03-31T08:28:00Z</time>
      </trkpt>
      <trkpt lat="45.28244" lon="6.16101">
        <ele>1886.4</ele>
        <time>2019-03-31T08:28:05Z</time>
      </trkpt>
      <trkpt lat="45.28246" lon="6.161">
        <ele>1885</ele>
        <time>2019-03-31T08:28:10Z</time>
      </trkpt>
      <trkpt lat="45.28247" lon="6.161">
        <ele>1884.4</ele>
        <time>2019-03-31T08:28:15Z</time>
      </trkpt>
      <trkpt lat="45.2825" lon="6.16101">
        <ele>1887.6</ele>
        <time>2019-03-31T08:28:20Z</time>
      </trkpt>
      <trkpt lat="45.28252" lon="6.16102">
        <ele>1887.6</ele>
        <time>2019-03-31T08:28:25Z</time>
      </trkpt>
      <trkpt lat="45.28254" lon="6.16102">
        <ele>1887.6</ele>
        <time>2019-03-31T08:28:30Z</time>
      </trkpt>
      <trkpt lat="45.28256" lon="6.16104">
        <ele>1889.6</ele>
        <time>2019-03-31T08:28:35Z</time>
      </trkpt>
      <trkpt lat="45.28258" lon="6.16105">
        <ele>1891</ele>
        <time>2019-03-31T08:28:40Z</time>
      </trkpt>
      <trkpt lat="45.2826" lon="6.16107">
        <ele>1891.4</ele>
        <time>2019-03-31T08:28:45Z</time>
      </trkpt>
      <trkpt lat="45.28262" lon="6.16106">
        <ele>1891.4</ele>
        <time>2019-03-31T08:28:50Z</time>
      </trkpt>
      <trkpt lat="45.28263" lon="6.16103">
        <ele>1889.8</ele>
        <time>2019-03-31T08:28:55Z</time>
      </trkpt>
      <trkpt lat="45.28264" lon="6.16099">
        <ele>1893</ele>
        <time>2019-03-31T08:29:00Z</time>
      </trkpt>
      <trkpt lat="45.28264" lon="6.16096">
        <ele>1893.6</ele>
        <time>2019-03-31T08:29:05Z</time>
      </trkpt>
      <trkpt lat="45.28264" lon="6.16093">
        <ele>1891.8</ele>
        <time>2019-03-31T08:29:10Z</time>
      </trkpt>
      <trkpt lat="45.28264" lon="6.16089">
        <ele>1891.4</ele>
        <time>2019-03-31T08:29:15Z</time>
      </trkpt>
      <trkpt lat="45.28264" lon="6.16086">
        <ele>1891.6</ele>
        <time>2019-03-31T08:29:20Z</time>
      </trkpt>
      <trkpt lat="45.28265" lon="6.16085">
        <ele>1894.4</ele>
        <time>2019-03-31T08:29:25Z</time>
      </trkpt>
      <trkpt lat="45.28268" lon="6.16085">
        <ele>1894.4</ele>
        <time>2019-03-31T08:29:30Z</time>
      </trkpt>
      <trkpt lat="45.2827" lon="6.16087">
        <ele>1894.2</ele>
        <time>2019-03-31T08:29:35Z</time>
      </trkpt>
      <trkpt lat="45.28271" lon="6.16088">
        <ele>1895</ele>
        <time>2019-03-31T08:29:40Z</time>
      </trkpt>
      <trkpt lat="45.28273" lon="6.1609">
        <ele>1896.4</ele>
        <time>2019-03-31T08:29:45Z</time>
      </trkpt>
      <trkpt lat="45.28275" lon="6.16091">
        <ele>1896.6</ele>
        <time>2019-03-31T08:29:50Z</time>
      </trkpt>
      <trkpt lat="45.28276" lon="6.16094">
        <ele>1896.6</ele>
        <time>2019-03-31T08:29:55Z</time>
      </trkpt>
      <trkpt lat="45.28278" lon="6.16096">
        <ele>1897.4</ele>
        <time>2019-03-31T08:30:00Z</time>
      </trkpt>
      <trkpt lat="45.2828" lon="6.16097">
        <ele>1899.4</ele>
        <time>2019-03-31T08:30:05Z</time>
      </trkpt>
      <trkpt lat="45.28281" lon="6.16095">
        <ele>1898.4</ele>
        <time>2019-03-31T08:30:10Z</time>
      </trkpt>
      <trkpt lat="45.28283" lon="6.16091">
        <ele>1900</ele>
        <time>2019-03-31T08:30:15Z</time>
      </trkpt>
      <trkpt lat="45.28283" lon="6.16088">
        <ele>1900.8</ele>
        <time>2019-03-31T08:30:20Z</time>
      </trkpt>
      <trkpt lat="45.28283" lon="6.16084">
        <ele>1903</ele>
        <time>2019-03-31T08:30:25Z</time>
      </trkpt>
      <trkpt lat="45.28284" lon="6.16081">
        <ele>1902</ele>
        <time>2019-03-31T08:30:30Z</time>
      </trkpt>
      <trkpt lat="45.28284" lon="6.16077">
        <ele>1901</ele>
        <time>2019-03-31T08:30:35Z</time>
      </trkpt>
      <trkpt lat="45.28284" lon="6.16075">
        <ele>1901.8</ele>
        <time>2019-03-31T08:30:40Z</time>
      </trkpt>
      <trkpt lat="45.28284" lon="6.16072">
        <ele>1901.2</ele>
        <time>2019-03-31T08:30:45Z</time>
      </trkpt>
      <trkpt lat="45.28284" lon="6.16068">
        <ele>1901.2</ele>
        <time>2019-03-31T08:30:50Z</time>
      </trkpt>
      <trkpt lat="45.28285" lon="6.16065">
        <ele>1906.6</ele>
        <time>2019-03-31T08:30:55Z</time>
      </trkpt>
      <trkpt lat="45.28285" lon="6.16062">
        <ele>1906.2</ele>
        <time>2019-03-31T08:31:00Z</time>
      </trkpt>
      <trkpt lat="45.28285" lon="6.16059">
        <ele>1906.2</ele>
        <time>2019-03-31T08:31:05Z</time>
      </trkpt>
      <trkpt lat="45.28287" lon="6.16059">
        <ele>1904.4</ele>
        <time>2019-03-31T08:31:10Z</time>
      </trkpt>
      <trkpt lat="45.28289" lon="6.1606">
        <ele>1907.4</ele>
        <time>2019-03-31T08:31:15Z</time>
      </trkpt>
      <trkpt lat="45.28291" lon="6.16061">
        <ele>1906.2</ele>
        <time>2019-03-31T08:31:20Z</time>
      </trkpt>
      <trkpt lat="45.28293" lon="6.16063">
        <ele>1907.8</ele>
        <time>2019-03-31T08:31:25Z</time>
      </trkpt>
      <trkpt lat="45.28295" lon="6.16065">
        <ele>1907.4</ele>
        <time>2019-03-31T08:31:30Z</time>
      </trkpt>
      <trkpt lat="45.28297" lon="6.16066">
        <ele>1909.6</ele>
        <time>2019-03-31T08:31:35Z</time>
      </trkpt>
      <trkpt lat="45.28299" lon="6.16068">
        <ele>1907.2</ele>
        <time>2019-03-31T08:31:40Z</time>
      </trkpt>
      <trkpt lat="45.28301" lon="6.16069">
        <ele>1912.4</ele>
        <time>2019-03-31T08:31:45Z</time>
      </trkpt>
      <trkpt lat="45.28302" lon="6.16071">
        <ele>1913</ele>
        <time>2019-03-31T08:31:50Z</time>
      </trkpt>
      <trkpt lat="45.28304" lon="6.16073">
        <ele>1910.8</ele>
        <time>2019-03-31T08:31:55Z</time>
      </trkpt>
      <trkpt lat="45.28306" lon="6.16072">
        <ele>1911.4</ele>
        <time>2019-03-31T08:32:00Z</time>
      </trkpt>
      <trkpt lat="45.28307" lon="6.1607">
        <ele>1912</ele>
        <time>2019-03-31T08:32:05Z</time>
      </trkpt>
      <trkpt lat="45.28307" lon="6.16066">
        <ele>1914.2</ele>
        <time>2019-03-31T08:32:10Z</time>
      </trkpt>
      <trkpt lat="45.28308" lon="6.16063">
        <ele>1913.2</ele>
        <time>2019-03-31T08:32:15Z</time>
      </trkpt>
      <trkpt lat="45.28308" lon="6.1606">
        <ele>1914.2</ele>
        <time>2019-03-31T08:32:20Z</time>
      </trkpt>
      <trkpt lat="45.28309" lon="6.16057">
        <ele>1917.4</ele>
        <time>2019-03-31T08:32:25Z</time>
      </trkpt>
      <trkpt lat="45.2831" lon="6.16054">
        <ele>1911.8</ele>
        <time>2019-03-31T08:32:30Z</time>
      </trkpt>
      <trkpt lat="45.28311" lon="6.16052">
        <ele>1918.4</ele>
        <time>2019-03-31T08:32:35Z</time>
      </trkpt>
      <trkpt lat="45.28312" lon="6.16049">
        <ele>1913.4</ele>
        <time>2019-03-31T08:32:40Z</time>
      </trkpt>
      <trkpt lat="45.28313" lon="6.16046">
        <ele>1917.2</ele>
        <time>2019-03-31T08:32:45Z</time>
      </trkpt>
      <trkpt lat="45.28314" lon="6.16043">
        <ele>1918.8</ele>
        <time>2019-03-31T08:32:50Z</time>
      </trkpt>
      <trkpt lat="45.28314" lon="6.1604">
        <ele>1919.2</ele>
        <time>2019-03-31T08:32:55Z</time>
      </trkpt>
      <trkpt lat="45.28314" lon="6.16037">
        <ele>1921.4</ele>
        <time>2019-03-31T08:33:00Z</time>
      </trkpt>
      <trkpt lat="45.28314" lon="6.16034">
        <ele>1921</ele>
        <time>2019-03-31T08:33:05Z</time>
      </trkpt>
      <trkpt lat="45.28314" lon="6.16032">
        <ele>1920.6</ele>
        <time>2019-03-31T08:33:10Z</time>
      </trkpt>
      <trkpt lat="45.28313" lon="6.1603">
        <ele>1921</ele>
        <time>2019-03-31T08:33:15Z</time>
      </trkpt>
      <trkpt lat="45.28312" lon="6.16027">
        <ele>1923.6</ele>
        <time>2019-03-31T08:33:20Z</time>
      </trkpt>
      <trkpt lat="45.28311" lon="6.16024">
        <ele>1925.2</ele>
        <time>2019-03-31T08:33:25Z</time>
      </trkpt>
      <trkpt lat="45.28313" lon="6.16023">
        <ele>1923.2</ele>
        <time>2019-03-31T08:33:30Z</time>
      </trkpt>
      <trkpt lat="45.28315" lon="6.16023">
        <ele>1921.8</ele>
        <time>2019-03-31T08:33:35Z</time>
      </trkpt>
      <trkpt lat="45.28317" lon="6.16024">
        <ele>1922.6</ele>
        <time>2019-03-31T08:33:40Z</time>
      </trkpt>
      <trkpt lat="45.28319" lon="6.16025">
        <ele>1921</ele>
        <time>2019-03-31T08:33:45Z</time>
      </trkpt>
      <trkpt lat="45.28321" lon="6.16025">
        <ele>1922.2</ele>
        <time>2019-03-31T08:33:50Z</time>
      </trkpt>
      <trkpt lat="45.28323" lon="6.16026">
        <ele>1925</ele>
        <time>2019-03-31T08:33:55Z</time>
      </trkpt>
      <trkpt lat="45.28325" lon="6.16026">
        <ele>1927.6</ele>
        <time>2019-03-31T08:34:00Z</time>
      </trkpt>
      <trkpt lat="45.28327" lon="6.16027">
        <ele>1927</ele>
        <time>2019-03-31T08:34:05Z</time>
      </trkpt>
      <trkpt lat="45.28329" lon="6.16028">
        <ele>1925.6</ele>
        <time>2019-03-31T08:34:10Z</time>
      </trkpt>
      <trkpt lat="45.28332" lon="6.16028">
        <ele>1926.4</ele>
        <time>2019-03-31T08:34:15Z</time>
      </trkpt>
      <trkpt lat="45.28334" lon="6.16029">
        <ele>1927.6</ele>
        <time>2019-03-31T08:34:20Z</time>
      </trkpt>
      <trkpt lat="45.28336" lon="6.16029">
        <ele>1928.4</ele>
        <time>2019-03-31T08:34:25Z</time>
      </trkpt>
      <trkpt lat="45.28339" lon="6.16029">
        <ele>1929.4</ele>
        <time>2019-03-31T08:34:30Z</time>
      </trkpt>
      <trkpt lat="45.28341" lon="6.16029">
        <ele>1927.8</ele>
        <time>2019-03-31T08:34:35Z</time>
      </trkpt>
      <trkpt lat="45.28344" lon="6.16029">
        <ele>1930.8</ele>
        <time>2019-03-31T08:34:40Z</time>
      </trkpt>
      <trkpt lat="45.28346" lon="6.1603">
        <ele>1929.6</ele>
        <time>2019-03-31T08:34:45Z</time>
      </trkpt>
      <trkpt lat="45.28348" lon="6.16031">
        <ele>1929.2</ele>
        <time>2019-03-31T08:34:50Z</time>
      </trkpt>
      <trkpt lat="45.2835" lon="6.1603">
        <ele>1932.8</ele>
        <time>2019-03-31T08:34:55Z</time>
      </trkpt>
      <trkpt lat="45.28351" lon="6.16028">
        <ele>1932.4</ele>
        <time>2019-03-31T08:35:00Z</time>
      </trkpt>
      <trkpt lat="45.28352" lon="6.16025">
        <ele>1930.2</ele>
        <time>2019-03-31T08:35:05Z</time>
      </trkpt>
      <trkpt lat="45.28352" lon="6.16022">
        <ele>1934</ele>
        <time>2019-03-31T08:35:10Z</time>
      </trkpt>
      <trkpt lat="45.28352" lon="6.16019">
        <ele>1934.2</ele>
        <time>2019-03-31T08:35:15Z</time>
      </trkpt>
      <trkpt lat="45.28352" lon="6.16016">
        <ele>1935.8</ele>
        <time>2019-03-31T08:35:20Z</time>
      </trkpt>
      <trkpt lat="45.28351" lon="6.16014">
        <ele>1931.8</ele>
        <time>2019-03-31T08:35:25Z</time>
      </trkpt>
      <trkpt lat="45.2835" lon="6.16012">
        <ele>1930.4</ele>
        <time>2019-03-31T08:35:30Z</time>
      </trkpt>
      <trkpt lat="45.2835" lon="6.1601">
        <ele>1932.4</ele>
        <time>2019-03-31T08:35:35Z</time>
      </trkpt>
      <trkpt lat="45.2835" lon="6.16007">
        <ele>1932.2</ele>
        <time>2019-03-31T08:35:40Z</time>
      </trkpt>
      <trkpt lat="45.2835" lon="6.16006">
        <ele>1938.2</ele>
        <time>2019-03-31T08:38:15Z</time>
      </trkpt>
      <trkpt lat="45.2835" lon="6.16006">
        <ele>1936.8</ele>
        <time>2019-03-31T08:40:50Z</time>
      </trkpt>
      <trkpt lat="45.28349" lon="6.16003">
        <ele>1935.2</ele>
        <time>2019-03-31T08:40:55Z</time>
      </trkpt>
      <trkpt lat="45.28348" lon="6.16">
        <ele>1937.6</ele>
        <time>2019-03-31T08:41:00Z</time>
      </trkpt>
      <trkpt lat="45.28348" lon="6.15996">
        <ele>1936</ele>
        <time>2019-03-31T08:41:05Z</time>
      </trkpt>
      <trkpt lat="45.28347" lon="6.15993">
        <ele>1939.8</ele>
        <time>2019-03-31T08:41:10Z</time>
      </trkpt>
      <trkpt lat="45.28346" lon="6.15991">
        <ele>1937.6</ele>
        <time>2019-03-31T08:41:15Z</time>
      </trkpt>
      <trkpt lat="45.28347" lon="6.15987">
        <ele>1940.4</ele>
        <time>2019-03-31T08:41:20Z</time>
      </trkpt>
      <trkpt lat="45.28347" lon="6.15985">
        <ele>1941.2</ele>
        <time>2019-03-31T08:41:25Z</time>
      </trkpt>
      <trkpt lat="45.28348" lon="6.15981">
        <ele>1941.2</ele>
        <time>2019-03-31T08:41:30Z</time>
      </trkpt>
      <trkpt lat="45.28349" lon="6.15977">
        <ele>1944</ele>
        <time>2019-03-31T08:41:35Z</time>
      </trkpt>
      <trkpt lat="45.28349" lon="6.15974">
        <ele>1943.2</ele>
        <time>2019-03-31T08:41:40Z</time>
      </trkpt>
      <trkpt lat="45.28348" lon="6.15971">
        <ele>1942.6</ele>
        <time>2019-03-31T08:41:45Z</time>
      </trkpt>
      <trkpt lat="45.28346" lon="6.1597">
        <ele>1945.8</ele>
        <time>2019-03-31T08:41:50Z</time>
      </trkpt>
      <trkpt lat="45.28347" lon="6.15966">
        <ele>1947.2</ele>
        <time>2019-03-31T08:41:55Z</time>
      </trkpt>
      <trkpt lat="45.28347" lon="6.15961">
        <ele>1947.8</ele>
        <time>2019-03-31T08:42:00Z</time>
      </trkpt>
      <trkpt lat="45.28347" lon="6.15958">
        <ele>1947.6</ele>
        <time>2019-03-31T08:42:05Z</time>
      </trkpt>
      <trkpt lat="45.28346" lon="6.15957">
        <ele>1950.8</ele>
        <time>2019-03-31T08:42:10Z</time>
      </trkpt>
      <trkpt lat="45.28346" lon="6.15953">
        <ele>1951.6</ele>
        <time>2019-03-31T08:42:15Z</time>
      </trkpt>
      <trkpt lat="45.28345" lon="6.1595">
        <ele>1953.8</ele>
        <time>2019-03-31T08:42:20Z</time>
      </trkpt>
      <trkpt lat="45.28343" lon="6.15948">
        <ele>1952.8</ele>
        <time>2019-03-31T08:42:25Z</time>
      </trkpt>
      <trkpt lat="45.28343" lon="6.15945">
        <ele>1955</ele>
        <time>2019-03-31T08:42:30Z</time>
      </trkpt>
      <trkpt lat="45.28344" lon="6.15939">
        <ele>1956.6</ele>
        <time>2019-03-31T08:42:35Z</time>
      </trkpt>
      <trkpt lat="45.28345" lon="6.15935">
        <ele>1954</ele>
        <time>2019-03-31T08:42:40Z</time>
      </trkpt>
      <trkpt lat="45.28343" lon="6.15934">
        <ele>1955</ele>
        <time>2019-03-31T08:42:45Z</time>
      </trkpt>
      <trkpt lat="45.28341" lon="6.15932">
        <ele>1957.8</ele>
        <time>2019-03-31T08:42:50Z</time>
      </trkpt>
      <trkpt lat="45.28341" lon="6.15927">
        <ele>1957.4</ele>
        <time>2019-03-31T08:42:55Z</time>
      </trkpt>
      <trkpt lat="45.28342" lon="6.15923">
        <ele>1959.2</ele>
        <time>2019-03-31T08:43:00Z</time>
      </trkpt>
      <trkpt lat="45.28342" lon="6.1592">
        <ele>1959</ele>
        <time>2019-03-31T08:43:05Z</time>
      </trkpt>
      <trkpt lat="45.28341" lon="6.15919">
        <ele>1958.8</ele>
        <time>2019-03-31T08:43:10Z</time>
      </trkpt>
      <trkpt lat="45.28341" lon="6.15916">
        <ele>1960</ele>
        <time>2019-03-31T08:43:15Z</time>
      </trkpt>
      <trkpt lat="45.28343" lon="6.15911">
        <ele>1960.6</ele>
        <time>2019-03-31T08:43:20Z</time>
      </trkpt>
      <trkpt lat="45.28344" lon="6.15907">
        <ele>1959</ele>
        <time>2019-03-31T08:43:25Z</time>
      </trkpt>
      <trkpt lat="45.28346" lon="6.15903">
        <ele>1956</ele>
        <time>2019-03-31T08:43:30Z</time>
      </trkpt>
      <trkpt lat="45.28347" lon="6.15898">
        <ele>1957.6</ele>
        <time>2019-03-31T08:43:35Z</time>
      </trkpt>
      <trkpt lat="45.28348" lon="6.15894">
        <ele>1956.4</ele>
        <time>2019-03-31T08:43:40Z</time>
      </trkpt>
      <trkpt lat="45.28349" lon="6.1589">
        <ele>1959.8</ele>
        <time>2019-03-31T08:43:45Z</time>
      </trkpt>
      <trkpt lat="45.2835" lon="6.15887">
        <ele>1960.2</ele>
        <time>2019-03-31T08:43:50Z</time>
      </trkpt>
      <trkpt lat="45.28349" lon="6.15885">
        <ele>1959.8</ele>
        <time>2019-03-31T08:43:55Z</time>
      </trkpt>
      <trkpt lat="45.28352" lon="6.15879">
        <ele>1960.6</ele>
        <time>2019-03-31T08:44:00Z</time>
      </trkpt>
      <trkpt lat="45.28352" lon="6.15876">
        <ele>1959</ele>
        <time>2019-03-31T08:44:05Z</time>
      </trkpt>
      <trkpt lat="45.28352" lon="6.15873">
        <ele>1958.4</ele>
        <time>2019-03-31T08:44:10Z</time>
      </trkpt>
      <trkpt lat="45.28352" lon="6.1587">
        <ele>1960.8</ele>
        <time>2019-03-31T08:44:15Z</time>
      </trkpt>
      <trkpt lat="45.28353" lon="6.15866">
        <ele>1959</ele>
        <time>2019-03-31T08:44:20Z</time>
      </trkpt>
      <trkpt lat="45.28353" lon="6.15864">
        <ele>1962.8</ele>
        <time>2019-03-31T08:44:25Z</time>
      </trkpt>
      <trkpt lat="45.28354" lon="6.15861">
        <ele>1962.8</ele>
        <time>2019-03-31T08:44:30Z</time>
      </trkpt>
      <trkpt lat="45.28354" lon="6.15858">
        <ele>1965.4</ele>
        <time>2019-03-31T08:44:35Z</time>
      </trkpt>
      <trkpt lat="45.28353" lon="6.15856">
        <ele>1963.2</ele>
        <time>2019-03-31T08:44:40Z</time>
      </trkpt>
      <trkpt lat="45.28352" lon="6.15854">
        <ele>1964</ele>
        <time>2019-03-31T08:44:45Z</time>
      </trkpt>
      <trkpt lat="45.28352" lon="6.15852">
        <ele>1962.6</ele>
        <time>2019-03-31T08:44:50Z</time>
      </trkpt>
      <trkpt lat="45.28352" lon="6.15849">
        <ele>1962.8</ele>
        <time>2019-03-31T08:44:55Z</time>
      </trkpt>
      <trkpt lat="45.28352" lon="6.15847">
        <ele>1966.6</ele>
        <time>2019-03-31T08:45:00Z</time>
      </trkpt>
      <trkpt lat="45.28353" lon="6.15844">
        <ele>1966.6</ele>
        <time>2019-03-31T08:45:05Z</time>
      </trkpt>
      <trkpt lat="45.28354" lon="6.15841">
        <ele>1970</ele>
        <time>2019-03-31T08:45:10Z</time>
      </trkpt>
      <trkpt lat="45.28355" lon="6.15838">
        <ele>1968.8</ele>
        <time>2019-03-31T08:45:15Z</time>
      </trkpt>
      <trkpt lat="45.28356" lon="6.15834">
        <ele>1972.2</ele>
        <time>2019-03-31T08:45:20Z</time>
      </trkpt>
      <trkpt lat="45.28357" lon="6.15831">
        <ele>1971.4</ele>
        <time>2019-03-31T08:45:25Z</time>
      </trkpt>
      <trkpt lat="45.28359" lon="6.15828">
        <ele>1972.6</ele>
        <time>2019-03-31T08:45:30Z</time>
      </trkpt>
      <trkpt lat="45.2836" lon="6.15824">
        <ele>1977</ele>
        <time>2019-03-31T08:45:35Z</time>
      </trkpt>
      <trkpt lat="45.2836" lon="6.15821">
        <ele>1973</ele>
        <time>2019-03-31T08:45:40Z</time>
      </trkpt>
      <trkpt lat="45.28361" lon="6.15818">
        <ele>1977.2</ele>
        <time>2019-03-31T08:45:45Z</time>
      </trkpt>
      <trkpt lat="45.28362" lon="6.15816">
        <ele>1975.2</ele>
        <time>2019-03-31T08:45:50Z</time>
      </trkpt>
      <trkpt lat="45.28364" lon="6.15817">
        <ele>1977.8</ele>
        <time>2019-03-31T08:45:55Z</time>
      </trkpt>
      <trkpt lat="45.28367" lon="6.15818">
        <ele>1973</ele>
        <time>2019-03-31T08:46:00Z</time>
      </trkpt>
      <trkpt lat="45.28369" lon="6.15818">
        <ele>1974.4</ele>
        <time>2019-03-31T08:46:05Z</time>
      </trkpt>
      <trkpt lat="45.28372" lon="6.15818">
        <ele>1973.8</ele>
        <time>2019-03-31T08:46:10Z</time>
      </trkpt>
      <trkpt lat="45.28374" lon="6.15819">
        <ele>1974</ele>
        <time>2019-03-31T08:46:15Z</time>
      </trkpt>
      <trkpt lat="45.28377" lon="6.1582">
        <ele>1974.4</ele>
        <time>2019-03-31T08:46:20Z</time>
      </trkpt>
      <trkpt lat="45.28379" lon="6.15822">
        <ele>1973.6</ele>
        <time>2019-03-31T08:46:25Z</time>
      </trkpt>
      <trkpt lat="45.28382" lon="6.15821">
        <ele>1971.6</ele>
        <time>2019-03-31T08:46:30Z</time>
      </trkpt>
      <trkpt lat="45.28383" lon="6.15819">
        <ele>1973.4</ele>
        <time>2019-03-31T08:46:35Z</time>
      </trkpt>
      <trkpt lat="45.28385" lon="6.15817">
        <ele>1972.4</ele>
        <time>2019-03-31T08:46:40Z</time>
      </trkpt>
      <trkpt lat="45.28387" lon="6.15815">
        <ele>1972.8</ele>
        <time>2019-03-31T08:46:45Z</time>
      </trkpt>
      <trkpt lat="45.28388" lon="6.15814">
        <ele>1972</ele>
        <time>2019-03-31T08:46:50Z</time>
      </trkpt>
      <trkpt lat="45.28389" lon="6.15813">
        <ele>1971</ele>
        <time>2019-03-31T08:46:55Z</time>
      </trkpt>
      <trkpt lat="45.2839" lon="6.15812">
        <ele>1974.8</ele>
        <time>2019-03-31T08:47:00Z</time>
      </trkpt>
      <trkpt lat="45.28392" lon="6.15811">
        <ele>1973.8</ele>
        <time>2019-03-31T08:47:05Z</time>
      </trkpt>
      <trkpt lat="45.28393" lon="6.1581">
        <ele>1974</ele>
        <time>2019-03-31T08:47:10Z</time>
      </trkpt>
      <trkpt lat="45.28395" lon="6.15808">
        <ele>1977</ele>
        <time>2019-03-31T08:47:15Z</time>
      </trkpt>
      <trkpt lat="45.28397" lon="6.15806">
        <ele>1976.2</ele>
        <time>2019-03-31T08:47:20Z</time>
      </trkpt>
      <trkpt lat="45.28399" lon="6.15805">
        <ele>1978.6</ele>
        <time>2019-03-31T08:47:25Z</time>
      </trkpt>
      <trkpt lat="45.28401" lon="6.15803">
        <ele>1976.8</ele>
        <time>2019-03-31T08:47:30Z</time>
      </trkpt>
      <trkpt lat="45.28403" lon="6.15803">
        <ele>1977.4</ele>
        <time>2019-03-31T08:47:35Z</time>
      </trkpt>
      <trkpt lat="45.28407" lon="6.15803">
        <ele>1976</ele>
        <time>2019-03-31T08:47:40Z</time>
      </trkpt>
      <trkpt lat="45.28411" lon="6.15803">
        <ele>1976.2</ele>
        <time>2019-03-31T08:47:45Z</time>
      </trkpt>
      <trkpt lat="45.28412" lon="6.15805">
        <ele>1975.8</ele>
        <time>2019-03-31T08:47:50Z</time>
      </trkpt>
      <trkpt lat="45.28414" lon="6.15805">
        <ele>1977.4</ele>
        <time>2019-03-31T08:47:55Z</time>
      </trkpt>
      <trkpt lat="45.28416" lon="6.15805">
        <ele>1975</ele>
        <time>2019-03-31T08:48:00Z</time>
      </trkpt>
      <trkpt lat="45.28419" lon="6.15805">
        <ele>1976.8</ele>
        <time>2019-03-31T08:48:05Z</time>
      </trkpt>
      <trkpt lat="45.28421" lon="6.15805">
        <ele>1974.8</ele>
        <time>2019-03-31T08:48:10Z</time>
      </trkpt>
      <trkpt lat="45.28422" lon="6.15803">
        <ele>1973.8</ele>
        <time>2019-03-31T08:48:15Z</time>
      </trkpt>
      <trkpt lat="45.28423" lon="6.15801">
        <ele>1976.4</ele>
        <time>2019-03-31T08:48:20Z</time>
      </trkpt>
      <trkpt lat="45.28425" lon="6.15799">
        <ele>1975.8</ele>
        <time>2019-03-31T08:48:25Z</time>
      </trkpt>
      <trkpt lat="45.28425" lon="6.15799">
        <ele>1976.6</ele>
        <time>2019-03-31T08:48:45Z</time>
      </trkpt>
      <trkpt lat="45.28425" lon="6.15798">
        <ele>1976.8</ele>
        <time>2019-03-31T08:48:50Z</time>
      </trkpt>
      <trkpt lat="45.28427" lon="6.15797">
        <ele>1976.2</ele>
        <time>2019-03-31T08:48:55Z</time>
      </trkpt>
      <trkpt lat="45.28428" lon="6.15795">
        <ele>1979</ele>
        <time>2019-03-31T08:49:00Z</time>
      </trkpt>
      <trkpt lat="45.28429" lon="6.15794">
        <ele>1981.2</ele>
        <time>2019-03-31T08:49:05Z</time>
      </trkpt>
      <trkpt lat="45.2843" lon="6.15794">
        <ele>1982.8</ele>
        <time>2019-03-31T08:49:10Z</time>
      </trkpt>
      <trkpt lat="45.28432" lon="6.15793">
        <ele>1983.4</ele>
        <time>2019-03-31T08:49:15Z</time>
      </trkpt>
      <trkpt lat="45.28433" lon="6.15792">
        <ele>1983.6</ele>
        <time>2019-03-31T08:49:20Z</time>
      </trkpt>
      <trkpt lat="45.28435" lon="6.15791">
        <ele>1986.2</ele>
        <time>2019-03-31T08:49:25Z</time>
      </trkpt>
      <trkpt lat="45.28438" lon="6.1579">
        <ele>1986.6</ele>
        <time>2019-03-31T08:49:30Z</time>
      </trkpt>
      <trkpt lat="45.28441" lon="6.15789">
        <ele>1987.2</ele>
        <time>2019-03-31T08:49:35Z</time>
      </trkpt>
      <trkpt lat="45.28443" lon="6.15789">
        <ele>1987.4</ele>
        <time>2019-03-31T08:49:40Z</time>
      </trkpt>
      <trkpt lat="45.28445" lon="6.15789">
        <ele>1988.2</ele>
        <time>2019-03-31T08:49:45Z</time>
      </trkpt>
      <trkpt lat="45.28445" lon="6.15788">
        <ele>1989</ele>
        <time>2019-03-31T08:49:50Z</time>
      </trkpt>
      <trkpt lat="45.28447" lon="6.15784">
        <ele>1991.6</ele>
        <time>2019-03-31T08:49:55Z</time>
      </trkpt>
      <trkpt lat="45.28447" lon="6.1578">
        <ele>1992.2</ele>
        <time>2019-03-31T08:50:00Z</time>
      </trkpt>
      <trkpt lat="45.28447" lon="6.15776">
        <ele>1995.6</ele>
        <time>2019-03-31T08:50:05Z</time>
      </trkpt>
      <trkpt lat="45.28448" lon="6.15772">
        <ele>1996.4</ele>
        <time>2019-03-31T08:50:10Z</time>
      </trkpt>
      <trkpt lat="45.28447" lon="6.15769">
        <ele>1997.2</ele>
        <time>2019-03-31T08:50:15Z</time>
      </trkpt>
      <trkpt lat="45.28447" lon="6.15766">
        <ele>1999.2</ele>
        <time>2019-03-31T08:50:20Z</time>
      </trkpt>
      <trkpt lat="45.28447" lon="6.15763">
        <ele>1999.4</ele>
        <time>2019-03-31T08:50:25Z</time>
      </trkpt>
      <trkpt lat="45.28446" lon="6.15761">
        <ele>2001</ele>
        <time>2019-03-31T08:50:30Z</time>
      </trkpt>
      <trkpt lat="45.28445" lon="6.15759">
        <ele>2001.4</ele>
        <time>2019-03-31T08:50:35Z</time>
      </trkpt>
      <trkpt lat="45.28444" lon="6.15757">
        <ele>2003.8</ele>
        <time>2019-03-31T08:50:40Z</time>
      </trkpt>
      <trkpt lat="45.28443" lon="6.15754">
        <ele>2003.2</ele>
        <time>2019-03-31T08:50:45Z</time>
      </trkpt>
      <trkpt lat="45.28442" lon="6.15751">
        <ele>2004.8</ele>
        <time>2019-03-31T08:50:50Z</time>
      </trkpt>
      <trkpt lat="45.28442" lon="6.15748">
        <ele>2006</ele>
        <time>2019-03-31T08:50:55Z</time>
      </trkpt>
      <trkpt lat="45.28442" lon="6.15746">
        <ele>2003.8</ele>
        <time>2019-03-31T08:51:00Z</time>
      </trkpt>
      <trkpt lat="45.28441" lon="6.15743">
        <ele>2005.6</ele>
        <time>2019-03-31T08:51:05Z</time>
      </trkpt>
      <trkpt lat="45.2844" lon="6.1574">
        <ele>2005.8</ele>
        <time>2019-03-31T08:51:10Z</time>
      </trkpt>
      <trkpt lat="45.28439" lon="6.15737">
        <ele>2005.6</ele>
        <time>2019-03-31T08:51:15Z</time>
      </trkpt>
      <trkpt lat="45.28439" lon="6.15733">
        <ele>2006</ele>
        <time>2019-03-31T08:51:20Z</time>
      </trkpt>
      <trkpt lat="45.28439" lon="6.1573">
        <ele>2005</ele>
        <time>2019-03-31T08:51:25Z</time>
      </trkpt>
      <trkpt lat="45.28439" lon="6.15727">
        <ele>2005.2</ele>
        <time>2019-03-31T08:51:30Z</time>
      </trkpt>
      <trkpt lat="45.28439" lon="6.15724">
        <ele>2007.6</ele>
        <time>2019-03-31T08:51:35Z</time>
      </trkpt>
      <trkpt lat="45.28438" lon="6.15721">
        <ele>2010.4</ele>
        <time>2019-03-31T08:51:40Z</time>
      </trkpt>
      <trkpt lat="45.28438" lon="6.15717">
        <ele>2008.8</ele>
        <time>2019-03-31T08:51:45Z</time>
      </trkpt>
      <trkpt lat="45.28438" lon="6.15714">
        <ele>2009.6</ele>
        <time>2019-03-31T08:51:50Z</time>
      </trkpt>
      <trkpt lat="45.28439" lon="6.15712">
        <ele>2009.2</ele>
        <time>2019-03-31T08:51:55Z</time>
      </trkpt>
      <trkpt lat="45.28441" lon="6.15711">
        <ele>2011.4</ele>
        <time>2019-03-31T08:52:00Z</time>
      </trkpt>
      <trkpt lat="45.28443" lon="6.15709">
        <ele>2013.4</ele>
        <time>2019-03-31T08:52:05Z</time>
      </trkpt>
      <trkpt lat="45.28447" lon="6.15705">
        <ele>2012.6</ele>
        <time>2019-03-31T08:52:10Z</time>
      </trkpt>
      <trkpt lat="45.28447" lon="6.15701">
        <ele>2012</ele>
        <time>2019-03-31T08:52:15Z</time>
      </trkpt>
      <trkpt lat="45.28447" lon="6.15698">
        <ele>2010.4</ele>
        <time>2019-03-31T08:52:20Z</time>
      </trkpt>
      <trkpt lat="45.28446" lon="6.15696">
        <ele>2011.2</ele>
        <time>2019-03-31T08:52:25Z</time>
      </trkpt>
      <trkpt lat="45.28446" lon="6.15693">
        <ele>2012.2</ele>
        <time>2019-03-31T08:52:30Z</time>
      </trkpt>
      <trkpt lat="45.28447" lon="6.15689">
        <ele>2013</ele>
        <time>2019-03-31T08:52:35Z</time>
      </trkpt>
      <trkpt lat="45.28447" lon="6.15685">
        <ele>2014.6</ele>
        <time>2019-03-31T08:52:40Z</time>
      </trkpt>
      <trkpt lat="45.28447" lon="6.15682">
        <ele>2016.2</ele>
        <time>2019-03-31T08:52:45Z</time>
      </trkpt>
      <trkpt lat="45.28446" lon="6.1568">
        <ele>2015.4</ele>
        <time>2019-03-31T08:52:50Z</time>
      </trkpt>
      <trkpt lat="45.28446" lon="6.15678">
        <ele>2017.4</ele>
        <time>2019-03-31T08:52:55Z</time>
      </trkpt>
      <trkpt lat="45.28445" lon="6.15676">
        <ele>2015.4</ele>
        <time>2019-03-31T08:53:00Z</time>
      </trkpt>
      <trkpt lat="45.28445" lon="6.15674">
        <ele>2013.8</ele>
        <time>2019-03-31T08:53:10Z</time>
      </trkpt>
      <trkpt lat="45.28447" lon="6.15673">
        <ele>2013.6</ele>
        <time>2019-03-31T08:53:15Z</time>
      </trkpt>
      <trkpt lat="45.2845" lon="6.15672">
        <ele>2013.2</ele>
        <time>2019-03-31T08:53:20Z</time>
      </trkpt>
      <trkpt lat="45.28452" lon="6.15671">
        <ele>2019</ele>
        <time>2019-03-31T08:53:25Z</time>
      </trkpt>
      <trkpt lat="45.28455" lon="6.1567">
        <ele>2019.6</ele>
        <time>2019-03-31T08:53:30Z</time>
      </trkpt>
      <trkpt lat="45.28457" lon="6.15668">
        <ele>2014.8</ele>
        <time>2019-03-31T08:53:35Z</time>
      </trkpt>
      <trkpt lat="45.28459" lon="6.15668">
        <ele>2015.4</ele>
        <time>2019-03-31T08:53:40Z</time>
      </trkpt>
      <trkpt lat="45.28462" lon="6.15668">
        <ele>2013.2</ele>
        <time>2019-03-31T08:53:45Z</time>
      </trkpt>
      <trkpt lat="45.28464" lon="6.15667">
        <ele>2014.8</ele>
        <time>2019-03-31T08:53:50Z</time>
      </trkpt>
      <trkpt lat="45.28466" lon="6.15667">
        <ele>2014.6</ele>
        <time>2019-03-31T08:53:55Z</time>
      </trkpt>
      <trkpt lat="45.28469" lon="6.15667">
        <ele>2014.8</ele>
        <time>2019-03-31T08:54:00Z</time>
      </trkpt>
      <trkpt lat="45.28472" lon="6.15668">
        <ele>2012.8</ele>
        <time>2019-03-31T08:54:05Z</time>
      </trkpt>
      <trkpt lat="45.28475" lon="6.15669">
        <ele>2012.4</ele>
        <time>2019-03-31T08:54:10Z</time>
      </trkpt>
      <trkpt lat="45.28478" lon="6.15669">
        <ele>2014.6</ele>
        <time>2019-03-31T08:54:15Z</time>
      </trkpt>
      <trkpt lat="45.2848" lon="6.1567">
        <ele>2011.6</ele>
        <time>2019-03-31T08:54:20Z</time>
      </trkpt>
      <trkpt lat="45.28481" lon="6.1567">
        <ele>2011.8</ele>
        <time>2019-03-31T08:54:25Z</time>
      </trkpt>
      <trkpt lat="45.28483" lon="6.15669">
        <ele>2012</ele>
        <time>2019-03-31T08:54:30Z</time>
      </trkpt>
      <trkpt lat="45.28485" lon="6.15669">
        <ele>2015.2</ele>
        <time>2019-03-31T08:54:35Z</time>
      </trkpt>
      <trkpt lat="45.28487" lon="6.15669">
        <ele>2013.2</ele>
        <time>2019-03-31T08:54:40Z</time>
      </trkpt>
      <trkpt lat="45.28487" lon="6.15668">
        <ele>2019.6</ele>
        <time>2019-03-31T08:55:05Z</time>
      </trkpt>
      <trkpt lat="45.28486" lon="6.15665">
        <ele>2023.4</ele>
        <time>2019-03-31T08:55:10Z</time>
      </trkpt>
      <trkpt lat="45.28485" lon="6.15661">
        <ele>2024.4</ele>
        <time>2019-03-31T08:55:15Z</time>
      </trkpt>
      <trkpt lat="45.28484" lon="6.15657">
        <ele>2026</ele>
        <time>2019-03-31T08:55:20Z</time>
      </trkpt>
      <trkpt lat="45.28483" lon="6.15654">
        <ele>2025.6</ele>
        <time>2019-03-31T08:55:25Z</time>
      </trkpt>
      <trkpt lat="45.28482" lon="6.15651">
        <ele>2028.4</ele>
        <time>2019-03-31T08:55:30Z</time>
      </trkpt>
      <trkpt lat="45.28482" lon="6.15648">
        <ele>2028</ele>
        <time>2019-03-31T08:55:35Z</time>
      </trkpt>
      <trkpt lat="45.28481" lon="6.15645">
        <ele>2027.4</ele>
        <time>2019-03-31T08:55:40Z</time>
      </trkpt>
      <trkpt lat="45.2848" lon="6.15643">
        <ele>2029.2</ele>
        <time>2019-03-31T08:55:45Z</time>
      </trkpt>
      <trkpt lat="45.28479" lon="6.1564">
        <ele>2030.2</ele>
        <time>2019-03-31T08:55:50Z</time>
      </trkpt>
      <trkpt lat="45.28478" lon="6.15637">
        <ele>2030.6</ele>
        <time>2019-03-31T08:55:55Z</time>
      </trkpt>
      <trkpt lat="45.28478" lon="6.15634">
        <ele>2030.4</ele>
        <time>2019-03-31T08:56:00Z</time>
      </trkpt>
      <trkpt lat="45.28477" lon="6.15632">
        <ele>2030.8</ele>
        <time>2019-03-31T08:56:05Z</time>
      </trkpt>
      <trkpt lat="45.28476" lon="6.15629">
        <ele>2034.4</ele>
        <time>2019-03-31T08:56:10Z</time>
      </trkpt>
      <trkpt lat="45.28475" lon="6.15626">
        <ele>2036.2</ele>
        <time>2019-03-31T08:56:15Z</time>
      </trkpt>
      <trkpt lat="45.28475" lon="6.15622">
        <ele>2033.6</ele>
        <time>2019-03-31T08:56:20Z</time>
      </trkpt>
      <trkpt lat="45.28475" lon="6.15619">
        <ele>2033.4</ele>
        <time>2019-03-31T08:56:25Z</time>
      </trkpt>
      <trkpt lat="45.28474" lon="6.15616">
        <ele>2032.8</ele>
        <time>2019-03-31T08:56:30Z</time>
      </trkpt>
      <trkpt lat="45.28473" lon="6.15613">
        <ele>2034</ele>
        <time>2019-03-31T08:56:35Z</time>
      </trkpt>
      <trkpt lat="45.28473" lon="6.1561">
        <ele>2035.8</ele>
        <time>2019-03-31T08:56:40Z</time>
      </trkpt>
      <trkpt lat="45.28472" lon="6.15606">
        <ele>2036.6</ele>
        <time>2019-03-31T08:56:45Z</time>
      </trkpt>
      <trkpt lat="45.28471" lon="6.15603">
        <ele>2039</ele>
        <time>2019-03-31T08:56:50Z</time>
      </trkpt>
      <trkpt lat="45.2847" lon="6.15601">
        <ele>2040.2</ele>
        <time>2019-03-31T08:56:55Z</time>
      </trkpt>
      <trkpt lat="45.28469" lon="6.15598">
        <ele>2039</ele>
        <time>2019-03-31T08:57:00Z</time>
      </trkpt>
      <trkpt lat="45.28468" lon="6.15595">
        <ele>2039.4</ele>
        <time>2019-03-31T08:57:05Z</time>
      </trkpt>
      <trkpt lat="45.28466" lon="6.15593">
        <ele>2040.4</ele>
        <time>2019-03-31T08:57:10Z</time>
      </trkpt>
      <trkpt lat="45.28465" lon="6.15591">
        <ele>2040.6</ele>
        <time>2019-03-31T08:57:15Z</time>
      </trkpt>
      <trkpt lat="45.28464" lon="6.15588">
        <ele>2043.6</ele>
        <time>2019-03-31T08:57:20Z</time>
      </trkpt>
      <trkpt lat="45.28463" lon="6.15586">
        <ele>2045</ele>
        <time>2019-03-31T08:57:25Z</time>
      </trkpt>
      <trkpt lat="45.28462" lon="6.15584">
        <ele>2045.4</ele>
        <time>2019-03-31T08:57:30Z</time>
      </trkpt>
      <trkpt lat="45.2846" lon="6.15581">
        <ele>2045</ele>
        <time>2019-03-31T08:57:35Z</time>
      </trkpt>
      <trkpt lat="45.28459" lon="6.15579">
        <ele>2046.4</ele>
        <time>2019-03-31T08:57:40Z</time>
      </trkpt>
      <trkpt lat="45.28458" lon="6.15576">
        <ele>2046</ele>
        <time>2019-03-31T08:57:45Z</time>
      </trkpt>
      <trkpt lat="45.28457" lon="6.15574">
        <ele>2046.4</ele>
        <time>2019-03-31T08:57:50Z</time>
      </trkpt>
      <trkpt lat="45.28457" lon="6.15571">
        <ele>2044.2</ele>
        <time>2019-03-31T08:57:55Z</time>
      </trkpt>
      <trkpt lat="45.28456" lon="6.15569">
        <ele>2045.6</ele>
        <time>2019-03-31T08:58:00Z</time>
      </trkpt>
      <trkpt lat="45.28455" lon="6.15566">
        <ele>2044.8</ele>
        <time>2019-03-31T08:58:05Z</time>
      </trkpt>
      <trkpt lat="45.28456" lon="6.15563">
        <ele>2049</ele>
        <time>2019-03-31T08:58:10Z</time>
      </trkpt>
      <trkpt lat="45.28455" lon="6.15558">
        <ele>2046.4</ele>
        <time>2019-03-31T08:58:15Z</time>
      </trkpt>
      <trkpt lat="45.28455" lon="6.15555">
        <ele>2047.6</ele>
        <time>2019-03-31T08:58:20Z</time>
      </trkpt>
      <trkpt lat="45.28454" lon="6.15552">
        <ele>2049.4</ele>
        <time>2019-03-31T08:58:25Z</time>
      </trkpt>
      <trkpt lat="45.28453" lon="6.15549">
        <ele>2050.8</ele>
        <time>2019-03-31T08:58:30Z</time>
      </trkpt>
      <trkpt lat="45.28452" lon="6.15547">
        <ele>2054</ele>
        <time>2019-03-31T08:58:35Z</time>
      </trkpt>
      <trkpt lat="45.28451" lon="6.15544">
        <ele>2050.4</ele>
        <time>2019-03-31T08:58:40Z</time>
      </trkpt>
      <trkpt lat="45.28451" lon="6.1554">
        <ele>2054.4</ele>
        <time>2019-03-31T08:58:45Z</time>
      </trkpt>
      <trkpt lat="45.2845" lon="6.15537">
        <ele>2056.2</ele>
        <time>2019-03-31T08:58:50Z</time>
      </trkpt>
      <trkpt lat="45.2845" lon="6.15534">
        <ele>2060.2</ele>
        <time>2019-03-31T08:58:55Z</time>
      </trkpt>
      <trkpt lat="45.28449" lon="6.15531">
        <ele>2059</ele>
        <time>2019-03-31T08:59:00Z</time>
      </trkpt>
      <trkpt lat="45.28448" lon="6.15528">
        <ele>2057.2</ele>
        <time>2019-03-31T08:59:05Z</time>
      </trkpt>
      <trkpt lat="45.28447" lon="6.15525">
        <ele>2056.8</ele>
        <time>2019-03-31T08:59:10Z</time>
      </trkpt>
      <trkpt lat="45.28447" lon="6.15525">
        <ele>2058.4</ele>
        <time>2019-03-31T08:59:25Z</time>
      </trkpt>
      <trkpt lat="45.28447" lon="6.15523">
        <ele>2058.6</ele>
        <time>2019-03-31T08:59:30Z</time>
      </trkpt>
      <trkpt lat="45.28446" lon="6.15519">
        <ele>2059.6</ele>
        <time>2019-03-31T08:59:35Z</time>
      </trkpt>
      <trkpt lat="45.28445" lon="6.15516">
        <ele>2058.8</ele>
        <time>2019-03-31T08:59:40Z</time>
      </trkpt>
      <trkpt lat="45.28444" lon="6.15513">
        <ele>2060</ele>
        <time>2019-03-31T08:59:45Z</time>
      </trkpt>
      <trkpt lat="45.28444" lon="6.1551">
        <ele>2062.8</ele>
        <time>2019-03-31T08:59:50Z</time>
      </trkpt>
      <trkpt lat="45.28443" lon="6.15507">
        <ele>2063.4</ele>
        <time>2019-03-31T08:59:55Z</time>
      </trkpt>
      <trkpt lat="45.28443" lon="6.15504">
        <ele>2065.2</ele>
        <time>2019-03-31T09:00:00Z</time>
      </trkpt>
      <trkpt lat="45.28442" lon="6.15501">
        <ele>2063.6</ele>
        <time>2019-03-31T09:00:05Z</time>
      </trkpt>
      <trkpt lat="45.28442" lon="6.15498">
        <ele>2062.4</ele>
        <time>2019-03-31T09:00:10Z</time>
      </trkpt>
      <trkpt lat="45.28442" lon="6.15496">
        <ele>2061.8</ele>
        <time>2019-03-31T09:00:15Z</time>
      </trkpt>
      <trkpt lat="45.28443" lon="6.15493">
        <ele>2064.4</ele>
        <time>2019-03-31T09:00:20Z</time>
      </trkpt>
      <trkpt lat="45.28445" lon="6.15492">
        <ele>2064.2</ele>
        <time>2019-03-31T09:00:25Z</time>
      </trkpt>
      <trkpt lat="45.28448" lon="6.15492">
        <ele>2066.6</ele>
        <time>2019-03-31T09:00:30Z</time>
      </trkpt>
      <trkpt lat="45.28449" lon="6.15491">
        <ele>2063.6</ele>
        <time>2019-03-31T09:00:35Z</time>
      </trkpt>
      <trkpt lat="45.28452" lon="6.1549">
        <ele>2065.6</ele>
        <time>2019-03-31T09:00:40Z</time>
      </trkpt>
      <trkpt lat="45.28455" lon="6.15489">
        <ele>2066</ele>
        <time>2019-03-31T09:00:45Z</time>
      </trkpt>
      <trkpt lat="45.28457" lon="6.15488">
        <ele>2067.2</ele>
        <time>2019-03-31T09:00:50Z</time>
      </trkpt>
      <trkpt lat="45.28458" lon="6.15487">
        <ele>2066.8</ele>
        <time>2019-03-31T09:00:55Z</time>
      </trkpt>
      <trkpt lat="45.28457" lon="6.15484">
        <ele>2065.2</ele>
        <time>2019-03-31T09:01:00Z</time>
      </trkpt>
      <trkpt lat="45.28456" lon="6.1548">
        <ele>2067.4</ele>
        <time>2019-03-31T09:01:05Z</time>
      </trkpt>
      <trkpt lat="45.28455" lon="6.15477">
        <ele>2067.4</ele>
        <time>2019-03-31T09:01:10Z</time>
      </trkpt>
      <trkpt lat="45.28454" lon="6.15474">
        <ele>2069.4</ele>
        <time>2019-03-31T09:01:15Z</time>
      </trkpt>
      <trkpt lat="45.28454" lon="6.1547">
        <ele>2069.2</ele>
        <time>2019-03-31T09:01:20Z</time>
      </trkpt>
      <trkpt lat="45.28454" lon="6.15467">
        <ele>2069.2</ele>
        <time>2019-03-31T09:01:25Z</time>
      </trkpt>
      <trkpt lat="45.28454" lon="6.15464">
        <ele>2071.2</ele>
        <time>2019-03-31T09:01:30Z</time>
      </trkpt>
      <trkpt lat="45.28454" lon="6.1546">
        <ele>2069</ele>
        <time>2019-03-31T09:01:36Z</time>
      </trkpt>
      <trkpt lat="45.28453" lon="6.15458">
        <ele>2068.2</ele>
        <time>2019-03-31T09:01:41Z</time>
      </trkpt>
      <trkpt lat="45.28453" lon="6.15456">
        <ele>2069.6</ele>
        <time>2019-03-31T09:01:46Z</time>
      </trkpt>
      <trkpt lat="45.28453" lon="6.15454">
        <ele>2071.2</ele>
        <time>2019-03-31T09:01:51Z</time>
      </trkpt>
      <trkpt lat="45.28452" lon="6.15453">
        <ele>2071.8</ele>
        <time>2019-03-31T09:01:56Z</time>
      </trkpt>
      <trkpt lat="45.28451" lon="6.1545">
        <ele>2072.6</ele>
        <time>2019-03-31T09:02:01Z</time>
      </trkpt>
      <trkpt lat="45.28452" lon="6.15448">
        <ele>2074.8</ele>
        <time>2019-03-31T09:02:06Z</time>
      </trkpt>
      <trkpt lat="45.28456" lon="6.15446">
        <ele>2075.6</ele>
        <time>2019-03-31T09:02:11Z</time>
      </trkpt>
      <trkpt lat="45.28459" lon="6.15445">
        <ele>2076.4</ele>
        <time>2019-03-31T09:02:16Z</time>
      </trkpt>
      <trkpt lat="45.28462" lon="6.15445">
        <ele>2076.8</ele>
        <time>2019-03-31T09:02:21Z</time>
      </trkpt>
      <trkpt lat="45.28463" lon="6.15445">
        <ele>2077.4</ele>
        <time>2019-03-31T09:02:26Z</time>
      </trkpt>
      <trkpt lat="45.28466" lon="6.15445">
        <ele>2077</ele>
        <time>2019-03-31T09:02:31Z</time>
      </trkpt>
      <trkpt lat="45.28467" lon="6.15445">
        <ele>2077.8</ele>
        <time>2019-03-31T09:02:36Z</time>
      </trkpt>
      <trkpt lat="45.28467" lon="6.15442">
        <ele>2076</ele>
        <time>2019-03-31T09:02:41Z</time>
      </trkpt>
      <trkpt lat="45.28468" lon="6.15439">
        <ele>2077.6</ele>
        <time>2019-03-31T09:02:46Z</time>
      </trkpt>
      <trkpt lat="45.28469" lon="6.15436">
        <ele>2080.2</ele>
        <time>2019-03-31T09:02:51Z</time>
      </trkpt>
      <trkpt lat="45.28469" lon="6.15432">
        <ele>2081.6</ele>
        <time>2019-03-31T09:02:56Z</time>
      </trkpt>
      <trkpt lat="45.28468" lon="6.15429">
        <ele>2082.6</ele>
        <time>2019-03-31T09:03:01Z</time>
      </trkpt>
      <trkpt lat="45.28468" lon="6.15426">
        <ele>2085.8</ele>
        <time>2019-03-31T09:03:06Z</time>
      </trkpt>
      <trkpt lat="45.28467" lon="6.15424">
        <ele>2083.4</ele>
        <time>2019-03-31T09:03:11Z</time>
      </trkpt>
      <trkpt lat="45.28466" lon="6.15421">
        <ele>2083.2</ele>
        <time>2019-03-31T09:03:16Z</time>
      </trkpt>
      <trkpt lat="45.28465" lon="6.15418">
        <ele>2085.4</ele>
        <time>2019-03-31T09:03:21Z</time>
      </trkpt>
      <trkpt lat="45.28463" lon="6.15415">
        <ele>2085.4</ele>
        <time>2019-03-31T09:03:26Z</time>
      </trkpt>
      <trkpt lat="45.28462" lon="6.15413">
        <ele>2088</ele>
        <time>2019-03-31T09:03:31Z</time>
      </trkpt>
      <trkpt lat="45.28461" lon="6.15411">
        <ele>2088.4</ele>
        <time>2019-03-31T09:03:36Z</time>
      </trkpt>
      <trkpt lat="45.28459" lon="6.1541">
        <ele>2088.8</ele>
        <time>2019-03-31T09:03:41Z</time>
      </trkpt>
      <trkpt lat="45.28457" lon="6.15408">
        <ele>2089.6</ele>
        <time>2019-03-31T09:03:46Z</time>
      </trkpt>
      <trkpt lat="45.28454" lon="6.15406">
        <ele>2088.6</ele>
        <time>2019-03-31T09:03:51Z</time>
      </trkpt>
      <trkpt lat="45.28452" lon="6.15403">
        <ele>2089.6</ele>
        <time>2019-03-31T09:03:56Z</time>
      </trkpt>
      <trkpt lat="45.28452" lon="6.154">
        <ele>2090.2</ele>
        <time>2019-03-31T09:04:01Z</time>
      </trkpt>
      <trkpt lat="45.28451" lon="6.15397">
        <ele>2088.8</ele>
        <time>2019-03-31T09:04:06Z</time>
      </trkpt>
      <trkpt lat="45.2845" lon="6.15394">
        <ele>2091</ele>
        <time>2019-03-31T09:04:11Z</time>
      </trkpt>
      <trkpt lat="45.28449" lon="6.1539">
        <ele>2089.6</ele>
        <time>2019-03-31T09:04:16Z</time>
      </trkpt>
      <trkpt lat="45.28448" lon="6.15387">
        <ele>2091</ele>
        <time>2019-03-31T09:04:21Z</time>
      </trkpt>
      <trkpt lat="45.28447" lon="6.15384">
        <ele>2091.4</ele>
        <time>2019-03-31T09:04:26Z</time>
      </trkpt>
      <trkpt lat="45.28447" lon="6.15382">
        <ele>2087.2</ele>
        <time>2019-03-31T09:05:51Z</time>
      </trkpt>
      <trkpt lat="45.2845" lon="6.1538">
        <ele>2087.4</ele>
        <time>2019-03-31T09:05:56Z</time>
      </trkpt>
      <trkpt lat="45.28452" lon="6.15378">
        <ele>2086.8</ele>
        <time>2019-03-31T09:06:01Z</time>
      </trkpt>
      <trkpt lat="45.28455" lon="6.15376">
        <ele>2088.4</ele>
        <time>2019-03-31T09:06:06Z</time>
      </trkpt>
      <trkpt lat="45.28457" lon="6.15374">
        <ele>2089.6</ele>
        <time>2019-03-31T09:06:11Z</time>
      </trkpt>
      <trkpt lat="45.28459" lon="6.15372">
        <ele>2089.8</ele>
        <time>2019-03-31T09:06:16Z</time>
      </trkpt>
      <trkpt lat="45.28461" lon="6.15369">
        <ele>2089.4</ele>
        <time>2019-03-31T09:06:21Z</time>
      </trkpt>
      <trkpt lat="45.28464" lon="6.15367">
        <ele>2091.2</ele>
        <time>2019-03-31T09:06:26Z</time>
      </trkpt>
      <trkpt lat="45.28466" lon="6.15364">
        <ele>2091.8</ele>
        <time>2019-03-31T09:06:31Z</time>
      </trkpt>
      <trkpt lat="45.28468" lon="6.15362">
        <ele>2093</ele>
        <time>2019-03-31T09:06:36Z</time>
      </trkpt>
      <trkpt lat="45.28469" lon="6.1536">
        <ele>2094.8</ele>
        <time>2019-03-31T09:06:41Z</time>
      </trkpt>
      <trkpt lat="45.28471" lon="6.15357">
        <ele>2094.4</ele>
        <time>2019-03-31T09:06:46Z</time>
      </trkpt>
      <trkpt lat="45.28473" lon="6.15354">
        <ele>2096.4</ele>
        <time>2019-03-31T09:06:51Z</time>
      </trkpt>
      <trkpt lat="45.28475" lon="6.15351">
        <ele>2097.6</ele>
        <time>2019-03-31T09:06:56Z</time>
      </trkpt>
      <trkpt lat="45.28476" lon="6.15347">
        <ele>2098.6</ele>
        <time>2019-03-31T09:07:01Z</time>
      </trkpt>
      <trkpt lat="45.28476" lon="6.15344">
        <ele>2097.4</ele>
        <time>2019-03-31T09:07:06Z</time>
      </trkpt>
      <trkpt lat="45.28477" lon="6.15341">
        <ele>2102.6</ele>
        <time>2019-03-31T09:07:11Z</time>
      </trkpt>
      <trkpt lat="45.28478" lon="6.15338">
        <ele>2100.8</ele>
        <time>2019-03-31T09:07:16Z</time>
      </trkpt>
      <trkpt lat="45.2848" lon="6.15337">
        <ele>2102</ele>
        <time>2019-03-31T09:07:21Z</time>
      </trkpt>
      <trkpt lat="45.28482" lon="6.15337">
        <ele>2103.4</ele>
        <time>2019-03-31T09:07:26Z</time>
      </trkpt>
      <trkpt lat="45.28485" lon="6.15338">
        <ele>2104.6</ele>
        <time>2019-03-31T09:07:31Z</time>
      </trkpt>
      <trkpt lat="45.28487" lon="6.15339">
        <ele>2106.6</ele>
        <time>2019-03-31T09:07:36Z</time>
      </trkpt>
      <trkpt lat="45.28488" lon="6.15338">
        <ele>2106.8</ele>
        <time>2019-03-31T09:07:41Z</time>
      </trkpt>
      <trkpt lat="45.28488" lon="6.15335">
        <ele>2107.8</ele>
        <time>2019-03-31T09:07:46Z</time>
      </trkpt>
      <trkpt lat="45.28488" lon="6.15332">
        <ele>2110.4</ele>
        <time>2019-03-31T09:07:51Z</time>
      </trkpt>
      <trkpt lat="45.28488" lon="6.15328">
        <ele>2112</ele>
        <time>2019-03-31T09:07:56Z</time>
      </trkpt>
      <trkpt lat="45.28488" lon="6.15325">
        <ele>2109.4</ele>
        <time>2019-03-31T09:08:01Z</time>
      </trkpt>
      <trkpt lat="45.28488" lon="6.15322">
        <ele>2113</ele>
        <time>2019-03-31T09:08:06Z</time>
      </trkpt>
      <trkpt lat="45.28487" lon="6.15318">
        <ele>2114.8</ele>
        <time>2019-03-31T09:08:11Z</time>
      </trkpt>
      <trkpt lat="45.28486" lon="6.15314">
        <ele>2111.2</ele>
        <time>2019-03-31T09:08:16Z</time>
      </trkpt>
      <trkpt lat="45.28486" lon="6.15311">
        <ele>2114.6</ele>
        <time>2019-03-31T09:08:21Z</time>
      </trkpt>
      <trkpt lat="45.28486" lon="6.15308">
        <ele>2114.4</ele>
        <time>2019-03-31T09:08:26Z</time>
      </trkpt>
      <trkpt lat="45.28486" lon="6.15305">
        <ele>2113.8</ele>
        <time>2019-03-31T09:08:31Z</time>
      </trkpt>
      <trkpt lat="45.28489" lon="6.15305">
        <ele>2118.8</ele>
        <time>2019-03-31T09:08:36Z</time>
      </trkpt>
      <trkpt lat="45.28492" lon="6.15305">
        <ele>2115.8</ele>
        <time>2019-03-31T09:08:41Z</time>
      </trkpt>
      <trkpt lat="45.28495" lon="6.15306">
        <ele>2115</ele>
        <time>2019-03-31T09:08:46Z</time>
      </trkpt>
      <trkpt lat="45.28498" lon="6.15307">
        <ele>2115</ele>
        <time>2019-03-31T09:08:51Z</time>
      </trkpt>
      <trkpt lat="45.285" lon="6.15308">
        <ele>2118.4</ele>
        <time>2019-03-31T09:08:56Z</time>
      </trkpt>
      <trkpt lat="45.28502" lon="6.15307">
        <ele>2116.8</ele>
        <time>2019-03-31T09:09:01Z</time>
      </trkpt>
      <trkpt lat="45.28503" lon="6.15306">
        <ele>2118.4</ele>
        <time>2019-03-31T09:09:06Z</time>
      </trkpt>
      <trkpt lat="45.28502" lon="6.15303">
        <ele>2115.6</ele>
        <time>2019-03-31T09:09:11Z</time>
      </trkpt>
      <trkpt lat="45.28503" lon="6.15301">
        <ele>2120.2</ele>
        <time>2019-03-31T09:09:16Z</time>
      </trkpt>
      <trkpt lat="45.28503" lon="6.15298">
        <ele>2117.6</ele>
        <time>2019-03-31T09:09:21Z</time>
      </trkpt>
      <trkpt lat="45.28503" lon="6.15295">
        <ele>2117</ele>
        <time>2019-03-31T09:09:26Z</time>
      </trkpt>
      <trkpt lat="45.28503" lon="6.15293">
        <ele>2117.8</ele>
        <time>2019-03-31T09:09:31Z</time>
      </trkpt>
      <trkpt lat="45.28503" lon="6.15291">
        <ele>2119</ele>
        <time>2019-03-31T09:09:36Z</time>
      </trkpt>
      <trkpt lat="45.28503" lon="6.15289">
        <ele>2121.2</ele>
        <time>2019-03-31T09:09:41Z</time>
      </trkpt>
      <trkpt lat="45.28505" lon="6.15289">
        <ele>2122</ele>
        <time>2019-03-31T09:09:46Z</time>
      </trkpt>
      <trkpt lat="45.28507" lon="6.15291">
        <ele>2124.2</ele>
        <time>2019-03-31T09:09:51Z</time>
      </trkpt>
      <trkpt lat="45.28511" lon="6.15292">
        <ele>2125</ele>
        <time>2019-03-31T09:09:56Z</time>
      </trkpt>
      <trkpt lat="45.28512" lon="6.15291">
        <ele>2122.6</ele>
        <time>2019-03-31T09:10:01Z</time>
      </trkpt>
      <trkpt lat="45.28512" lon="6.15289">
        <ele>2124.6</ele>
        <time>2019-03-31T09:10:06Z</time>
      </trkpt>
      <trkpt lat="45.28512" lon="6.15285">
        <ele>2126.4</ele>
        <time>2019-03-31T09:10:11Z</time>
      </trkpt>
      <trkpt lat="45.28512" lon="6.15282">
        <ele>2123.4</ele>
        <time>2019-03-31T09:10:16Z</time>
      </trkpt>
      <trkpt lat="45.28511" lon="6.15279">
        <ele>2127.2</ele>
        <time>2019-03-31T09:10:21Z</time>
      </trkpt>
      <trkpt lat="45.28511" lon="6.15276">
        <ele>2126.4</ele>
        <time>2019-03-31T09:10:26Z</time>
      </trkpt>
      <trkpt lat="45.2851" lon="6.15273">
        <ele>2128.6</ele>
        <time>2019-03-31T09:10:31Z</time>
      </trkpt>
      <trkpt lat="45.28509" lon="6.1527">
        <ele>2133.8</ele>
        <time>2019-03-31T09:10:36Z</time>
      </trkpt>
      <trkpt lat="45.28509" lon="6.15267">
        <ele>2134.4</ele>
        <time>2019-03-31T09:10:46Z</time>
      </trkpt>
      <trkpt lat="45.28509" lon="6.15268">
        <ele>2135.4</ele>
        <time>2019-03-31T09:11:11Z</time>
      </trkpt>
      <trkpt lat="45.28511" lon="6.15268">
        <ele>2133.6</ele>
        <time>2019-03-31T09:11:16Z</time>
      </trkpt>
      <trkpt lat="45.28512" lon="6.15268">
        <ele>2136.2</ele>
        <time>2019-03-31T09:11:21Z</time>
      </trkpt>
      <trkpt lat="45.28515" lon="6.15269">
        <ele>2138.6</ele>
        <time>2019-03-31T09:11:26Z</time>
      </trkpt>
      <trkpt lat="45.28517" lon="6.15268">
        <ele>2136.6</ele>
        <time>2019-03-31T09:11:31Z</time>
      </trkpt>
      <trkpt lat="45.28519" lon="6.15269">
        <ele>2139.6</ele>
        <time>2019-03-31T09:11:36Z</time>
      </trkpt>
      <trkpt lat="45.28521" lon="6.15269">
        <ele>2140.4</ele>
        <time>2019-03-31T09:11:41Z</time>
      </trkpt>
      <trkpt lat="45.28523" lon="6.15269">
        <ele>2142.8</ele>
        <time>2019-03-31T09:11:46Z</time>
      </trkpt>
      <trkpt lat="45.28524" lon="6.15267">
        <ele>2141.8</ele>
        <time>2019-03-31T09:11:51Z</time>
      </trkpt>
      <trkpt lat="45.28525" lon="6.15264">
        <ele>2143.8</ele>
        <time>2019-03-31T09:11:56Z</time>
      </trkpt>
      <trkpt lat="45.28525" lon="6.15262">
        <ele>2145</ele>
        <time>2019-03-31T09:12:01Z</time>
      </trkpt>
      <trkpt lat="45.28525" lon="6.15259">
        <ele>2144</ele>
        <time>2019-03-31T09:12:06Z</time>
      </trkpt>
      <trkpt lat="45.28525" lon="6.15257">
        <ele>2143.4</ele>
        <time>2019-03-31T09:12:11Z</time>
      </trkpt>
      <trkpt lat="45.28525" lon="6.15254">
        <ele>2142.8</ele>
        <time>2019-03-31T09:12:16Z</time>
      </trkpt>
      <trkpt lat="45.28525" lon="6.15251">
        <ele>2145.8</ele>
        <time>2019-03-31T09:12:21Z</time>
      </trkpt>
      <trkpt lat="45.28527" lon="6.1525">
        <ele>2145.4</ele>
        <time>2019-03-31T09:12:26Z</time>
      </trkpt>
      <trkpt lat="45.2853" lon="6.1525">
        <ele>2143</ele>
        <time>2019-03-31T09:12:31Z</time>
      </trkpt>
      <trkpt lat="45.28532" lon="6.15251">
        <ele>2147.6</ele>
        <time>2019-03-31T09:12:36Z</time>
      </trkpt>
      <trkpt lat="45.28534" lon="6.15251">
        <ele>2146.4</ele>
        <time>2019-03-31T09:12:41Z</time>
      </trkpt>
      <trkpt lat="45.28536" lon="6.15252">
        <ele>2144</ele>
        <time>2019-03-31T09:12:46Z</time>
      </trkpt>
      <trkpt lat="45.28538" lon="6.15253">
        <ele>2148</ele>
        <time>2019-03-31T09:12:51Z</time>
      </trkpt>
      <trkpt lat="45.28541" lon="6.15255">
        <ele>2147.4</ele>
        <time>2019-03-31T09:12:56Z</time>
      </trkpt>
      <trkpt lat="45.28543" lon="6.15257">
        <ele>2149.4</ele>
        <time>2019-03-31T09:13:01Z</time>
      </trkpt>
      <trkpt lat="45.28544" lon="6.15259">
        <ele>2149.2</ele>
        <time>2019-03-31T09:13:06Z</time>
      </trkpt>
      <trkpt lat="45.28545" lon="6.15262">
        <ele>2152</ele>
        <time>2019-03-31T09:13:11Z</time>
      </trkpt>
      <trkpt lat="45.28546" lon="6.15264">
        <ele>2152.8</ele>
        <time>2019-03-31T09:13:16Z</time>
      </trkpt>
      <trkpt lat="45.28548" lon="6.15266">
        <ele>2152.8</ele>
        <time>2019-03-31T09:13:21Z</time>
      </trkpt>
      <trkpt lat="45.2855" lon="6.15267">
        <ele>2154.6</ele>
        <time>2019-03-31T09:13:26Z</time>
      </trkpt>
      <trkpt lat="45.28551" lon="6.15268">
        <ele>2157.2</ele>
        <time>2019-03-31T09:13:31Z</time>
      </trkpt>
      <trkpt lat="45.28553" lon="6.15269">
        <ele>2156.8</ele>
        <time>2019-03-31T09:13:36Z</time>
      </trkpt>
      <trkpt lat="45.28554" lon="6.15271">
        <ele>2155.2</ele>
        <time>2019-03-31T09:13:41Z</time>
      </trkpt>
      <trkpt lat="45.28556" lon="6.15272">
        <ele>2155.8</ele>
        <time>2019-03-31T09:13:46Z</time>
      </trkpt>
      <trkpt lat="45.28558" lon="6.15273">
        <ele>2154.8</ele>
        <time>2019-03-31T09:13:51Z</time>
      </trkpt>
      <trkpt lat="45.2856" lon="6.15274">
        <ele>2157.4</ele>
        <time>2019-03-31T09:13:56Z</time>
      </trkpt>
      <trkpt lat="45.28562" lon="6.15276">
        <ele>2158.6</ele>
        <time>2019-03-31T09:14:01Z</time>
      </trkpt>
      <trkpt lat="45.28563" lon="6.15277">
        <ele>2160.2</ele>
        <time>2019-03-31T09:14:06Z</time>
      </trkpt>
      <trkpt lat="45.28565" lon="6.15279">
        <ele>2159.6</ele>
        <time>2019-03-31T09:14:11Z</time>
      </trkpt>
      <trkpt lat="45.28567" lon="6.15281">
        <ele>2157.6</ele>
        <time>2019-03-31T09:14:16Z</time>
      </trkpt>
      <trkpt lat="45.28568" lon="6.15283">
        <ele>2158.8</ele>
        <time>2019-03-31T09:14:21Z</time>
      </trkpt>
      <trkpt lat="45.2857" lon="6.15284">
        <ele>2161.2</ele>
        <time>2019-03-31T09:14:26Z</time>
      </trkpt>
      <trkpt lat="45.28571" lon="6.15286">
        <ele>2161.8</ele>
        <time>2019-03-31T09:14:31Z</time>
      </trkpt>
      <trkpt lat="45.28572" lon="6.15287">
        <ele>2157.8</ele>
        <time>2019-03-31T09:14:36Z</time>
      </trkpt>
      <trkpt lat="45.28573" lon="6.15289">
        <ele>2160.8</ele>
        <time>2019-03-31T09:14:41Z</time>
      </trkpt>
      <trkpt lat="45.28574" lon="6.15292">
        <ele>2160.4</ele>
        <time>2019-03-31T09:14:46Z</time>
      </trkpt>
      <trkpt lat="45.28575" lon="6.15294">
        <ele>2160.8</ele>
        <time>2019-03-31T09:14:51Z</time>
      </trkpt>
      <trkpt lat="45.28576" lon="6.15296">
        <ele>2160</ele>
        <time>2019-03-31T09:14:56Z</time>
      </trkpt>
      <trkpt lat="45.28578" lon="6.15299">
        <ele>2157.4</ele>
        <time>2019-03-31T09:15:01Z</time>
      </trkpt>
      <trkpt lat="45.2858" lon="6.15301">
        <ele>2160.6</ele>
        <time>2019-03-31T09:15:06Z</time>
      </trkpt>
      <trkpt lat="45.28581" lon="6.15303">
        <ele>2162.4</ele>
        <time>2019-03-31T09:15:11Z</time>
      </trkpt>
      <trkpt lat="45.28582" lon="6.15306">
        <ele>2162</ele>
        <time>2019-03-31T09:15:16Z</time>
      </trkpt>
      <trkpt lat="45.28583" lon="6.15305">
        <ele>2167.2</ele>
        <time>2019-03-31T09:15:21Z</time>
      </trkpt>
      <trkpt lat="45.28584" lon="6.15303">
        <ele>2164.4</ele>
        <time>2019-03-31T09:15:26Z</time>
      </trkpt>
      <trkpt lat="45.28585" lon="6.15301">
        <ele>2162</ele>
        <time>2019-03-31T09:15:31Z</time>
      </trkpt>
      <trkpt lat="45.28586" lon="6.15299">
        <ele>2162.4</ele>
        <time>2019-03-31T09:15:36Z</time>
      </trkpt>
      <trkpt lat="45.28587" lon="6.15297">
        <ele>2163.8</ele>
        <time>2019-03-31T09:15:41Z</time>
      </trkpt>
      <trkpt lat="45.28588" lon="6.15295">
        <ele>2163.6</ele>
        <time>2019-03-31T09:15:46Z</time>
      </trkpt>
      <trkpt lat="45.2859" lon="6.15292">
        <ele>2165.2</ele>
        <time>2019-03-31T09:15:51Z</time>
      </trkpt>
      <trkpt lat="45.2859" lon="6.1529">
        <ele>2164</ele>
        <time>2019-03-31T09:15:56Z</time>
      </trkpt>
      <trkpt lat="45.28591" lon="6.15288">
        <ele>2165</ele>
        <time>2019-03-31T09:16:01Z</time>
      </trkpt>
      <trkpt lat="45.28592" lon="6.15285">
        <ele>2163.6</ele>
        <time>2019-03-31T09:16:06Z</time>
      </trkpt>
      <trkpt lat="45.28593" lon="6.15283">
        <ele>2167.2</ele>
        <time>2019-03-31T09:16:11Z</time>
      </trkpt>
      <trkpt lat="45.28594" lon="6.15281">
        <ele>2166.8</ele>
        <time>2019-03-31T09:16:16Z</time>
      </trkpt>
      <trkpt lat="45.28595" lon="6.15279">
        <ele>2166.8</ele>
        <time>2019-03-31T09:16:21Z</time>
      </trkpt>
      <trkpt lat="45.28596" lon="6.15277">
        <ele>2168.8</ele>
        <time>2019-03-31T09:16:26Z</time>
      </trkpt>
      <trkpt lat="45.28598" lon="6.15275">
        <ele>2169.2</ele>
        <time>2019-03-31T09:16:31Z</time>
      </trkpt>
      <trkpt lat="45.286" lon="6.15274">
        <ele>2173.4</ele>
        <time>2019-03-31T09:16:36Z</time>
      </trkpt>
      <trkpt lat="45.28601" lon="6.15272">
        <ele>2169.2</ele>
        <time>2019-03-31T09:16:41Z</time>
      </trkpt>
      <trkpt lat="45.28603" lon="6.15271">
        <ele>2171.4</ele>
        <time>2019-03-31T09:16:46Z</time>
      </trkpt>
      <trkpt lat="45.28605" lon="6.15269">
        <ele>2168.2</ele>
        <time>2019-03-31T09:16:51Z</time>
      </trkpt>
      <trkpt lat="45.28606" lon="6.15268">
        <ele>2166.4</ele>
        <time>2019-03-31T09:16:56Z</time>
      </trkpt>
      <trkpt lat="45.28608" lon="6.15266">
        <ele>2172</ele>
        <time>2019-03-31T09:17:01Z</time>
      </trkpt>
      <trkpt lat="45.28609" lon="6.15264">
        <ele>2172.8</ele>
        <time>2019-03-31T09:17:06Z</time>
      </trkpt>
      <trkpt lat="45.2861" lon="6.15262">
        <ele>2173.4</ele>
        <time>2019-03-31T09:17:11Z</time>
      </trkpt>
      <trkpt lat="45.28611" lon="6.1526">
        <ele>2170.6</ele>
        <time>2019-03-31T09:17:16Z</time>
      </trkpt>
      <trkpt lat="45.28612" lon="6.15258">
        <ele>2170</ele>
        <time>2019-03-31T09:17:21Z</time>
      </trkpt>
      <trkpt lat="45.28614" lon="6.15257">
        <ele>2175.2</ele>
        <time>2019-03-31T09:17:26Z</time>
      </trkpt>
      <trkpt lat="45.28616" lon="6.15256">
        <ele>2173.4</ele>
        <time>2019-03-31T09:17:31Z</time>
      </trkpt>
      <trkpt lat="45.28618" lon="6.15255">
        <ele>2173.8</ele>
        <time>2019-03-31T09:17:36Z</time>
      </trkpt>
      <trkpt lat="45.28619" lon="6.15254">
        <ele>2179.2</ele>
        <time>2019-03-31T09:17:41Z</time>
      </trkpt>
      <trkpt lat="45.2862" lon="6.15253">
        <ele>2176</ele>
        <time>2019-03-31T09:17:46Z</time>
      </trkpt>
      <trkpt lat="45.28622" lon="6.15252">
        <ele>2176.2</ele>
        <time>2019-03-31T09:17:51Z</time>
      </trkpt>
      <trkpt lat="45.28623" lon="6.15251">
        <ele>2176.8</ele>
        <time>2019-03-31T09:17:56Z</time>
      </trkpt>
      <trkpt lat="45.28626" lon="6.15251">
        <ele>2174.8</ele>
        <time>2019-03-31T09:18:01Z</time>
      </trkpt>
      <trkpt lat="45.28627" lon="6.15251">
        <ele>2177.8</ele>
        <time>2019-03-31T09:18:06Z</time>
      </trkpt>
      <trkpt lat="45.28628" lon="6.15251">
        <ele>2179.4</ele>
        <time>2019-03-31T09:18:16Z</time>
      </trkpt>
      <trkpt lat="45.28628" lon="6.15251">
        <ele>2180.2</ele>
        <time>2019-03-31T09:18:26Z</time>
      </trkpt>
      <trkpt lat="45.2863" lon="6.15251">
        <ele>2180.4</ele>
        <time>2019-03-31T09:18:31Z</time>
      </trkpt>
      <trkpt lat="45.28632" lon="6.1525">
        <ele>2182</ele>
        <time>2019-03-31T09:18:36Z</time>
      </trkpt>
      <trkpt lat="45.28634" lon="6.1525">
        <ele>2183.8</ele>
        <time>2019-03-31T09:18:41Z</time>
      </trkpt>
      <trkpt lat="45.28635" lon="6.1525">
        <ele>2183.2</ele>
        <time>2019-03-31T09:18:46Z</time>
      </trkpt>
      <trkpt lat="45.28637" lon="6.1525">
        <ele>2184.4</ele>
        <time>2019-03-31T09:18:51Z</time>
      </trkpt>
      <trkpt lat="45.28638" lon="6.15249">
        <ele>2187.4</ele>
        <time>2019-03-31T09:18:56Z</time>
      </trkpt>
      <trkpt lat="45.2864" lon="6.15249">
        <ele>2187.2</ele>
        <time>2019-03-31T09:19:01Z</time>
      </trkpt>
      <trkpt lat="45.28643" lon="6.15248">
        <ele>2189.2</ele>
        <time>2019-03-31T09:19:06Z</time>
      </trkpt>
      <trkpt lat="45.28642" lon="6.15246">
        <ele>2189.2</ele>
        <time>2019-03-31T09:19:11Z</time>
      </trkpt>
      <trkpt lat="45.28641" lon="6.15242">
        <ele>2190.6</ele>
        <time>2019-03-31T09:19:16Z</time>
      </trkpt>
      <trkpt lat="45.2864" lon="6.15238">
        <ele>2191.4</ele>
        <time>2019-03-31T09:19:21Z</time>
      </trkpt>
      <trkpt lat="45.28642" lon="6.15235">
        <ele>2191.2</ele>
        <time>2019-03-31T09:19:26Z</time>
      </trkpt>
      <trkpt lat="45.28644" lon="6.15233">
        <ele>2189.6</ele>
        <time>2019-03-31T09:19:31Z</time>
      </trkpt>
      <trkpt lat="45.28645" lon="6.15231">
        <ele>2193.2</ele>
        <time>2019-03-31T09:19:36Z</time>
      </trkpt>
      <trkpt lat="45.28646" lon="6.15228">
        <ele>2196.4</ele>
        <time>2019-03-31T09:19:41Z</time>
      </trkpt>
      <trkpt lat="45.28646" lon="6.15225">
        <ele>2192</ele>
        <time>2019-03-31T09:19:46Z</time>
      </trkpt>
      <trkpt lat="45.28647" lon="6.15223">
        <ele>2195.6</ele>
        <time>2019-03-31T09:19:51Z</time>
      </trkpt>
      <trkpt lat="45.28649" lon="6.1522">
        <ele>2195.8</ele>
        <time>2019-03-31T09:19:56Z</time>
      </trkpt>
      <trkpt lat="45.2865" lon="6.15217">
        <ele>2197.2</ele>
        <time>2019-03-31T09:20:01Z</time>
      </trkpt>
      <trkpt lat="45.28652" lon="6.15216">
        <ele>2195.2</ele>
        <time>2019-03-31T09:20:06Z</time>
      </trkpt>
      <trkpt lat="45.28654" lon="6.15214">
        <ele>2196.8</ele>
        <time>2019-03-31T09:20:11Z</time>
      </trkpt>
      <trkpt lat="45.28655" lon="6.15212">
        <ele>2195.8</ele>
        <time>2019-03-31T09:20:16Z</time>
      </trkpt>
      <trkpt lat="45.28657" lon="6.15211">
        <ele>2196.2</ele>
        <time>2019-03-31T09:20:21Z</time>
      </trkpt>
      <trkpt lat="45.28659" lon="6.15209">
        <ele>2197.6</ele>
        <time>2019-03-31T09:20:26Z</time>
      </trkpt>
      <trkpt lat="45.28661" lon="6.15207">
        <ele>2196.2</ele>
        <time>2019-03-31T09:20:31Z</time>
      </trkpt>
      <trkpt lat="45.28663" lon="6.15205">
        <ele>2195</ele>
        <time>2019-03-31T09:20:36Z</time>
      </trkpt>
      <trkpt lat="45.28664" lon="6.15202">
        <ele>2197.8</ele>
        <time>2019-03-31T09:20:41Z</time>
      </trkpt>
      <trkpt lat="45.28665" lon="6.15198">
        <ele>2198.8</ele>
        <time>2019-03-31T09:20:46Z</time>
      </trkpt>
      <trkpt lat="45.28665" lon="6.15193">
        <ele>2198.6</ele>
        <time>2019-03-31T09:20:51Z</time>
      </trkpt>
      <trkpt lat="45.28667" lon="6.15187">
        <ele>2198.8</ele>
        <time>2019-03-31T09:20:56Z</time>
      </trkpt>
      <trkpt lat="45.2867" lon="6.15178">
        <ele>2200.2</ele>
        <time>2019-03-31T09:21:01Z</time>
      </trkpt>
      <trkpt lat="45.28674" lon="6.15172">
        <ele>2198.4</ele>
        <time>2019-03-31T09:21:06Z</time>
      </trkpt>
      <trkpt lat="45.28677" lon="6.15168">
        <ele>2198.2</ele>
        <time>2019-03-31T09:21:11Z</time>
      </trkpt>
      <trkpt lat="45.2868" lon="6.15165">
        <ele>2199.6</ele>
        <time>2019-03-31T09:21:16Z</time>
      </trkpt>
      <trkpt lat="45.28681" lon="6.15161">
        <ele>2198</ele>
        <time>2019-03-31T09:21:21Z</time>
      </trkpt>
      <trkpt lat="45.28683" lon="6.15158">
        <ele>2199.2</ele>
        <time>2019-03-31T09:21:26Z</time>
      </trkpt>
      <trkpt lat="45.28686" lon="6.15155">
        <ele>2199.4</ele>
        <time>2019-03-31T09:21:31Z</time>
      </trkpt>
      <trkpt lat="45.28689" lon="6.15151">
        <ele>2200</ele>
        <time>2019-03-31T09:21:36Z</time>
      </trkpt>
      <trkpt lat="45.28692" lon="6.15148">
        <ele>2200</ele>
        <time>2019-03-31T09:21:41Z</time>
      </trkpt>
      <trkpt lat="45.28694" lon="6.15145">
        <ele>2202.4</ele>
        <time>2019-03-31T09:21:46Z</time>
      </trkpt>
      <trkpt lat="45.28696" lon="6.15142">
        <ele>2202.4</ele>
        <time>2019-03-31T09:21:51Z</time>
      </trkpt>
      <trkpt lat="45.28698" lon="6.1514">
        <ele>2201.6</ele>
        <time>2019-03-31T09:21:56Z</time>
      </trkpt>
      <trkpt lat="45.287" lon="6.15138">
        <ele>2202.4</ele>
        <time>2019-03-31T09:22:01Z</time>
      </trkpt>
      <trkpt lat="45.28702" lon="6.15135">
        <ele>2204.2</ele>
        <time>2019-03-31T09:22:06Z</time>
      </trkpt>
      <trkpt lat="45.28705" lon="6.15134">
        <ele>2204</ele>
        <time>2019-03-31T09:22:11Z</time>
      </trkpt>
      <trkpt lat="45.28709" lon="6.15135">
        <ele>2201.6</ele>
        <time>2019-03-31T09:22:16Z</time>
      </trkpt>
      <trkpt lat="45.2871" lon="6.15136">
        <ele>2201</ele>
        <time>2019-03-31T09:22:21Z</time>
      </trkpt>
      <trkpt lat="45.28711" lon="6.15137">
        <ele>2200.6</ele>
        <time>2019-03-31T09:22:26Z</time>
      </trkpt>
      <trkpt lat="45.28712" lon="6.15137">
        <ele>2200.2</ele>
        <time>2019-03-31T09:22:31Z</time>
      </trkpt>
      <trkpt lat="45.28713" lon="6.15137">
        <ele>2199.6</ele>
        <time>2019-03-31T09:22:36Z</time>
      </trkpt>
      <trkpt lat="45.28714" lon="6.15138">
        <ele>2205</ele>
        <time>2019-03-31T09:29:11Z</time>
      </trkpt>
      <trkpt lat="45.28717" lon="6.15134">
        <ele>2211.2</ele>
        <time>2019-03-31T09:29:36Z</time>
      </trkpt>
      <trkpt lat="45.28717" lon="6.15132">
        <ele>2210.6</ele>
        <time>2019-03-31T09:29:41Z</time>
      </trkpt>
      <trkpt lat="45.28719" lon="6.1513">
        <ele>2212.4</ele>
        <time>2019-03-31T09:29:46Z</time>
      </trkpt>
      <trkpt lat="45.2872" lon="6.15127">
        <ele>2212.4</ele>
        <time>2019-03-31T09:29:51Z</time>
      </trkpt>
      <trkpt lat="45.2872" lon="6.15125">
        <ele>2212.4</ele>
        <time>2019-03-31T09:29:56Z</time>
      </trkpt>
      <trkpt lat="45.28722" lon="6.15122">
        <ele>2214.2</ele>
        <time>2019-03-31T09:30:01Z</time>
      </trkpt>
      <trkpt lat="45.28724" lon="6.1512">
        <ele>2215</ele>
        <time>2019-03-31T09:30:06Z</time>
      </trkpt>
      <trkpt lat="45.28725" lon="6.15119">
        <ele>2215.4</ele>
        <time>2019-03-31T09:30:11Z</time>
      </trkpt>
      <trkpt lat="45.28727" lon="6.15117">
        <ele>2218</ele>
        <time>2019-03-31T09:30:16Z</time>
      </trkpt>
      <trkpt lat="45.28729" lon="6.15116">
        <ele>2219</ele>
        <time>2019-03-31T09:30:21Z</time>
      </trkpt>
      <trkpt lat="45.2873" lon="6.15115">
        <ele>2218.6</ele>
        <time>2019-03-31T09:30:26Z</time>
      </trkpt>
      <trkpt lat="45.28731" lon="6.15113">
        <ele>2218.6</ele>
        <time>2019-03-31T09:30:31Z</time>
      </trkpt>
      <trkpt lat="45.28733" lon="6.15112">
        <ele>2221</ele>
        <time>2019-03-31T09:30:36Z</time>
      </trkpt>
      <trkpt lat="45.28734" lon="6.15111">
        <ele>2222.6</ele>
        <time>2019-03-31T09:30:41Z</time>
      </trkpt>
      <trkpt lat="45.28736" lon="6.1511">
        <ele>2221.2</ele>
        <time>2019-03-31T09:30:46Z</time>
      </trkpt>
      <trkpt lat="45.28737" lon="6.15109">
        <ele>2220.4</ele>
        <time>2019-03-31T09:30:51Z</time>
      </trkpt>
      <trkpt lat="45.2874" lon="6.15108">
        <ele>2224.2</ele>
        <time>2019-03-31T09:30:56Z</time>
      </trkpt>
      <trkpt lat="45.28742" lon="6.15107">
        <ele>2224</ele>
        <time>2019-03-31T09:31:01Z</time>
      </trkpt>
      <trkpt lat="45.28744" lon="6.15106">
        <ele>2225.8</ele>
        <time>2019-03-31T09:31:06Z</time>
      </trkpt>
      <trkpt lat="45.28746" lon="6.15105">
        <ele>2226.2</ele>
        <time>2019-03-31T09:31:11Z</time>
      </trkpt>
      <trkpt lat="45.28747" lon="6.15103">
        <ele>2227.2</ele>
        <time>2019-03-31T09:31:16Z</time>
      </trkpt>
      <trkpt lat="45.28749" lon="6.15102">
        <ele>2223.8</ele>
        <time>2019-03-31T09:31:21Z</time>
      </trkpt>
      <trkpt lat="45.2875" lon="6.15102">
        <ele>2224.6</ele>
        <time>2019-03-31T09:31:26Z</time>
      </trkpt>
      <trkpt lat="45.28752" lon="6.15101">
        <ele>2225.2</ele>
        <time>2019-03-31T09:31:31Z</time>
      </trkpt>
      <trkpt lat="45.28753" lon="6.151">
        <ele>2226.2</ele>
        <time>2019-03-31T09:31:36Z</time>
      </trkpt>
      <trkpt lat="45.28754" lon="6.15098">
        <ele>2226</ele>
        <time>2019-03-31T09:31:46Z</time>
      </trkpt>
      <trkpt lat="45.28755" lon="6.15097">
        <ele>2229.4</ele>
        <time>2019-03-31T09:31:51Z</time>
      </trkpt>
      <trkpt lat="45.28758" lon="6.15096">
        <ele>2231</ele>
        <time>2019-03-31T09:31:56Z</time>
      </trkpt>
      <trkpt lat="45.2876" lon="6.15096">
        <ele>2231.4</ele>
        <time>2019-03-31T09:32:01Z</time>
      </trkpt>
      <trkpt lat="45.28762" lon="6.15096">
        <ele>2231.4</ele>
        <time>2019-03-31T09:32:06Z</time>
      </trkpt>
      <trkpt lat="45.28763" lon="6.15095">
        <ele>2234.2</ele>
        <time>2019-03-31T09:32:11Z</time>
      </trkpt>
      <trkpt lat="45.28765" lon="6.15095">
        <ele>2234.6</ele>
        <time>2019-03-31T09:32:16Z</time>
      </trkpt>
      <trkpt lat="45.28767" lon="6.15094">
        <ele>2235.2</ele>
        <time>2019-03-31T09:32:21Z</time>
      </trkpt>
      <trkpt lat="45.28767" lon="6.15092">
        <ele>2237</ele>
        <time>2019-03-31T09:32:26Z</time>
      </trkpt>
      <trkpt lat="45.28768" lon="6.1509">
        <ele>2239.6</ele>
        <time>2019-03-31T09:32:31Z</time>
      </trkpt>
      <trkpt lat="45.28769" lon="6.15089">
        <ele>2242.2</ele>
        <time>2019-03-31T09:32:36Z</time>
      </trkpt>
      <trkpt lat="45.2877" lon="6.15088">
        <ele>2241</ele>
        <time>2019-03-31T09:32:41Z</time>
      </trkpt>
      <trkpt lat="45.28773" lon="6.15087">
        <ele>2236.6</ele>
        <time>2019-03-31T09:32:46Z</time>
      </trkpt>
      <trkpt lat="45.28775" lon="6.15087">
        <ele>2239</ele>
        <time>2019-03-31T09:32:51Z</time>
      </trkpt>
      <trkpt lat="45.28777" lon="6.15086">
        <ele>2236</ele>
        <time>2019-03-31T09:32:56Z</time>
      </trkpt>
      <trkpt lat="45.28779" lon="6.15086">
        <ele>2239.8</ele>
        <time>2019-03-31T09:33:01Z</time>
      </trkpt>
      <trkpt lat="45.28781" lon="6.15085">
        <ele>2239.2</ele>
        <time>2019-03-31T09:33:06Z</time>
      </trkpt>
      <trkpt lat="45.28782" lon="6.15085">
        <ele>2242.6</ele>
        <time>2019-03-31T09:33:11Z</time>
      </trkpt>
      <trkpt lat="45.28782" lon="6.15085">
        <ele>2243.6</ele>
        <time>2019-03-31T09:33:16Z</time>
      </trkpt>
      <trkpt lat="45.28781" lon="6.15083">
        <ele>2244</ele>
        <time>2019-03-31T09:33:21Z</time>
      </trkpt>
      <trkpt lat="45.2878" lon="6.15081">
        <ele>2244</ele>
        <time>2019-03-31T09:33:26Z</time>
      </trkpt>
      <trkpt lat="45.2878" lon="6.15079">
        <ele>2244.6</ele>
        <time>2019-03-31T09:33:31Z</time>
      </trkpt>
      <trkpt lat="45.28778" lon="6.15077">
        <ele>2242.4</ele>
        <time>2019-03-31T09:33:36Z</time>
      </trkpt>
      <trkpt lat="45.28777" lon="6.15075">
        <ele>2243.8</ele>
        <time>2019-03-31T09:33:41Z</time>
      </trkpt>
      <trkpt lat="45.28776" lon="6.15073">
        <ele>2243.4</ele>
        <time>2019-03-31T09:33:46Z</time>
      </trkpt>
      <trkpt lat="45.28774" lon="6.15072">
        <ele>2244.6</ele>
        <time>2019-03-31T09:33:51Z</time>
      </trkpt>
      <trkpt lat="45.28773" lon="6.1507">
        <ele>2246</ele>
        <time>2019-03-31T09:33:56Z</time>
      </trkpt>
      <trkpt lat="45.28772" lon="6.15068">
        <ele>2246.8</ele>
        <time>2019-03-31T09:34:01Z</time>
      </trkpt>
      <trkpt lat="45.28771" lon="6.15066">
        <ele>2248</ele>
        <time>2019-03-31T09:34:06Z</time>
      </trkpt>
      <trkpt lat="45.28769" lon="6.15064">
        <ele>2247</ele>
        <time>2019-03-31T09:34:11Z</time>
      </trkpt>
      <trkpt lat="45.28768" lon="6.15062">
        <ele>2246.4</ele>
        <time>2019-03-31T09:34:16Z</time>
      </trkpt>
      <trkpt lat="45.28767" lon="6.1506">
        <ele>2246</ele>
        <time>2019-03-31T09:34:21Z</time>
      </trkpt>
      <trkpt lat="45.28766" lon="6.15059">
        <ele>2244.6</ele>
        <time>2019-03-31T09:34:26Z</time>
      </trkpt>
      <trkpt lat="45.28765" lon="6.15057">
        <ele>2245.8</ele>
        <time>2019-03-31T09:34:31Z</time>
      </trkpt>
      <trkpt lat="45.28764" lon="6.15056">
        <ele>2247.6</ele>
        <time>2019-03-31T09:34:36Z</time>
      </trkpt>
      <trkpt lat="45.28763" lon="6.15054">
        <ele>2249</ele>
        <time>2019-03-31T09:34:41Z</time>
      </trkpt>
      <trkpt lat="45.28762" lon="6.15052">
        <ele>2251.2</ele>
        <time>2019-03-31T09:34:46Z</time>
      </trkpt>
      <trkpt lat="45.28761" lon="6.1505">
        <ele>2251.6</ele>
        <time>2019-03-31T09:34:51Z</time>
      </trkpt>
      <trkpt lat="45.2876" lon="6.15048">
        <ele>2252.4</ele>
        <time>2019-03-31T09:34:56Z</time>
      </trkpt>
      <trkpt lat="45.28759" lon="6.15046">
        <ele>2251.8</ele>
        <time>2019-03-31T09:35:01Z</time>
      </trkpt>
      <trkpt lat="45.28758" lon="6.15044">
        <ele>2249.6</ele>
        <time>2019-03-31T09:35:06Z</time>
      </trkpt>
      <trkpt lat="45.28757" lon="6.15042">
        <ele>2252.4</ele>
        <time>2019-03-31T09:35:11Z</time>
      </trkpt>
      <trkpt lat="45.28755" lon="6.1504">
        <ele>2251</ele>
        <time>2019-03-31T09:35:16Z</time>
      </trkpt>
      <trkpt lat="45.28754" lon="6.15038">
        <ele>2251.6</ele>
        <time>2019-03-31T09:35:21Z</time>
      </trkpt>
      <trkpt lat="45.28753" lon="6.15037">
        <ele>2252.2</ele>
        <time>2019-03-31T09:35:26Z</time>
      </trkpt>
      <trkpt lat="45.28752" lon="6.15035">
        <ele>2253.6</ele>
        <time>2019-03-31T09:35:31Z</time>
      </trkpt>
      <trkpt lat="45.28751" lon="6.15033">
        <ele>2253</ele>
        <time>2019-03-31T09:35:36Z</time>
      </trkpt>
      <trkpt lat="45.28749" lon="6.15031">
        <ele>2253</ele>
        <time>2019-03-31T09:35:41Z</time>
      </trkpt>
      <trkpt lat="45.28748" lon="6.1503">
        <ele>2253.8</ele>
        <time>2019-03-31T09:35:46Z</time>
      </trkpt>
      <trkpt lat="45.28747" lon="6.15028">
        <ele>2254</ele>
        <time>2019-03-31T09:35:51Z</time>
      </trkpt>
      <trkpt lat="45.28745" lon="6.15027">
        <ele>2253.8</ele>
        <time>2019-03-31T09:35:56Z</time>
      </trkpt>
      <trkpt lat="45.28744" lon="6.15025">
        <ele>2254.8</ele>
        <time>2019-03-31T09:36:01Z</time>
      </trkpt>
      <trkpt lat="45.28743" lon="6.15024">
        <ele>2256.2</ele>
        <time>2019-03-31T09:36:06Z</time>
      </trkpt>
      <trkpt lat="45.28742" lon="6.15022">
        <ele>2256.4</ele>
        <time>2019-03-31T09:36:11Z</time>
      </trkpt>
      <trkpt lat="45.28741" lon="6.15021">
        <ele>2256</ele>
        <time>2019-03-31T09:36:16Z</time>
      </trkpt>
      <trkpt lat="45.2874" lon="6.1502">
        <ele>2256.8</ele>
        <time>2019-03-31T09:36:26Z</time>
      </trkpt>
      <trkpt lat="45.28741" lon="6.15019">
        <ele>2257.8</ele>
        <time>2019-03-31T09:36:31Z</time>
      </trkpt>
      <trkpt lat="45.28743" lon="6.15019">
        <ele>2258.6</ele>
        <time>2019-03-31T09:36:36Z</time>
      </trkpt>
      <trkpt lat="45.28744" lon="6.15018">
        <ele>2259.4</ele>
        <time>2019-03-31T09:36:41Z</time>
      </trkpt>
      <trkpt lat="45.28746" lon="6.15017">
        <ele>2264.6</ele>
        <time>2019-03-31T09:36:46Z</time>
      </trkpt>
      <trkpt lat="45.28747" lon="6.15015">
        <ele>2264.8</ele>
        <time>2019-03-31T09:36:51Z</time>
      </trkpt>
      <trkpt lat="45.28748" lon="6.15014">
        <ele>2264.6</ele>
        <time>2019-03-31T09:36:56Z</time>
      </trkpt>
      <trkpt lat="45.2875" lon="6.15013">
        <ele>2265.4</ele>
        <time>2019-03-31T09:37:01Z</time>
      </trkpt>
      <trkpt lat="45.28752" lon="6.15012">
        <ele>2264.8</ele>
        <time>2019-03-31T09:37:06Z</time>
      </trkpt>
      <trkpt lat="45.28754" lon="6.15011">
        <ele>2267.2</ele>
        <time>2019-03-31T09:37:11Z</time>
      </trkpt>
      <trkpt lat="45.28756" lon="6.1501">
        <ele>2270</ele>
        <time>2019-03-31T09:37:16Z</time>
      </trkpt>
      <trkpt lat="45.28757" lon="6.15009">
        <ele>2267.2</ele>
        <time>2019-03-31T09:37:21Z</time>
      </trkpt>
      <trkpt lat="45.28758" lon="6.15008">
        <ele>2268</ele>
        <time>2019-03-31T09:37:26Z</time>
      </trkpt>
      <trkpt lat="45.2876" lon="6.15007">
        <ele>2266.2</ele>
        <time>2019-03-31T09:37:31Z</time>
      </trkpt>
      <trkpt lat="45.28761" lon="6.15006">
        <ele>2268.6</ele>
        <time>2019-03-31T09:37:36Z</time>
      </trkpt>
      <trkpt lat="45.28762" lon="6.15006">
        <ele>2270.6</ele>
        <time>2019-03-31T09:37:41Z</time>
      </trkpt>
      <trkpt lat="45.28763" lon="6.15005">
        <ele>2273.6</ele>
        <time>2019-03-31T09:37:46Z</time>
      </trkpt>
      <trkpt lat="45.28764" lon="6.15003">
        <ele>2269.8</ele>
        <time>2019-03-31T09:37:51Z</time>
      </trkpt>
      <trkpt lat="45.28765" lon="6.15002">
        <ele>2271.6</ele>
        <time>2019-03-31T09:37:56Z</time>
      </trkpt>
      <trkpt lat="45.28766" lon="6.15001">
        <ele>2269.2</ele>
        <time>2019-03-31T09:38:01Z</time>
      </trkpt>
      <trkpt lat="45.28768" lon="6.15001">
        <ele>2272.4</ele>
        <time>2019-03-31T09:38:06Z</time>
      </trkpt>
      <trkpt lat="45.2877" lon="6.15001">
        <ele>2273.4</ele>
        <time>2019-03-31T09:38:11Z</time>
      </trkpt>
      <trkpt lat="45.28772" lon="6.15001">
        <ele>2271.4</ele>
        <time>2019-03-31T09:38:16Z</time>
      </trkpt>
      <trkpt lat="45.28774" lon="6.15001">
        <ele>2272.8</ele>
        <time>2019-03-31T09:38:21Z</time>
      </trkpt>
      <trkpt lat="45.28776" lon="6.15">
        <ele>2274</ele>
        <time>2019-03-31T09:38:26Z</time>
      </trkpt>
      <trkpt lat="45.28777" lon="6.15">
        <ele>2274.8</ele>
        <time>2019-03-31T09:38:31Z</time>
      </trkpt>
      <trkpt lat="45.28779" lon="6.14999">
        <ele>2275.8</ele>
        <time>2019-03-31T09:38:36Z</time>
      </trkpt>
      <trkpt lat="45.28781" lon="6.14999">
        <ele>2275.8</ele>
        <time>2019-03-31T09:38:41Z</time>
      </trkpt>
      <trkpt lat="45.28783" lon="6.14999">
        <ele>2277.6</ele>
        <time>2019-03-31T09:38:46Z</time>
      </trkpt>
      <trkpt lat="45.28784" lon="6.14998">
        <ele>2280</ele>
        <time>2019-03-31T09:38:51Z</time>
      </trkpt>
      <trkpt lat="45.28786" lon="6.14999">
        <ele>2279.4</ele>
        <time>2019-03-31T09:38:56Z</time>
      </trkpt>
      <trkpt lat="45.28788" lon="6.14999">
        <ele>2277.8</ele>
        <time>2019-03-31T09:39:01Z</time>
      </trkpt>
      <trkpt lat="45.28789" lon="6.14999">
        <ele>2280.6</ele>
        <time>2019-03-31T09:39:06Z</time>
      </trkpt>
      <trkpt lat="45.28791" lon="6.14998">
        <ele>2282.6</ele>
        <time>2019-03-31T09:39:11Z</time>
      </trkpt>
      <trkpt lat="45.28794" lon="6.14998">
        <ele>2281.6</ele>
        <time>2019-03-31T09:39:16Z</time>
      </trkpt>
      <trkpt lat="45.28796" lon="6.14998">
        <ele>2280.8</ele>
        <time>2019-03-31T09:39:21Z</time>
      </trkpt>
      <trkpt lat="45.28796" lon="6.14998">
        <ele>2281.4</ele>
        <time>2019-03-31T09:39:26Z</time>
      </trkpt>
      <trkpt lat="45.28795" lon="6.14997">
        <ele>2281.8</ele>
        <time>2019-03-31T09:39:31Z</time>
      </trkpt>
      <trkpt lat="45.28794" lon="6.14996">
        <ele>2284.2</ele>
        <time>2019-03-31T09:39:36Z</time>
      </trkpt>
      <trkpt lat="45.28793" lon="6.14994">
        <ele>2284</ele>
        <time>2019-03-31T09:39:41Z</time>
      </trkpt>
      <trkpt lat="45.28792" lon="6.14992">
        <ele>2283.6</ele>
        <time>2019-03-31T09:39:46Z</time>
      </trkpt>
      <trkpt lat="45.28792" lon="6.14989">
        <ele>2282.6</ele>
        <time>2019-03-31T09:39:51Z</time>
      </trkpt>
      <trkpt lat="45.28791" lon="6.14987">
        <ele>2282.4</ele>
        <time>2019-03-31T09:39:56Z</time>
      </trkpt>
      <trkpt lat="45.28791" lon="6.14986">
        <ele>2283.8</ele>
        <time>2019-03-31T09:40:01Z</time>
      </trkpt>
      <trkpt lat="45.2879" lon="6.14984">
        <ele>2285.2</ele>
        <time>2019-03-31T09:40:06Z</time>
      </trkpt>
      <trkpt lat="45.28789" lon="6.14982">
        <ele>2284.8</ele>
        <time>2019-03-31T09:40:11Z</time>
      </trkpt>
      <trkpt lat="45.28788" lon="6.14981">
        <ele>2286.8</ele>
        <time>2019-03-31T09:40:16Z</time>
      </trkpt>
      <trkpt lat="45.28788" lon="6.14979">
        <ele>2292.2</ele>
        <time>2019-03-31T09:40:21Z</time>
      </trkpt>
      <trkpt lat="45.28787" lon="6.14978">
        <ele>2291.2</ele>
        <time>2019-03-31T09:40:26Z</time>
      </trkpt>
      <trkpt lat="45.28786" lon="6.14977">
        <ele>2292.6</ele>
        <time>2019-03-31T09:40:31Z</time>
      </trkpt>
      <trkpt lat="45.28784" lon="6.14975">
        <ele>2294.4</ele>
        <time>2019-03-31T09:40:36Z</time>
      </trkpt>
      <trkpt lat="45.28783" lon="6.14974">
        <ele>2291</ele>
        <time>2019-03-31T09:40:41Z</time>
      </trkpt>
      <trkpt lat="45.28781" lon="6.14973">
        <ele>2290.2</ele>
        <time>2019-03-31T09:40:46Z</time>
      </trkpt>
      <trkpt lat="45.2878" lon="6.14972">
        <ele>2290.2</ele>
        <time>2019-03-31T09:40:51Z</time>
      </trkpt>
      <trkpt lat="45.28778" lon="6.14969">
        <ele>2289.6</ele>
        <time>2019-03-31T09:40:56Z</time>
      </trkpt>
      <trkpt lat="45.28778" lon="6.14968">
        <ele>2289.6</ele>
        <time>2019-03-31T09:41:01Z</time>
      </trkpt>
      <trkpt lat="45.28777" lon="6.14966">
        <ele>2292.6</ele>
        <time>2019-03-31T09:41:06Z</time>
      </trkpt>
      <trkpt lat="45.28775" lon="6.14965">
        <ele>2291.6</ele>
        <time>2019-03-31T09:41:11Z</time>
      </trkpt>
      <trkpt lat="45.28774" lon="6.14964">
        <ele>2294.2</ele>
        <time>2019-03-31T09:41:16Z</time>
      </trkpt>
      <trkpt lat="45.28773" lon="6.14962">
        <ele>2294.6</ele>
        <time>2019-03-31T09:41:21Z</time>
      </trkpt>
      <trkpt lat="45.28772" lon="6.1496">
        <ele>2295.8</ele>
        <time>2019-03-31T09:41:26Z</time>
      </trkpt>
      <trkpt lat="45.28771" lon="6.14958">
        <ele>2296.8</ele>
        <time>2019-03-31T09:41:31Z</time>
      </trkpt>
      <trkpt lat="45.2877" lon="6.14956">
        <ele>2298.4</ele>
        <time>2019-03-31T09:41:36Z</time>
      </trkpt>
      <trkpt lat="45.28769" lon="6.14954">
        <ele>2300.6</ele>
        <time>2019-03-31T09:41:41Z</time>
      </trkpt>
      <trkpt lat="45.28768" lon="6.14953">
        <ele>2300.2</ele>
        <time>2019-03-31T09:41:46Z</time>
      </trkpt>
      <trkpt lat="45.28767" lon="6.14951">
        <ele>2302</ele>
        <time>2019-03-31T09:41:51Z</time>
      </trkpt>
      <trkpt lat="45.28766" lon="6.14949">
        <ele>2299.2</ele>
        <time>2019-03-31T09:41:56Z</time>
      </trkpt>
      <trkpt lat="45.28765" lon="6.14947">
        <ele>2298.6</ele>
        <time>2019-03-31T09:42:01Z</time>
      </trkpt>
      <trkpt lat="45.28763" lon="6.14944">
        <ele>2303</ele>
        <time>2019-03-31T09:42:07Z</time>
      </trkpt>
      <trkpt lat="45.28762" lon="6.14942">
        <ele>2303.6</ele>
        <time>2019-03-31T09:42:12Z</time>
      </trkpt>
      <trkpt lat="45.2876" lon="6.1494">
        <ele>2303.8</ele>
        <time>2019-03-31T09:42:17Z</time>
      </trkpt>
      <trkpt lat="45.28759" lon="6.14937">
        <ele>2305.2</ele>
        <time>2019-03-31T09:42:22Z</time>
      </trkpt>
      <trkpt lat="45.28758" lon="6.14935">
        <ele>2302</ele>
        <time>2019-03-31T09:42:27Z</time>
      </trkpt>
      <trkpt lat="45.28757" lon="6.14932">
        <ele>2303.6</ele>
        <time>2019-03-31T09:42:32Z</time>
      </trkpt>
      <trkpt lat="45.28756" lon="6.1493">
        <ele>2303.2</ele>
        <time>2019-03-31T09:42:37Z</time>
      </trkpt>
      <trkpt lat="45.28755" lon="6.14927">
        <ele>2304.2</ele>
        <time>2019-03-31T09:42:42Z</time>
      </trkpt>
      <trkpt lat="45.28754" lon="6.14925">
        <ele>2304</ele>
        <time>2019-03-31T09:42:47Z</time>
      </trkpt>
      <trkpt lat="45.28754" lon="6.14922">
        <ele>2304.8</ele>
        <time>2019-03-31T09:42:52Z</time>
      </trkpt>
      <trkpt lat="45.28753" lon="6.1492">
        <ele>2306</ele>
        <time>2019-03-31T09:42:57Z</time>
      </trkpt>
      <trkpt lat="45.28753" lon="6.14918">
        <ele>2307.6</ele>
        <time>2019-03-31T09:43:02Z</time>
      </trkpt>
      <trkpt lat="45.28753" lon="6.14917">
        <ele>2306.8</ele>
        <time>2019-03-31T09:43:17Z</time>
      </trkpt>
      <trkpt lat="45.28755" lon="6.14917">
        <ele>2305</ele>
        <time>2019-03-31T09:43:22Z</time>
      </trkpt>
      <trkpt lat="45.28757" lon="6.14917">
        <ele>2305</ele>
        <time>2019-03-31T09:43:27Z</time>
      </trkpt>
      <trkpt lat="45.28759" lon="6.14917">
        <ele>2304.2</ele>
        <time>2019-03-31T09:43:32Z</time>
      </trkpt>
      <trkpt lat="45.28761" lon="6.14917">
        <ele>2306.4</ele>
        <time>2019-03-31T09:43:37Z</time>
      </trkpt>
      <trkpt lat="45.28763" lon="6.14917">
        <ele>2309.2</ele>
        <time>2019-03-31T09:43:42Z</time>
      </trkpt>
      <trkpt lat="45.28766" lon="6.14917">
        <ele>2307.8</ele>
        <time>2019-03-31T09:43:47Z</time>
      </trkpt>
      <trkpt lat="45.28768" lon="6.14917">
        <ele>2308</ele>
        <time>2019-03-31T09:43:52Z</time>
      </trkpt>
      <trkpt lat="45.2877" lon="6.14917">
        <ele>2309.4</ele>
        <time>2019-03-31T09:43:57Z</time>
      </trkpt>
      <trkpt lat="45.28771" lon="6.14917">
        <ele>2307.2</ele>
        <time>2019-03-31T09:44:02Z</time>
      </trkpt>
      <trkpt lat="45.28774" lon="6.14918">
        <ele>2311.8</ele>
        <time>2019-03-31T09:44:12Z</time>
      </trkpt>
      <trkpt lat="45.28773" lon="6.14916">
        <ele>2310.6</ele>
        <time>2019-03-31T09:44:17Z</time>
      </trkpt>
      <trkpt lat="45.28772" lon="6.14915">
        <ele>2308</ele>
        <time>2019-03-31T09:44:22Z</time>
      </trkpt>
      <trkpt lat="45.28771" lon="6.14913">
        <ele>2310.6</ele>
        <time>2019-03-31T09:44:27Z</time>
      </trkpt>
      <trkpt lat="45.2877" lon="6.14911">
        <ele>2312.4</ele>
        <time>2019-03-31T09:44:32Z</time>
      </trkpt>
      <trkpt lat="45.28769" lon="6.14908">
        <ele>2312.4</ele>
        <time>2019-03-31T09:44:37Z</time>
      </trkpt>
      <trkpt lat="45.28767" lon="6.14905">
        <ele>2313.2</ele>
        <time>2019-03-31T09:44:42Z</time>
      </trkpt>
      <trkpt lat="45.28766" lon="6.14902">
        <ele>2313.6</ele>
        <time>2019-03-31T09:44:47Z</time>
      </trkpt>
      <trkpt lat="45.28765" lon="6.149">
        <ele>2316</ele>
        <time>2019-03-31T09:44:52Z</time>
      </trkpt>
      <trkpt lat="45.28763" lon="6.14897">
        <ele>2315.6</ele>
        <time>2019-03-31T09:44:57Z</time>
      </trkpt>
      <trkpt lat="45.28762" lon="6.14894">
        <ele>2316.2</ele>
        <time>2019-03-31T09:45:02Z</time>
      </trkpt>
      <trkpt lat="45.2876" lon="6.14892">
        <ele>2316</ele>
        <time>2019-03-31T09:45:07Z</time>
      </trkpt>
      <trkpt lat="45.28758" lon="6.1489">
        <ele>2316.6</ele>
        <time>2019-03-31T09:45:12Z</time>
      </trkpt>
      <trkpt lat="45.28756" lon="6.14889">
        <ele>2320.4</ele>
        <time>2019-03-31T09:45:17Z</time>
      </trkpt>
      <trkpt lat="45.28756" lon="6.14887">
        <ele>2319.6</ele>
        <time>2019-03-31T09:45:22Z</time>
      </trkpt>
      <trkpt lat="45.28756" lon="6.14887">
        <ele>2317.8</ele>
        <time>2019-03-31T09:45:42Z</time>
      </trkpt>
      <trkpt lat="45.28759" lon="6.14886">
        <ele>2321.8</ele>
        <time>2019-03-31T09:45:47Z</time>
      </trkpt>
      <trkpt lat="45.28761" lon="6.14884">
        <ele>2319.4</ele>
        <time>2019-03-31T09:45:52Z</time>
      </trkpt>
      <trkpt lat="45.28763" lon="6.14884">
        <ele>2318.6</ele>
        <time>2019-03-31T09:45:57Z</time>
      </trkpt>
      <trkpt lat="45.28766" lon="6.14884">
        <ele>2320</ele>
        <time>2019-03-31T09:46:02Z</time>
      </trkpt>
      <trkpt lat="45.28768" lon="6.14884">
        <ele>2318.8</ele>
        <time>2019-03-31T09:46:07Z</time>
      </trkpt>
      <trkpt lat="45.28771" lon="6.14884">
        <ele>2318.4</ele>
        <time>2019-03-31T09:46:12Z</time>
      </trkpt>
      <trkpt lat="45.28773" lon="6.14884">
        <ele>2322.4</ele>
        <time>2019-03-31T09:46:17Z</time>
      </trkpt>
      <trkpt lat="45.28776" lon="6.14884">
        <ele>2320.6</ele>
        <time>2019-03-31T09:46:23Z</time>
      </trkpt>
      <trkpt lat="45.28778" lon="6.14884">
        <ele>2323.6</ele>
        <time>2019-03-31T09:46:28Z</time>
      </trkpt>
      <trkpt lat="45.2878" lon="6.14884">
        <ele>2323.4</ele>
        <time>2019-03-31T09:46:33Z</time>
      </trkpt>
      <trkpt lat="45.28783" lon="6.14883">
        <ele>2321.8</ele>
        <time>2019-03-31T09:46:38Z</time>
      </trkpt>
      <trkpt lat="45.28785" lon="6.14882">
        <ele>2325.6</ele>
        <time>2019-03-31T09:46:43Z</time>
      </trkpt>
      <trkpt lat="45.28785" lon="6.1488">
        <ele>2325.6</ele>
        <time>2019-03-31T09:46:48Z</time>
      </trkpt>
      <trkpt lat="45.28785" lon="6.14877">
        <ele>2329.2</ele>
        <time>2019-03-31T09:46:53Z</time>
      </trkpt>
      <trkpt lat="45.28785" lon="6.14874">
        <ele>2331</ele>
        <time>2019-03-31T09:46:58Z</time>
      </trkpt>
      <trkpt lat="45.28785" lon="6.14872">
        <ele>2331.4</ele>
        <time>2019-03-31T09:47:03Z</time>
      </trkpt>
      <trkpt lat="45.28785" lon="6.14869">
        <ele>2332</ele>
        <time>2019-03-31T09:47:08Z</time>
      </trkpt>
      <trkpt lat="45.28785" lon="6.14866">
        <ele>2334.2</ele>
        <time>2019-03-31T09:47:13Z</time>
      </trkpt>
      <trkpt lat="45.28784" lon="6.14863">
        <ele>2329.2</ele>
        <time>2019-03-31T09:47:18Z</time>
      </trkpt>
      <trkpt lat="45.28784" lon="6.1486">
        <ele>2332.8</ele>
        <time>2019-03-31T09:47:23Z</time>
      </trkpt>
      <trkpt lat="45.28784" lon="6.14857">
        <ele>2333.2</ele>
        <time>2019-03-31T09:47:28Z</time>
      </trkpt>
      <trkpt lat="45.28784" lon="6.14854">
        <ele>2331.8</ele>
        <time>2019-03-31T09:47:33Z</time>
      </trkpt>
      <trkpt lat="45.28784" lon="6.14852">
        <ele>2334</ele>
        <time>2019-03-31T09:47:38Z</time>
      </trkpt>
      <trkpt lat="45.28784" lon="6.14849">
        <ele>2334.8</ele>
        <time>2019-03-31T09:47:43Z</time>
      </trkpt>
      <trkpt lat="45.28784" lon="6.14846">
        <ele>2335.6</ele>
        <time>2019-03-31T09:47:48Z</time>
      </trkpt>
      <trkpt lat="45.28785" lon="6.14843">
        <ele>2335.6</ele>
        <time>2019-03-31T09:47:53Z</time>
      </trkpt>
      <trkpt lat="45.28785" lon="6.1484">
        <ele>2336.6</ele>
        <time>2019-03-31T09:47:58Z</time>
      </trkpt>
      <trkpt lat="45.28785" lon="6.14837">
        <ele>2339.4</ele>
        <time>2019-03-31T09:48:03Z</time>
      </trkpt>
      <trkpt lat="45.28785" lon="6.14834">
        <ele>2342.2</ele>
        <time>2019-03-31T09:48:08Z</time>
      </trkpt>
      <trkpt lat="45.28785" lon="6.14831">
        <ele>2340.6</ele>
        <time>2019-03-31T09:48:13Z</time>
      </trkpt>
      <trkpt lat="45.28784" lon="6.14828">
        <ele>2342.8</ele>
        <time>2019-03-31T09:48:18Z</time>
      </trkpt>
      <trkpt lat="45.28784" lon="6.14826">
        <ele>2341</ele>
        <time>2019-03-31T09:48:23Z</time>
      </trkpt>
      <trkpt lat="45.28783" lon="6.14824">
        <ele>2343</ele>
        <time>2019-03-31T09:48:28Z</time>
      </trkpt>
      <trkpt lat="45.28783" lon="6.14821">
        <ele>2344.6</ele>
        <time>2019-03-31T09:48:33Z</time>
      </trkpt>
      <trkpt lat="45.28782" lon="6.14818">
        <ele>2344.4</ele>
        <time>2019-03-31T09:48:38Z</time>
      </trkpt>
      <trkpt lat="45.28781" lon="6.14816">
        <ele>2342.8</ele>
        <time>2019-03-31T09:48:43Z</time>
      </trkpt>
      <trkpt lat="45.28781" lon="6.14815">
        <ele>2343.4</ele>
        <time>2019-03-31T09:48:48Z</time>
      </trkpt>
      <trkpt lat="45.2878" lon="6.14812">
        <ele>2344</ele>
        <time>2019-03-31T09:48:53Z</time>
      </trkpt>
      <trkpt lat="45.28782" lon="6.14811">
        <ele>2345.2</ele>
        <time>2019-03-31T09:48:58Z</time>
      </trkpt>
      <trkpt lat="45.28784" lon="6.14812">
        <ele>2343.8</ele>
        <time>2019-03-31T09:49:03Z</time>
      </trkpt>
      <trkpt lat="45.28786" lon="6.14812">
        <ele>2344.2</ele>
        <time>2019-03-31T09:49:08Z</time>
      </trkpt>
      <trkpt lat="45.28787" lon="6.14812">
        <ele>2343.6</ele>
        <time>2019-03-31T09:49:13Z</time>
      </trkpt>
      <trkpt lat="45.28789" lon="6.14813">
        <ele>2344.4</ele>
        <time>2019-03-31T09:49:18Z</time>
      </trkpt>
      <trkpt lat="45.28791" lon="6.14813">
        <ele>2343.8</ele>
        <time>2019-03-31T09:49:23Z</time>
      </trkpt>
      <trkpt lat="45.28793" lon="6.14814">
        <ele>2345.6</ele>
        <time>2019-03-31T09:49:28Z</time>
      </trkpt>
      <trkpt lat="45.28795" lon="6.14814">
        <ele>2343.8</ele>
        <time>2019-03-31T09:49:33Z</time>
      </trkpt>
      <trkpt lat="45.28797" lon="6.14815">
        <ele>2345.8</ele>
        <time>2019-03-31T09:49:38Z</time>
      </trkpt>
      <trkpt lat="45.28798" lon="6.14815">
        <ele>2346.2</ele>
        <time>2019-03-31T09:49:43Z</time>
      </trkpt>
      <trkpt lat="45.288" lon="6.14816">
        <ele>2345.8</ele>
        <time>2019-03-31T09:49:48Z</time>
      </trkpt>
      <trkpt lat="45.28801" lon="6.14817">
        <ele>2347.2</ele>
        <time>2019-03-31T09:49:53Z</time>
      </trkpt>
      <trkpt lat="45.28803" lon="6.14818">
        <ele>2346</ele>
        <time>2019-03-31T09:49:58Z</time>
      </trkpt>
      <trkpt lat="45.28805" lon="6.14819">
        <ele>2350.4</ele>
        <time>2019-03-31T09:50:03Z</time>
      </trkpt>
      <trkpt lat="45.28807" lon="6.1482">
        <ele>2351.4</ele>
        <time>2019-03-31T09:50:08Z</time>
      </trkpt>
      <trkpt lat="45.28808" lon="6.14821">
        <ele>2345.6</ele>
        <time>2019-03-31T09:50:13Z</time>
      </trkpt>
      <trkpt lat="45.2881" lon="6.14823">
        <ele>2348.8</ele>
        <time>2019-03-31T09:50:18Z</time>
      </trkpt>
      <trkpt lat="45.28812" lon="6.14823">
        <ele>2351.2</ele>
        <time>2019-03-31T09:50:23Z</time>
      </trkpt>
      <trkpt lat="45.28813" lon="6.14824">
        <ele>2354.2</ele>
        <time>2019-03-31T09:50:28Z</time>
      </trkpt>
      <trkpt lat="45.28815" lon="6.14824">
        <ele>2352</ele>
        <time>2019-03-31T09:50:33Z</time>
      </trkpt>
      <trkpt lat="45.28817" lon="6.14825">
        <ele>2351.6</ele>
        <time>2019-03-31T09:50:38Z</time>
      </trkpt>
      <trkpt lat="45.28818" lon="6.14825">
        <ele>2355</ele>
        <time>2019-03-31T09:50:43Z</time>
      </trkpt>
      <trkpt lat="45.2882" lon="6.14826">
        <ele>2353.6</ele>
        <time>2019-03-31T09:50:48Z</time>
      </trkpt>
      <trkpt lat="45.28822" lon="6.14828">
        <ele>2356.4</ele>
        <time>2019-03-31T09:50:53Z</time>
      </trkpt>
      <trkpt lat="45.28823" lon="6.14829">
        <ele>2350.4</ele>
        <time>2019-03-31T09:50:58Z</time>
      </trkpt>
      <trkpt lat="45.28823" lon="6.14827">
        <ele>2353.2</ele>
        <time>2019-03-31T09:51:03Z</time>
      </trkpt>
      <trkpt lat="45.28823" lon="6.14825">
        <ele>2351.2</ele>
        <time>2019-03-31T09:51:08Z</time>
      </trkpt>
      <trkpt lat="45.28823" lon="6.14822">
        <ele>2350.8</ele>
        <time>2019-03-31T09:51:13Z</time>
      </trkpt>
      <trkpt lat="45.28823" lon="6.14819">
        <ele>2351.6</ele>
        <time>2019-03-31T09:51:18Z</time>
      </trkpt>
      <trkpt lat="45.28823" lon="6.14817">
        <ele>2354</ele>
        <time>2019-03-31T09:51:23Z</time>
      </trkpt>
      <trkpt lat="45.28822" lon="6.14815">
        <ele>2356</ele>
        <time>2019-03-31T09:51:28Z</time>
      </trkpt>
      <trkpt lat="45.28821" lon="6.14813">
        <ele>2356.6</ele>
        <time>2019-03-31T09:51:33Z</time>
      </trkpt>
      <trkpt lat="45.28821" lon="6.1481">
        <ele>2356.8</ele>
        <time>2019-03-31T09:51:38Z</time>
      </trkpt>
      <trkpt lat="45.28821" lon="6.14809">
        <ele>2357.6</ele>
        <time>2019-03-31T09:51:43Z</time>
      </trkpt>
      <trkpt lat="45.2882" lon="6.14807">
        <ele>2359</ele>
        <time>2019-03-31T09:51:48Z</time>
      </trkpt>
      <trkpt lat="45.2882" lon="6.14806">
        <ele>2361</ele>
        <time>2019-03-31T09:51:53Z</time>
      </trkpt>
      <trkpt lat="45.2882" lon="6.14803">
        <ele>2362</ele>
        <time>2019-03-31T09:51:58Z</time>
      </trkpt>
      <trkpt lat="45.28819" lon="6.14802">
        <ele>2362.2</ele>
        <time>2019-03-31T09:52:03Z</time>
      </trkpt>
      <trkpt lat="45.28819" lon="6.14802">
        <ele>2365</ele>
        <time>2019-03-31T09:52:08Z</time>
      </trkpt>
      <trkpt lat="45.28821" lon="6.14803">
        <ele>2363.6</ele>
        <time>2019-03-31T09:52:13Z</time>
      </trkpt>
      <trkpt lat="45.28823" lon="6.14804">
        <ele>2363.8</ele>
        <time>2019-03-31T09:52:18Z</time>
      </trkpt>
      <trkpt lat="45.28825" lon="6.14805">
        <ele>2364.8</ele>
        <time>2019-03-31T09:52:23Z</time>
      </trkpt>
      <trkpt lat="45.28827" lon="6.14807">
        <ele>2366.4</ele>
        <time>2019-03-31T09:52:28Z</time>
      </trkpt>
      <trkpt lat="45.28829" lon="6.14808">
        <ele>2367</ele>
        <time>2019-03-31T09:52:33Z</time>
      </trkpt>
      <trkpt lat="45.28831" lon="6.14809">
        <ele>2368.6</ele>
        <time>2019-03-31T09:52:38Z</time>
      </trkpt>
      <trkpt lat="45.28833" lon="6.1481">
        <ele>2371.2</ele>
        <time>2019-03-31T09:52:43Z</time>
      </trkpt>
      <trkpt lat="45.28834" lon="6.14812">
        <ele>2370.6</ele>
        <time>2019-03-31T09:52:48Z</time>
      </trkpt>
      <trkpt lat="45.28836" lon="6.14813">
        <ele>2371.4</ele>
        <time>2019-03-31T09:52:53Z</time>
      </trkpt>
      <trkpt lat="45.28838" lon="6.14814">
        <ele>2370.2</ele>
        <time>2019-03-31T09:52:58Z</time>
      </trkpt>
      <trkpt lat="45.2884" lon="6.14814">
        <ele>2367.8</ele>
        <time>2019-03-31T09:53:03Z</time>
      </trkpt>
      <trkpt lat="45.28842" lon="6.14815">
        <ele>2369.8</ele>
        <time>2019-03-31T09:53:08Z</time>
      </trkpt>
      <trkpt lat="45.28844" lon="6.14816">
        <ele>2369</ele>
        <time>2019-03-31T09:53:13Z</time>
      </trkpt>
      <trkpt lat="45.28846" lon="6.14817">
        <ele>2367.6</ele>
        <time>2019-03-31T09:53:18Z</time>
      </trkpt>
      <trkpt lat="45.28847" lon="6.14818">
        <ele>2364</ele>
        <time>2019-03-31T09:53:23Z</time>
      </trkpt>
      <trkpt lat="45.28848" lon="6.14819">
        <ele>2369</ele>
        <time>2019-03-31T09:53:28Z</time>
      </trkpt>
      <trkpt lat="45.2885" lon="6.14819">
        <ele>2369.6</ele>
        <time>2019-03-31T09:53:33Z</time>
      </trkpt>
      <trkpt lat="45.28852" lon="6.14819">
        <ele>2372.2</ele>
        <time>2019-03-31T09:53:38Z</time>
      </trkpt>
      <trkpt lat="45.28853" lon="6.1482">
        <ele>2373</ele>
        <time>2019-03-31T09:53:43Z</time>
      </trkpt>
      <trkpt lat="45.28855" lon="6.14821">
        <ele>2373.6</ele>
        <time>2019-03-31T09:53:48Z</time>
      </trkpt>
      <trkpt lat="45.28857" lon="6.14822">
        <ele>2372.2</ele>
        <time>2019-03-31T09:53:53Z</time>
      </trkpt>
      <trkpt lat="45.28859" lon="6.14823">
        <ele>2371.4</ele>
        <time>2019-03-31T09:53:58Z</time>
      </trkpt>
      <trkpt lat="45.2886" lon="6.14824">
        <ele>2371.4</ele>
        <time>2019-03-31T09:54:03Z</time>
      </trkpt>
      <trkpt lat="45.28861" lon="6.14826">
        <ele>2371.8</ele>
        <time>2019-03-31T09:54:08Z</time>
      </trkpt>
      <trkpt lat="45.28863" lon="6.14828">
        <ele>2374</ele>
        <time>2019-03-31T09:54:13Z</time>
      </trkpt>
      <trkpt lat="45.28864" lon="6.1483">
        <ele>2375.6</ele>
        <time>2019-03-31T09:54:18Z</time>
      </trkpt>
      <trkpt lat="45.28866" lon="6.14831">
        <ele>2378.4</ele>
        <time>2019-03-31T09:54:23Z</time>
      </trkpt>
      <trkpt lat="45.28867" lon="6.14831">
        <ele>2377.8</ele>
        <time>2019-03-31T09:54:28Z</time>
      </trkpt>
      <trkpt lat="45.28867" lon="6.14829">
        <ele>2378</ele>
        <time>2019-03-31T09:54:33Z</time>
      </trkpt>
      <trkpt lat="45.28867" lon="6.14826">
        <ele>2379.6</ele>
        <time>2019-03-31T09:54:38Z</time>
      </trkpt>
      <trkpt lat="45.28868" lon="6.14824">
        <ele>2379.8</ele>
        <time>2019-03-31T09:54:43Z</time>
      </trkpt>
      <trkpt lat="45.28869" lon="6.14822">
        <ele>2379.8</ele>
        <time>2019-03-31T09:54:48Z</time>
      </trkpt>
      <trkpt lat="45.28869" lon="6.1482">
        <ele>2378.4</ele>
        <time>2019-03-31T09:54:53Z</time>
      </trkpt>
      <trkpt lat="45.2887" lon="6.14817">
        <ele>2381.4</ele>
        <time>2019-03-31T09:54:58Z</time>
      </trkpt>
      <trkpt lat="45.28871" lon="6.14815">
        <ele>2382.4</ele>
        <time>2019-03-31T09:55:03Z</time>
      </trkpt>
      <trkpt lat="45.28872" lon="6.14812">
        <ele>2383.4</ele>
        <time>2019-03-31T09:55:08Z</time>
      </trkpt>
      <trkpt lat="45.28872" lon="6.14809">
        <ele>2383.6</ele>
        <time>2019-03-31T09:55:13Z</time>
      </trkpt>
      <trkpt lat="45.28873" lon="6.14807">
        <ele>2386.6</ele>
        <time>2019-03-31T09:55:18Z</time>
      </trkpt>
      <trkpt lat="45.28873" lon="6.14805">
        <ele>2385</ele>
        <time>2019-03-31T09:55:23Z</time>
      </trkpt>
      <trkpt lat="45.28874" lon="6.14802">
        <ele>2385.6</ele>
        <time>2019-03-31T09:55:28Z</time>
      </trkpt>
      <trkpt lat="45.28873" lon="6.148">
        <ele>2387.4</ele>
        <time>2019-03-31T09:55:33Z</time>
      </trkpt>
      <trkpt lat="45.28873" lon="6.14797">
        <ele>2387.8</ele>
        <time>2019-03-31T09:55:38Z</time>
      </trkpt>
      <trkpt lat="45.28873" lon="6.14795">
        <ele>2390</ele>
        <time>2019-03-31T09:55:43Z</time>
      </trkpt>
      <trkpt lat="45.28873" lon="6.14792">
        <ele>2388.8</ele>
        <time>2019-03-31T09:55:48Z</time>
      </trkpt>
      <trkpt lat="45.28873" lon="6.1479">
        <ele>2386.6</ele>
        <time>2019-03-31T09:55:53Z</time>
      </trkpt>
      <trkpt lat="45.28872" lon="6.14788">
        <ele>2389.2</ele>
        <time>2019-03-31T09:55:58Z</time>
      </trkpt>
      <trkpt lat="45.28872" lon="6.14785">
        <ele>2388.6</ele>
        <time>2019-03-31T09:56:03Z</time>
      </trkpt>
      <trkpt lat="45.28872" lon="6.14782">
        <ele>2389</ele>
        <time>2019-03-31T09:56:08Z</time>
      </trkpt>
      <trkpt lat="45.28872" lon="6.14779">
        <ele>2390.2</ele>
        <time>2019-03-31T09:56:13Z</time>
      </trkpt>
      <trkpt lat="45.28872" lon="6.14777">
        <ele>2388</ele>
        <time>2019-03-31T09:56:18Z</time>
      </trkpt>
      <trkpt lat="45.28872" lon="6.14774">
        <ele>2387.4</ele>
        <time>2019-03-31T09:56:23Z</time>
      </trkpt>
      <trkpt lat="45.28872" lon="6.14772">
        <ele>2388.2</ele>
        <time>2019-03-31T09:56:28Z</time>
      </trkpt>
      <trkpt lat="45.28871" lon="6.1477">
        <ele>2387.8</ele>
        <time>2019-03-31T09:56:33Z</time>
      </trkpt>
      <trkpt lat="45.28871" lon="6.14767">
        <ele>2388.8</ele>
        <time>2019-03-31T09:56:38Z</time>
      </trkpt>
      <trkpt lat="45.2887" lon="6.14765">
        <ele>2388.8</ele>
        <time>2019-03-31T09:56:43Z</time>
      </trkpt>
      <trkpt lat="45.28873" lon="6.14763">
        <ele>2390.6</ele>
        <time>2019-03-31T09:56:48Z</time>
      </trkpt>
      <trkpt lat="45.28876" lon="6.14763">
        <ele>2391.8</ele>
        <time>2019-03-31T09:56:53Z</time>
      </trkpt>
      <trkpt lat="45.28879" lon="6.14762">
        <ele>2392.8</ele>
        <time>2019-03-31T09:56:58Z</time>
      </trkpt>
      <trkpt lat="45.28882" lon="6.14762">
        <ele>2394.2</ele>
        <time>2019-03-31T09:57:03Z</time>
      </trkpt>
      <trkpt lat="45.28884" lon="6.14761">
        <ele>2392</ele>
        <time>2019-03-31T09:57:08Z</time>
      </trkpt>
      <trkpt lat="45.28887" lon="6.14761">
        <ele>2391.8</ele>
        <time>2019-03-31T09:57:13Z</time>
      </trkpt>
      <trkpt lat="45.28888" lon="6.14761">
        <ele>2393</ele>
        <time>2019-03-31T09:57:48Z</time>
      </trkpt>
      <trkpt lat="45.28888" lon="6.1476">
        <ele>2393</ele>
        <time>2019-03-31T09:57:53Z</time>
      </trkpt>
      <trkpt lat="45.28889" lon="6.1476">
        <ele>2392.2</ele>
        <time>2019-03-31T09:58:03Z</time>
      </trkpt>
      <trkpt lat="45.2889" lon="6.1476">
        <ele>2389.6</ele>
        <time>2019-03-31T10:07:08Z</time>
      </trkpt>
      <trkpt lat="45.28892" lon="6.14762">
        <ele>2388.8</ele>
        <time>2019-03-31T10:08:13Z</time>
      </trkpt>
      <trkpt lat="45.28894" lon="6.14762">
        <ele>2388.6</ele>
        <time>2019-03-31T10:08:18Z</time>
      </trkpt>
      <trkpt lat="45.28896" lon="6.14763">
        <ele>2388.2</ele>
        <time>2019-03-31T10:08:23Z</time>
      </trkpt>
      <trkpt lat="45.28898" lon="6.14764">
        <ele>2387.8</ele>
        <time>2019-03-31T10:08:28Z</time>
      </trkpt>
      <trkpt lat="45.289" lon="6.14764">
        <ele>2389.4</ele>
        <time>2019-03-31T10:08:33Z</time>
      </trkpt>
      <trkpt lat="45.28901" lon="6.14761">
        <ele>2392</ele>
        <time>2019-03-31T10:08:38Z</time>
      </trkpt>
      <trkpt lat="45.28901" lon="6.14757">
        <ele>2393</ele>
        <time>2019-03-31T10:08:43Z</time>
      </trkpt>
      <trkpt lat="45.28901" lon="6.14754">
        <ele>2396.4</ele>
        <time>2019-03-31T10:08:48Z</time>
      </trkpt>
      <trkpt lat="45.289" lon="6.14751">
        <ele>2396.2</ele>
        <time>2019-03-31T10:08:53Z</time>
      </trkpt>
      <trkpt lat="45.28899" lon="6.14748">
        <ele>2397.2</ele>
        <time>2019-03-31T10:08:58Z</time>
      </trkpt>
      <trkpt lat="45.28898" lon="6.14746">
        <ele>2398.6</ele>
        <time>2019-03-31T10:09:03Z</time>
      </trkpt>
      <trkpt lat="45.28897" lon="6.14744">
        <ele>2402.2</ele>
        <time>2019-03-31T10:09:08Z</time>
      </trkpt>
      <trkpt lat="45.28895" lon="6.14741">
        <ele>2400.6</ele>
        <time>2019-03-31T10:09:13Z</time>
      </trkpt>
      <trkpt lat="45.28894" lon="6.14739">
        <ele>2398.6</ele>
        <time>2019-03-31T10:09:18Z</time>
      </trkpt>
      <trkpt lat="45.28893" lon="6.14737">
        <ele>2397.6</ele>
        <time>2019-03-31T10:09:23Z</time>
      </trkpt>
      <trkpt lat="45.28892" lon="6.14735">
        <ele>2398.4</ele>
        <time>2019-03-31T10:09:28Z</time>
      </trkpt>
      <trkpt lat="45.28891" lon="6.14732">
        <ele>2399.8</ele>
        <time>2019-03-31T10:09:33Z</time>
      </trkpt>
      <trkpt lat="45.28891" lon="6.1473">
        <ele>2400.2</ele>
        <time>2019-03-31T10:09:38Z</time>
      </trkpt>
      <trkpt lat="45.2889" lon="6.14728">
        <ele>2402</ele>
        <time>2019-03-31T10:09:43Z</time>
      </trkpt>
      <trkpt lat="45.2889" lon="6.14726">
        <ele>2403.4</ele>
        <time>2019-03-31T10:09:48Z</time>
      </trkpt>
      <trkpt lat="45.2889" lon="6.14724">
        <ele>2403</ele>
        <time>2019-03-31T10:09:53Z</time>
      </trkpt>
      <trkpt lat="45.28889" lon="6.14722">
        <ele>2405.8</ele>
        <time>2019-03-31T10:09:58Z</time>
      </trkpt>
      <trkpt lat="45.28889" lon="6.1472">
        <ele>2406.4</ele>
        <time>2019-03-31T10:10:03Z</time>
      </trkpt>
      <trkpt lat="45.28888" lon="6.14719">
        <ele>2405.8</ele>
        <time>2019-03-31T10:10:08Z</time>
      </trkpt>
      <trkpt lat="45.28888" lon="6.14717">
        <ele>2407.2</ele>
        <time>2019-03-31T10:10:13Z</time>
      </trkpt>
      <trkpt lat="45.28887" lon="6.14715">
        <ele>2409.2</ele>
        <time>2019-03-31T10:10:18Z</time>
      </trkpt>
      <trkpt lat="45.28886" lon="6.14712">
        <ele>2409.6</ele>
        <time>2019-03-31T10:10:23Z</time>
      </trkpt>
      <trkpt lat="45.28885" lon="6.14711">
        <ele>2409.8</ele>
        <time>2019-03-31T10:10:28Z</time>
      </trkpt>
      <trkpt lat="45.28884" lon="6.14709">
        <ele>2413.4</ele>
        <time>2019-03-31T10:10:33Z</time>
      </trkpt>
      <trkpt lat="45.28883" lon="6.14707">
        <ele>2412</ele>
        <time>2019-03-31T10:10:38Z</time>
      </trkpt>
      <trkpt lat="45.28882" lon="6.14706">
        <ele>2412</ele>
        <time>2019-03-31T10:10:43Z</time>
      </trkpt>
      <trkpt lat="45.28881" lon="6.14704">
        <ele>2408.4</ele>
        <time>2019-03-31T10:10:48Z</time>
      </trkpt>
      <trkpt lat="45.28879" lon="6.14703">
        <ele>2409.6</ele>
        <time>2019-03-31T10:10:53Z</time>
      </trkpt>
      <trkpt lat="45.2888" lon="6.14701">
        <ele>2411.4</ele>
        <time>2019-03-31T10:11:03Z</time>
      </trkpt>
      <trkpt lat="45.28882" lon="6.147">
        <ele>2412.2</ele>
        <time>2019-03-31T10:11:08Z</time>
      </trkpt>
      <trkpt lat="45.28883" lon="6.14699">
        <ele>2410.8</ele>
        <time>2019-03-31T10:11:13Z</time>
      </trkpt>
      <trkpt lat="45.28885" lon="6.14699">
        <ele>2411.6</ele>
        <time>2019-03-31T10:11:18Z</time>
      </trkpt>
      <trkpt lat="45.28886" lon="6.14699">
        <ele>2412.2</ele>
        <time>2019-03-31T10:11:23Z</time>
      </trkpt>
      <trkpt lat="45.28888" lon="6.14701">
        <ele>2411.8</ele>
        <time>2019-03-31T10:11:28Z</time>
      </trkpt>
      <trkpt lat="45.2889" lon="6.14701">
        <ele>2413.6</ele>
        <time>2019-03-31T10:11:33Z</time>
      </trkpt>
      <trkpt lat="45.28892" lon="6.14702">
        <ele>2417.2</ele>
        <time>2019-03-31T10:11:38Z</time>
      </trkpt>
      <trkpt lat="45.28893" lon="6.14702">
        <ele>2418.6</ele>
        <time>2019-03-31T10:11:43Z</time>
      </trkpt>
      <trkpt lat="45.28894" lon="6.14702">
        <ele>2419.8</ele>
        <time>2019-03-31T10:11:48Z</time>
      </trkpt>
      <trkpt lat="45.28896" lon="6.14702">
        <ele>2420.4</ele>
        <time>2019-03-31T10:11:53Z</time>
      </trkpt>
      <trkpt lat="45.28898" lon="6.14701">
        <ele>2420.6</ele>
        <time>2019-03-31T10:11:58Z</time>
      </trkpt>
      <trkpt lat="45.28899" lon="6.14701">
        <ele>2421.2</ele>
        <time>2019-03-31T10:12:03Z</time>
      </trkpt>
      <trkpt lat="45.28901" lon="6.14701">
        <ele>2422</ele>
        <time>2019-03-31T10:12:08Z</time>
      </trkpt>
      <trkpt lat="45.28903" lon="6.14701">
        <ele>2422.6</ele>
        <time>2019-03-31T10:12:13Z</time>
      </trkpt>
      <trkpt lat="45.28905" lon="6.147">
        <ele>2423.4</ele>
        <time>2019-03-31T10:12:18Z</time>
      </trkpt>
      <trkpt lat="45.28906" lon="6.147">
        <ele>2423.6</ele>
        <time>2019-03-31T10:12:23Z</time>
      </trkpt>
      <trkpt lat="45.28907" lon="6.147">
        <ele>2424.2</ele>
        <time>2019-03-31T10:12:28Z</time>
      </trkpt>
      <trkpt lat="45.28908" lon="6.147">
        <ele>2424.8</ele>
        <time>2019-03-31T10:12:33Z</time>
      </trkpt>
      <trkpt lat="45.28909" lon="6.147">
        <ele>2424.6</ele>
        <time>2019-03-31T10:12:38Z</time>
      </trkpt>
      <trkpt lat="45.28911" lon="6.147">
        <ele>2424.2</ele>
        <time>2019-03-31T10:12:43Z</time>
      </trkpt>
      <trkpt lat="45.28913" lon="6.147">
        <ele>2425.6</ele>
        <time>2019-03-31T10:12:48Z</time>
      </trkpt>
      <trkpt lat="45.28913" lon="6.14699">
        <ele>2426</ele>
        <time>2019-03-31T10:12:53Z</time>
      </trkpt>
      <trkpt lat="45.28912" lon="6.14698">
        <ele>2426.4</ele>
        <time>2019-03-31T10:12:58Z</time>
      </trkpt>
      <trkpt lat="45.28911" lon="6.14696">
        <ele>2427</ele>
        <time>2019-03-31T10:13:03Z</time>
      </trkpt>
      <trkpt lat="45.2891" lon="6.14694">
        <ele>2428.2</ele>
        <time>2019-03-31T10:13:08Z</time>
      </trkpt>
      <trkpt lat="45.28909" lon="6.14692">
        <ele>2429.6</ele>
        <time>2019-03-31T10:13:13Z</time>
      </trkpt>
      <trkpt lat="45.28908" lon="6.14691">
        <ele>2430.2</ele>
        <time>2019-03-31T10:13:18Z</time>
      </trkpt>
      <trkpt lat="45.28908" lon="6.14689">
        <ele>2430.4</ele>
        <time>2019-03-31T10:13:23Z</time>
      </trkpt>
      <trkpt lat="45.28907" lon="6.14687">
        <ele>2433.6</ele>
        <time>2019-03-31T10:13:28Z</time>
      </trkpt>
      <trkpt lat="45.28906" lon="6.14685">
        <ele>2434</ele>
        <time>2019-03-31T10:13:33Z</time>
      </trkpt>
      <trkpt lat="45.28906" lon="6.14683">
        <ele>2434.8</ele>
        <time>2019-03-31T10:13:38Z</time>
      </trkpt>
      <trkpt lat="45.28905" lon="6.14681">
        <ele>2435.6</ele>
        <time>2019-03-31T10:13:43Z</time>
      </trkpt>
      <trkpt lat="45.28905" lon="6.1468">
        <ele>2437.2</ele>
        <time>2019-03-31T10:13:48Z</time>
      </trkpt>
      <trkpt lat="45.28904" lon="6.14678">
        <ele>2439.2</ele>
        <time>2019-03-31T10:13:53Z</time>
      </trkpt>
      <trkpt lat="45.28904" lon="6.14676">
        <ele>2438.6</ele>
        <time>2019-03-31T10:13:58Z</time>
      </trkpt>
      <trkpt lat="45.28903" lon="6.14674">
        <ele>2438.8</ele>
        <time>2019-03-31T10:14:03Z</time>
      </trkpt>
      <trkpt lat="45.28902" lon="6.14672">
        <ele>2439.6</ele>
        <time>2019-03-31T10:14:08Z</time>
      </trkpt>
      <trkpt lat="45.28901" lon="6.1467">
        <ele>2439.6</ele>
        <time>2019-03-31T10:14:13Z</time>
      </trkpt>
      <trkpt lat="45.28901" lon="6.14668">
        <ele>2438.2</ele>
        <time>2019-03-31T10:14:18Z</time>
      </trkpt>
      <trkpt lat="45.28902" lon="6.14668">
        <ele>2440.6</ele>
        <time>2019-03-31T10:14:23Z</time>
      </trkpt>
      <trkpt lat="45.28904" lon="6.14667">
        <ele>2439.2</ele>
        <time>2019-03-31T10:14:28Z</time>
      </trkpt>
      <trkpt lat="45.28905" lon="6.14667">
        <ele>2440</ele>
        <time>2019-03-31T10:14:33Z</time>
      </trkpt>
      <trkpt lat="45.28907" lon="6.14666">
        <ele>2443.4</ele>
        <time>2019-03-31T10:14:38Z</time>
      </trkpt>
      <trkpt lat="45.28908" lon="6.14666">
        <ele>2443.2</ele>
        <time>2019-03-31T10:14:43Z</time>
      </trkpt>
      <trkpt lat="45.2891" lon="6.14665">
        <ele>2443</ele>
        <time>2019-03-31T10:14:48Z</time>
      </trkpt>
      <trkpt lat="45.28911" lon="6.14665">
        <ele>2443</ele>
        <time>2019-03-31T10:14:53Z</time>
      </trkpt>
      <trkpt lat="45.28912" lon="6.14665">
        <ele>2443.2</ele>
        <time>2019-03-31T10:14:58Z</time>
      </trkpt>
      <trkpt lat="45.28914" lon="6.14664">
        <ele>2443.4</ele>
        <time>2019-03-31T10:15:03Z</time>
      </trkpt>
      <trkpt lat="45.28915" lon="6.14664">
        <ele>2443.6</ele>
        <time>2019-03-31T10:15:08Z</time>
      </trkpt>
      <trkpt lat="45.28917" lon="6.14665">
        <ele>2444.4</ele>
        <time>2019-03-31T10:15:13Z</time>
      </trkpt>
      <trkpt lat="45.28919" lon="6.14663">
        <ele>2444.8</ele>
        <time>2019-03-31T10:15:18Z</time>
      </trkpt>
      <trkpt lat="45.28921" lon="6.14662">
        <ele>2445</ele>
        <time>2019-03-31T10:15:23Z</time>
      </trkpt>
      <trkpt lat="45.28922" lon="6.14662">
        <ele>2445.2</ele>
        <time>2019-03-31T10:15:28Z</time>
      </trkpt>
      <trkpt lat="45.28923" lon="6.14663">
        <ele>2445.6</ele>
        <time>2019-03-31T10:15:33Z</time>
      </trkpt>
      <trkpt lat="45.28924" lon="6.14663">
        <ele>2446.4</ele>
        <time>2019-03-31T10:15:38Z</time>
      </trkpt>
      <trkpt lat="45.28926" lon="6.14664">
        <ele>2447.4</ele>
        <time>2019-03-31T10:15:43Z</time>
      </trkpt>
      <trkpt lat="45.28927" lon="6.14664">
        <ele>2448.8</ele>
        <time>2019-03-31T10:15:48Z</time>
      </trkpt>
      <trkpt lat="45.28928" lon="6.14664">
        <ele>2449.6</ele>
        <time>2019-03-31T10:15:53Z</time>
      </trkpt>
      <trkpt lat="45.28928" lon="6.14663">
        <ele>2450.4</ele>
        <time>2019-03-31T10:15:58Z</time>
      </trkpt>
      <trkpt lat="45.2893" lon="6.14662">
        <ele>2450.8</ele>
        <time>2019-03-31T10:16:03Z</time>
      </trkpt>
      <trkpt lat="45.28932" lon="6.14661">
        <ele>2453.2</ele>
        <time>2019-03-31T10:16:08Z</time>
      </trkpt>
      <trkpt lat="45.28933" lon="6.14661">
        <ele>2453</ele>
        <time>2019-03-31T10:16:13Z</time>
      </trkpt>
      <trkpt lat="45.28935" lon="6.1466">
        <ele>2453.8</ele>
        <time>2019-03-31T10:16:18Z</time>
      </trkpt>
      <trkpt lat="45.28936" lon="6.14658">
        <ele>2454</ele>
        <time>2019-03-31T10:16:23Z</time>
      </trkpt>
      <trkpt lat="45.28936" lon="6.14658">
        <ele>2455</ele>
        <time>2019-03-31T10:16:28Z</time>
      </trkpt>
      <trkpt lat="45.28937" lon="6.14657">
        <ele>2455.6</ele>
        <time>2019-03-31T10:16:33Z</time>
      </trkpt>
      <trkpt lat="45.28937" lon="6.14656">
        <ele>2455.2</ele>
        <time>2019-03-31T10:16:38Z</time>
      </trkpt>
      <trkpt lat="45.28937" lon="6.14654">
        <ele>2456</ele>
        <time>2019-03-31T10:16:43Z</time>
      </trkpt>
      <trkpt lat="45.28937" lon="6.14652">
        <ele>2458</ele>
        <time>2019-03-31T10:16:48Z</time>
      </trkpt>
      <trkpt lat="45.28938" lon="6.1465">
        <ele>2459.2</ele>
        <time>2019-03-31T10:16:53Z</time>
      </trkpt>
      <trkpt lat="45.28939" lon="6.14648">
        <ele>2460</ele>
        <time>2019-03-31T10:16:58Z</time>
      </trkpt>
      <trkpt lat="45.28939" lon="6.14646">
        <ele>2460</ele>
        <time>2019-03-31T10:17:03Z</time>
      </trkpt>
      <trkpt lat="45.2894" lon="6.14645">
        <ele>2463.8</ele>
        <time>2019-03-31T10:17:38Z</time>
      </trkpt>
      <trkpt lat="45.2894" lon="6.14643">
        <ele>2462.4</ele>
        <time>2019-03-31T10:17:43Z</time>
      </trkpt>
      <trkpt lat="45.28939" lon="6.1464">
        <ele>2463.2</ele>
        <time>2019-03-31T10:17:48Z</time>
      </trkpt>
      <trkpt lat="45.28939" lon="6.14636">
        <ele>2461.8</ele>
        <time>2019-03-31T10:17:53Z</time>
      </trkpt>
      <trkpt lat="45.28937" lon="6.14633">
        <ele>2462.6</ele>
        <time>2019-03-31T10:17:58Z</time>
      </trkpt>
      <trkpt lat="45.28936" lon="6.1463">
        <ele>2461.2</ele>
        <time>2019-03-31T10:18:03Z</time>
      </trkpt>
      <trkpt lat="45.28935" lon="6.14627">
        <ele>2455.8</ele>
        <time>2019-03-31T10:18:08Z</time>
      </trkpt>
      <trkpt lat="45.28935" lon="6.14624">
        <ele>2456.6</ele>
        <time>2019-03-31T10:18:13Z</time>
      </trkpt>
      <trkpt lat="45.28937" lon="6.14623">
        <ele>2454</ele>
        <time>2019-03-31T10:18:18Z</time>
      </trkpt>
      <trkpt lat="45.28938" lon="6.14622">
        <ele>2452.8</ele>
        <time>2019-03-31T10:18:23Z</time>
      </trkpt>
      <trkpt lat="45.28939" lon="6.14621">
        <ele>2452</ele>
        <time>2019-03-31T10:18:28Z</time>
      </trkpt>
      <trkpt lat="45.28941" lon="6.1462">
        <ele>2451.8</ele>
        <time>2019-03-31T10:18:33Z</time>
      </trkpt>
      <trkpt lat="45.28943" lon="6.14619">
        <ele>2451.4</ele>
        <time>2019-03-31T10:18:38Z</time>
      </trkpt>
      <trkpt lat="45.28945" lon="6.14618">
        <ele>2450.2</ele>
        <time>2019-03-31T10:18:43Z</time>
      </trkpt>
      <trkpt lat="45.28947" lon="6.14618">
        <ele>2449</ele>
        <time>2019-03-31T10:18:48Z</time>
      </trkpt>
      <trkpt lat="45.28948" lon="6.14618">
        <ele>2448</ele>
        <time>2019-03-31T10:18:53Z</time>
      </trkpt>
      <trkpt lat="45.2895" lon="6.14619">
        <ele>2448.4</ele>
        <time>2019-03-31T10:18:58Z</time>
      </trkpt>
      <trkpt lat="45.28951" lon="6.14619">
        <ele>2449.8</ele>
        <time>2019-03-31T10:19:03Z</time>
      </trkpt>
      <trkpt lat="45.28953" lon="6.14619">
        <ele>2450.2</ele>
        <time>2019-03-31T10:19:08Z</time>
      </trkpt>
      <trkpt lat="45.28954" lon="6.1462">
        <ele>2450.4</ele>
        <time>2019-03-31T10:19:13Z</time>
      </trkpt>
      <trkpt lat="45.28956" lon="6.1462">
        <ele>2451</ele>
        <time>2019-03-31T10:19:18Z</time>
      </trkpt>
      <trkpt lat="45.28958" lon="6.14621">
        <ele>2451.2</ele>
        <time>2019-03-31T10:19:23Z</time>
      </trkpt>
      <trkpt lat="45.28959" lon="6.14622">
        <ele>2451.8</ele>
        <time>2019-03-31T10:19:28Z</time>
      </trkpt>
      <trkpt lat="45.28961" lon="6.14623">
        <ele>2452.6</ele>
        <time>2019-03-31T10:19:33Z</time>
      </trkpt>
      <trkpt lat="45.28962" lon="6.14624">
        <ele>2455.4</ele>
        <time>2019-03-31T10:19:38Z</time>
      </trkpt>
      <trkpt lat="45.28964" lon="6.14625">
        <ele>2454.8</ele>
        <time>2019-03-31T10:19:43Z</time>
      </trkpt>
      <trkpt lat="45.28965" lon="6.14627">
        <ele>2454.8</ele>
        <time>2019-03-31T10:19:48Z</time>
      </trkpt>
      <trkpt lat="45.28967" lon="6.14627">
        <ele>2456.4</ele>
        <time>2019-03-31T10:19:53Z</time>
      </trkpt>
      <trkpt lat="45.28968" lon="6.14625">
        <ele>2455.8</ele>
        <time>2019-03-31T10:19:58Z</time>
      </trkpt>
      <trkpt lat="45.28968" lon="6.14621">
        <ele>2455.6</ele>
        <time>2019-03-31T10:20:03Z</time>
      </trkpt>
      <trkpt lat="45.28968" lon="6.14618">
        <ele>2454.4</ele>
        <time>2019-03-31T10:20:08Z</time>
      </trkpt>
      <trkpt lat="45.28968" lon="6.14615">
        <ele>2457.4</ele>
        <time>2019-03-31T10:20:13Z</time>
      </trkpt>
      <trkpt lat="45.28968" lon="6.14612">
        <ele>2459.4</ele>
        <time>2019-03-31T10:20:18Z</time>
      </trkpt>
      <trkpt lat="45.28968" lon="6.1461">
        <ele>2461</ele>
        <time>2019-03-31T10:20:23Z</time>
      </trkpt>
      <trkpt lat="45.28968" lon="6.14608">
        <ele>2461.4</ele>
        <time>2019-03-31T10:20:28Z</time>
      </trkpt>
      <trkpt lat="45.28969" lon="6.14606">
        <ele>2462.6</ele>
        <time>2019-03-31T10:20:33Z</time>
      </trkpt>
      <trkpt lat="45.28969" lon="6.14604">
        <ele>2461.6</ele>
        <time>2019-03-31T10:20:38Z</time>
      </trkpt>
      <trkpt lat="45.2897" lon="6.14603">
        <ele>2464.2</ele>
        <time>2019-03-31T10:20:43Z</time>
      </trkpt>
      <trkpt lat="45.2897" lon="6.14601">
        <ele>2465</ele>
        <time>2019-03-31T10:20:48Z</time>
      </trkpt>
      <trkpt lat="45.28971" lon="6.146">
        <ele>2466.4</ele>
        <time>2019-03-31T10:20:58Z</time>
      </trkpt>
      <trkpt lat="45.28971" lon="6.14599">
        <ele>2467.8</ele>
        <time>2019-03-31T10:21:03Z</time>
      </trkpt>
      <trkpt lat="45.28971" lon="6.14596">
        <ele>2468.6</ele>
        <time>2019-03-31T10:21:08Z</time>
      </trkpt>
      <trkpt lat="45.28971" lon="6.14594">
        <ele>2467.8</ele>
        <time>2019-03-31T10:21:13Z</time>
      </trkpt>
      <trkpt lat="45.28972" lon="6.14592">
        <ele>2468.6</ele>
        <time>2019-03-31T10:21:18Z</time>
      </trkpt>
      <trkpt lat="45.28972" lon="6.1459">
        <ele>2470.4</ele>
        <time>2019-03-31T10:21:23Z</time>
      </trkpt>
      <trkpt lat="45.28972" lon="6.14587">
        <ele>2472.2</ele>
        <time>2019-03-31T10:21:28Z</time>
      </trkpt>
      <trkpt lat="45.28972" lon="6.14585">
        <ele>2475.2</ele>
        <time>2019-03-31T10:21:33Z</time>
      </trkpt>
      <trkpt lat="45.28972" lon="6.14584">
        <ele>2476.2</ele>
        <time>2019-03-31T10:21:38Z</time>
      </trkpt>
      <trkpt lat="45.28972" lon="6.14582">
        <ele>2477.2</ele>
        <time>2019-03-31T10:21:43Z</time>
      </trkpt>
      <trkpt lat="45.28973" lon="6.1458">
        <ele>2476.6</ele>
        <time>2019-03-31T10:21:48Z</time>
      </trkpt>
      <trkpt lat="45.28973" lon="6.14578">
        <ele>2476.6</ele>
        <time>2019-03-31T10:21:53Z</time>
      </trkpt>
      <trkpt lat="45.28973" lon="6.14575">
        <ele>2477</ele>
        <time>2019-03-31T10:21:58Z</time>
      </trkpt>
      <trkpt lat="45.28973" lon="6.14572">
        <ele>2479.4</ele>
        <time>2019-03-31T10:22:03Z</time>
      </trkpt>
      <trkpt lat="45.28973" lon="6.14569">
        <ele>2482.8</ele>
        <time>2019-03-31T10:22:08Z</time>
      </trkpt>
      <trkpt lat="45.28973" lon="6.14566">
        <ele>2481.6</ele>
        <time>2019-03-31T10:22:13Z</time>
      </trkpt>
      <trkpt lat="45.28973" lon="6.14563">
        <ele>2479.2</ele>
        <time>2019-03-31T10:22:18Z</time>
      </trkpt>
      <trkpt lat="45.28974" lon="6.14562">
        <ele>2478.2</ele>
        <time>2019-03-31T10:22:23Z</time>
      </trkpt>
      <trkpt lat="45.28975" lon="6.14561">
        <ele>2478.2</ele>
        <time>2019-03-31T10:22:28Z</time>
      </trkpt>
      <trkpt lat="45.28975" lon="6.14561">
        <ele>2478</ele>
        <time>2019-03-31T10:22:33Z</time>
      </trkpt>
      <trkpt lat="45.28977" lon="6.1456">
        <ele>2479.2</ele>
        <time>2019-03-31T10:22:38Z</time>
      </trkpt>
      <trkpt lat="45.28979" lon="6.1456">
        <ele>2475.4</ele>
        <time>2019-03-31T10:22:43Z</time>
      </trkpt>
      <trkpt lat="45.28979" lon="6.14561">
        <ele>2475.6</ele>
        <time>2019-03-31T10:22:48Z</time>
      </trkpt>
      <trkpt lat="45.28981" lon="6.14562">
        <ele>2476.4</ele>
        <time>2019-03-31T10:22:53Z</time>
      </trkpt>
      <trkpt lat="45.28982" lon="6.14563">
        <ele>2480.8</ele>
        <time>2019-03-31T10:22:58Z</time>
      </trkpt>
      <trkpt lat="45.28983" lon="6.14561">
        <ele>2475.8</ele>
        <time>2019-03-31T10:23:03Z</time>
      </trkpt>
      <trkpt lat="45.28983" lon="6.14559">
        <ele>2476.6</ele>
        <time>2019-03-31T10:23:08Z</time>
      </trkpt>
      <trkpt lat="45.28983" lon="6.14556">
        <ele>2477.2</ele>
        <time>2019-03-31T10:23:13Z</time>
      </trkpt>
      <trkpt lat="45.28983" lon="6.14553">
        <ele>2477.2</ele>
        <time>2019-03-31T10:23:18Z</time>
      </trkpt>
      <trkpt lat="45.28984" lon="6.14551">
        <ele>2477.4</ele>
        <time>2019-03-31T10:23:23Z</time>
      </trkpt>
      <trkpt lat="45.28984" lon="6.14548">
        <ele>2479.6</ele>
        <time>2019-03-31T10:23:28Z</time>
      </trkpt>
      <trkpt lat="45.28984" lon="6.14546">
        <ele>2481.8</ele>
        <time>2019-03-31T10:23:33Z</time>
      </trkpt>
      <trkpt lat="45.28985" lon="6.14543">
        <ele>2482</ele>
        <time>2019-03-31T10:23:38Z</time>
      </trkpt>
      <trkpt lat="45.28986" lon="6.14539">
        <ele>2487.2</ele>
        <time>2019-03-31T10:23:43Z</time>
      </trkpt>
      <trkpt lat="45.28986" lon="6.14537">
        <ele>2484</ele>
        <time>2019-03-31T10:24:23Z</time>
      </trkpt>
      <trkpt lat="45.28987" lon="6.14536">
        <ele>2482.6</ele>
        <time>2019-03-31T10:24:28Z</time>
      </trkpt>
      <trkpt lat="45.28987" lon="6.14534">
        <ele>2486.2</ele>
        <time>2019-03-31T10:25:08Z</time>
      </trkpt>
      <trkpt lat="45.28988" lon="6.14531">
        <ele>2485.2</ele>
        <time>2019-03-31T10:25:13Z</time>
      </trkpt>
      <trkpt lat="45.28989" lon="6.14526">
        <ele>2485.8</ele>
        <time>2019-03-31T10:25:18Z</time>
      </trkpt>
      <trkpt lat="45.2899" lon="6.14522">
        <ele>2488.2</ele>
        <time>2019-03-31T10:25:23Z</time>
      </trkpt>
      <trkpt lat="45.28991" lon="6.14517">
        <ele>2488.8</ele>
        <time>2019-03-31T10:25:28Z</time>
      </trkpt>
      <trkpt lat="45.28993" lon="6.14513">
        <ele>2489.4</ele>
        <time>2019-03-31T10:25:33Z</time>
      </trkpt>
      <trkpt lat="45.28995" lon="6.14511">
        <ele>2488.4</ele>
        <time>2019-03-31T10:25:38Z</time>
      </trkpt>
      <trkpt lat="45.28997" lon="6.1451">
        <ele>2489.8</ele>
        <time>2019-03-31T10:25:43Z</time>
      </trkpt>
      <trkpt lat="45.29" lon="6.1451">
        <ele>2491.4</ele>
        <time>2019-03-31T10:25:48Z</time>
      </trkpt>
      <trkpt lat="45.29002" lon="6.14511">
        <ele>2490.6</ele>
        <time>2019-03-31T10:25:53Z</time>
      </trkpt>
      <trkpt lat="45.29004" lon="6.14513">
        <ele>2492.4</ele>
        <time>2019-03-31T10:25:58Z</time>
      </trkpt>
      <trkpt lat="45.29004" lon="6.14515">
        <ele>2492.2</ele>
        <time>2019-03-31T10:26:03Z</time>
      </trkpt>
      <trkpt lat="45.29006" lon="6.14515">
        <ele>2496</ele>
        <time>2019-03-31T10:26:08Z</time>
      </trkpt>
      <trkpt lat="45.29008" lon="6.14515">
        <ele>2496.6</ele>
        <time>2019-03-31T10:26:13Z</time>
      </trkpt>
      <trkpt lat="45.2901" lon="6.14516">
        <ele>2498.2</ele>
        <time>2019-03-31T10:26:18Z</time>
      </trkpt>
      <trkpt lat="45.29011" lon="6.14516">
        <ele>2497.2</ele>
        <time>2019-03-31T10:26:23Z</time>
      </trkpt>
      <trkpt lat="45.29013" lon="6.14516">
        <ele>2496.4</ele>
        <time>2019-03-31T10:26:28Z</time>
      </trkpt>
      <trkpt lat="45.29015" lon="6.14517">
        <ele>2493.4</ele>
        <time>2019-03-31T10:26:33Z</time>
      </trkpt>
      <trkpt lat="45.29016" lon="6.14518">
        <ele>2491.2</ele>
        <time>2019-03-31T10:26:38Z</time>
      </trkpt>
      <trkpt lat="45.29018" lon="6.14519">
        <ele>2491</ele>
        <time>2019-03-31T10:26:43Z</time>
      </trkpt>
      <trkpt lat="45.29019" lon="6.1452">
        <ele>2493.2</ele>
        <time>2019-03-31T10:26:48Z</time>
      </trkpt>
      <trkpt lat="45.29019" lon="6.14521">
        <ele>2495.6</ele>
        <time>2019-03-31T10:26:53Z</time>
      </trkpt>
      <trkpt lat="45.29021" lon="6.14522">
        <ele>2495.4</ele>
        <time>2019-03-31T10:26:58Z</time>
      </trkpt>
      <trkpt lat="45.29022" lon="6.14524">
        <ele>2505.8</ele>
        <time>2019-03-31T10:27:33Z</time>
      </trkpt>
      <trkpt lat="45.29022" lon="6.14526">
        <ele>2505.8</ele>
        <time>2019-03-31T10:27:38Z</time>
      </trkpt>
      <trkpt lat="45.29023" lon="6.14527">
        <ele>2506.4</ele>
        <time>2019-03-31T10:27:43Z</time>
      </trkpt>
      <trkpt lat="45.29024" lon="6.14529">
        <ele>2508</ele>
        <time>2019-03-31T10:27:48Z</time>
      </trkpt>
      <trkpt lat="45.29025" lon="6.1453">
        <ele>2511.2</ele>
        <time>2019-03-31T10:27:53Z</time>
      </trkpt>
      <trkpt lat="45.29027" lon="6.14532">
        <ele>2512.4</ele>
        <time>2019-03-31T10:27:58Z</time>
      </trkpt>
      <trkpt lat="45.29029" lon="6.14533">
        <ele>2509.4</ele>
        <time>2019-03-31T10:28:03Z</time>
      </trkpt>
      <trkpt lat="45.29031" lon="6.14535">
        <ele>2513.8</ele>
        <time>2019-03-31T10:28:08Z</time>
      </trkpt>
      <trkpt lat="45.29032" lon="6.14538">
        <ele>2514.2</ele>
        <time>2019-03-31T10:28:13Z</time>
      </trkpt>
      <trkpt lat="45.29034" lon="6.14538">
        <ele>2515.6</ele>
        <time>2019-03-31T10:28:18Z</time>
      </trkpt>
      <trkpt lat="45.29036" lon="6.14537">
        <ele>2515.4</ele>
        <time>2019-03-31T10:28:23Z</time>
      </trkpt>
      <trkpt lat="45.29037" lon="6.14535">
        <ele>2516</ele>
        <time>2019-03-31T10:28:28Z</time>
      </trkpt>
      <trkpt lat="45.29039" lon="6.14533">
        <ele>2516.4</ele>
        <time>2019-03-31T10:28:33Z</time>
      </trkpt>
      <trkpt lat="45.29041" lon="6.14531">
        <ele>2516.2</ele>
        <time>2019-03-31T10:28:38Z</time>
      </trkpt>
      <trkpt lat="45.29044" lon="6.14528">
        <ele>2515.8</ele>
        <time>2019-03-31T10:28:43Z</time>
      </trkpt>
      <trkpt lat="45.29045" lon="6.14526">
        <ele>2515.2</ele>
        <time>2019-03-31T10:28:48Z</time>
      </trkpt>
      <trkpt lat="45.29046" lon="6.14525">
        <ele>2514.4</ele>
        <time>2019-03-31T10:28:53Z</time>
      </trkpt>
      <trkpt lat="45.29048" lon="6.14523">
        <ele>2515.8</ele>
        <time>2019-03-31T10:28:58Z</time>
      </trkpt>
      <trkpt lat="45.29052" lon="6.14521">
        <ele>2516.8</ele>
        <time>2019-03-31T10:29:03Z</time>
      </trkpt>
      <trkpt lat="45.29054" lon="6.1452">
        <ele>2516.4</ele>
        <time>2019-03-31T10:29:08Z</time>
      </trkpt>
      <trkpt lat="45.29055" lon="6.14518">
        <ele>2514.2</ele>
        <time>2019-03-31T10:29:13Z</time>
      </trkpt>
      <trkpt lat="45.29056" lon="6.14517">
        <ele>2514.8</ele>
        <time>2019-03-31T10:29:18Z</time>
      </trkpt>
      <trkpt lat="45.29057" lon="6.14516">
        <ele>2515.6</ele>
        <time>2019-03-31T10:29:23Z</time>
      </trkpt>
      <trkpt lat="45.29058" lon="6.14515">
        <ele>2516.6</ele>
        <time>2019-03-31T10:29:28Z</time>
      </trkpt>
      <trkpt lat="45.2906" lon="6.14515">
        <ele>2516.4</ele>
        <time>2019-03-31T10:29:33Z</time>
      </trkpt>
      <trkpt lat="45.29061" lon="6.14514">
        <ele>2517.4</ele>
        <time>2019-03-31T10:29:38Z</time>
      </trkpt>
      <trkpt lat="45.29062" lon="6.14514">
        <ele>2517.8</ele>
        <time>2019-03-31T10:29:43Z</time>
      </trkpt>
      <trkpt lat="45.29064" lon="6.14513">
        <ele>2519.6</ele>
        <time>2019-03-31T10:29:48Z</time>
      </trkpt>
      <trkpt lat="45.29065" lon="6.14512">
        <ele>2520</ele>
        <time>2019-03-31T10:29:53Z</time>
      </trkpt>
      <trkpt lat="45.29066" lon="6.14512">
        <ele>2521.8</ele>
        <time>2019-03-31T10:29:58Z</time>
      </trkpt>
      <trkpt lat="45.29067" lon="6.14511">
        <ele>2521.4</ele>
        <time>2019-03-31T10:30:03Z</time>
      </trkpt>
      <trkpt lat="45.29069" lon="6.14511">
        <ele>2522.6</ele>
        <time>2019-03-31T10:30:08Z</time>
      </trkpt>
      <trkpt lat="45.29071" lon="6.1451">
        <ele>2520.2</ele>
        <time>2019-03-31T10:30:13Z</time>
      </trkpt>
      <trkpt lat="45.29072" lon="6.1451">
        <ele>2522.2</ele>
        <time>2019-03-31T10:30:18Z</time>
      </trkpt>
      <trkpt lat="45.29076" lon="6.14509">
        <ele>2522.6</ele>
        <time>2019-03-31T10:30:23Z</time>
      </trkpt>
      <trkpt lat="45.29077" lon="6.14507">
        <ele>2523</ele>
        <time>2019-03-31T10:30:28Z</time>
      </trkpt>
      <trkpt lat="45.29079" lon="6.14506">
        <ele>2524.6</ele>
        <time>2019-03-31T10:30:33Z</time>
      </trkpt>
      <trkpt lat="45.29081" lon="6.14505">
        <ele>2523.8</ele>
        <time>2019-03-31T10:30:43Z</time>
      </trkpt>
      <trkpt lat="45.29084" lon="6.14504">
        <ele>2527.6</ele>
        <time>2019-03-31T10:30:48Z</time>
      </trkpt>
      <trkpt lat="45.29087" lon="6.145">
        <ele>2527</ele>
        <time>2019-03-31T10:31:13Z</time>
      </trkpt>
      <trkpt lat="45.29087" lon="6.14499">
        <ele>2525.6</ele>
        <time>2019-03-31T10:31:18Z</time>
      </trkpt>
      <trkpt lat="45.29087" lon="6.14498">
        <ele>2525.4</ele>
        <time>2019-03-31T10:31:23Z</time>
      </trkpt>
      <trkpt lat="45.29088" lon="6.14497">
        <ele>2527.8</ele>
        <time>2019-03-31T10:31:28Z</time>
      </trkpt>
      <trkpt lat="45.2909" lon="6.14495">
        <ele>2528.6</ele>
        <time>2019-03-31T10:31:33Z</time>
      </trkpt>
      <trkpt lat="45.29092" lon="6.14494">
        <ele>2529.6</ele>
        <time>2019-03-31T10:31:38Z</time>
      </trkpt>
      <trkpt lat="45.29094" lon="6.14494">
        <ele>2531</ele>
        <time>2019-03-31T10:31:43Z</time>
      </trkpt>
      <trkpt lat="45.29096" lon="6.14494">
        <ele>2531.8</ele>
        <time>2019-03-31T10:31:48Z</time>
      </trkpt>
      <trkpt lat="45.291" lon="6.14493">
        <ele>2532.8</ele>
        <time>2019-03-31T10:31:53Z</time>
      </trkpt>
      <trkpt lat="45.29102" lon="6.14493">
        <ele>2534.6</ele>
        <time>2019-03-31T10:31:58Z</time>
      </trkpt>
      <trkpt lat="45.29105" lon="6.14492">
        <ele>2536</ele>
        <time>2019-03-31T10:32:03Z</time>
      </trkpt>
      <trkpt lat="45.29107" lon="6.14491">
        <ele>2538</ele>
        <time>2019-03-31T10:32:08Z</time>
      </trkpt>
      <trkpt lat="45.2911" lon="6.1449">
        <ele>2536</ele>
        <time>2019-03-31T10:32:13Z</time>
      </trkpt>
      <trkpt lat="45.29112" lon="6.14489">
        <ele>2536.4</ele>
        <time>2019-03-31T10:32:18Z</time>
      </trkpt>
      <trkpt lat="45.29114" lon="6.14487">
        <ele>2535.2</ele>
        <time>2019-03-31T10:32:23Z</time>
      </trkpt>
      <trkpt lat="45.29115" lon="6.14486">
        <ele>2534.4</ele>
        <time>2019-03-31T10:32:28Z</time>
      </trkpt>
      <trkpt lat="45.29116" lon="6.14485">
        <ele>2535.2</ele>
        <time>2019-03-31T10:32:33Z</time>
      </trkpt>
      <trkpt lat="45.29118" lon="6.14484">
        <ele>2533.8</ele>
        <time>2019-03-31T10:32:38Z</time>
      </trkpt>
      <trkpt lat="45.29119" lon="6.14483">
        <ele>2534.4</ele>
        <time>2019-03-31T10:32:43Z</time>
      </trkpt>
      <trkpt lat="45.2912" lon="6.14482">
        <ele>2535.6</ele>
        <time>2019-03-31T10:32:48Z</time>
      </trkpt>
      <trkpt lat="45.29122" lon="6.14481">
        <ele>2536.8</ele>
        <time>2019-03-31T10:32:53Z</time>
      </trkpt>
      <trkpt lat="45.29124" lon="6.1448">
        <ele>2539.8</ele>
        <time>2019-03-31T10:32:58Z</time>
      </trkpt>
      <trkpt lat="45.29127" lon="6.1448">
        <ele>2540.6</ele>
        <time>2019-03-31T10:33:03Z</time>
      </trkpt>
      <trkpt lat="45.29129" lon="6.1448">
        <ele>2540.8</ele>
        <time>2019-03-31T10:33:08Z</time>
      </trkpt>
      <trkpt lat="45.29133" lon="6.1448">
        <ele>2537.8</ele>
        <time>2019-03-31T10:33:13Z</time>
      </trkpt>
      <trkpt lat="45.29135" lon="6.1448">
        <ele>2536.4</ele>
        <time>2019-03-31T10:33:18Z</time>
      </trkpt>
      <trkpt lat="45.29138" lon="6.14479">
        <ele>2536.6</ele>
        <time>2019-03-31T10:33:23Z</time>
      </trkpt>
      <trkpt lat="45.2914" lon="6.14478">
        <ele>2537</ele>
        <time>2019-03-31T10:33:28Z</time>
      </trkpt>
      <trkpt lat="45.29142" lon="6.14478">
        <ele>2539.8</ele>
        <time>2019-03-31T10:33:33Z</time>
      </trkpt>
      <trkpt lat="45.29145" lon="6.14477">
        <ele>2540.4</ele>
        <time>2019-03-31T10:33:38Z</time>
      </trkpt>
      <trkpt lat="45.29147" lon="6.14476">
        <ele>2539.2</ele>
        <time>2019-03-31T10:33:43Z</time>
      </trkpt>
      <trkpt lat="45.29149" lon="6.14475">
        <ele>2539.4</ele>
        <time>2019-03-31T10:33:48Z</time>
      </trkpt>
      <trkpt lat="45.2915" lon="6.14475">
        <ele>2536.4</ele>
        <time>2019-03-31T10:33:53Z</time>
      </trkpt>
      <trkpt lat="45.29152" lon="6.14474">
        <ele>2538.6</ele>
        <time>2019-03-31T10:33:58Z</time>
      </trkpt>
      <trkpt lat="45.29153" lon="6.14473">
        <ele>2536.8</ele>
        <time>2019-03-31T10:34:03Z</time>
      </trkpt>
      <trkpt lat="45.29155" lon="6.14473">
        <ele>2537.6</ele>
        <time>2019-03-31T10:34:08Z</time>
      </trkpt>
      <trkpt lat="45.29156" lon="6.14473">
        <ele>2540.4</ele>
        <time>2019-03-31T10:34:13Z</time>
      </trkpt>
      <trkpt lat="45.29159" lon="6.14472">
        <ele>2542.2</ele>
        <time>2019-03-31T10:34:18Z</time>
      </trkpt>
      <trkpt lat="45.29161" lon="6.14471">
        <ele>2540.8</ele>
        <time>2019-03-31T10:34:23Z</time>
      </trkpt>
      <trkpt lat="45.29163" lon="6.14471">
        <ele>2543.8</ele>
        <time>2019-03-31T10:34:28Z</time>
      </trkpt>
      <trkpt lat="45.29165" lon="6.1447">
        <ele>2542.4</ele>
        <time>2019-03-31T10:34:33Z</time>
      </trkpt>
      <trkpt lat="45.29166" lon="6.1447">
        <ele>2543.2</ele>
        <time>2019-03-31T10:34:38Z</time>
      </trkpt>
      <trkpt lat="45.29168" lon="6.14469">
        <ele>2540.6</ele>
        <time>2019-03-31T10:34:43Z</time>
      </trkpt>
      <trkpt lat="45.2917" lon="6.14468">
        <ele>2540.8</ele>
        <time>2019-03-31T10:34:48Z</time>
      </trkpt>
      <trkpt lat="45.29172" lon="6.14467">
        <ele>2540.6</ele>
        <time>2019-03-31T10:34:53Z</time>
      </trkpt>
      <trkpt lat="45.29174" lon="6.14466">
        <ele>2542.4</ele>
        <time>2019-03-31T10:34:58Z</time>
      </trkpt>
      <trkpt lat="45.29176" lon="6.14465">
        <ele>2543.6</ele>
        <time>2019-03-31T10:35:03Z</time>
      </trkpt>
      <trkpt lat="45.29177" lon="6.14464">
        <ele>2543.8</ele>
        <time>2019-03-31T10:35:08Z</time>
      </trkpt>
      <trkpt lat="45.29179" lon="6.14464">
        <ele>2544.2</ele>
        <time>2019-03-31T10:35:13Z</time>
      </trkpt>
      <trkpt lat="45.2918" lon="6.14463">
        <ele>2545.4</ele>
        <time>2019-03-31T10:35:18Z</time>
      </trkpt>
      <trkpt lat="45.29182" lon="6.14462">
        <ele>2546.4</ele>
        <time>2019-03-31T10:35:23Z</time>
      </trkpt>
      <trkpt lat="45.29183" lon="6.14461">
        <ele>2547.8</ele>
        <time>2019-03-31T10:35:28Z</time>
      </trkpt>
      <trkpt lat="45.29184" lon="6.1446">
        <ele>2548.2</ele>
        <time>2019-03-31T10:35:33Z</time>
      </trkpt>
      <trkpt lat="45.29185" lon="6.14459">
        <ele>2547.8</ele>
        <time>2019-03-31T10:35:38Z</time>
      </trkpt>
      <trkpt lat="45.29186" lon="6.14459">
        <ele>2548.2</ele>
        <time>2019-03-31T10:35:44Z</time>
      </trkpt>
      <trkpt lat="45.29186" lon="6.14458">
        <ele>2548.4</ele>
        <time>2019-03-31T10:35:49Z</time>
      </trkpt>
      <trkpt lat="45.29187" lon="6.14457">
        <ele>2548.6</ele>
        <time>2019-03-31T10:35:54Z</time>
      </trkpt>
      <trkpt lat="45.29189" lon="6.14455">
        <ele>2548.6</ele>
        <time>2019-03-31T10:35:59Z</time>
      </trkpt>
      <trkpt lat="45.29191" lon="6.14453">
        <ele>2550.8</ele>
        <time>2019-03-31T10:36:04Z</time>
      </trkpt>
      <trkpt lat="45.29192" lon="6.14452">
        <ele>2549.6</ele>
        <time>2019-03-31T10:36:09Z</time>
      </trkpt>
      <trkpt lat="45.29193" lon="6.1445">
        <ele>2548.2</ele>
        <time>2019-03-31T10:36:14Z</time>
      </trkpt>
      <trkpt lat="45.29194" lon="6.14448">
        <ele>2549.8</ele>
        <time>2019-03-31T10:36:19Z</time>
      </trkpt>
      <trkpt lat="45.29195" lon="6.14446">
        <ele>2550</ele>
        <time>2019-03-31T10:36:24Z</time>
      </trkpt>
      <trkpt lat="45.29195" lon="6.14444">
        <ele>2550.2</ele>
        <time>2019-03-31T10:36:29Z</time>
      </trkpt>
      <trkpt lat="45.29195" lon="6.14442">
        <ele>2549.8</ele>
        <time>2019-03-31T10:36:34Z</time>
      </trkpt>
      <trkpt lat="45.29195" lon="6.1444">
        <ele>2550.4</ele>
        <time>2019-03-31T10:36:39Z</time>
      </trkpt>
      <trkpt lat="45.29196" lon="6.14438">
        <ele>2551</ele>
        <time>2019-03-31T10:36:44Z</time>
      </trkpt>
      <trkpt lat="45.29195" lon="6.14436">
        <ele>2549.8</ele>
        <time>2019-03-31T10:36:49Z</time>
      </trkpt>
      <trkpt lat="45.29195" lon="6.14435">
        <ele>2551.4</ele>
        <time>2019-03-31T10:36:54Z</time>
      </trkpt>
      <trkpt lat="45.29195" lon="6.14432">
        <ele>2551.8</ele>
        <time>2019-03-31T10:36:59Z</time>
      </trkpt>
      <trkpt lat="45.29196" lon="6.1443">
        <ele>2552</ele>
        <time>2019-03-31T10:37:04Z</time>
      </trkpt>
      <trkpt lat="45.29196" lon="6.14428">
        <ele>2552.4</ele>
        <time>2019-03-31T10:37:09Z</time>
      </trkpt>
      <trkpt lat="45.29196" lon="6.14426">
        <ele>2552</ele>
        <time>2019-03-31T10:37:14Z</time>
      </trkpt>
      <trkpt lat="45.29196" lon="6.14424">
        <ele>2550.2</ele>
        <time>2019-03-31T10:37:19Z</time>
      </trkpt>
      <trkpt lat="45.29196" lon="6.14424">
        <ele>2552.4</ele>
        <time>2019-03-31T10:37:44Z</time>
      </trkpt>
      <trkpt lat="45.29197" lon="6.14422">
        <ele>2553</ele>
        <time>2019-03-31T10:37:49Z</time>
      </trkpt>
      <trkpt lat="45.29197" lon="6.14419">
        <ele>2553</ele>
        <time>2019-03-31T10:37:54Z</time>
      </trkpt>
      <trkpt lat="45.29198" lon="6.14421">
        <ele>2555.8</ele>
        <time>2019-03-31T10:37:59Z</time>
      </trkpt>
      <trkpt lat="45.292" lon="6.14422">
        <ele>2553.6</ele>
        <time>2019-03-31T10:38:04Z</time>
      </trkpt>
      <trkpt lat="45.29201" lon="6.14424">
        <ele>2555.6</ele>
        <time>2019-03-31T10:38:09Z</time>
      </trkpt>
      <trkpt lat="45.29202" lon="6.14425">
        <ele>2558.6</ele>
        <time>2019-03-31T10:38:24Z</time>
      </trkpt>
      <trkpt lat="45.29202" lon="6.14425">
        <ele>2559.2</ele>
        <time>2019-03-31T10:38:29Z</time>
      </trkpt>
      <trkpt lat="45.29204" lon="6.14425">
        <ele>2560.2</ele>
        <time>2019-03-31T10:38:34Z</time>
      </trkpt>
      <trkpt lat="45.29205" lon="6.14427">
        <ele>2560.4</ele>
        <time>2019-03-31T10:38:39Z</time>
      </trkpt>
      <trkpt lat="45.29207" lon="6.14427">
        <ele>2562.2</ele>
        <time>2019-03-31T10:38:44Z</time>
      </trkpt>
      <trkpt lat="45.29208" lon="6.14428">
        <ele>2561.8</ele>
        <time>2019-03-31T10:38:49Z</time>
      </trkpt>
      <trkpt lat="45.2921" lon="6.14428">
        <ele>2563</ele>
        <time>2019-03-31T10:38:54Z</time>
      </trkpt>
      <trkpt lat="45.29212" lon="6.14428">
        <ele>2563.4</ele>
        <time>2019-03-31T10:38:59Z</time>
      </trkpt>
      <trkpt lat="45.29213" lon="6.14427">
        <ele>2564.8</ele>
        <time>2019-03-31T10:39:04Z</time>
      </trkpt>
      <trkpt lat="45.29214" lon="6.14425">
        <ele>2567.2</ele>
        <time>2019-03-31T10:39:09Z</time>
      </trkpt>
      <trkpt lat="45.29214" lon="6.14424">
        <ele>2566.8</ele>
        <time>2019-03-31T10:39:14Z</time>
      </trkpt>
      <trkpt lat="45.29215" lon="6.14422">
        <ele>2566.8</ele>
        <time>2019-03-31T10:39:19Z</time>
      </trkpt>
      <trkpt lat="45.29216" lon="6.1442">
        <ele>2566.8</ele>
        <time>2019-03-31T10:39:24Z</time>
      </trkpt>
      <trkpt lat="45.29216" lon="6.14418">
        <ele>2568.2</ele>
        <time>2019-03-31T10:39:29Z</time>
      </trkpt>
      <trkpt lat="45.29217" lon="6.14416">
        <ele>2569.4</ele>
        <time>2019-03-31T10:39:34Z</time>
      </trkpt>
      <trkpt lat="45.29219" lon="6.14414">
        <ele>2569.8</ele>
        <time>2019-03-31T10:39:39Z</time>
      </trkpt>
      <trkpt lat="45.2922" lon="6.14412">
        <ele>2570</ele>
        <time>2019-03-31T10:39:44Z</time>
      </trkpt>
      <trkpt lat="45.29221" lon="6.14411">
        <ele>2570.4</ele>
        <time>2019-03-31T10:39:49Z</time>
      </trkpt>
      <trkpt lat="45.29222" lon="6.1441">
        <ele>2571</ele>
        <time>2019-03-31T10:39:54Z</time>
      </trkpt>
      <trkpt lat="45.29223" lon="6.14409">
        <ele>2570.6</ele>
        <time>2019-03-31T10:39:59Z</time>
      </trkpt>
      <trkpt lat="45.29224" lon="6.14408">
        <ele>2570.2</ele>
        <time>2019-03-31T10:40:04Z</time>
      </trkpt>
      <trkpt lat="45.29226" lon="6.14407">
        <ele>2571.8</ele>
        <time>2019-03-31T10:40:09Z</time>
      </trkpt>
      <trkpt lat="45.29227" lon="6.14406">
        <ele>2573.4</ele>
        <time>2019-03-31T10:40:14Z</time>
      </trkpt>
      <trkpt lat="45.29229" lon="6.14406">
        <ele>2574.8</ele>
        <time>2019-03-31T10:40:19Z</time>
      </trkpt>
      <trkpt lat="45.2923" lon="6.14405">
        <ele>2576.2</ele>
        <time>2019-03-31T10:40:24Z</time>
      </trkpt>
      <trkpt lat="45.29231" lon="6.14405">
        <ele>2577</ele>
        <time>2019-03-31T10:40:29Z</time>
      </trkpt>
      <trkpt lat="45.29233" lon="6.14404">
        <ele>2578.2</ele>
        <time>2019-03-31T10:40:34Z</time>
      </trkpt>
      <trkpt lat="45.29234" lon="6.14404">
        <ele>2579.2</ele>
        <time>2019-03-31T10:40:39Z</time>
      </trkpt>
      <trkpt lat="45.29236" lon="6.14403">
        <ele>2581.4</ele>
        <time>2019-03-31T10:40:44Z</time>
      </trkpt>
      <trkpt lat="45.29237" lon="6.14403">
        <ele>2580.8</ele>
        <time>2019-03-31T10:40:49Z</time>
      </trkpt>
      <trkpt lat="45.29237" lon="6.14402">
        <ele>2582.6</ele>
        <time>2019-03-31T10:40:54Z</time>
      </trkpt>
      <trkpt lat="45.29238" lon="6.14401">
        <ele>2583.2</ele>
        <time>2019-03-31T10:40:59Z</time>
      </trkpt>
      <trkpt lat="45.2924" lon="6.14401">
        <ele>2585</ele>
        <time>2019-03-31T10:41:04Z</time>
      </trkpt>
      <trkpt lat="45.29241" lon="6.14402">
        <ele>2587.2</ele>
        <time>2019-03-31T10:41:09Z</time>
      </trkpt>
      <trkpt lat="45.29241" lon="6.14404">
        <ele>2588.4</ele>
        <time>2019-03-31T10:41:14Z</time>
      </trkpt>
      <trkpt lat="45.29242" lon="6.14406">
        <ele>2585.6</ele>
        <time>2019-03-31T10:41:19Z</time>
      </trkpt>
      <trkpt lat="45.29242" lon="6.14407">
        <ele>2586.4</ele>
        <time>2019-03-31T10:41:24Z</time>
      </trkpt>
      <trkpt lat="45.29243" lon="6.14408">
        <ele>2586.2</ele>
        <time>2019-03-31T10:41:29Z</time>
      </trkpt>
      <trkpt lat="45.29243" lon="6.1441">
        <ele>2590</ele>
        <time>2019-03-31T10:41:34Z</time>
      </trkpt>
      <trkpt lat="45.29244" lon="6.14412">
        <ele>2589</ele>
        <time>2019-03-31T10:41:39Z</time>
      </trkpt>
      <trkpt lat="45.29244" lon="6.14414">
        <ele>2590.2</ele>
        <time>2019-03-31T10:41:44Z</time>
      </trkpt>
      <trkpt lat="45.29245" lon="6.14417">
        <ele>2587</ele>
        <time>2019-03-31T10:41:49Z</time>
      </trkpt>
      <trkpt lat="45.29246" lon="6.14419">
        <ele>2585.8</ele>
        <time>2019-03-31T10:41:54Z</time>
      </trkpt>
      <trkpt lat="45.29247" lon="6.14421">
        <ele>2585.2</ele>
        <time>2019-03-31T10:41:59Z</time>
      </trkpt>
      <trkpt lat="45.29248" lon="6.14423">
        <ele>2586.8</ele>
        <time>2019-03-31T10:42:04Z</time>
      </trkpt>
      <trkpt lat="45.29248" lon="6.14424">
        <ele>2585.8</ele>
        <time>2019-03-31T10:42:09Z</time>
      </trkpt>
      <trkpt lat="45.29249" lon="6.14426">
        <ele>2589.8</ele>
        <time>2019-03-31T10:42:14Z</time>
      </trkpt>
      <trkpt lat="45.2925" lon="6.14428">
        <ele>2592.2</ele>
        <time>2019-03-31T10:42:19Z</time>
      </trkpt>
      <trkpt lat="45.29251" lon="6.14429">
        <ele>2590.4</ele>
        <time>2019-03-31T10:42:24Z</time>
      </trkpt>
      <trkpt lat="45.29251" lon="6.14431">
        <ele>2592.2</ele>
        <time>2019-03-31T10:42:29Z</time>
      </trkpt>
      <trkpt lat="45.29252" lon="6.14433">
        <ele>2591</ele>
        <time>2019-03-31T10:42:34Z</time>
      </trkpt>
      <trkpt lat="45.29254" lon="6.14431">
        <ele>2591.4</ele>
        <time>2019-03-31T10:42:39Z</time>
      </trkpt>
      <trkpt lat="45.29254" lon="6.14431">
        <ele>2591.6</ele>
        <time>2019-03-31T10:42:44Z</time>
      </trkpt>
      <trkpt lat="45.29254" lon="6.14429">
        <ele>2591.8</ele>
        <time>2019-03-31T10:42:49Z</time>
      </trkpt>
      <trkpt lat="45.29256" lon="6.14427">
        <ele>2592.6</ele>
        <time>2019-03-31T10:42:54Z</time>
      </trkpt>
      <trkpt lat="45.29256" lon="6.14426">
        <ele>2592.8</ele>
        <time>2019-03-31T10:42:59Z</time>
      </trkpt>
      <trkpt lat="45.29257" lon="6.14424">
        <ele>2592.2</ele>
        <time>2019-03-31T10:43:04Z</time>
      </trkpt>
      <trkpt lat="45.29258" lon="6.14422">
        <ele>2591</ele>
        <time>2019-03-31T10:43:09Z</time>
      </trkpt>
      <trkpt lat="45.29259" lon="6.14421">
        <ele>2595</ele>
        <time>2019-03-31T10:43:14Z</time>
      </trkpt>
      <trkpt lat="45.2926" lon="6.1442">
        <ele>2596.8</ele>
        <time>2019-03-31T10:43:19Z</time>
      </trkpt>
      <trkpt lat="45.29261" lon="6.14419">
        <ele>2596.4</ele>
        <time>2019-03-31T10:43:24Z</time>
      </trkpt>
      <trkpt lat="45.29262" lon="6.14417">
        <ele>2596.2</ele>
        <time>2019-03-31T10:43:29Z</time>
      </trkpt>
      <trkpt lat="45.29263" lon="6.14416">
        <ele>2599</ele>
        <time>2019-03-31T10:43:34Z</time>
      </trkpt>
      <trkpt lat="45.29264" lon="6.14414">
        <ele>2597.8</ele>
        <time>2019-03-31T10:43:39Z</time>
      </trkpt>
      <trkpt lat="45.29266" lon="6.14413">
        <ele>2598.2</ele>
        <time>2019-03-31T10:43:44Z</time>
      </trkpt>
      <trkpt lat="45.29267" lon="6.14412">
        <ele>2600.4</ele>
        <time>2019-03-31T10:43:49Z</time>
      </trkpt>
      <trkpt lat="45.29268" lon="6.1441">
        <ele>2599</ele>
        <time>2019-03-31T10:43:54Z</time>
      </trkpt>
      <trkpt lat="45.29269" lon="6.14409">
        <ele>2599.4</ele>
        <time>2019-03-31T10:43:59Z</time>
      </trkpt>
      <trkpt lat="45.2927" lon="6.14407">
        <ele>2599.6</ele>
        <time>2019-03-31T10:44:04Z</time>
      </trkpt>
      <trkpt lat="45.29272" lon="6.14406">
        <ele>2599.4</ele>
        <time>2019-03-31T10:44:09Z</time>
      </trkpt>
      <trkpt lat="45.29274" lon="6.14404">
        <ele>2601</ele>
        <time>2019-03-31T10:44:14Z</time>
      </trkpt>
      <trkpt lat="45.29275" lon="6.14402">
        <ele>2600.2</ele>
        <time>2019-03-31T10:44:19Z</time>
      </trkpt>
      <trkpt lat="45.29276" lon="6.144">
        <ele>2602</ele>
        <time>2019-03-31T10:44:24Z</time>
      </trkpt>
      <trkpt lat="45.29278" lon="6.14398">
        <ele>2600.2</ele>
        <time>2019-03-31T10:44:29Z</time>
      </trkpt>
      <trkpt lat="45.29279" lon="6.14396">
        <ele>2599.4</ele>
        <time>2019-03-31T10:44:34Z</time>
      </trkpt>
      <trkpt lat="45.29279" lon="6.14395">
        <ele>2602</ele>
        <time>2019-03-31T10:44:39Z</time>
      </trkpt>
      <trkpt lat="45.2928" lon="6.14393">
        <ele>2601.2</ele>
        <time>2019-03-31T10:44:44Z</time>
      </trkpt>
      <trkpt lat="45.29281" lon="6.14391">
        <ele>2599.2</ele>
        <time>2019-03-31T10:44:49Z</time>
      </trkpt>
      <trkpt lat="45.29282" lon="6.14389">
        <ele>2599.2</ele>
        <time>2019-03-31T10:44:54Z</time>
      </trkpt>
      <trkpt lat="45.29283" lon="6.14387">
        <ele>2599.4</ele>
        <time>2019-03-31T10:44:59Z</time>
      </trkpt>
      <trkpt lat="45.29285" lon="6.14385">
        <ele>2599.4</ele>
        <time>2019-03-31T10:45:04Z</time>
      </trkpt>
      <trkpt lat="45.29286" lon="6.14382">
        <ele>2598.2</ele>
        <time>2019-03-31T10:45:09Z</time>
      </trkpt>
      <trkpt lat="45.29286" lon="6.1438">
        <ele>2599</ele>
        <time>2019-03-31T10:45:14Z</time>
      </trkpt>
      <trkpt lat="45.29288" lon="6.14378">
        <ele>2602</ele>
        <time>2019-03-31T10:45:19Z</time>
      </trkpt>
      <trkpt lat="45.29289" lon="6.14376">
        <ele>2602.4</ele>
        <time>2019-03-31T10:45:24Z</time>
      </trkpt>
      <trkpt lat="45.2929" lon="6.14376">
        <ele>2600.4</ele>
        <time>2019-03-31T10:45:29Z</time>
      </trkpt>
      <trkpt lat="45.29291" lon="6.14378">
        <ele>2601</ele>
        <time>2019-03-31T10:45:34Z</time>
      </trkpt>
      <trkpt lat="45.29292" lon="6.14379">
        <ele>2601.2</ele>
        <time>2019-03-31T10:45:39Z</time>
      </trkpt>
      <trkpt lat="45.29293" lon="6.1438">
        <ele>2601.8</ele>
        <time>2019-03-31T10:45:44Z</time>
      </trkpt>
      <trkpt lat="45.29294" lon="6.14382">
        <ele>2602.8</ele>
        <time>2019-03-31T10:45:49Z</time>
      </trkpt>
      <trkpt lat="45.29295" lon="6.14384">
        <ele>2606</ele>
        <time>2019-03-31T10:45:54Z</time>
      </trkpt>
      <trkpt lat="45.29296" lon="6.14387">
        <ele>2604.6</ele>
        <time>2019-03-31T10:45:59Z</time>
      </trkpt>
      <trkpt lat="45.29297" lon="6.14389">
        <ele>2606</ele>
        <time>2019-03-31T10:46:04Z</time>
      </trkpt>
      <trkpt lat="45.29297" lon="6.14389">
        <ele>2606.6</ele>
        <time>2019-03-31T10:46:19Z</time>
      </trkpt>
      <trkpt lat="45.29298" lon="6.1439">
        <ele>2606.6</ele>
        <time>2019-03-31T10:46:24Z</time>
      </trkpt>
      <trkpt lat="45.29299" lon="6.14392">
        <ele>2606.8</ele>
        <time>2019-03-31T10:46:29Z</time>
      </trkpt>
      <trkpt lat="45.29299" lon="6.14394">
        <ele>2606.6</ele>
        <time>2019-03-31T10:46:34Z</time>
      </trkpt>
      <trkpt lat="45.293" lon="6.14396">
        <ele>2607.8</ele>
        <time>2019-03-31T10:46:39Z</time>
      </trkpt>
      <trkpt lat="45.29301" lon="6.14398">
        <ele>2608.4</ele>
        <time>2019-03-31T10:46:44Z</time>
      </trkpt>
      <trkpt lat="45.29302" lon="6.144">
        <ele>2607.6</ele>
        <time>2019-03-31T10:46:49Z</time>
      </trkpt>
      <trkpt lat="45.29302" lon="6.14402">
        <ele>2608.4</ele>
        <time>2019-03-31T10:46:54Z</time>
      </trkpt>
      <trkpt lat="45.29303" lon="6.14404">
        <ele>2606.4</ele>
        <time>2019-03-31T10:46:59Z</time>
      </trkpt>
      <trkpt lat="45.29304" lon="6.14406">
        <ele>2607.4</ele>
        <time>2019-03-31T10:47:04Z</time>
      </trkpt>
      <trkpt lat="45.29305" lon="6.14408">
        <ele>2609.2</ele>
        <time>2019-03-31T10:47:09Z</time>
      </trkpt>
      <trkpt lat="45.29306" lon="6.1441">
        <ele>2611.2</ele>
        <time>2019-03-31T10:47:14Z</time>
      </trkpt>
      <trkpt lat="45.29307" lon="6.14412">
        <ele>2610.6</ele>
        <time>2019-03-31T10:47:19Z</time>
      </trkpt>
      <trkpt lat="45.29308" lon="6.14413">
        <ele>2609.8</ele>
        <time>2019-03-31T10:47:24Z</time>
      </trkpt>
      <trkpt lat="45.29309" lon="6.14415">
        <ele>2610.4</ele>
        <time>2019-03-31T10:47:29Z</time>
      </trkpt>
      <trkpt lat="45.2931" lon="6.14417">
        <ele>2612</ele>
        <time>2019-03-31T10:47:34Z</time>
      </trkpt>
      <trkpt lat="45.29311" lon="6.14418">
        <ele>2613.4</ele>
        <time>2019-03-31T10:47:39Z</time>
      </trkpt>
      <trkpt lat="45.29312" lon="6.1442">
        <ele>2615</ele>
        <time>2019-03-31T10:47:44Z</time>
      </trkpt>
      <trkpt lat="45.29314" lon="6.14422">
        <ele>2615</ele>
        <time>2019-03-31T10:47:49Z</time>
      </trkpt>
      <trkpt lat="45.29315" lon="6.14423">
        <ele>2615.6</ele>
        <time>2019-03-31T10:47:54Z</time>
      </trkpt>
      <trkpt lat="45.29316" lon="6.14425">
        <ele>2616.6</ele>
        <time>2019-03-31T10:47:59Z</time>
      </trkpt>
      <trkpt lat="45.29317" lon="6.14426">
        <ele>2617</ele>
        <time>2019-03-31T10:48:04Z</time>
      </trkpt>
      <trkpt lat="45.29318" lon="6.14428">
        <ele>2617.8</ele>
        <time>2019-03-31T10:48:09Z</time>
      </trkpt>
      <trkpt lat="45.29319" lon="6.14429">
        <ele>2618.2</ele>
        <time>2019-03-31T10:48:14Z</time>
      </trkpt>
      <trkpt lat="45.2932" lon="6.14429">
        <ele>2618.4</ele>
        <time>2019-03-31T10:48:19Z</time>
      </trkpt>
      <trkpt lat="45.2932" lon="6.14428">
        <ele>2618.8</ele>
        <time>2019-03-31T10:48:29Z</time>
      </trkpt>
      <trkpt lat="45.29321" lon="6.14427">
        <ele>2618.8</ele>
        <time>2019-03-31T10:48:34Z</time>
      </trkpt>
      <trkpt lat="45.29322" lon="6.14426">
        <ele>2619.2</ele>
        <time>2019-03-31T10:48:39Z</time>
      </trkpt>
      <trkpt lat="45.29323" lon="6.14424">
        <ele>2618.6</ele>
        <time>2019-03-31T10:48:44Z</time>
      </trkpt>
      <trkpt lat="45.29325" lon="6.14423">
        <ele>2620.6</ele>
        <time>2019-03-31T10:48:49Z</time>
      </trkpt>
      <trkpt lat="45.29327" lon="6.14421">
        <ele>2622.4</ele>
        <time>2019-03-31T10:48:54Z</time>
      </trkpt>
      <trkpt lat="45.29328" lon="6.1442">
        <ele>2620.8</ele>
        <time>2019-03-31T10:48:59Z</time>
      </trkpt>
      <trkpt lat="45.2933" lon="6.14418">
        <ele>2619.6</ele>
        <time>2019-03-31T10:49:04Z</time>
      </trkpt>
      <trkpt lat="45.29331" lon="6.14417">
        <ele>2619.8</ele>
        <time>2019-03-31T10:49:09Z</time>
      </trkpt>
      <trkpt lat="45.29333" lon="6.14415">
        <ele>2619.4</ele>
        <time>2019-03-31T10:49:14Z</time>
      </trkpt>
      <trkpt lat="45.29334" lon="6.14414">
        <ele>2619.6</ele>
        <time>2019-03-31T10:49:19Z</time>
      </trkpt>
      <trkpt lat="45.29335" lon="6.14412">
        <ele>2621.4</ele>
        <time>2019-03-31T10:49:24Z</time>
      </trkpt>
      <trkpt lat="45.29336" lon="6.1441">
        <ele>2621.4</ele>
        <time>2019-03-31T10:49:29Z</time>
      </trkpt>
      <trkpt lat="45.29337" lon="6.14409">
        <ele>2622.2</ele>
        <time>2019-03-31T10:49:34Z</time>
      </trkpt>
      <trkpt lat="45.29338" lon="6.14408">
        <ele>2621.6</ele>
        <time>2019-03-31T10:49:39Z</time>
      </trkpt>
      <trkpt lat="45.29339" lon="6.14407">
        <ele>2621.6</ele>
        <time>2019-03-31T10:49:44Z</time>
      </trkpt>
      <trkpt lat="45.2934" lon="6.14405">
        <ele>2617</ele>
        <time>2019-03-31T10:49:49Z</time>
      </trkpt>
      <trkpt lat="45.29341" lon="6.14403">
        <ele>2620.8</ele>
        <time>2019-03-31T10:49:54Z</time>
      </trkpt>
      <trkpt lat="45.29343" lon="6.14401">
        <ele>2621</ele>
        <time>2019-03-31T10:49:59Z</time>
      </trkpt>
      <trkpt lat="45.29344" lon="6.14399">
        <ele>2621.4</ele>
        <time>2019-03-31T10:50:04Z</time>
      </trkpt>
      <trkpt lat="45.29345" lon="6.14397">
        <ele>2622.4</ele>
        <time>2019-03-31T10:50:09Z</time>
      </trkpt>
      <trkpt lat="45.29346" lon="6.14396">
        <ele>2622.6</ele>
        <time>2019-03-31T10:50:14Z</time>
      </trkpt>
      <trkpt lat="45.29347" lon="6.14394">
        <ele>2627.2</ele>
        <time>2019-03-31T10:50:19Z</time>
      </trkpt>
      <trkpt lat="45.29347" lon="6.14392">
        <ele>2626</ele>
        <time>2019-03-31T10:50:24Z</time>
      </trkpt>
      <trkpt lat="45.29348" lon="6.14391">
        <ele>2627.2</ele>
        <time>2019-03-31T10:50:29Z</time>
      </trkpt>
      <trkpt lat="45.29349" lon="6.14389">
        <ele>2626.4</ele>
        <time>2019-03-31T10:50:34Z</time>
      </trkpt>
      <trkpt lat="45.29351" lon="6.14387">
        <ele>2625.8</ele>
        <time>2019-03-31T10:50:39Z</time>
      </trkpt>
      <trkpt lat="45.29351" lon="6.14387">
        <ele>2626</ele>
        <time>2019-03-31T10:50:44Z</time>
      </trkpt>
      <trkpt lat="45.29352" lon="6.14386">
        <ele>2625.2</ele>
        <time>2019-03-31T10:50:49Z</time>
      </trkpt>
      <trkpt lat="45.29353" lon="6.14385">
        <ele>2625.8</ele>
        <time>2019-03-31T10:50:54Z</time>
      </trkpt>
      <trkpt lat="45.29354" lon="6.14384">
        <ele>2625.8</ele>
        <time>2019-03-31T10:50:59Z</time>
      </trkpt>
      <trkpt lat="45.29355" lon="6.14383">
        <ele>2624.8</ele>
        <time>2019-03-31T10:51:04Z</time>
      </trkpt>
      <trkpt lat="45.29356" lon="6.14382">
        <ele>2626</ele>
        <time>2019-03-31T10:51:09Z</time>
      </trkpt>
      <trkpt lat="45.29358" lon="6.14381">
        <ele>2627</ele>
        <time>2019-03-31T10:51:14Z</time>
      </trkpt>
      <trkpt lat="45.29359" lon="6.1438">
        <ele>2627.8</ele>
        <time>2019-03-31T10:51:19Z</time>
      </trkpt>
      <trkpt lat="45.2936" lon="6.14378">
        <ele>2627.6</ele>
        <time>2019-03-31T10:51:24Z</time>
      </trkpt>
      <trkpt lat="45.29361" lon="6.14377">
        <ele>2628.8</ele>
        <time>2019-03-31T10:51:29Z</time>
      </trkpt>
      <trkpt lat="45.29362" lon="6.14376">
        <ele>2628.8</ele>
        <time>2019-03-31T10:51:34Z</time>
      </trkpt>
      <trkpt lat="45.29364" lon="6.14374">
        <ele>2628.6</ele>
        <time>2019-03-31T10:51:39Z</time>
      </trkpt>
      <trkpt lat="45.29365" lon="6.14373">
        <ele>2628.6</ele>
        <time>2019-03-31T10:51:44Z</time>
      </trkpt>
      <trkpt lat="45.29366" lon="6.14372">
        <ele>2628</ele>
        <time>2019-03-31T10:52:04Z</time>
      </trkpt>
      <trkpt lat="45.29366" lon="6.14372">
        <ele>2625.8</ele>
        <time>2019-03-31T10:53:04Z</time>
      </trkpt>
      <trkpt lat="45.29367" lon="6.14372">
        <ele>2624</ele>
        <time>2019-03-31T10:53:19Z</time>
      </trkpt>
      <trkpt lat="45.29369" lon="6.14369">
        <ele>2624</ele>
        <time>2019-03-31T10:53:24Z</time>
      </trkpt>
      <trkpt lat="45.29372" lon="6.14367">
        <ele>2625.2</ele>
        <time>2019-03-31T10:53:29Z</time>
      </trkpt>
      <trkpt lat="45.29374" lon="6.14367">
        <ele>2628.2</ele>
        <time>2019-03-31T10:53:34Z</time>
      </trkpt>
      <trkpt lat="45.29376" lon="6.14369">
        <ele>2627.8</ele>
        <time>2019-03-31T10:53:39Z</time>
      </trkpt>
      <trkpt lat="45.29377" lon="6.14371">
        <ele>2627.4</ele>
        <time>2019-03-31T10:53:44Z</time>
      </trkpt>
      <trkpt lat="45.29378" lon="6.14373">
        <ele>2626.8</ele>
        <time>2019-03-31T10:53:49Z</time>
      </trkpt>
      <trkpt lat="45.29379" lon="6.14376">
        <ele>2628.6</ele>
        <time>2019-03-31T10:53:54Z</time>
      </trkpt>
      <trkpt lat="45.2938" lon="6.1438">
        <ele>2633.8</ele>
        <time>2019-03-31T10:53:59Z</time>
      </trkpt>
      <trkpt lat="45.2938" lon="6.14383">
        <ele>2635.4</ele>
        <time>2019-03-31T10:54:04Z</time>
      </trkpt>
      <trkpt lat="45.29381" lon="6.14386">
        <ele>2635</ele>
        <time>2019-03-31T10:54:09Z</time>
      </trkpt>
      <trkpt lat="45.29381" lon="6.14388">
        <ele>2638.8</ele>
        <time>2019-03-31T10:54:14Z</time>
      </trkpt>
      <trkpt lat="45.29382" lon="6.1439">
        <ele>2639.4</ele>
        <time>2019-03-31T10:54:19Z</time>
      </trkpt>
      <trkpt lat="45.29383" lon="6.14389">
        <ele>2638</ele>
        <time>2019-03-31T10:54:24Z</time>
      </trkpt>
      <trkpt lat="45.29384" lon="6.14387">
        <ele>2641.6</ele>
        <time>2019-03-31T10:54:30Z</time>
      </trkpt>
      <trkpt lat="45.29385" lon="6.14385">
        <ele>2643.2</ele>
        <time>2019-03-31T10:54:35Z</time>
      </trkpt>
      <trkpt lat="45.29386" lon="6.14383">
        <ele>2643.4</ele>
        <time>2019-03-31T10:54:40Z</time>
      </trkpt>
      <trkpt lat="45.29387" lon="6.14381">
        <ele>2643.6</ele>
        <time>2019-03-31T10:54:45Z</time>
      </trkpt>
      <trkpt lat="45.29388" lon="6.1438">
        <ele>2645.4</ele>
        <time>2019-03-31T10:54:50Z</time>
      </trkpt>
      <trkpt lat="45.29389" lon="6.14378">
        <ele>2645</ele>
        <time>2019-03-31T10:54:55Z</time>
      </trkpt>
      <trkpt lat="45.2939" lon="6.14376">
        <ele>2644.6</ele>
        <time>2019-03-31T10:55:00Z</time>
      </trkpt>
      <trkpt lat="45.29391" lon="6.14374">
        <ele>2648.8</ele>
        <time>2019-03-31T10:55:05Z</time>
      </trkpt>
      <trkpt lat="45.29392" lon="6.14372">
        <ele>2650</ele>
        <time>2019-03-31T10:55:10Z</time>
      </trkpt>
      <trkpt lat="45.29393" lon="6.1437">
        <ele>2649.6</ele>
        <time>2019-03-31T10:55:15Z</time>
      </trkpt>
      <trkpt lat="45.29394" lon="6.14368">
        <ele>2651</ele>
        <time>2019-03-31T10:55:20Z</time>
      </trkpt>
      <trkpt lat="45.29395" lon="6.14367">
        <ele>2652.2</ele>
        <time>2019-03-31T10:55:25Z</time>
      </trkpt>
      <trkpt lat="45.29396" lon="6.14364">
        <ele>2656</ele>
        <time>2019-03-31T10:55:30Z</time>
      </trkpt>
      <trkpt lat="45.29397" lon="6.14363">
        <ele>2656.6</ele>
        <time>2019-03-31T10:55:35Z</time>
      </trkpt>
      <trkpt lat="45.29398" lon="6.14363">
        <ele>2657.2</ele>
        <time>2019-03-31T10:55:40Z</time>
      </trkpt>
      <trkpt lat="45.29399" lon="6.14361">
        <ele>2657</ele>
        <time>2019-03-31T10:55:45Z</time>
      </trkpt>
      <trkpt lat="45.294" lon="6.14359">
        <ele>2658.2</ele>
        <time>2019-03-31T10:55:50Z</time>
      </trkpt>
      <trkpt lat="45.29401" lon="6.14358">
        <ele>2660.4</ele>
        <time>2019-03-31T10:55:55Z</time>
      </trkpt>
      <trkpt lat="45.29403" lon="6.14356">
        <ele>2661.8</ele>
        <time>2019-03-31T10:56:00Z</time>
      </trkpt>
      <trkpt lat="45.29404" lon="6.14354">
        <ele>2661.4</ele>
        <time>2019-03-31T10:56:05Z</time>
      </trkpt>
      <trkpt lat="45.29405" lon="6.14353">
        <ele>2662.6</ele>
        <time>2019-03-31T10:56:10Z</time>
      </trkpt>
      <trkpt lat="45.29406" lon="6.14355">
        <ele>2661</ele>
        <time>2019-03-31T10:56:15Z</time>
      </trkpt>
      <trkpt lat="45.29408" lon="6.14357">
        <ele>2663.2</ele>
        <time>2019-03-31T10:56:20Z</time>
      </trkpt>
      <trkpt lat="45.29409" lon="6.14358">
        <ele>2662.4</ele>
        <time>2019-03-31T10:56:25Z</time>
      </trkpt>
      <trkpt lat="45.2941" lon="6.1436">
        <ele>2664.2</ele>
        <time>2019-03-31T10:56:30Z</time>
      </trkpt>
      <trkpt lat="45.29412" lon="6.14362">
        <ele>2665</ele>
        <time>2019-03-31T10:56:35Z</time>
      </trkpt>
      <trkpt lat="45.29413" lon="6.14364">
        <ele>2666.8</ele>
        <time>2019-03-31T10:56:40Z</time>
      </trkpt>
      <trkpt lat="45.29415" lon="6.14366">
        <ele>2666.4</ele>
        <time>2019-03-31T10:56:45Z</time>
      </trkpt>
      <trkpt lat="45.29416" lon="6.14368">
        <ele>2666.4</ele>
        <time>2019-03-31T10:56:50Z</time>
      </trkpt>
      <trkpt lat="45.29418" lon="6.14369">
        <ele>2667.4</ele>
        <time>2019-03-31T10:56:55Z</time>
      </trkpt>
      <trkpt lat="45.29419" lon="6.14371">
        <ele>2668.2</ele>
        <time>2019-03-31T10:57:00Z</time>
      </trkpt>
      <trkpt lat="45.2942" lon="6.14372">
        <ele>2672</ele>
        <time>2019-03-31T10:57:05Z</time>
      </trkpt>
      <trkpt lat="45.29421" lon="6.14374">
        <ele>2672.6</ele>
        <time>2019-03-31T10:57:10Z</time>
      </trkpt>
      <trkpt lat="45.29422" lon="6.14376">
        <ele>2674.6</ele>
        <time>2019-03-31T10:57:15Z</time>
      </trkpt>
      <trkpt lat="45.29423" lon="6.14377">
        <ele>2672.4</ele>
        <time>2019-03-31T10:57:20Z</time>
      </trkpt>
      <trkpt lat="45.29424" lon="6.14379">
        <ele>2675.2</ele>
        <time>2019-03-31T10:57:25Z</time>
      </trkpt>
      <trkpt lat="45.29425" lon="6.14381">
        <ele>2673.2</ele>
        <time>2019-03-31T10:57:30Z</time>
      </trkpt>
      <trkpt lat="45.29426" lon="6.14383">
        <ele>2673.8</ele>
        <time>2019-03-31T10:57:35Z</time>
      </trkpt>
      <trkpt lat="45.29427" lon="6.14385">
        <ele>2674</ele>
        <time>2019-03-31T10:57:40Z</time>
      </trkpt>
      <trkpt lat="45.29428" lon="6.14387">
        <ele>2675.2</ele>
        <time>2019-03-31T10:57:45Z</time>
      </trkpt>
      <trkpt lat="45.29429" lon="6.14389">
        <ele>2674</ele>
        <time>2019-03-31T10:57:50Z</time>
      </trkpt>
      <trkpt lat="45.2943" lon="6.14391">
        <ele>2673.2</ele>
        <time>2019-03-31T10:57:55Z</time>
      </trkpt>
      <trkpt lat="45.29431" lon="6.14393">
        <ele>2672.4</ele>
        <time>2019-03-31T10:58:00Z</time>
      </trkpt>
      <trkpt lat="45.29432" lon="6.14395">
        <ele>2672.2</ele>
        <time>2019-03-31T10:58:05Z</time>
      </trkpt>
      <trkpt lat="45.29432" lon="6.14398">
        <ele>2673.4</ele>
        <time>2019-03-31T10:58:10Z</time>
      </trkpt>
      <trkpt lat="45.29433" lon="6.14397">
        <ele>2675</ele>
        <time>2019-03-31T10:58:15Z</time>
      </trkpt>
      <trkpt lat="45.29434" lon="6.14395">
        <ele>2675.4</ele>
        <time>2019-03-31T10:58:20Z</time>
      </trkpt>
      <trkpt lat="45.29435" lon="6.14393">
        <ele>2676.4</ele>
        <time>2019-03-31T10:58:25Z</time>
      </trkpt>
      <trkpt lat="45.29437" lon="6.14391">
        <ele>2677</ele>
        <time>2019-03-31T10:58:30Z</time>
      </trkpt>
      <trkpt lat="45.29438" lon="6.1439">
        <ele>2676.8</ele>
        <time>2019-03-31T10:58:35Z</time>
      </trkpt>
      <trkpt lat="45.29439" lon="6.14388">
        <ele>2677.4</ele>
        <time>2019-03-31T10:58:40Z</time>
      </trkpt>
      <trkpt lat="45.2944" lon="6.14387">
        <ele>2677</ele>
        <time>2019-03-31T10:58:45Z</time>
      </trkpt>
      <trkpt lat="45.29441" lon="6.14386">
        <ele>2677.8</ele>
        <time>2019-03-31T10:58:50Z</time>
      </trkpt>
      <trkpt lat="45.29442" lon="6.14384">
        <ele>2677.6</ele>
        <time>2019-03-31T10:58:55Z</time>
      </trkpt>
      <trkpt lat="45.29444" lon="6.14383">
        <ele>2677.6</ele>
        <time>2019-03-31T10:59:00Z</time>
      </trkpt>
      <trkpt lat="45.29445" lon="6.14382">
        <ele>2677.2</ele>
        <time>2019-03-31T10:59:05Z</time>
      </trkpt>
      <trkpt lat="45.29447" lon="6.1438">
        <ele>2678</ele>
        <time>2019-03-31T10:59:10Z</time>
      </trkpt>
      <trkpt lat="45.29448" lon="6.14379">
        <ele>2678.6</ele>
        <time>2019-03-31T10:59:15Z</time>
      </trkpt>
      <trkpt lat="45.29449" lon="6.14378">
        <ele>2677</ele>
        <time>2019-03-31T10:59:20Z</time>
      </trkpt>
      <trkpt lat="45.29451" lon="6.14376">
        <ele>2678</ele>
        <time>2019-03-31T10:59:25Z</time>
      </trkpt>
      <trkpt lat="45.29452" lon="6.14375">
        <ele>2681</ele>
        <time>2019-03-31T10:59:30Z</time>
      </trkpt>
      <trkpt lat="45.29454" lon="6.14373">
        <ele>2681</ele>
        <time>2019-03-31T10:59:35Z</time>
      </trkpt>
      <trkpt lat="45.29455" lon="6.14372">
        <ele>2680.4</ele>
        <time>2019-03-31T10:59:40Z</time>
      </trkpt>
      <trkpt lat="45.29456" lon="6.14371">
        <ele>2681.2</ele>
        <time>2019-03-31T10:59:45Z</time>
      </trkpt>
      <trkpt lat="45.29458" lon="6.14369">
        <ele>2681.8</ele>
        <time>2019-03-31T10:59:50Z</time>
      </trkpt>
      <trkpt lat="45.29459" lon="6.14369">
        <ele>2682</ele>
        <time>2019-03-31T10:59:55Z</time>
      </trkpt>
      <trkpt lat="45.2946" lon="6.14367">
        <ele>2682.6</ele>
        <time>2019-03-31T11:00:00Z</time>
      </trkpt>
      <trkpt lat="45.29462" lon="6.14366">
        <ele>2684</ele>
        <time>2019-03-31T11:00:05Z</time>
      </trkpt>
      <trkpt lat="45.29464" lon="6.14365">
        <ele>2682.8</ele>
        <time>2019-03-31T11:00:10Z</time>
      </trkpt>
      <trkpt lat="45.29466" lon="6.14363">
        <ele>2681.8</ele>
        <time>2019-03-31T11:00:16Z</time>
      </trkpt>
      <trkpt lat="45.29467" lon="6.14363">
        <ele>2683</ele>
        <time>2019-03-31T11:00:21Z</time>
      </trkpt>
      <trkpt lat="45.29468" lon="6.14362">
        <ele>2682</ele>
        <time>2019-03-31T11:00:26Z</time>
      </trkpt>
      <trkpt lat="45.29469" lon="6.14361">
        <ele>2683.2</ele>
        <time>2019-03-31T11:00:31Z</time>
      </trkpt>
      <trkpt lat="45.29471" lon="6.14361">
        <ele>2682.8</ele>
        <time>2019-03-31T11:00:36Z</time>
      </trkpt>
      <trkpt lat="45.29472" lon="6.14358">
        <ele>2683.8</ele>
        <time>2019-03-31T11:00:41Z</time>
      </trkpt>
      <trkpt lat="45.29473" lon="6.14358">
        <ele>2685.4</ele>
        <time>2019-03-31T11:00:46Z</time>
      </trkpt>
      <trkpt lat="45.29475" lon="6.14357">
        <ele>2686.8</ele>
        <time>2019-03-31T11:00:51Z</time>
      </trkpt>
      <trkpt lat="45.29476" lon="6.14355">
        <ele>2685.8</ele>
        <time>2019-03-31T11:00:56Z</time>
      </trkpt>
      <trkpt lat="45.29477" lon="6.14353">
        <ele>2686.6</ele>
        <time>2019-03-31T11:01:01Z</time>
      </trkpt>
      <trkpt lat="45.29478" lon="6.14351">
        <ele>2688.4</ele>
        <time>2019-03-31T11:01:06Z</time>
      </trkpt>
      <trkpt lat="45.29479" lon="6.14353">
        <ele>2689.2</ele>
        <time>2019-03-31T11:01:11Z</time>
      </trkpt>
      <trkpt lat="45.2948" lon="6.14356">
        <ele>2688.8</ele>
        <time>2019-03-31T11:01:16Z</time>
      </trkpt>
      <trkpt lat="45.2948" lon="6.14359">
        <ele>2690.6</ele>
        <time>2019-03-31T11:01:21Z</time>
      </trkpt>
      <trkpt lat="45.29481" lon="6.14362">
        <ele>2691.6</ele>
        <time>2019-03-31T11:01:26Z</time>
      </trkpt>
      <trkpt lat="45.29481" lon="6.14365">
        <ele>2693.4</ele>
        <time>2019-03-31T11:01:31Z</time>
      </trkpt>
      <trkpt lat="45.29481" lon="6.14368">
        <ele>2692.6</ele>
        <time>2019-03-31T11:01:36Z</time>
      </trkpt>
      <trkpt lat="45.29481" lon="6.14371">
        <ele>2693.8</ele>
        <time>2019-03-31T11:01:41Z</time>
      </trkpt>
      <trkpt lat="45.29481" lon="6.14374">
        <ele>2695.6</ele>
        <time>2019-03-31T11:01:46Z</time>
      </trkpt>
      <trkpt lat="45.29481" lon="6.14377">
        <ele>2695.4</ele>
        <time>2019-03-31T11:01:51Z</time>
      </trkpt>
      <trkpt lat="45.2948" lon="6.1438">
        <ele>2696.2</ele>
        <time>2019-03-31T11:01:56Z</time>
      </trkpt>
      <trkpt lat="45.2948" lon="6.14383">
        <ele>2697</ele>
        <time>2019-03-31T11:02:01Z</time>
      </trkpt>
      <trkpt lat="45.2948" lon="6.14385">
        <ele>2701.6</ele>
        <time>2019-03-31T11:02:06Z</time>
      </trkpt>
      <trkpt lat="45.29479" lon="6.14391">
        <ele>2704</ele>
        <time>2019-03-31T11:02:11Z</time>
      </trkpt>
      <trkpt lat="45.29478" lon="6.14397">
        <ele>2704.6</ele>
        <time>2019-03-31T11:02:16Z</time>
      </trkpt>
      <trkpt lat="45.29478" lon="6.14402">
        <ele>2709</ele>
        <time>2019-03-31T11:02:21Z</time>
      </trkpt>
      <trkpt lat="45.29477" lon="6.14405">
        <ele>2712.6</ele>
        <time>2019-03-31T11:02:26Z</time>
      </trkpt>
      <trkpt lat="45.29477" lon="6.14408">
        <ele>2713.6</ele>
        <time>2019-03-31T11:02:31Z</time>
      </trkpt>
      <trkpt lat="45.29477" lon="6.1441">
        <ele>2714.4</ele>
        <time>2019-03-31T11:02:36Z</time>
      </trkpt>
      <trkpt lat="45.29477" lon="6.14412">
        <ele>2717</ele>
        <time>2019-03-31T11:02:41Z</time>
      </trkpt>
      <trkpt lat="45.29478" lon="6.14413">
        <ele>2719.8</ele>
        <time>2019-03-31T11:02:46Z</time>
      </trkpt>
      <trkpt lat="45.29479" lon="6.14412">
        <ele>2719.6</ele>
        <time>2019-03-31T11:02:51Z</time>
      </trkpt>
      <trkpt lat="45.29479" lon="6.14408">
        <ele>2720.6</ele>
        <time>2019-03-31T11:02:56Z</time>
      </trkpt>
      <trkpt lat="45.29481" lon="6.14405">
        <ele>2721.2</ele>
        <time>2019-03-31T11:03:01Z</time>
      </trkpt>
      <trkpt lat="45.29482" lon="6.14402">
        <ele>2720.8</ele>
        <time>2019-03-31T11:03:06Z</time>
      </trkpt>
      <trkpt lat="45.29483" lon="6.144">
        <ele>2720</ele>
        <time>2019-03-31T11:03:11Z</time>
      </trkpt>
      <trkpt lat="45.29483" lon="6.14397">
        <ele>2720.2</ele>
        <time>2019-03-31T11:03:16Z</time>
      </trkpt>
      <trkpt lat="45.29484" lon="6.14394">
        <ele>2720</ele>
        <time>2019-03-31T11:03:21Z</time>
      </trkpt>
      <trkpt lat="45.29486" lon="6.14391">
        <ele>2721</ele>
        <time>2019-03-31T11:03:26Z</time>
      </trkpt>
      <trkpt lat="45.29487" lon="6.14389">
        <ele>2721</ele>
        <time>2019-03-31T11:03:31Z</time>
      </trkpt>
      <trkpt lat="45.29489" lon="6.14387">
        <ele>2721</ele>
        <time>2019-03-31T11:03:36Z</time>
      </trkpt>
      <trkpt lat="45.2949" lon="6.14385">
        <ele>2718.6</ele>
        <time>2019-03-31T11:03:41Z</time>
      </trkpt>
      <trkpt lat="45.29492" lon="6.14383">
        <ele>2718.2</ele>
        <time>2019-03-31T11:03:46Z</time>
      </trkpt>
      <trkpt lat="45.29494" lon="6.14382">
        <ele>2716.6</ele>
        <time>2019-03-31T11:03:51Z</time>
      </trkpt>
      <trkpt lat="45.29495" lon="6.1438">
        <ele>2717.2</ele>
        <time>2019-03-31T11:03:56Z</time>
      </trkpt>
      <trkpt lat="45.29497" lon="6.14379">
        <ele>2718</ele>
        <time>2019-03-31T11:04:01Z</time>
      </trkpt>
      <trkpt lat="45.29498" lon="6.14377">
        <ele>2718.8</ele>
        <time>2019-03-31T11:04:06Z</time>
      </trkpt>
      <trkpt lat="45.295" lon="6.14375">
        <ele>2718</ele>
        <time>2019-03-31T11:04:11Z</time>
      </trkpt>
      <trkpt lat="45.29501" lon="6.14373">
        <ele>2718.6</ele>
        <time>2019-03-31T11:04:16Z</time>
      </trkpt>
      <trkpt lat="45.29503" lon="6.14371">
        <ele>2721.2</ele>
        <time>2019-03-31T11:04:21Z</time>
      </trkpt>
      <trkpt lat="45.29503" lon="6.14372">
        <ele>2721</ele>
        <time>2019-03-31T11:04:26Z</time>
      </trkpt>
      <trkpt lat="45.29503" lon="6.14374">
        <ele>2719.6</ele>
        <time>2019-03-31T11:04:31Z</time>
      </trkpt>
      <trkpt lat="45.29504" lon="6.14377">
        <ele>2719.6</ele>
        <time>2019-03-31T11:04:36Z</time>
      </trkpt>
      <trkpt lat="45.29504" lon="6.1438">
        <ele>2716.4</ele>
        <time>2019-03-31T11:04:41Z</time>
      </trkpt>
      <trkpt lat="45.29504" lon="6.14383">
        <ele>2717.2</ele>
        <time>2019-03-31T11:04:46Z</time>
      </trkpt>
      <trkpt lat="45.29504" lon="6.14386">
        <ele>2717.4</ele>
        <time>2019-03-31T11:04:51Z</time>
      </trkpt>
      <trkpt lat="45.29505" lon="6.14388">
        <ele>2718</ele>
        <time>2019-03-31T11:04:56Z</time>
      </trkpt>
      <trkpt lat="45.29505" lon="6.14389">
        <ele>2719.4</ele>
        <time>2019-03-31T11:05:01Z</time>
      </trkpt>
      <trkpt lat="45.29504" lon="6.14392">
        <ele>2718</ele>
        <time>2019-03-31T11:05:06Z</time>
      </trkpt>
      <trkpt lat="45.29505" lon="6.14392">
        <ele>2718.6</ele>
        <time>2019-03-31T11:05:16Z</time>
      </trkpt>
      <trkpt lat="45.29506" lon="6.1439">
        <ele>2720.8</ele>
        <time>2019-03-31T11:05:21Z</time>
      </trkpt>
      <trkpt lat="45.29508" lon="6.14387">
        <ele>2718.4</ele>
        <time>2019-03-31T11:05:27Z</time>
      </trkpt>
      <trkpt lat="45.29509" lon="6.14384">
        <ele>2719.4</ele>
        <time>2019-03-31T11:05:32Z</time>
      </trkpt>
      <trkpt lat="45.2951" lon="6.14382">
        <ele>2719.2</ele>
        <time>2019-03-31T11:05:37Z</time>
      </trkpt>
      <trkpt lat="45.29512" lon="6.1438">
        <ele>2719.2</ele>
        <time>2019-03-31T11:05:42Z</time>
      </trkpt>
      <trkpt lat="45.29513" lon="6.14377">
        <ele>2720.4</ele>
        <time>2019-03-31T11:05:47Z</time>
      </trkpt>
      <trkpt lat="45.29515" lon="6.14374">
        <ele>2720.6</ele>
        <time>2019-03-31T11:05:52Z</time>
      </trkpt>
      <trkpt lat="45.29516" lon="6.14372">
        <ele>2716.8</ele>
        <time>2019-03-31T11:05:57Z</time>
      </trkpt>
      <trkpt lat="45.29517" lon="6.14369">
        <ele>2716.8</ele>
        <time>2019-03-31T11:06:02Z</time>
      </trkpt>
      <trkpt lat="45.29518" lon="6.14367">
        <ele>2718</ele>
        <time>2019-03-31T11:06:07Z</time>
      </trkpt>
      <trkpt lat="45.29519" lon="6.14364">
        <ele>2719.8</ele>
        <time>2019-03-31T11:06:12Z</time>
      </trkpt>
      <trkpt lat="45.2952" lon="6.14361">
        <ele>2722.8</ele>
        <time>2019-03-31T11:06:17Z</time>
      </trkpt>
      <trkpt lat="45.29521" lon="6.14362">
        <ele>2721.6</ele>
        <time>2019-03-31T11:06:27Z</time>
      </trkpt>
      <trkpt lat="45.29521" lon="6.14363">
        <ele>2721.2</ele>
        <time>2019-03-31T11:06:32Z</time>
      </trkpt>
      <trkpt lat="45.29522" lon="6.14365">
        <ele>2718.6</ele>
        <time>2019-03-31T11:06:37Z</time>
      </trkpt>
      <trkpt lat="45.29523" lon="6.14368">
        <ele>2720.6</ele>
        <time>2019-03-31T11:06:42Z</time>
      </trkpt>
      <trkpt lat="45.29523" lon="6.1437">
        <ele>2720.8</ele>
        <time>2019-03-31T11:06:47Z</time>
      </trkpt>
      <trkpt lat="45.29523" lon="6.14373">
        <ele>2719.8</ele>
        <time>2019-03-31T11:06:52Z</time>
      </trkpt>
      <trkpt lat="45.29524" lon="6.14375">
        <ele>2720.4</ele>
        <time>2019-03-31T11:06:57Z</time>
      </trkpt>
      <trkpt lat="45.29524" lon="6.14378">
        <ele>2720.8</ele>
        <time>2019-03-31T11:07:22Z</time>
      </trkpt>
      <trkpt lat="45.29524" lon="6.1438">
        <ele>2721.8</ele>
        <time>2019-03-31T11:07:37Z</time>
      </trkpt>
      <trkpt lat="45.29524" lon="6.1438">
        <ele>2721.6</ele>
        <time>2019-03-31T11:07:42Z</time>
      </trkpt>
      <trkpt lat="45.29525" lon="6.14378">
        <ele>2719.4</ele>
        <time>2019-03-31T11:07:47Z</time>
      </trkpt>
      <trkpt lat="45.29526" lon="6.14377">
        <ele>2721.2</ele>
        <time>2019-03-31T11:08:02Z</time>
      </trkpt>
      <trkpt lat="45.29526" lon="6.14376">
        <ele>2721.4</ele>
        <time>2019-03-31T11:08:07Z</time>
      </trkpt>
      <trkpt lat="45.29527" lon="6.14372">
        <ele>2722.8</ele>
        <time>2019-03-31T11:08:12Z</time>
      </trkpt>
      <trkpt lat="45.29529" lon="6.14369">
        <ele>2724.2</ele>
        <time>2019-03-31T11:08:17Z</time>
      </trkpt>
      <trkpt lat="45.2953" lon="6.14366">
        <ele>2722.4</ele>
        <time>2019-03-31T11:08:22Z</time>
      </trkpt>
      <trkpt lat="45.29532" lon="6.14363">
        <ele>2721.8</ele>
        <time>2019-03-31T11:08:27Z</time>
      </trkpt>
      <trkpt lat="45.29532" lon="6.1436">
        <ele>2722</ele>
        <time>2019-03-31T11:08:32Z</time>
      </trkpt>
      <trkpt lat="45.29533" lon="6.14357">
        <ele>2723.4</ele>
        <time>2019-03-31T11:08:37Z</time>
      </trkpt>
      <trkpt lat="45.29533" lon="6.14354">
        <ele>2723</ele>
        <time>2019-03-31T11:08:42Z</time>
      </trkpt>
      <trkpt lat="45.29533" lon="6.14352">
        <ele>2723.4</ele>
        <time>2019-03-31T11:08:47Z</time>
      </trkpt>
      <trkpt lat="45.29533" lon="6.1435">
        <ele>2725.2</ele>
        <time>2019-03-31T11:08:52Z</time>
      </trkpt>
      <trkpt lat="45.29533" lon="6.14347">
        <ele>2725</ele>
        <time>2019-03-31T11:08:57Z</time>
      </trkpt>
      <trkpt lat="45.29533" lon="6.14345">
        <ele>2727.8</ele>
        <time>2019-03-31T11:09:02Z</time>
      </trkpt>
      <trkpt lat="45.29533" lon="6.14342">
        <ele>2727.8</ele>
        <time>2019-03-31T11:09:07Z</time>
      </trkpt>
      <trkpt lat="45.29533" lon="6.1434">
        <ele>2726</ele>
        <time>2019-03-31T11:09:12Z</time>
      </trkpt>
      <trkpt lat="45.29533" lon="6.14339">
        <ele>2727.2</ele>
        <time>2019-03-31T11:09:17Z</time>
      </trkpt>
      <trkpt lat="45.29532" lon="6.14336">
        <ele>2727.2</ele>
        <time>2019-03-31T11:09:22Z</time>
      </trkpt>
      <trkpt lat="45.29531" lon="6.14334">
        <ele>2726.6</ele>
        <time>2019-03-31T11:09:27Z</time>
      </trkpt>
      <trkpt lat="45.29531" lon="6.14333">
        <ele>2728.4</ele>
        <time>2019-03-31T11:09:57Z</time>
      </trkpt>
      <trkpt lat="45.29531" lon="6.14332">
        <ele>2727</ele>
        <time>2019-03-31T11:10:02Z</time>
      </trkpt>
      <trkpt lat="45.2953" lon="6.1433">
        <ele>2727.6</ele>
        <time>2019-03-31T11:10:07Z</time>
      </trkpt>
      <trkpt lat="45.29531" lon="6.1433">
        <ele>2729.2</ele>
        <time>2019-03-31T11:10:27Z</time>
      </trkpt>
      <trkpt lat="45.29532" lon="6.1433">
        <ele>2730</ele>
        <time>2019-03-31T11:10:32Z</time>
      </trkpt>
      <trkpt lat="45.29533" lon="6.14331">
        <ele>2729</ele>
        <time>2019-03-31T11:10:37Z</time>
      </trkpt>
      <trkpt lat="45.29535" lon="6.14332">
        <ele>2731</ele>
        <time>2019-03-31T11:10:42Z</time>
      </trkpt>
      <trkpt lat="45.29536" lon="6.14333">
        <ele>2731.8</ele>
        <time>2019-03-31T11:10:47Z</time>
      </trkpt>
      <trkpt lat="45.29537" lon="6.14334">
        <ele>2730.4</ele>
        <time>2019-03-31T11:10:52Z</time>
      </trkpt>
      <trkpt lat="45.29539" lon="6.14336">
        <ele>2730</ele>
        <time>2019-03-31T11:10:57Z</time>
      </trkpt>
      <trkpt lat="45.29541" lon="6.14338">
        <ele>2732.4</ele>
        <time>2019-03-31T11:11:02Z</time>
      </trkpt>
      <trkpt lat="45.29541" lon="6.14339">
        <ele>2733.4</ele>
        <time>2019-03-31T11:11:07Z</time>
      </trkpt>
      <trkpt lat="45.29543" lon="6.1434">
        <ele>2734</ele>
        <time>2019-03-31T11:11:12Z</time>
      </trkpt>
      <trkpt lat="45.29544" lon="6.14343">
        <ele>2736</ele>
        <time>2019-03-31T11:11:17Z</time>
      </trkpt>
      <trkpt lat="45.29545" lon="6.14344">
        <ele>2733.8</ele>
        <time>2019-03-31T11:11:22Z</time>
      </trkpt>
      <trkpt lat="45.29547" lon="6.14347">
        <ele>2736</ele>
        <time>2019-03-31T11:11:27Z</time>
      </trkpt>
      <trkpt lat="45.29548" lon="6.14351">
        <ele>2735.2</ele>
        <time>2019-03-31T11:11:32Z</time>
      </trkpt>
      <trkpt lat="45.29549" lon="6.14354">
        <ele>2735.4</ele>
        <time>2019-03-31T11:11:37Z</time>
      </trkpt>
      <trkpt lat="45.2955" lon="6.14357">
        <ele>2737.4</ele>
        <time>2019-03-31T11:11:42Z</time>
      </trkpt>
      <trkpt lat="45.2955" lon="6.14358">
        <ele>2737.4</ele>
        <time>2019-03-31T11:11:57Z</time>
      </trkpt>
      <trkpt lat="45.29551" lon="6.1436">
        <ele>2737.6</ele>
        <time>2019-03-31T11:12:02Z</time>
      </trkpt>
      <trkpt lat="45.29552" lon="6.14363">
        <ele>2737.6</ele>
        <time>2019-03-31T11:12:07Z</time>
      </trkpt>
      <trkpt lat="45.29552" lon="6.14365">
        <ele>2738.2</ele>
        <time>2019-03-31T11:12:17Z</time>
      </trkpt>
      <trkpt lat="45.29553" lon="6.14365">
        <ele>2738.4</ele>
        <time>2019-03-31T11:12:22Z</time>
      </trkpt>
      <trkpt lat="45.29553" lon="6.14364">
        <ele>2738.6</ele>
        <time>2019-03-31T11:12:27Z</time>
      </trkpt>
      <trkpt lat="45.29553" lon="6.14362">
        <ele>2738.8</ele>
        <time>2019-03-31T11:12:32Z</time>
      </trkpt>
      <trkpt lat="45.29554" lon="6.1436">
        <ele>2738.8</ele>
        <time>2019-03-31T11:12:37Z</time>
      </trkpt>
      <trkpt lat="45.29555" lon="6.14357">
        <ele>2742.6</ele>
        <time>2019-03-31T11:12:42Z</time>
      </trkpt>
      <trkpt lat="45.29556" lon="6.14354">
        <ele>2741.2</ele>
        <time>2019-03-31T11:12:47Z</time>
      </trkpt>
      <trkpt lat="45.29556" lon="6.14352">
        <ele>2739.2</ele>
        <time>2019-03-31T11:12:52Z</time>
      </trkpt>
      <trkpt lat="45.29557" lon="6.14349">
        <ele>2739</ele>
        <time>2019-03-31T11:12:57Z</time>
      </trkpt>
      <trkpt lat="45.29557" lon="6.14346">
        <ele>2740.2</ele>
        <time>2019-03-31T11:13:02Z</time>
      </trkpt>
      <trkpt lat="45.29557" lon="6.14343">
        <ele>2740.4</ele>
        <time>2019-03-31T11:13:07Z</time>
      </trkpt>
      <trkpt lat="45.29558" lon="6.14341">
        <ele>2741.4</ele>
        <time>2019-03-31T11:13:12Z</time>
      </trkpt>
      <trkpt lat="45.29558" lon="6.14338">
        <ele>2739.8</ele>
        <time>2019-03-31T11:13:17Z</time>
      </trkpt>
      <trkpt lat="45.29558" lon="6.14336">
        <ele>2740.2</ele>
        <time>2019-03-31T11:13:22Z</time>
      </trkpt>
      <trkpt lat="45.29558" lon="6.14333">
        <ele>2739.2</ele>
        <time>2019-03-31T11:13:27Z</time>
      </trkpt>
      <trkpt lat="45.29558" lon="6.14333">
        <ele>2740</ele>
        <time>2019-03-31T11:13:32Z</time>
      </trkpt>
      <trkpt lat="45.29557" lon="6.14332">
        <ele>2741.2</ele>
        <time>2019-03-31T11:13:37Z</time>
      </trkpt>
      <trkpt lat="45.29557" lon="6.14329">
        <ele>2742.8</ele>
        <time>2019-03-31T11:13:42Z</time>
      </trkpt>
      <trkpt lat="45.29557" lon="6.14326">
        <ele>2741</ele>
        <time>2019-03-31T11:13:47Z</time>
      </trkpt>
      <trkpt lat="45.29557" lon="6.14324">
        <ele>2741.8</ele>
        <time>2019-03-31T11:13:52Z</time>
      </trkpt>
      <trkpt lat="45.29556" lon="6.14322">
        <ele>2742.4</ele>
        <time>2019-03-31T11:13:57Z</time>
      </trkpt>
      <trkpt lat="45.29557" lon="6.1432">
        <ele>2740.2</ele>
        <time>2019-03-31T11:14:02Z</time>
      </trkpt>
      <trkpt lat="45.29558" lon="6.14319">
        <ele>2742</ele>
        <time>2019-03-31T11:14:07Z</time>
      </trkpt>
      <trkpt lat="45.29558" lon="6.14319">
        <ele>2743.4</ele>
        <time>2019-03-31T11:14:12Z</time>
      </trkpt>
      <trkpt lat="45.2956" lon="6.1432">
        <ele>2746.6</ele>
        <time>2019-03-31T11:14:17Z</time>
      </trkpt>
      <trkpt lat="45.29562" lon="6.14321">
        <ele>2746.6</ele>
        <time>2019-03-31T11:14:22Z</time>
      </trkpt>
      <trkpt lat="45.29563" lon="6.14322">
        <ele>2749.4</ele>
        <time>2019-03-31T11:14:27Z</time>
      </trkpt>
      <trkpt lat="45.29564" lon="6.14323">
        <ele>2748.6</ele>
        <time>2019-03-31T11:14:32Z</time>
      </trkpt>
      <trkpt lat="45.29565" lon="6.14324">
        <ele>2750.2</ele>
        <time>2019-03-31T11:14:37Z</time>
      </trkpt>
      <trkpt lat="45.29566" lon="6.14326">
        <ele>2748.8</ele>
        <time>2019-03-31T11:14:42Z</time>
      </trkpt>
      <trkpt lat="45.29567" lon="6.14327">
        <ele>2747</ele>
        <time>2019-03-31T11:14:47Z</time>
      </trkpt>
      <trkpt lat="45.29567" lon="6.14328">
        <ele>2749</ele>
        <time>2019-03-31T11:15:22Z</time>
      </trkpt>
      <trkpt lat="45.29568" lon="6.1433">
        <ele>2746.6</ele>
        <time>2019-03-31T11:15:27Z</time>
      </trkpt>
      <trkpt lat="45.29568" lon="6.1433">
        <ele>2747.8</ele>
        <time>2019-03-31T11:15:32Z</time>
      </trkpt>
      <trkpt lat="45.29569" lon="6.14328">
        <ele>2748.8</ele>
        <time>2019-03-31T11:15:37Z</time>
      </trkpt>
      <trkpt lat="45.29569" lon="6.14328">
        <ele>2750</ele>
        <time>2019-03-31T11:15:52Z</time>
      </trkpt>
      <trkpt lat="45.2957" lon="6.14325">
        <ele>2752.4</ele>
        <time>2019-03-31T11:15:57Z</time>
      </trkpt>
      <trkpt lat="45.29571" lon="6.14322">
        <ele>2751.4</ele>
        <time>2019-03-31T11:16:02Z</time>
      </trkpt>
      <trkpt lat="45.29572" lon="6.1432">
        <ele>2751.4</ele>
        <time>2019-03-31T11:16:07Z</time>
      </trkpt>
      <trkpt lat="45.29572" lon="6.14317">
        <ele>2753.8</ele>
        <time>2019-03-31T11:16:12Z</time>
      </trkpt>
      <trkpt lat="45.29573" lon="6.14317">
        <ele>2754.2</ele>
        <time>2019-03-31T11:16:17Z</time>
      </trkpt>
      <trkpt lat="45.29574" lon="6.14318">
        <ele>2753.8</ele>
        <time>2019-03-31T11:16:22Z</time>
      </trkpt>
      <trkpt lat="45.29575" lon="6.14321">
        <ele>2754.6</ele>
        <time>2019-03-31T11:16:27Z</time>
      </trkpt>
      <trkpt lat="45.29576" lon="6.14324">
        <ele>2756.6</ele>
        <time>2019-03-31T11:16:32Z</time>
      </trkpt>
      <trkpt lat="45.29576" lon="6.14327">
        <ele>2757</ele>
        <time>2019-03-31T11:16:37Z</time>
      </trkpt>
      <trkpt lat="45.29576" lon="6.14328">
        <ele>2755.8</ele>
        <time>2019-03-31T11:16:52Z</time>
      </trkpt>
      <trkpt lat="45.29576" lon="6.14326">
        <ele>2753.4</ele>
        <time>2019-03-31T11:16:57Z</time>
      </trkpt>
      <trkpt lat="45.29577" lon="6.14325">
        <ele>2753.8</ele>
        <time>2019-03-31T11:17:02Z</time>
      </trkpt>
      <trkpt lat="45.29577" lon="6.14325">
        <ele>2755</ele>
        <time>2019-03-31T11:17:27Z</time>
      </trkpt>
      <trkpt lat="45.29578" lon="6.14323">
        <ele>2755.6</ele>
        <time>2019-03-31T11:17:32Z</time>
      </trkpt>
      <trkpt lat="45.29579" lon="6.1432">
        <ele>2755.8</ele>
        <time>2019-03-31T11:17:37Z</time>
      </trkpt>
      <trkpt lat="45.2958" lon="6.14318">
        <ele>2754.2</ele>
        <time>2019-03-31T11:17:42Z</time>
      </trkpt>
      <trkpt lat="45.29581" lon="6.14317">
        <ele>2756</ele>
        <time>2019-03-31T11:17:47Z</time>
      </trkpt>
      <trkpt lat="45.29581" lon="6.14319">
        <ele>2759</ele>
        <time>2019-03-31T11:17:52Z</time>
      </trkpt>
      <trkpt lat="45.29583" lon="6.14317">
        <ele>2757.2</ele>
        <time>2019-03-31T11:17:57Z</time>
      </trkpt>
      <trkpt lat="45.29584" lon="6.14317">
        <ele>2759</ele>
        <time>2019-03-31T11:18:02Z</time>
      </trkpt>
      <trkpt lat="45.29585" lon="6.1432">
        <ele>2758.6</ele>
        <time>2019-03-31T11:18:07Z</time>
      </trkpt>
      <trkpt lat="45.29586" lon="6.14319">
        <ele>2760.4</ele>
        <time>2019-03-31T11:18:12Z</time>
      </trkpt>
      <trkpt lat="45.29587" lon="6.14319">
        <ele>2761</ele>
        <time>2019-03-31T11:18:22Z</time>
      </trkpt>
      <trkpt lat="45.29587" lon="6.14323">
        <ele>2763.6</ele>
        <time>2019-03-31T11:18:27Z</time>
      </trkpt>
      <trkpt lat="45.29587" lon="6.14327">
        <ele>2764.6</ele>
        <time>2019-03-31T11:18:32Z</time>
      </trkpt>
      <trkpt lat="45.29587" lon="6.14329">
        <ele>2763.8</ele>
        <time>2019-03-31T11:18:37Z</time>
      </trkpt>
      <trkpt lat="45.29587" lon="6.14329">
        <ele>2763.8</ele>
        <time>2019-03-31T11:18:42Z</time>
      </trkpt>
      <trkpt lat="45.29588" lon="6.14333">
        <ele>2763.6</ele>
        <time>2019-03-31T11:18:47Z</time>
      </trkpt>
      <trkpt lat="45.29588" lon="6.14338">
        <ele>2764.8</ele>
        <time>2019-03-31T11:18:52Z</time>
      </trkpt>
      <trkpt lat="45.29588" lon="6.14346">
        <ele>2764</ele>
        <time>2019-03-31T11:18:57Z</time>
      </trkpt>
      <trkpt lat="45.29587" lon="6.14353">
        <ele>2763</ele>
        <time>2019-03-31T11:19:02Z</time>
      </trkpt>
      <trkpt lat="45.29587" lon="6.14357">
        <ele>2766</ele>
        <time>2019-03-31T11:19:07Z</time>
      </trkpt>
      <trkpt lat="45.29587" lon="6.14358">
        <ele>2766.4</ele>
        <time>2019-03-31T11:19:12Z</time>
      </trkpt>
      <trkpt lat="45.29587" lon="6.14358">
        <ele>2766</ele>
        <time>2019-03-31T11:19:17Z</time>
      </trkpt>
      <trkpt lat="45.29588" lon="6.14358">
        <ele>2765.8</ele>
        <time>2019-03-31T11:50:38Z</time>
      </trkpt>
      <trkpt lat="45.29588" lon="6.14358">
        <ele>2765.8</ele>
        <time>2019-03-31T11:50:48Z</time>
      </trkpt>
      <trkpt lat="45.29591" lon="6.14352">
        <ele>2765.6</ele>
        <time>2019-03-31T11:50:53Z</time>
      </trkpt>
      <trkpt lat="45.29597" lon="6.1435">
        <ele>2764</ele>
        <time>2019-03-31T11:50:58Z</time>
      </trkpt>
      <trkpt lat="45.29597" lon="6.1435">
        <ele>2764.2</ele>
        <time>2019-03-31T11:51:28Z</time>
      </trkpt>
      <trkpt lat="45.29599" lon="6.14353">
        <ele>2761</ele>
        <time>2019-03-31T11:51:33Z</time>
      </trkpt>
      <trkpt lat="45.29607" lon="6.14375">
        <ele>2755.2</ele>
        <time>2019-03-31T11:51:38Z</time>
      </trkpt>
      <trkpt lat="45.29615" lon="6.14378">
        <ele>2750.2</ele>
        <time>2019-03-31T11:51:43Z</time>
      </trkpt>
      <trkpt lat="45.29625" lon="6.14386">
        <ele>2751</ele>
        <time>2019-03-31T11:51:48Z</time>
      </trkpt>
      <trkpt lat="45.29628" lon="6.14383">
        <ele>2752.8</ele>
        <time>2019-03-31T11:51:53Z</time>
      </trkpt>
      <trkpt lat="45.29629" lon="6.14379">
        <ele>2753.2</ele>
        <time>2019-03-31T11:51:58Z</time>
      </trkpt>
      <trkpt lat="45.29632" lon="6.14376">
        <ele>2749</ele>
        <time>2019-03-31T11:52:03Z</time>
      </trkpt>
      <trkpt lat="45.29645" lon="6.14379">
        <ele>2742.4</ele>
        <time>2019-03-31T11:52:08Z</time>
      </trkpt>
      <trkpt lat="45.29662" lon="6.14389">
        <ele>2735.6</ele>
        <time>2019-03-31T11:52:13Z</time>
      </trkpt>
      <trkpt lat="45.29681" lon="6.14388">
        <ele>2728.8</ele>
        <time>2019-03-31T11:52:18Z</time>
      </trkpt>
      <trkpt lat="45.29708" lon="6.1437">
        <ele>2726.4</ele>
        <time>2019-03-31T11:52:23Z</time>
      </trkpt>
      <trkpt lat="45.2973" lon="6.14367">
        <ele>2722.6</ele>
        <time>2019-03-31T11:52:28Z</time>
      </trkpt>
      <trkpt lat="45.29735" lon="6.14384">
        <ele>2709.2</ele>
        <time>2019-03-31T11:52:33Z</time>
      </trkpt>
      <trkpt lat="45.29737" lon="6.14411">
        <ele>2698.4</ele>
        <time>2019-03-31T11:52:38Z</time>
      </trkpt>
      <trkpt lat="45.29759" lon="6.14424">
        <ele>2690.8</ele>
        <time>2019-03-31T11:52:43Z</time>
      </trkpt>
      <trkpt lat="45.29756" lon="6.14438">
        <ele>2690</ele>
        <time>2019-03-31T11:52:48Z</time>
      </trkpt>
      <trkpt lat="45.29756" lon="6.1444">
        <ele>2690.8</ele>
        <time>2019-03-31T11:52:53Z</time>
      </trkpt>
      <trkpt lat="45.29752" lon="6.14441">
        <ele>2692.6</ele>
        <time>2019-03-31T11:52:58Z</time>
      </trkpt>
      <trkpt lat="45.29751" lon="6.14442">
        <ele>2694.2</ele>
        <time>2019-03-31T11:53:03Z</time>
      </trkpt>
      <trkpt lat="45.29751" lon="6.14444">
        <ele>2697.6</ele>
        <time>2019-03-31T11:53:08Z</time>
      </trkpt>
      <trkpt lat="45.29747" lon="6.1446">
        <ele>2696.8</ele>
        <time>2019-03-31T11:53:13Z</time>
      </trkpt>
      <trkpt lat="45.29734" lon="6.14497">
        <ele>2693</ele>
        <time>2019-03-31T11:53:18Z</time>
      </trkpt>
      <trkpt lat="45.29741" lon="6.14505">
        <ele>2688</ele>
        <time>2019-03-31T11:53:23Z</time>
      </trkpt>
      <trkpt lat="45.29781" lon="6.14495">
        <ele>2681.8</ele>
        <time>2019-03-31T11:53:28Z</time>
      </trkpt>
      <trkpt lat="45.298" lon="6.14533">
        <ele>2682.6</ele>
        <time>2019-03-31T11:53:33Z</time>
      </trkpt>
      <trkpt lat="45.29803" lon="6.14566">
        <ele>2676.2</ele>
        <time>2019-03-31T11:53:38Z</time>
      </trkpt>
      <trkpt lat="45.29809" lon="6.14586">
        <ele>2675.6</ele>
        <time>2019-03-31T11:53:43Z</time>
      </trkpt>
      <trkpt lat="45.29807" lon="6.14591">
        <ele>2681</ele>
        <time>2019-03-31T11:53:48Z</time>
      </trkpt>
      <trkpt lat="45.29807" lon="6.1459">
        <ele>2690.6</ele>
        <time>2019-03-31T11:54:03Z</time>
      </trkpt>
      <trkpt lat="45.29806" lon="6.1459">
        <ele>2692</ele>
        <time>2019-03-31T11:54:08Z</time>
      </trkpt>
      <trkpt lat="45.29805" lon="6.1459">
        <ele>2692.8</ele>
        <time>2019-03-31T11:54:13Z</time>
      </trkpt>
      <trkpt lat="45.29804" lon="6.14591">
        <ele>2693</ele>
        <time>2019-03-31T11:54:18Z</time>
      </trkpt>
      <trkpt lat="45.29802" lon="6.14592">
        <ele>2692.8</ele>
        <time>2019-03-31T11:54:23Z</time>
      </trkpt>
      <trkpt lat="45.29798" lon="6.14592">
        <ele>2692.6</ele>
        <time>2019-03-31T11:54:28Z</time>
      </trkpt>
      <trkpt lat="45.29794" lon="6.14594">
        <ele>2691</ele>
        <time>2019-03-31T11:54:33Z</time>
      </trkpt>
      <trkpt lat="45.29791" lon="6.14594">
        <ele>2688.2</ele>
        <time>2019-03-31T11:54:38Z</time>
      </trkpt>
      <trkpt lat="45.29788" lon="6.14595">
        <ele>2686</ele>
        <time>2019-03-31T11:54:43Z</time>
      </trkpt>
      <trkpt lat="45.29777" lon="6.14599">
        <ele>2684.8</ele>
        <time>2019-03-31T11:54:48Z</time>
      </trkpt>
      <trkpt lat="45.29772" lon="6.146">
        <ele>2679.2</ele>
        <time>2019-03-31T11:54:53Z</time>
      </trkpt>
      <trkpt lat="45.29769" lon="6.14598">
        <ele>2663.6</ele>
        <time>2019-03-31T11:55:08Z</time>
      </trkpt>
      <trkpt lat="45.29767" lon="6.146">
        <ele>2651.8</ele>
        <time>2019-03-31T11:55:28Z</time>
      </trkpt>
      <trkpt lat="45.29767" lon="6.14599">
        <ele>2650.2</ele>
        <time>2019-03-31T11:55:33Z</time>
      </trkpt>
      <trkpt lat="45.29758" lon="6.14601">
        <ele>2647.8</ele>
        <time>2019-03-31T11:55:38Z</time>
      </trkpt>
      <trkpt lat="45.29756" lon="6.1461">
        <ele>2643.6</ele>
        <time>2019-03-31T11:55:43Z</time>
      </trkpt>
      <trkpt lat="45.29751" lon="6.1464">
        <ele>2631.6</ele>
        <time>2019-03-31T11:55:48Z</time>
      </trkpt>
      <trkpt lat="45.29782" lon="6.14655">
        <ele>2627</ele>
        <time>2019-03-31T11:55:53Z</time>
      </trkpt>
      <trkpt lat="45.29812" lon="6.14688">
        <ele>2621.4</ele>
        <time>2019-03-31T11:55:58Z</time>
      </trkpt>
      <trkpt lat="45.29816" lon="6.14723">
        <ele>2616.8</ele>
        <time>2019-03-31T11:56:03Z</time>
      </trkpt>
      <trkpt lat="45.29808" lon="6.14748">
        <ele>2603.8</ele>
        <time>2019-03-31T11:56:08Z</time>
      </trkpt>
      <trkpt lat="45.29802" lon="6.14777">
        <ele>2590.4</ele>
        <time>2019-03-31T11:56:13Z</time>
      </trkpt>
      <trkpt lat="45.29809" lon="6.14826">
        <ele>2583.8</ele>
        <time>2019-03-31T11:56:18Z</time>
      </trkpt>
      <trkpt lat="45.2979" lon="6.14854">
        <ele>2571.8</ele>
        <time>2019-03-31T11:56:23Z</time>
      </trkpt>
      <trkpt lat="45.29795" lon="6.14879">
        <ele>2570.6</ele>
        <time>2019-03-31T11:56:28Z</time>
      </trkpt>
      <trkpt lat="45.29798" lon="6.14892">
        <ele>2565.2</ele>
        <time>2019-03-31T11:56:33Z</time>
      </trkpt>
      <trkpt lat="45.29802" lon="6.1492">
        <ele>2563.6</ele>
        <time>2019-03-31T11:56:38Z</time>
      </trkpt>
      <trkpt lat="45.29808" lon="6.14955">
        <ele>2556.6</ele>
        <time>2019-03-31T11:56:43Z</time>
      </trkpt>
      <trkpt lat="45.29799" lon="6.1498">
        <ele>2550.4</ele>
        <time>2019-03-31T11:56:48Z</time>
      </trkpt>
      <trkpt lat="45.29797" lon="6.15004">
        <ele>2543.6</ele>
        <time>2019-03-31T11:56:53Z</time>
      </trkpt>
      <trkpt lat="45.29787" lon="6.15037">
        <ele>2536</ele>
        <time>2019-03-31T11:56:58Z</time>
      </trkpt>
      <trkpt lat="45.29764" lon="6.15056">
        <ele>2522.6</ele>
        <time>2019-03-31T11:57:03Z</time>
      </trkpt>
      <trkpt lat="45.2975" lon="6.15093">
        <ele>2516.4</ele>
        <time>2019-03-31T11:57:08Z</time>
      </trkpt>
      <trkpt lat="45.2974" lon="6.15128">
        <ele>2507.8</ele>
        <time>2019-03-31T11:57:13Z</time>
      </trkpt>
      <trkpt lat="45.29739" lon="6.15165">
        <ele>2500.6</ele>
        <time>2019-03-31T11:57:18Z</time>
      </trkpt>
      <trkpt lat="45.29746" lon="6.1517">
        <ele>2500.4</ele>
        <time>2019-03-31T11:57:23Z</time>
      </trkpt>
      <trkpt lat="45.29746" lon="6.15169">
        <ele>2500.8</ele>
        <time>2019-03-31T11:57:28Z</time>
      </trkpt>
      <trkpt lat="45.2975" lon="6.15176">
        <ele>2501.6</ele>
        <time>2019-03-31T12:00:28Z</time>
      </trkpt>
      <trkpt lat="45.29757" lon="6.15211">
        <ele>2498</ele>
        <time>2019-03-31T12:00:33Z</time>
      </trkpt>
      <trkpt lat="45.29745" lon="6.15249">
        <ele>2490.6</ele>
        <time>2019-03-31T12:00:38Z</time>
      </trkpt>
      <trkpt lat="45.2974" lon="6.15293">
        <ele>2486.2</ele>
        <time>2019-03-31T12:00:43Z</time>
      </trkpt>
      <trkpt lat="45.29725" lon="6.15339">
        <ele>2480.2</ele>
        <time>2019-03-31T12:00:48Z</time>
      </trkpt>
      <trkpt lat="45.29719" lon="6.15383">
        <ele>2472</ele>
        <time>2019-03-31T12:00:53Z</time>
      </trkpt>
      <trkpt lat="45.29695" lon="6.15427">
        <ele>2468.4</ele>
        <time>2019-03-31T12:00:58Z</time>
      </trkpt>
      <trkpt lat="45.29672" lon="6.1546">
        <ele>2466.2</ele>
        <time>2019-03-31T12:01:03Z</time>
      </trkpt>
      <trkpt lat="45.29657" lon="6.15474">
        <ele>2463.6</ele>
        <time>2019-03-31T12:01:08Z</time>
      </trkpt>
      <trkpt lat="45.29644" lon="6.15486">
        <ele>2462</ele>
        <time>2019-03-31T12:01:13Z</time>
      </trkpt>
      <trkpt lat="45.29637" lon="6.15503">
        <ele>2458.2</ele>
        <time>2019-03-31T12:01:18Z</time>
      </trkpt>
      <trkpt lat="45.29643" lon="6.15525">
        <ele>2453.6</ele>
        <time>2019-03-31T12:01:23Z</time>
      </trkpt>
      <trkpt lat="45.29654" lon="6.15551">
        <ele>2453.2</ele>
        <time>2019-03-31T12:01:28Z</time>
      </trkpt>
      <trkpt lat="45.29663" lon="6.15573">
        <ele>2449</ele>
        <time>2019-03-31T12:01:33Z</time>
      </trkpt>
      <trkpt lat="45.29657" lon="6.15603">
        <ele>2436.6</ele>
        <time>2019-03-31T12:01:38Z</time>
      </trkpt>
      <trkpt lat="45.29651" lon="6.15646">
        <ele>2421.2</ele>
        <time>2019-03-31T12:01:43Z</time>
      </trkpt>
      <trkpt lat="45.29653" lon="6.15695">
        <ele>2416.8</ele>
        <time>2019-03-31T12:01:48Z</time>
      </trkpt>
      <trkpt lat="45.29651" lon="6.15744">
        <ele>2412</ele>
        <time>2019-03-31T12:01:53Z</time>
      </trkpt>
      <trkpt lat="45.29657" lon="6.15781">
        <ele>2410.2</ele>
        <time>2019-03-31T12:01:58Z</time>
      </trkpt>
      <trkpt lat="45.29665" lon="6.15796">
        <ele>2407.6</ele>
        <time>2019-03-31T12:02:03Z</time>
      </trkpt>
      <trkpt lat="45.29666" lon="6.15802">
        <ele>2388</ele>
        <time>2019-03-31T12:03:23Z</time>
      </trkpt>
      <trkpt lat="45.29669" lon="6.15842">
        <ele>2383</ele>
        <time>2019-03-31T12:03:28Z</time>
      </trkpt>
      <trkpt lat="45.29669" lon="6.15888">
        <ele>2377.6</ele>
        <time>2019-03-31T12:03:33Z</time>
      </trkpt>
      <trkpt lat="45.2966" lon="6.15929">
        <ele>2375.4</ele>
        <time>2019-03-31T12:03:38Z</time>
      </trkpt>
      <trkpt lat="45.29656" lon="6.15962">
        <ele>2374.2</ele>
        <time>2019-03-31T12:03:43Z</time>
      </trkpt>
      <trkpt lat="45.29652" lon="6.1599">
        <ele>2371.6</ele>
        <time>2019-03-31T12:03:48Z</time>
      </trkpt>
      <trkpt lat="45.29648" lon="6.16014">
        <ele>2370</ele>
        <time>2019-03-31T12:03:53Z</time>
      </trkpt>
      <trkpt lat="45.29648" lon="6.16034">
        <ele>2368.8</ele>
        <time>2019-03-31T12:03:58Z</time>
      </trkpt>
      <trkpt lat="45.29653" lon="6.16059">
        <ele>2369.6</ele>
        <time>2019-03-31T12:04:03Z</time>
      </trkpt>
      <trkpt lat="45.29651" lon="6.16088">
        <ele>2363</ele>
        <time>2019-03-31T12:04:08Z</time>
      </trkpt>
      <trkpt lat="45.29668" lon="6.16131">
        <ele>2357</ele>
        <time>2019-03-31T12:04:13Z</time>
      </trkpt>
      <trkpt lat="45.29664" lon="6.16153">
        <ele>2349.4</ele>
        <time>2019-03-31T12:04:18Z</time>
      </trkpt>
      <trkpt lat="45.29648" lon="6.16184">
        <ele>2340.6</ele>
        <time>2019-03-31T12:04:23Z</time>
      </trkpt>
      <trkpt lat="45.29654" lon="6.16221">
        <ele>2338.8</ele>
        <time>2019-03-31T12:04:28Z</time>
      </trkpt>
      <trkpt lat="45.29651" lon="6.16251">
        <ele>2337.6</ele>
        <time>2019-03-31T12:04:33Z</time>
      </trkpt>
      <trkpt lat="45.29654" lon="6.1628">
        <ele>2331.2</ele>
        <time>2019-03-31T12:04:38Z</time>
      </trkpt>
      <trkpt lat="45.29655" lon="6.16306">
        <ele>2322.8</ele>
        <time>2019-03-31T12:04:43Z</time>
      </trkpt>
      <trkpt lat="45.29646" lon="6.16334">
        <ele>2312.6</ele>
        <time>2019-03-31T12:04:48Z</time>
      </trkpt>
      <trkpt lat="45.29641" lon="6.16367">
        <ele>2298.2</ele>
        <time>2019-03-31T12:04:53Z</time>
      </trkpt>
      <trkpt lat="45.29654" lon="6.16393">
        <ele>2290.2</ele>
        <time>2019-03-31T12:04:58Z</time>
      </trkpt>
      <trkpt lat="45.2967" lon="6.16388">
        <ele>2291.8</ele>
        <time>2019-03-31T12:05:03Z</time>
      </trkpt>
      <trkpt lat="45.29691" lon="6.16391">
        <ele>2286.4</ele>
        <time>2019-03-31T12:05:08Z</time>
      </trkpt>
      <trkpt lat="45.2972" lon="6.16418">
        <ele>2284.2</ele>
        <time>2019-03-31T12:05:13Z</time>
      </trkpt>
      <trkpt lat="45.29728" lon="6.16443">
        <ele>2284.2</ele>
        <time>2019-03-31T12:05:18Z</time>
      </trkpt>
      <trkpt lat="45.29734" lon="6.16454">
        <ele>2283.4</ele>
        <time>2019-03-31T12:05:23Z</time>
      </trkpt>
      <trkpt lat="45.29736" lon="6.16457">
        <ele>2283</ele>
        <time>2019-03-31T12:05:28Z</time>
      </trkpt>
      <trkpt lat="45.29736" lon="6.16456">
        <ele>2282.8</ele>
        <time>2019-03-31T12:05:48Z</time>
      </trkpt>
      <trkpt lat="45.29736" lon="6.16455">
        <ele>2282.4</ele>
        <time>2019-03-31T12:05:53Z</time>
      </trkpt>
      <trkpt lat="45.29737" lon="6.16454">
        <ele>2284.2</ele>
        <time>2019-03-31T12:06:43Z</time>
      </trkpt>
      <trkpt lat="45.29744" lon="6.16462">
        <ele>2279.6</ele>
        <time>2019-03-31T12:06:48Z</time>
      </trkpt>
      <trkpt lat="45.29757" lon="6.16465">
        <ele>2277.2</ele>
        <time>2019-03-31T12:06:53Z</time>
      </trkpt>
      <trkpt lat="45.29784" lon="6.16484">
        <ele>2271.2</ele>
        <time>2019-03-31T12:06:58Z</time>
      </trkpt>
      <trkpt lat="45.29795" lon="6.16519">
        <ele>2262</ele>
        <time>2019-03-31T12:07:03Z</time>
      </trkpt>
      <trkpt lat="45.29804" lon="6.16536">
        <ele>2258</ele>
        <time>2019-03-31T12:07:08Z</time>
      </trkpt>
      <trkpt lat="45.2981" lon="6.16566">
        <ele>2248.2</ele>
        <time>2019-03-31T12:07:13Z</time>
      </trkpt>
      <trkpt lat="45.29808" lon="6.16595">
        <ele>2239.2</ele>
        <time>2019-03-31T12:07:18Z</time>
      </trkpt>
      <trkpt lat="45.29804" lon="6.16623">
        <ele>2229</ele>
        <time>2019-03-31T12:07:23Z</time>
      </trkpt>
      <trkpt lat="45.29809" lon="6.16659">
        <ele>2220.6</ele>
        <time>2019-03-31T12:07:28Z</time>
      </trkpt>
      <trkpt lat="45.29818" lon="6.16693">
        <ele>2209</ele>
        <time>2019-03-31T12:07:33Z</time>
      </trkpt>
      <trkpt lat="45.29827" lon="6.16728">
        <ele>2201.6</ele>
        <time>2019-03-31T12:07:38Z</time>
      </trkpt>
      <trkpt lat="45.29834" lon="6.16757">
        <ele>2188.4</ele>
        <time>2019-03-31T12:07:43Z</time>
      </trkpt>
      <trkpt lat="45.29852" lon="6.16784">
        <ele>2178</ele>
        <time>2019-03-31T12:07:48Z</time>
      </trkpt>
      <trkpt lat="45.29846" lon="6.16837">
        <ele>2166.4</ele>
        <time>2019-03-31T12:07:58Z</time>
      </trkpt>
      <trkpt lat="45.29845" lon="6.16837">
        <ele>2165.2</ele>
        <time>2019-03-31T12:08:03Z</time>
      </trkpt>
      <trkpt lat="45.29845" lon="6.16837">
        <ele>2163.8</ele>
        <time>2019-03-31T12:08:08Z</time>
      </trkpt>
      <trkpt lat="45.29845" lon="6.16837">
        <ele>2162.6</ele>
        <time>2019-03-31T12:08:13Z</time>
      </trkpt>
      <trkpt lat="45.29845" lon="6.16836">
        <ele>2162.6</ele>
        <time>2019-03-31T12:08:18Z</time>
      </trkpt>
      <trkpt lat="45.2986" lon="6.16828">
        <ele>2154.2</ele>
        <time>2019-03-31T12:08:23Z</time>
      </trkpt>
      <trkpt lat="45.29879" lon="6.16845">
        <ele>2143.8</ele>
        <time>2019-03-31T12:08:28Z</time>
      </trkpt>
      <trkpt lat="45.29904" lon="6.16862">
        <ele>2132.8</ele>
        <time>2019-03-31T12:08:33Z</time>
      </trkpt>
      <trkpt lat="45.29906" lon="6.16895">
        <ele>2122</ele>
        <time>2019-03-31T12:08:38Z</time>
      </trkpt>
      <trkpt lat="45.2989" lon="6.16938">
        <ele>2110</ele>
        <time>2019-03-31T12:08:58Z</time>
      </trkpt>
      <trkpt lat="45.2989" lon="6.16937">
        <ele>2103.6</ele>
        <time>2019-03-31T12:11:08Z</time>
      </trkpt>
      <trkpt lat="45.29891" lon="6.16936">
        <ele>2103.6</ele>
        <time>2019-03-31T12:11:13Z</time>
      </trkpt>
      <trkpt lat="45.29906" lon="6.1695">
        <ele>2097.6</ele>
        <time>2019-03-31T12:11:18Z</time>
      </trkpt>
      <trkpt lat="45.29927" lon="6.16955">
        <ele>2082.8</ele>
        <time>2019-03-31T12:11:23Z</time>
      </trkpt>
      <trkpt lat="45.29935" lon="6.16982">
        <ele>2069.2</ele>
        <time>2019-03-31T12:11:28Z</time>
      </trkpt>
      <trkpt lat="45.29946" lon="6.17013">
        <ele>2054.2</ele>
        <time>2019-03-31T12:11:33Z</time>
      </trkpt>
      <trkpt lat="45.29959" lon="6.17028">
        <ele>2039.6</ele>
        <time>2019-03-31T12:11:38Z</time>
      </trkpt>
      <trkpt lat="45.29967" lon="6.17053">
        <ele>2025.6</ele>
        <time>2019-03-31T12:11:43Z</time>
      </trkpt>
      <trkpt lat="45.29961" lon="6.17091">
        <ele>2016</ele>
        <time>2019-03-31T12:11:48Z</time>
      </trkpt>
      <trkpt lat="45.29977" lon="6.17092">
        <ele>2011.8</ele>
        <time>2019-03-31T12:11:53Z</time>
      </trkpt>
      <trkpt lat="45.30007" lon="6.171">
        <ele>1996.2</ele>
        <time>2019-03-31T12:11:58Z</time>
      </trkpt>
      <trkpt lat="45.30007" lon="6.17148">
        <ele>1987</ele>
        <time>2019-03-31T12:12:03Z</time>
      </trkpt>
      <trkpt lat="45.30023" lon="6.17176">
        <ele>1974.2</ele>
        <time>2019-03-31T12:12:08Z</time>
      </trkpt>
      <trkpt lat="45.30024" lon="6.17209">
        <ele>1960.6</ele>
        <time>2019-03-31T12:12:13Z</time>
      </trkpt>
      <trkpt lat="45.30028" lon="6.17253">
        <ele>1945.2</ele>
        <time>2019-03-31T12:12:18Z</time>
      </trkpt>
      <trkpt lat="45.30047" lon="6.17285">
        <ele>1931.4</ele>
        <time>2019-03-31T12:12:23Z</time>
      </trkpt>
      <trkpt lat="45.30041" lon="6.17325">
        <ele>1922.4</ele>
        <time>2019-03-31T12:12:28Z</time>
      </trkpt>
      <trkpt lat="45.30021" lon="6.17375">
        <ele>1916.4</ele>
        <time>2019-03-31T12:12:33Z</time>
      </trkpt>
      <trkpt lat="45.30027" lon="6.17403">
        <ele>1909.6</ele>
        <time>2019-03-31T12:12:38Z</time>
      </trkpt>
      <trkpt lat="45.30061" lon="6.17392">
        <ele>1900</ele>
        <time>2019-03-31T12:12:43Z</time>
      </trkpt>
      <trkpt lat="45.30072" lon="6.17406">
        <ele>1890.2</ele>
        <time>2019-03-31T12:14:48Z</time>
      </trkpt>
      <trkpt lat="45.3008" lon="6.174">
        <ele>1887.4</ele>
        <time>2019-03-31T12:14:53Z</time>
      </trkpt>
      <trkpt lat="45.30107" lon="6.17394">
        <ele>1883</ele>
        <time>2019-03-31T12:14:58Z</time>
      </trkpt>
      <trkpt lat="45.30127" lon="6.17414">
        <ele>1876</ele>
        <time>2019-03-31T12:15:03Z</time>
      </trkpt>
      <trkpt lat="45.30146" lon="6.17445">
        <ele>1872</ele>
        <time>2019-03-31T12:15:08Z</time>
      </trkpt>
      <trkpt lat="45.30157" lon="6.17471">
        <ele>1863</ele>
        <time>2019-03-31T12:15:13Z</time>
      </trkpt>
      <trkpt lat="45.3018" lon="6.17483">
        <ele>1858</ele>
        <time>2019-03-31T12:15:18Z</time>
      </trkpt>
      <trkpt lat="45.30196" lon="6.17513">
        <ele>1850.6</ele>
        <time>2019-03-31T12:15:23Z</time>
      </trkpt>
      <trkpt lat="45.30208" lon="6.17552">
        <ele>1840</ele>
        <time>2019-03-31T12:15:28Z</time>
      </trkpt>
      <trkpt lat="45.30212" lon="6.17614">
        <ele>1828.2</ele>
        <time>2019-03-31T12:15:34Z</time>
      </trkpt>
      <trkpt lat="45.30218" lon="6.17657">
        <ele>1817.8</ele>
        <time>2019-03-31T12:15:39Z</time>
      </trkpt>
      <trkpt lat="45.30222" lon="6.17703">
        <ele>1803.4</ele>
        <time>2019-03-31T12:15:44Z</time>
      </trkpt>
      <trkpt lat="45.30219" lon="6.17756">
        <ele>1797.2</ele>
        <time>2019-03-31T12:15:49Z</time>
      </trkpt>
      <trkpt lat="45.3021" lon="6.17802">
        <ele>1791.4</ele>
        <time>2019-03-31T12:15:54Z</time>
      </trkpt>
      <trkpt lat="45.30198" lon="6.17853">
        <ele>1781.6</ele>
        <time>2019-03-31T12:15:59Z</time>
      </trkpt>
      <trkpt lat="45.30197" lon="6.179">
        <ele>1773.8</ele>
        <time>2019-03-31T12:16:04Z</time>
      </trkpt>
      <trkpt lat="45.30197" lon="6.17907">
        <ele>1775.4</ele>
        <time>2019-03-31T12:16:09Z</time>
      </trkpt>
      <trkpt lat="45.30195" lon="6.17909">
        <ele>1779.8</ele>
        <time>2019-03-31T12:17:10Z</time>
      </trkpt>
      <trkpt lat="45.30177" lon="6.17941">
        <ele>1776.4</ele>
        <time>2019-03-31T12:17:30Z</time>
      </trkpt>
      <trkpt lat="45.30156" lon="6.17959">
        <ele>1769.8</ele>
        <time>2019-03-31T12:17:35Z</time>
      </trkpt>
      <trkpt lat="45.30127" lon="6.17985">
        <ele>1762.8</ele>
        <time>2019-03-31T12:17:40Z</time>
      </trkpt>
      <trkpt lat="45.30104" lon="6.18013">
        <ele>1755.2</ele>
        <time>2019-03-31T12:17:45Z</time>
      </trkpt>
      <trkpt lat="45.30091" lon="6.1805">
        <ele>1746.2</ele>
        <time>2019-03-31T12:17:50Z</time>
      </trkpt>
      <trkpt lat="45.30092" lon="6.18076">
        <ele>1730.6</ele>
        <time>2019-03-31T12:18:45Z</time>
      </trkpt>
      <trkpt lat="45.30092" lon="6.18075">
        <ele>1726.4</ele>
        <time>2019-03-31T12:21:05Z</time>
      </trkpt>
      <trkpt lat="45.30089" lon="6.18079">
        <ele>1725</ele>
        <time>2019-03-31T12:21:10Z</time>
      </trkpt>
      <trkpt lat="45.30078" lon="6.18102">
        <ele>1722.6</ele>
        <time>2019-03-31T12:21:15Z</time>
      </trkpt>
      <trkpt lat="45.30067" lon="6.18125">
        <ele>1721.6</ele>
        <time>2019-03-31T12:21:20Z</time>
      </trkpt>
      <trkpt lat="45.30048" lon="6.18146">
        <ele>1716.2</ele>
        <time>2019-03-31T12:21:25Z</time>
      </trkpt>
      <trkpt lat="45.30036" lon="6.18179">
        <ele>1712.8</ele>
        <time>2019-03-31T12:21:30Z</time>
      </trkpt>
      <trkpt lat="45.30022" lon="6.18221">
        <ele>1703.8</ele>
        <time>2019-03-31T12:21:35Z</time>
      </trkpt>
      <trkpt lat="45.30015" lon="6.18263">
        <ele>1698.2</ele>
        <time>2019-03-31T12:21:40Z</time>
      </trkpt>
      <trkpt lat="45.30016" lon="6.18318">
        <ele>1692.2</ele>
        <time>2019-03-31T12:21:45Z</time>
      </trkpt>
      <trkpt lat="45.30011" lon="6.18371">
        <ele>1683.8</ele>
        <time>2019-03-31T12:21:50Z</time>
      </trkpt>
      <trkpt lat="45.30005" lon="6.18414">
        <ele>1681.4</ele>
        <time>2019-03-31T12:21:55Z</time>
      </trkpt>
      <trkpt lat="45.29989" lon="6.1844">
        <ele>1680.8</ele>
        <time>2019-03-31T12:22:00Z</time>
      </trkpt>
      <trkpt lat="45.29964" lon="6.18469">
        <ele>1672.6</ele>
        <time>2019-03-31T12:22:05Z</time>
      </trkpt>
      <trkpt lat="45.29955" lon="6.18507">
        <ele>1670</ele>
        <time>2019-03-31T12:22:10Z</time>
      </trkpt>
      <trkpt lat="45.29948" lon="6.18538">
        <ele>1664.6</ele>
        <time>2019-03-31T12:22:15Z</time>
      </trkpt>
      <trkpt lat="45.29945" lon="6.18564">
        <ele>1662.8</ele>
        <time>2019-03-31T12:22:20Z</time>
      </trkpt>
      <trkpt lat="45.2994" lon="6.18592">
        <ele>1662.6</ele>
        <time>2019-03-31T12:22:25Z</time>
      </trkpt>
      <trkpt lat="45.29931" lon="6.18622">
        <ele>1657.2</ele>
        <time>2019-03-31T12:22:30Z</time>
      </trkpt>
      <trkpt lat="45.29921" lon="6.18649">
        <ele>1656</ele>
        <time>2019-03-31T12:22:35Z</time>
      </trkpt>
      <trkpt lat="45.29917" lon="6.18656">
        <ele>1653.6</ele>
        <time>2019-03-31T12:22:40Z</time>
      </trkpt>
      <trkpt lat="45.29917" lon="6.18656">
        <ele>1654</ele>
        <time>2019-03-31T12:23:15Z</time>
      </trkpt>
      <trkpt lat="45.29918" lon="6.18658">
        <ele>1653</ele>
        <time>2019-03-31T12:23:20Z</time>
      </trkpt>
      <trkpt lat="45.29929" lon="6.18669">
        <ele>1646.8</ele>
        <time>2019-03-31T12:23:25Z</time>
      </trkpt>
      <trkpt lat="45.29957" lon="6.18681">
        <ele>1638.8</ele>
        <time>2019-03-31T12:23:30Z</time>
      </trkpt>
      <trkpt lat="45.29961" lon="6.1872">
        <ele>1626.2</ele>
        <time>2019-03-31T12:23:35Z</time>
      </trkpt>
      <trkpt lat="45.29945" lon="6.1875">
        <ele>1619.4</ele>
        <time>2019-03-31T12:23:40Z</time>
      </trkpt>
      <trkpt lat="45.29961" lon="6.18775">
        <ele>1602.8</ele>
        <time>2019-03-31T12:23:45Z</time>
      </trkpt>
      <trkpt lat="45.29941" lon="6.18806">
        <ele>1594.4</ele>
        <time>2019-03-31T12:23:50Z</time>
      </trkpt>
      <trkpt lat="45.29936" lon="6.18823">
        <ele>1586.4</ele>
        <time>2019-03-31T12:23:55Z</time>
      </trkpt>
      <trkpt lat="45.29924" lon="6.18865">
        <ele>1578</ele>
        <time>2019-03-31T12:24:00Z</time>
      </trkpt>
      <trkpt lat="45.29905" lon="6.18907">
        <ele>1570.8</ele>
        <time>2019-03-31T12:24:05Z</time>
      </trkpt>
      <trkpt lat="45.29885" lon="6.18941">
        <ele>1565</ele>
        <time>2019-03-31T12:24:10Z</time>
      </trkpt>
      <trkpt lat="45.29872" lon="6.18977">
        <ele>1561.8</ele>
        <time>2019-03-31T12:24:15Z</time>
      </trkpt>
      <trkpt lat="45.29859" lon="6.19011">
        <ele>1558.4</ele>
        <time>2019-03-31T12:24:20Z</time>
      </trkpt>
      <trkpt lat="45.29842" lon="6.19042">
        <ele>1556.4</ele>
        <time>2019-03-31T12:24:25Z</time>
      </trkpt>
      <trkpt lat="45.2983" lon="6.19063">
        <ele>1551.8</ele>
        <time>2019-03-31T12:24:30Z</time>
      </trkpt>
      <trkpt lat="45.29828" lon="6.19064">
        <ele>1551.8</ele>
        <time>2019-03-31T12:24:35Z</time>
      </trkpt>
      <trkpt lat="45.29829" lon="6.19064">
        <ele>1553.6</ele>
        <time>2019-03-31T12:25:05Z</time>
      </trkpt>
      <trkpt lat="45.29829" lon="6.19066">
        <ele>1553.6</ele>
        <time>2019-03-31T12:25:10Z</time>
      </trkpt>
      <trkpt lat="45.29831" lon="6.19092">
        <ele>1550.2</ele>
        <time>2019-03-31T12:25:15Z</time>
      </trkpt>
      <trkpt lat="45.2982" lon="6.19128">
        <ele>1545.8</ele>
        <time>2019-03-31T12:25:20Z</time>
      </trkpt>
      <trkpt lat="45.29806" lon="6.19165">
        <ele>1542.4</ele>
        <time>2019-03-31T12:25:25Z</time>
      </trkpt>
      <trkpt lat="45.29791" lon="6.19198">
        <ele>1537.6</ele>
        <time>2019-03-31T12:25:30Z</time>
      </trkpt>
      <trkpt lat="45.29787" lon="6.19236">
        <ele>1528.8</ele>
        <time>2019-03-31T12:25:35Z</time>
      </trkpt>
      <trkpt lat="45.29777" lon="6.19273">
        <ele>1528.4</ele>
        <time>2019-03-31T12:25:40Z</time>
      </trkpt>
      <trkpt lat="45.29772" lon="6.19298">
        <ele>1529</ele>
        <time>2019-03-31T12:25:45Z</time>
      </trkpt>
      <trkpt lat="45.2977" lon="6.1932">
        <ele>1522.6</ele>
        <time>2019-03-31T12:25:50Z</time>
      </trkpt>
      <trkpt lat="45.29765" lon="6.19345">
        <ele>1524.8</ele>
        <time>2019-03-31T12:25:55Z</time>
      </trkpt>
      <trkpt lat="45.29752" lon="6.19367">
        <ele>1520.4</ele>
        <time>2019-03-31T12:26:00Z</time>
      </trkpt>
      <trkpt lat="45.29741" lon="6.19394">
        <ele>1516.4</ele>
        <time>2019-03-31T12:26:05Z</time>
      </trkpt>
      <trkpt lat="45.29736" lon="6.19396">
        <ele>1515.2</ele>
        <time>2019-03-31T12:26:10Z</time>
      </trkpt>
      <trkpt lat="45.29735" lon="6.19395">
        <ele>1516</ele>
        <time>2019-03-31T12:26:15Z</time>
      </trkpt>
      <trkpt lat="45.29735" lon="6.19394">
        <ele>1516.4</ele>
        <time>2019-03-31T12:26:20Z</time>
      </trkpt>
      <trkpt lat="45.29735" lon="6.19394">
        <ele>1517</ele>
        <time>2019-03-31T12:26:30Z</time>
      </trkpt>
      <trkpt lat="45.29736" lon="6.19395">
        <ele>1517.2</ele>
        <time>2019-03-31T12:26:35Z</time>
      </trkpt>
      <trkpt lat="45.29732" lon="6.1941">
        <ele>1516.2</ele>
        <time>2019-03-31T12:26:40Z</time>
      </trkpt>
      <trkpt lat="45.29718" lon="6.19437">
        <ele>1515.4</ele>
        <time>2019-03-31T12:26:45Z</time>
      </trkpt>
      <trkpt lat="45.297" lon="6.19465">
        <ele>1514</ele>
        <time>2019-03-31T12:26:50Z</time>
      </trkpt>
      <trkpt lat="45.29682" lon="6.19502">
        <ele>1506.8</ele>
        <time>2019-03-31T12:26:55Z</time>
      </trkpt>
      <trkpt lat="45.2966" lon="6.19539">
        <ele>1499.4</ele>
        <time>2019-03-31T12:27:00Z</time>
      </trkpt>
      <trkpt lat="45.29644" lon="6.19575">
        <ele>1499.4</ele>
        <time>2019-03-31T12:27:05Z</time>
      </trkpt>
      <trkpt lat="45.29617" lon="6.19611">
        <ele>1492.4</ele>
        <time>2019-03-31T12:27:10Z</time>
      </trkpt>
      <trkpt lat="45.29595" lon="6.19644">
        <ele>1489.8</ele>
        <time>2019-03-31T12:27:15Z</time>
      </trkpt>
      <trkpt lat="45.29579" lon="6.19665">
        <ele>1485.2</ele>
        <time>2019-03-31T12:27:20Z</time>
      </trkpt>
      <trkpt lat="45.29567" lon="6.1969">
        <ele>1487.6</ele>
        <time>2019-03-31T12:27:25Z</time>
      </trkpt>
      <trkpt lat="45.29566" lon="6.19703">
        <ele>1478.6</ele>
        <time>2019-03-31T12:27:30Z</time>
      </trkpt>
      <trkpt lat="45.29569" lon="6.19713">
        <ele>1476.4</ele>
        <time>2019-03-31T12:27:35Z</time>
      </trkpt>
      <trkpt lat="45.2957" lon="6.19714">
        <ele>1476.4</ele>
        <time>2019-03-31T12:27:40Z</time>
      </trkpt>
      <trkpt lat="45.29573" lon="6.19712">
        <ele>1479</ele>
        <time>2019-03-31T12:27:45Z</time>
      </trkpt>
      <trkpt lat="45.29577" lon="6.19714">
        <ele>1474.6</ele>
        <time>2019-03-31T12:27:50Z</time>
      </trkpt>
      <trkpt lat="45.29578" lon="6.19714">
        <ele>1473.2</ele>
        <time>2019-03-31T12:27:55Z</time>
      </trkpt>
      <trkpt lat="45.29583" lon="6.19722">
        <ele>1470.8</ele>
        <time>2019-03-31T12:28:05Z</time>
      </trkpt>
      <trkpt lat="45.29591" lon="6.19727">
        <ele>1469</ele>
        <time>2019-03-31T12:28:10Z</time>
      </trkpt>
      <trkpt lat="45.29592" lon="6.19747">
        <ele>1466.2</ele>
        <time>2019-03-31T12:28:15Z</time>
      </trkpt>
      <trkpt lat="45.2959" lon="6.19756">
        <ele>1465.8</ele>
        <time>2019-03-31T12:28:20Z</time>
      </trkpt>
      <trkpt lat="45.2958" lon="6.19772">
        <ele>1462.2</ele>
        <time>2019-03-31T12:28:25Z</time>
      </trkpt>
      <trkpt lat="45.29567" lon="6.19788">
        <ele>1457.6</ele>
        <time>2019-03-31T12:28:30Z</time>
      </trkpt>
      <trkpt lat="45.29554" lon="6.19811">
        <ele>1456.4</ele>
        <time>2019-03-31T12:28:35Z</time>
      </trkpt>
      <trkpt lat="45.29543" lon="6.19834">
        <ele>1451.6</ele>
        <time>2019-03-31T12:28:40Z</time>
      </trkpt>
      <trkpt lat="45.29538" lon="6.19848">
        <ele>1448.4</ele>
        <time>2019-03-31T12:28:45Z</time>
      </trkpt>
      <trkpt lat="45.29538" lon="6.19849">
        <ele>1449.4</ele>
        <time>2019-03-31T12:28:55Z</time>
      </trkpt>
      <trkpt lat="45.29537" lon="6.19849">
        <ele>1448.2</ele>
        <time>2019-03-31T12:29:00Z</time>
      </trkpt>
      <trkpt lat="45.29537" lon="6.19848">
        <ele>1447.2</ele>
        <time>2019-03-31T12:29:05Z</time>
      </trkpt>
      <trkpt lat="45.29536" lon="6.19848">
        <ele>1446.6</ele>
        <time>2019-03-31T12:29:10Z</time>
      </trkpt>
      <trkpt lat="45.29535" lon="6.19848">
        <ele>1445.8</ele>
        <time>2019-03-31T12:29:20Z</time>
      </trkpt>
      <trkpt lat="45.29532" lon="6.19853">
        <ele>1446</ele>
        <time>2019-03-31T12:29:25Z</time>
      </trkpt>
      <trkpt lat="45.29522" lon="6.19867">
        <ele>1446.4</ele>
        <time>2019-03-31T12:29:30Z</time>
      </trkpt>
      <trkpt lat="45.29515" lon="6.19884">
        <ele>1441.6</ele>
        <time>2019-03-31T12:29:35Z</time>
      </trkpt>
      <trkpt lat="45.29505" lon="6.1991">
        <ele>1436</ele>
        <time>2019-03-31T12:29:40Z</time>
      </trkpt>
      <trkpt lat="45.29497" lon="6.19942">
        <ele>1436.8</ele>
        <time>2019-03-31T12:29:45Z</time>
      </trkpt>
      <trkpt lat="45.29489" lon="6.19963">
        <ele>1433.6</ele>
        <time>2019-03-31T12:29:50Z</time>
      </trkpt>
      <trkpt lat="45.29485" lon="6.19976">
        <ele>1433.4</ele>
        <time>2019-03-31T12:29:55Z</time>
      </trkpt>
      <trkpt lat="45.29478" lon="6.2">
        <ele>1428.6</ele>
        <time>2019-03-31T12:30:00Z</time>
      </trkpt>
      <trkpt lat="45.29484" lon="6.20016">
        <ele>1418.4</ele>
        <time>2019-03-31T12:30:05Z</time>
      </trkpt>
      <trkpt lat="45.29498" lon="6.20024">
        <ele>1414.6</ele>
        <time>2019-03-31T12:30:10Z</time>
      </trkpt>
      <trkpt lat="45.29492" lon="6.20043">
        <ele>1416.2</ele>
        <time>2019-03-31T12:30:15Z</time>
      </trkpt>
      <trkpt lat="45.29487" lon="6.20046">
        <ele>1413.2</ele>
        <time>2019-03-31T12:30:20Z</time>
      </trkpt>
      <trkpt lat="45.29483" lon="6.20051">
        <ele>1414.2</ele>
        <time>2019-03-31T12:30:25Z</time>
      </trkpt>
      <trkpt lat="45.29483" lon="6.20055">
        <ele>1413.2</ele>
        <time>2019-03-31T12:30:35Z</time>
      </trkpt>
      <trkpt lat="45.29482" lon="6.20055">
        <ele>1412.8</ele>
        <time>2019-03-31T12:31:15Z</time>
      </trkpt>
      <trkpt lat="45.2948" lon="6.2006">
        <ele>1411.8</ele>
        <time>2019-03-31T12:31:30Z</time>
      </trkpt>
      <trkpt lat="45.2948" lon="6.2006">
        <ele>1412.4</ele>
        <time>2019-03-31T12:31:35Z</time>
      </trkpt>
      <trkpt lat="45.29479" lon="6.2006">
        <ele>1412.6</ele>
        <time>2019-03-31T12:31:40Z</time>
      </trkpt>
      <trkpt lat="45.29479" lon="6.20061">
        <ele>1412.8</ele>
        <time>2019-03-31T12:32:10Z</time>
      </trkpt>
      <trkpt lat="45.29479" lon="6.20064">
        <ele>1411.4</ele>
        <time>2019-03-31T12:32:15Z</time>
      </trkpt>
      <trkpt lat="45.29477" lon="6.20092">
        <ele>1406.4</ele>
        <time>2019-03-31T12:32:20Z</time>
      </trkpt>
      <trkpt lat="45.29477" lon="6.2011">
        <ele>1405.4</ele>
        <time>2019-03-31T12:32:25Z</time>
      </trkpt>
      <trkpt lat="45.29475" lon="6.20155">
        <ele>1405</ele>
        <time>2019-03-31T12:32:30Z</time>
      </trkpt>
      <trkpt lat="45.29467" lon="6.20163">
        <ele>1403.6</ele>
        <time>2019-03-31T12:32:35Z</time>
      </trkpt>
      <trkpt lat="45.29466" lon="6.20162">
        <ele>1404.4</ele>
        <time>2019-03-31T12:32:40Z</time>
      </trkpt>
      <trkpt lat="45.29466" lon="6.20161">
        <ele>1402.6</ele>
        <time>2019-03-31T12:32:55Z</time>
      </trkpt>
      <trkpt lat="45.29465" lon="6.20161">
        <ele>1402.6</ele>
        <time>2019-03-31T12:33:00Z</time>
      </trkpt>
      <trkpt lat="45.29465" lon="6.20171">
        <ele>1402.8</ele>
        <time>2019-03-31T12:33:05Z</time>
      </trkpt>
      <trkpt lat="45.29461" lon="6.20203">
        <ele>1400</ele>
        <time>2019-03-31T12:33:10Z</time>
      </trkpt>
      <trkpt lat="45.29453" lon="6.20239">
        <ele>1397.2</ele>
        <time>2019-03-31T12:33:15Z</time>
      </trkpt>
      <trkpt lat="45.2944" lon="6.20254">
        <ele>1396.2</ele>
        <time>2019-03-31T12:33:20Z</time>
      </trkpt>
      <trkpt lat="45.29425" lon="6.20266">
        <ele>1389.4</ele>
        <time>2019-03-31T12:33:25Z</time>
      </trkpt>
      <trkpt lat="45.2941" lon="6.20291">
        <ele>1387.8</ele>
        <time>2019-03-31T12:33:30Z</time>
      </trkpt>
      <trkpt lat="45.29401" lon="6.20327">
        <ele>1384.4</ele>
        <time>2019-03-31T12:33:35Z</time>
      </trkpt>
      <trkpt lat="45.29396" lon="6.20368">
        <ele>1380</ele>
        <time>2019-03-31T12:33:40Z</time>
      </trkpt>
      <trkpt lat="45.294" lon="6.20393">
        <ele>1377.6</ele>
        <time>2019-03-31T12:33:45Z</time>
      </trkpt>
      <trkpt lat="45.29403" lon="6.20415">
        <ele>1376.2</ele>
        <time>2019-03-31T12:33:50Z</time>
      </trkpt>
      <trkpt lat="45.29399" lon="6.20431">
        <ele>1378</ele>
        <time>2019-03-31T12:33:55Z</time>
      </trkpt>
      <trkpt lat="45.29396" lon="6.20446">
        <ele>1373.8</ele>
        <time>2019-03-31T12:34:00Z</time>
      </trkpt>
      <trkpt lat="45.29393" lon="6.20467">
        <ele>1371</ele>
        <time>2019-03-31T12:34:05Z</time>
      </trkpt>
      <trkpt lat="45.29391" lon="6.20495">
        <ele>1372</ele>
        <time>2019-03-31T12:34:10Z</time>
      </trkpt>
      <trkpt lat="45.29389" lon="6.20522">
        <ele>1368.2</ele>
        <time>2019-03-31T12:34:15Z</time>
      </trkpt>
      <trkpt lat="45.29389" lon="6.20554">
        <ele>1363.8</ele>
        <time>2019-03-31T12:34:20Z</time>
      </trkpt>
      <trkpt lat="45.29379" lon="6.20588">
        <ele>1360.4</ele>
        <time>2019-03-31T12:34:25Z</time>
      </trkpt>
      <trkpt lat="45.29372" lon="6.20616">
        <ele>1357.8</ele>
        <time>2019-03-31T12:34:30Z</time>
      </trkpt>
      <trkpt lat="45.29376" lon="6.20636">
        <ele>1354.2</ele>
        <time>2019-03-31T12:34:35Z</time>
      </trkpt>
      <trkpt lat="45.29366" lon="6.20666">
        <ele>1351.6</ele>
        <time>2019-03-31T12:34:40Z</time>
      </trkpt>
      <trkpt lat="45.29363" lon="6.2068">
        <ele>1352.6</ele>
        <time>2019-03-31T12:34:45Z</time>
      </trkpt>
      <trkpt lat="45.2936" lon="6.20697">
        <ele>1348.6</ele>
        <time>2019-03-31T12:34:50Z</time>
      </trkpt>
      <trkpt lat="45.29361" lon="6.20712">
        <ele>1352.6</ele>
        <time>2019-03-31T12:34:55Z</time>
      </trkpt>
      <trkpt lat="45.29362" lon="6.20722">
        <ele>1351.2</ele>
        <time>2019-03-31T12:35:00Z</time>
      </trkpt>
      <trkpt lat="45.29363" lon="6.20736">
        <ele>1351</ele>
        <time>2019-03-31T12:35:05Z</time>
      </trkpt>
      <trkpt lat="45.29366" lon="6.20755">
        <ele>1348.6</ele>
        <time>2019-03-31T12:35:10Z</time>
      </trkpt>
      <trkpt lat="45.29369" lon="6.20774">
        <ele>1346.4</ele>
        <time>2019-03-31T12:35:15Z</time>
      </trkpt>
      <trkpt lat="45.29371" lon="6.20797">
        <ele>1343.8</ele>
        <time>2019-03-31T12:35:20Z</time>
      </trkpt>
      <trkpt lat="45.29371" lon="6.20814">
        <ele>1342.8</ele>
        <time>2019-03-31T12:35:25Z</time>
      </trkpt>
      <trkpt lat="45.2937" lon="6.20826">
        <ele>1341.4</ele>
        <time>2019-03-31T12:35:30Z</time>
      </trkpt>
      <trkpt lat="45.29367" lon="6.20832">
        <ele>1341.8</ele>
        <time>2019-03-31T12:35:35Z</time>
      </trkpt>
      <trkpt lat="45.29365" lon="6.20834">
        <ele>1338.8</ele>
        <time>2019-03-31T12:35:40Z</time>
      </trkpt>
      <trkpt lat="45.29365" lon="6.20835">
        <ele>1338</ele>
        <time>2019-03-31T12:35:50Z</time>
      </trkpt>
      <trkpt lat="45.29365" lon="6.20836">
        <ele>1340.6</ele>
        <time>2019-03-31T12:35:55Z</time>
      </trkpt>
      <trkpt lat="45.29364" lon="6.20838">
        <ele>1337.2</ele>
        <time>2019-03-31T12:36:00Z</time>
      </trkpt>
      <trkpt lat="45.29363" lon="6.20856">
        <ele>1333.2</ele>
        <time>2019-03-31T12:36:05Z</time>
      </trkpt>
      <trkpt lat="45.2936" lon="6.20882">
        <ele>1328.2</ele>
        <time>2019-03-31T12:36:10Z</time>
      </trkpt>
      <trkpt lat="45.29356" lon="6.20911">
        <ele>1327.6</ele>
        <time>2019-03-31T12:36:15Z</time>
      </trkpt>
      <trkpt lat="45.29353" lon="6.20942">
        <ele>1322.6</ele>
        <time>2019-03-31T12:36:20Z</time>
      </trkpt>
      <trkpt lat="45.29347" lon="6.20953">
        <ele>1323.2</ele>
        <time>2019-03-31T12:36:25Z</time>
      </trkpt>
      <trkpt lat="45.29345" lon="6.20955">
        <ele>1319.6</ele>
        <time>2019-03-31T12:36:30Z</time>
      </trkpt>
      <trkpt lat="45.29343" lon="6.20957">
        <ele>1319.8</ele>
        <time>2019-03-31T12:36:35Z</time>
      </trkpt>
      <trkpt lat="45.29342" lon="6.20963">
        <ele>1317</ele>
        <time>2019-03-31T12:36:40Z</time>
      </trkpt>
      <trkpt lat="45.29341" lon="6.20968">
        <ele>1315.6</ele>
        <time>2019-03-31T12:36:45Z</time>
      </trkpt>
      <trkpt lat="45.2934" lon="6.20971">
        <ele>1315.6</ele>
        <time>2019-03-31T12:36:50Z</time>
      </trkpt>
      <trkpt lat="45.29341" lon="6.20978">
        <ele>1314.4</ele>
        <time>2019-03-31T12:36:55Z</time>
      </trkpt>
      <trkpt lat="45.29342" lon="6.20983">
        <ele>1310.4</ele>
        <time>2019-03-31T12:37:00Z</time>
      </trkpt>
      <trkpt lat="45.29343" lon="6.20994">
        <ele>1307.4</ele>
        <time>2019-03-31T12:37:05Z</time>
      </trkpt>
      <trkpt lat="45.29337" lon="6.21019">
        <ele>1306</ele>
        <time>2019-03-31T12:37:10Z</time>
      </trkpt>
      <trkpt lat="45.29335" lon="6.21041">
        <ele>1300.8</ele>
        <time>2019-03-31T12:37:15Z</time>
      </trkpt>
      <trkpt lat="45.29338" lon="6.21071">
        <ele>1298</ele>
        <time>2019-03-31T12:37:20Z</time>
      </trkpt>
      <trkpt lat="45.29337" lon="6.21102">
        <ele>1294.4</ele>
        <time>2019-03-31T12:37:25Z</time>
      </trkpt>
      <trkpt lat="45.2934" lon="6.21132">
        <ele>1290</ele>
        <time>2019-03-31T12:37:30Z</time>
      </trkpt>
      <trkpt lat="45.29333" lon="6.21168">
        <ele>1284</ele>
        <time>2019-03-31T12:37:35Z</time>
      </trkpt>
      <trkpt lat="45.29323" lon="6.21195">
        <ele>1283.4</ele>
        <time>2019-03-31T12:37:40Z</time>
      </trkpt>
      <trkpt lat="45.29323" lon="6.21215">
        <ele>1276</ele>
        <time>2019-03-31T12:37:45Z</time>
      </trkpt>
      <trkpt lat="45.29313" lon="6.21241">
        <ele>1274.2</ele>
        <time>2019-03-31T12:37:50Z</time>
      </trkpt>
      <trkpt lat="45.29295" lon="6.21266">
        <ele>1268</ele>
        <time>2019-03-31T12:37:55Z</time>
      </trkpt>
      <trkpt lat="45.29289" lon="6.21271">
        <ele>1263.6</ele>
        <time>2019-03-31T12:38:00Z</time>
      </trkpt>
      <trkpt lat="45.29286" lon="6.21276">
        <ele>1259.8</ele>
        <time>2019-03-31T12:38:06Z</time>
      </trkpt>
      <trkpt lat="45.29286" lon="6.21277">
        <ele>1253.2</ele>
        <time>2019-03-31T12:38:21Z</time>
      </trkpt>
      <trkpt lat="45.29285" lon="6.21278">
        <ele>1252.2</ele>
        <time>2019-03-31T12:38:26Z</time>
      </trkpt>
      <trkpt lat="45.29279" lon="6.21299">
        <ele>1251.8</ele>
        <time>2019-03-31T12:38:31Z</time>
      </trkpt>
      <trkpt lat="45.29263" lon="6.21319">
        <ele>1249</ele>
        <time>2019-03-31T12:38:36Z</time>
      </trkpt>
      <trkpt lat="45.2925" lon="6.21342">
        <ele>1247.2</ele>
        <time>2019-03-31T12:38:41Z</time>
      </trkpt>
      <trkpt lat="45.29244" lon="6.21349">
        <ele>1244.4</ele>
        <time>2019-03-31T12:38:46Z</time>
      </trkpt>
      <trkpt lat="45.29243" lon="6.21356">
        <ele>1241.6</ele>
        <time>2019-03-31T12:38:51Z</time>
      </trkpt>
      <trkpt lat="45.29247" lon="6.21372">
        <ele>1237.4</ele>
        <time>2019-03-31T12:39:11Z</time>
      </trkpt>
      <trkpt lat="45.29247" lon="6.2138">
        <ele>1234.4</ele>
        <time>2019-03-31T12:39:16Z</time>
      </trkpt>
      <trkpt lat="45.29246" lon="6.2138">
        <ele>1235.4</ele>
        <time>2019-03-31T12:39:21Z</time>
      </trkpt>
      <trkpt lat="45.29245" lon="6.2138">
        <ele>1234.8</ele>
        <time>2019-03-31T12:39:26Z</time>
      </trkpt>
      <trkpt lat="45.29245" lon="6.21381">
        <ele>1234.4</ele>
        <time>2019-03-31T12:39:31Z</time>
      </trkpt>
      <trkpt lat="45.29245" lon="6.21382">
        <ele>1233.2</ele>
        <time>2019-03-31T12:39:46Z</time>
      </trkpt>
      <trkpt lat="45.29243" lon="6.21388">
        <ele>1225.8</ele>
        <time>2019-03-31T12:42:21Z</time>
      </trkpt>
      <trkpt lat="45.29243" lon="6.21388">
        <ele>1225.8</ele>
        <time>2019-03-31T12:42:31Z</time>
      </trkpt>
      <trkpt lat="45.29242" lon="6.21389">
        <ele>1229</ele>
        <time>2019-03-31T12:44:51Z</time>
      </trkpt>
      <trkpt lat="45.29241" lon="6.2139">
        <ele>1227.6</ele>
        <time>2019-03-31T12:44:56Z</time>
      </trkpt>
      <trkpt lat="45.2924" lon="6.2139">
        <ele>1226.6</ele>
        <time>2019-03-31T12:45:01Z</time>
      </trkpt>
      <trkpt lat="45.29239" lon="6.21389">
        <ele>1225.8</ele>
        <time>2019-03-31T12:45:06Z</time>
      </trkpt>
      <trkpt lat="45.29237" lon="6.21389">
        <ele>1225</ele>
        <time>2019-03-31T12:45:11Z</time>
      </trkpt>
      <trkpt lat="45.29236" lon="6.21391">
        <ele>1224.2</ele>
        <time>2019-03-31T12:45:16Z</time>
      </trkpt>
      <trkpt lat="45.29233" lon="6.21394">
        <ele>1219.8</ele>
        <time>2019-03-31T12:45:21Z</time>
      </trkpt>
      <trkpt lat="45.29233" lon="6.21397">
        <ele>1218.4</ele>
        <time>2019-03-31T12:45:26Z</time>
      </trkpt>
      <trkpt lat="45.29231" lon="6.214">
        <ele>1218.2</ele>
        <time>2019-03-31T12:45:31Z</time>
      </trkpt>
      <trkpt lat="45.29232" lon="6.21405">
        <ele>1213.6</ele>
        <time>2019-03-31T12:45:36Z</time>
      </trkpt>
      <trkpt lat="45.2923" lon="6.21408">
        <ele>1212.6</ele>
        <time>2019-03-31T12:45:41Z</time>
      </trkpt>
      <trkpt lat="45.29228" lon="6.21411">
        <ele>1212.8</ele>
        <time>2019-03-31T12:45:46Z</time>
      </trkpt>
      <trkpt lat="45.29227" lon="6.21415">
        <ele>1211.4</ele>
        <time>2019-03-31T12:45:51Z</time>
      </trkpt>
      <trkpt lat="45.29225" lon="6.21419">
        <ele>1206.8</ele>
        <time>2019-03-31T12:45:56Z</time>
      </trkpt>
      <trkpt lat="45.29222" lon="6.21425">
        <ele>1208.2</ele>
        <time>2019-03-31T12:46:01Z</time>
      </trkpt>
      <trkpt lat="45.29219" lon="6.2143">
        <ele>1208</ele>
        <time>2019-03-31T12:46:06Z</time>
      </trkpt>
      <trkpt lat="45.29216" lon="6.21433">
        <ele>1207.8</ele>
        <time>2019-03-31T12:46:11Z</time>
      </trkpt>
      <trkpt lat="45.29211" lon="6.21437">
        <ele>1206.4</ele>
        <time>2019-03-31T12:46:16Z</time>
      </trkpt>
      <trkpt lat="45.29209" lon="6.21443">
        <ele>1206.2</ele>
        <time>2019-03-31T12:46:21Z</time>
      </trkpt>
      <trkpt lat="45.29207" lon="6.21448">
        <ele>1205.6</ele>
        <time>2019-03-31T12:46:26Z</time>
      </trkpt>
      <trkpt lat="45.29204" lon="6.21453">
        <ele>1204.6</ele>
        <time>2019-03-31T12:46:31Z</time>
      </trkpt>
      <trkpt lat="45.29202" lon="6.21456">
        <ele>1204</ele>
        <time>2019-03-31T12:46:36Z</time>
      </trkpt>
      <trkpt lat="45.29197" lon="6.2146">
        <ele>1201</ele>
        <time>2019-03-31T12:46:41Z</time>
      </trkpt>
      <trkpt lat="45.29193" lon="6.21464">
        <ele>1200.6</ele>
        <time>2019-03-31T12:46:46Z</time>
      </trkpt>
      <trkpt lat="45.29188" lon="6.2147">
        <ele>1198.2</ele>
        <time>2019-03-31T12:46:51Z</time>
      </trkpt>
      <trkpt lat="45.29186" lon="6.21478">
        <ele>1196.8</ele>
        <time>2019-03-31T12:46:56Z</time>
      </trkpt>
      <trkpt lat="45.29184" lon="6.21485">
        <ele>1197</ele>
        <time>2019-03-31T12:47:01Z</time>
      </trkpt>
      <trkpt lat="45.29181" lon="6.2149">
        <ele>1196</ele>
        <time>2019-03-31T12:47:06Z</time>
      </trkpt>
      <trkpt lat="45.29176" lon="6.21494">
        <ele>1195.8</ele>
        <time>2019-03-31T12:47:11Z</time>
      </trkpt>
      <trkpt lat="45.29173" lon="6.21496">
        <ele>1195.8</ele>
        <time>2019-03-31T12:47:16Z</time>
      </trkpt>
      <trkpt lat="45.29173" lon="6.21499">
        <ele>1193.2</ele>
        <time>2019-03-31T12:47:21Z</time>
      </trkpt>
      <trkpt lat="45.29171" lon="6.21504">
        <ele>1195.2</ele>
        <time>2019-03-31T12:47:26Z</time>
      </trkpt>
      <trkpt lat="45.29167" lon="6.21508">
        <ele>1194.4</ele>
        <time>2019-03-31T12:47:31Z</time>
      </trkpt>
      <trkpt lat="45.29165" lon="6.21514">
        <ele>1193.6</ele>
        <time>2019-03-31T12:47:36Z</time>
      </trkpt>
      <trkpt lat="45.29162" lon="6.21518">
        <ele>1193</ele>
        <time>2019-03-31T12:47:41Z</time>
      </trkpt>
      <trkpt lat="45.29161" lon="6.21521">
        <ele>1193</ele>
        <time>2019-03-31T12:47:46Z</time>
      </trkpt>
      <trkpt lat="45.29159" lon="6.21526">
        <ele>1193</ele>
        <time>2019-03-31T12:47:51Z</time>
      </trkpt>
      <trkpt lat="45.29155" lon="6.21532">
        <ele>1192</ele>
        <time>2019-03-31T12:47:56Z</time>
      </trkpt>
      <trkpt lat="45.29154" lon="6.21539">
        <ele>1190.8</ele>
        <time>2019-03-31T12:48:01Z</time>
      </trkpt>
      <trkpt lat="45.29149" lon="6.21545">
        <ele>1189.8</ele>
        <time>2019-03-31T12:48:06Z</time>
      </trkpt>
      <trkpt lat="45.29144" lon="6.21548">
        <ele>1187.2</ele>
        <time>2019-03-31T12:48:11Z</time>
      </trkpt>
      <trkpt lat="45.2914" lon="6.2155">
        <ele>1184.4</ele>
        <time>2019-03-31T12:48:16Z</time>
      </trkpt>
      <trkpt lat="45.29136" lon="6.21554">
        <ele>1179</ele>
        <time>2019-03-31T12:48:21Z</time>
      </trkpt>
      <trkpt lat="45.29133" lon="6.21559">
        <ele>1179.6</ele>
        <time>2019-03-31T12:48:26Z</time>
      </trkpt>
      <trkpt lat="45.29132" lon="6.21564">
        <ele>1176.6</ele>
        <time>2019-03-31T12:48:31Z</time>
      </trkpt>
      <trkpt lat="45.29129" lon="6.21566">
        <ele>1179.8</ele>
        <time>2019-03-31T12:48:36Z</time>
      </trkpt>
      <trkpt lat="45.29127" lon="6.2157">
        <ele>1172.8</ele>
        <time>2019-03-31T12:48:41Z</time>
      </trkpt>
      <trkpt lat="45.29124" lon="6.21576">
        <ele>1170.4</ele>
        <time>2019-03-31T12:48:46Z</time>
      </trkpt>
      <trkpt lat="45.29122" lon="6.2158">
        <ele>1171.2</ele>
        <time>2019-03-31T12:48:51Z</time>
      </trkpt>
      <trkpt lat="45.2912" lon="6.21584">
        <ele>1167.6</ele>
        <time>2019-03-31T12:48:56Z</time>
      </trkpt>
      <trkpt lat="45.29118" lon="6.2159">
        <ele>1166.2</ele>
        <time>2019-03-31T12:49:01Z</time>
      </trkpt>
      <trkpt lat="45.29118" lon="6.21595">
        <ele>1166.2</ele>
        <time>2019-03-31T12:49:06Z</time>
      </trkpt>
      <trkpt lat="45.29116" lon="6.216">
        <ele>1166.8</ele>
        <time>2019-03-31T12:49:11Z</time>
      </trkpt>
      <trkpt lat="45.29115" lon="6.21605">
        <ele>1164.6</ele>
        <time>2019-03-31T12:49:16Z</time>
      </trkpt>
      <trkpt lat="45.29112" lon="6.21609">
        <ele>1163.2</ele>
        <time>2019-03-31T12:49:21Z</time>
      </trkpt>
      <trkpt lat="45.29111" lon="6.21615">
        <ele>1164.6</ele>
        <time>2019-03-31T12:49:26Z</time>
      </trkpt>
      <trkpt lat="45.2911" lon="6.21617">
        <ele>1162.8</ele>
        <time>2019-03-31T12:49:31Z</time>
      </trkpt>
      <trkpt lat="45.29108" lon="6.21622">
        <ele>1162.6</ele>
        <time>2019-03-31T12:49:36Z</time>
      </trkpt>
      <trkpt lat="45.29106" lon="6.21626">
        <ele>1161.8</ele>
        <time>2019-03-31T12:49:41Z</time>
      </trkpt>
      <trkpt lat="45.29106" lon="6.21631">
        <ele>1157.6</ele>
        <time>2019-03-31T12:49:46Z</time>
      </trkpt>
      <trkpt lat="45.29104" lon="6.21635">
        <ele>1158.8</ele>
        <time>2019-03-31T12:49:51Z</time>
      </trkpt>
      <trkpt lat="45.29103" lon="6.21639">
        <ele>1160</ele>
        <time>2019-03-31T12:49:56Z</time>
      </trkpt>
      <trkpt lat="45.29102" lon="6.21642">
        <ele>1157.2</ele>
        <time>2019-03-31T12:50:01Z</time>
      </trkpt>
      <trkpt lat="45.29099" lon="6.21647">
        <ele>1154.2</ele>
        <time>2019-03-31T12:50:07Z</time>
      </trkpt>
      <trkpt lat="45.29098" lon="6.21653">
        <ele>1153</ele>
        <time>2019-03-31T12:50:12Z</time>
      </trkpt>
      <trkpt lat="45.29095" lon="6.21657">
        <ele>1152.6</ele>
        <time>2019-03-31T12:50:17Z</time>
      </trkpt>
      <trkpt lat="45.29095" lon="6.21664">
        <ele>1148.4</ele>
        <time>2019-03-31T12:50:22Z</time>
      </trkpt>
      <trkpt lat="45.29094" lon="6.2167">
        <ele>1147.2</ele>
        <time>2019-03-31T12:50:27Z</time>
      </trkpt>
      <trkpt lat="45.29092" lon="6.21677">
        <ele>1149.6</ele>
        <time>2019-03-31T12:50:32Z</time>
      </trkpt>
      <trkpt lat="45.2909" lon="6.21684">
        <ele>1148.4</ele>
        <time>2019-03-31T12:50:37Z</time>
      </trkpt>
      <trkpt lat="45.29084" lon="6.21689">
        <ele>1147.2</ele>
        <time>2019-03-31T12:50:42Z</time>
      </trkpt>
      <trkpt lat="45.29082" lon="6.21689">
        <ele>1149.4</ele>
        <time>2019-03-31T12:50:47Z</time>
      </trkpt>
      <trkpt lat="45.29082" lon="6.21688">
        <ele>1147.8</ele>
        <time>2019-03-31T12:51:02Z</time>
      </trkpt>
      <trkpt lat="45.29081" lon="6.21689">
        <ele>1148.2</ele>
        <time>2019-03-31T12:51:12Z</time>
      </trkpt>
      <trkpt lat="45.29078" lon="6.21694">
        <ele>1151.4</ele>
        <time>2019-03-31T12:51:17Z</time>
      </trkpt>
      <trkpt lat="45.29076" lon="6.21698">
        <ele>1149.6</ele>
        <time>2019-03-31T12:51:22Z</time>
      </trkpt>
      <trkpt lat="45.29071" lon="6.217">
        <ele>1147.8</ele>
        <time>2019-03-31T12:51:27Z</time>
      </trkpt>
      <trkpt lat="45.29066" lon="6.21703">
        <ele>1148.8</ele>
        <time>2019-03-31T12:51:32Z</time>
      </trkpt>
      <trkpt lat="45.2906" lon="6.21706">
        <ele>1149.2</ele>
        <time>2019-03-31T12:51:37Z</time>
      </trkpt>
      <trkpt lat="45.29054" lon="6.21709">
        <ele>1149</ele>
        <time>2019-03-31T12:51:42Z</time>
      </trkpt>
      <trkpt lat="45.29052" lon="6.2171">
        <ele>1147.8</ele>
        <time>2019-03-31T12:51:47Z</time>
      </trkpt>
      <trkpt lat="45.29052" lon="6.2171">
        <ele>1148.2</ele>
        <time>2019-03-31T12:51:57Z</time>
      </trkpt>
      <trkpt lat="45.29049" lon="6.2171">
        <ele>1151.2</ele>
        <time>2019-03-31T12:52:02Z</time>
      </trkpt>
      <trkpt lat="45.29042" lon="6.21711">
        <ele>1145.8</ele>
        <time>2019-03-31T12:52:07Z</time>
      </trkpt>
      <trkpt lat="45.29037" lon="6.21712">
        <ele>1143.6</ele>
        <time>2019-03-31T12:52:12Z</time>
      </trkpt>
      <trkpt lat="45.29032" lon="6.21718">
        <ele>1139.6</ele>
        <time>2019-03-31T12:52:17Z</time>
      </trkpt>
      <trkpt lat="45.29028" lon="6.21722">
        <ele>1139.6</ele>
        <time>2019-03-31T12:52:22Z</time>
      </trkpt>
      <trkpt lat="45.29022" lon="6.21719">
        <ele>1134.8</ele>
        <time>2019-03-31T12:52:27Z</time>
      </trkpt>
      <trkpt lat="45.29019" lon="6.21717">
        <ele>1135.2</ele>
        <time>2019-03-31T12:52:32Z</time>
      </trkpt>
      <trkpt lat="45.29012" lon="6.21717">
        <ele>1137.4</ele>
        <time>2019-03-31T12:52:37Z</time>
      </trkpt>
      <trkpt lat="45.29006" lon="6.21715">
        <ele>1136.2</ele>
        <time>2019-03-31T12:52:42Z</time>
      </trkpt>
      <trkpt lat="45.29002" lon="6.21713">
        <ele>1140</ele>
        <time>2019-03-31T12:52:47Z</time>
      </trkpt>
      <trkpt lat="45.28998" lon="6.2171">
        <ele>1136.4</ele>
        <time>2019-03-31T12:52:52Z</time>
      </trkpt>
      <trkpt lat="45.28998" lon="6.21705">
        <ele>1137.8</ele>
        <time>2019-03-31T12:52:57Z</time>
      </trkpt>
      <trkpt lat="45.28993" lon="6.21698">
        <ele>1139.2</ele>
        <time>2019-03-31T12:53:02Z</time>
      </trkpt>
      <trkpt lat="45.28992" lon="6.21696">
        <ele>1138.8</ele>
        <time>2019-03-31T12:53:07Z</time>
      </trkpt>
      <trkpt lat="45.28992" lon="6.21696">
        <ele>1138.8</ele>
        <time>2019-03-31T12:53:12Z</time>
      </trkpt>
      <trkpt lat="45.28991" lon="6.21692">
        <ele>1136.2</ele>
        <time>2019-03-31T12:53:17Z</time>
      </trkpt>
      <trkpt lat="45.28992" lon="6.21686">
        <ele>1138.8</ele>
        <time>2019-03-31T12:53:22Z</time>
      </trkpt>
      <trkpt lat="45.28991" lon="6.21681">
        <ele>1144.6</ele>
        <time>2019-03-31T12:53:27Z</time>
      </trkpt>
      <trkpt lat="45.2899" lon="6.21676">
        <ele>1144.6</ele>
        <time>2019-03-31T12:53:32Z</time>
      </trkpt>
      <trkpt lat="45.28989" lon="6.21671">
        <ele>1145.6</ele>
        <time>2019-03-31T12:53:37Z</time>
      </trkpt>
      <trkpt lat="45.28988" lon="6.21665">
        <ele>1147.8</ele>
        <time>2019-03-31T12:53:42Z</time>
      </trkpt>
      <trkpt lat="45.28985" lon="6.2166">
        <ele>1150.6</ele>
        <time>2019-03-31T12:53:47Z</time>
      </trkpt>
      <trkpt lat="45.28982" lon="6.21656">
        <ele>1150.2</ele>
        <time>2019-03-31T12:53:52Z</time>
      </trkpt>
      <trkpt lat="45.28978" lon="6.21652">
        <ele>1153</ele>
        <time>2019-03-31T12:53:57Z</time>
      </trkpt>
      <trkpt lat="45.28974" lon="6.21648">
        <ele>1153.4</ele>
        <time>2019-03-31T12:54:02Z</time>
      </trkpt>
      <trkpt lat="45.28972" lon="6.21646">
        <ele>1153</ele>
        <time>2019-03-31T12:54:07Z</time>
      </trkpt>
      <trkpt lat="45.28972" lon="6.21646">
        <ele>1153.4</ele>
        <time>2019-03-31T12:54:27Z</time>
      </trkpt>
      <trkpt lat="45.28971" lon="6.21645">
        <ele>1154.8</ele>
        <time>2019-03-31T12:54:32Z</time>
      </trkpt>
      <trkpt lat="45.28967" lon="6.21643">
        <ele>1156.2</ele>
        <time>2019-03-31T12:54:37Z</time>
      </trkpt>
      <trkpt lat="45.28961" lon="6.21638">
        <ele>1153.8</ele>
        <time>2019-03-31T12:54:43Z</time>
      </trkpt>
      <trkpt lat="45.28955" lon="6.21632">
        <ele>1156.8</ele>
        <time>2019-03-31T12:54:48Z</time>
      </trkpt>
      <trkpt lat="45.28951" lon="6.21625">
        <ele>1152</ele>
        <time>2019-03-31T12:54:53Z</time>
      </trkpt>
      <trkpt lat="45.28947" lon="6.21616">
        <ele>1153.8</ele>
        <time>2019-03-31T12:54:59Z</time>
      </trkpt>
      <trkpt lat="45.28943" lon="6.21609">
        <ele>1155.6</ele>
        <time>2019-03-31T12:55:04Z</time>
      </trkpt>
      <trkpt lat="45.2894" lon="6.21603">
        <ele>1151.4</ele>
        <time>2019-03-31T12:55:09Z</time>
      </trkpt>
      <trkpt lat="45.28938" lon="6.21597">
        <ele>1153.6</ele>
        <time>2019-03-31T12:55:14Z</time>
      </trkpt>
      <trkpt lat="45.28935" lon="6.21591">
        <ele>1155</ele>
        <time>2019-03-31T12:55:19Z</time>
      </trkpt>
      <trkpt lat="45.28932" lon="6.21584">
        <ele>1155</ele>
        <time>2019-03-31T12:55:24Z</time>
      </trkpt>
      <trkpt lat="45.28929" lon="6.21578">
        <ele>1156</ele>
        <time>2019-03-31T12:55:29Z</time>
      </trkpt>
      <trkpt lat="45.28926" lon="6.21571">
        <ele>1157.4</ele>
        <time>2019-03-31T12:55:34Z</time>
      </trkpt>
      <trkpt lat="45.28923" lon="6.21564">
        <ele>1157.4</ele>
        <time>2019-03-31T12:55:39Z</time>
      </trkpt>
      <trkpt lat="45.2892" lon="6.21558">
        <ele>1158.4</ele>
        <time>2019-03-31T12:55:44Z</time>
      </trkpt>
      <trkpt lat="45.28917" lon="6.21552">
        <ele>1160.4</ele>
        <time>2019-03-31T12:55:49Z</time>
      </trkpt>
      <trkpt lat="45.28914" lon="6.21545">
        <ele>1159</ele>
        <time>2019-03-31T12:55:54Z</time>
      </trkpt>
      <trkpt lat="45.28912" lon="6.21539">
        <ele>1160</ele>
        <time>2019-03-31T12:55:59Z</time>
      </trkpt>
      <trkpt lat="45.28908" lon="6.21532">
        <ele>1161.2</ele>
        <time>2019-03-31T12:56:04Z</time>
      </trkpt>
      <trkpt lat="45.28906" lon="6.21526">
        <ele>1161.4</ele>
        <time>2019-03-31T12:56:09Z</time>
      </trkpt>
      <trkpt lat="45.28903" lon="6.21519">
        <ele>1160.6</ele>
        <time>2019-03-31T12:56:14Z</time>
      </trkpt>
      <trkpt lat="45.289" lon="6.21512">
        <ele>1163.2</ele>
        <time>2019-03-31T12:56:19Z</time>
      </trkpt>
      <trkpt lat="45.28897" lon="6.21507">
        <ele>1163.8</ele>
        <time>2019-03-31T12:56:24Z</time>
      </trkpt>
      <trkpt lat="45.28895" lon="6.215">
        <ele>1163.4</ele>
        <time>2019-03-31T12:56:29Z</time>
      </trkpt>
      <trkpt lat="45.28893" lon="6.21494">
        <ele>1164.6</ele>
        <time>2019-03-31T12:56:34Z</time>
      </trkpt>
      <trkpt lat="45.2889" lon="6.2149">
        <ele>1165.2</ele>
        <time>2019-03-31T12:56:39Z</time>
      </trkpt>
      <trkpt lat="45.28887" lon="6.21484">
        <ele>1163</ele>
        <time>2019-03-31T12:56:44Z</time>
      </trkpt>
      <trkpt lat="45.28883" lon="6.2148">
        <ele>1167</ele>
        <time>2019-03-31T12:56:49Z</time>
      </trkpt>
      <trkpt lat="45.28878" lon="6.21475">
        <ele>1163.8</ele>
        <time>2019-03-31T12:56:54Z</time>
      </trkpt>
      <trkpt lat="45.28874" lon="6.21472">
        <ele>1167.2</ele>
        <time>2019-03-31T12:56:59Z</time>
      </trkpt>
      <trkpt lat="45.28869" lon="6.21468">
        <ele>1168</ele>
        <time>2019-03-31T12:57:04Z</time>
      </trkpt>
      <trkpt lat="45.28865" lon="6.21463">
        <ele>1169.2</ele>
        <time>2019-03-31T12:57:09Z</time>
      </trkpt>
      <trkpt lat="45.28861" lon="6.21457">
        <ele>1170.8</ele>
        <time>2019-03-31T12:57:14Z</time>
      </trkpt>
      <trkpt lat="45.28859" lon="6.2145">
        <ele>1171.8</ele>
        <time>2019-03-31T12:57:19Z</time>
      </trkpt>
      <trkpt lat="45.28857" lon="6.21442">
        <ele>1167</ele>
        <time>2019-03-31T12:57:24Z</time>
      </trkpt>
      <trkpt lat="45.28856" lon="6.21435">
        <ele>1173</ele>
        <time>2019-03-31T12:57:29Z</time>
      </trkpt>
      <trkpt lat="45.28854" lon="6.21428">
        <ele>1173.2</ele>
        <time>2019-03-31T12:57:34Z</time>
      </trkpt>
      <trkpt lat="45.2885" lon="6.21423">
        <ele>1171.8</ele>
        <time>2019-03-31T12:57:39Z</time>
      </trkpt>
      <trkpt lat="45.28846" lon="6.21417">
        <ele>1172.4</ele>
        <time>2019-03-31T12:57:44Z</time>
      </trkpt>
      <trkpt lat="45.28842" lon="6.21412">
        <ele>1171.6</ele>
        <time>2019-03-31T12:57:49Z</time>
      </trkpt>
      <trkpt lat="45.28837" lon="6.21408">
        <ele>1176</ele>
        <time>2019-03-31T12:57:54Z</time>
      </trkpt>
      <trkpt lat="45.28833" lon="6.21403">
        <ele>1176</ele>
        <time>2019-03-31T12:57:59Z</time>
      </trkpt>
      <trkpt lat="45.28828" lon="6.21398">
        <ele>1175.2</ele>
        <time>2019-03-31T12:58:04Z</time>
      </trkpt>
      <trkpt lat="45.28823" lon="6.21393">
        <ele>1175.6</ele>
        <time>2019-03-31T12:58:09Z</time>
      </trkpt>
      <trkpt lat="45.28819" lon="6.21388">
        <ele>1175.6</ele>
        <time>2019-03-31T12:58:14Z</time>
      </trkpt>
      <trkpt lat="45.28815" lon="6.21382">
        <ele>1175.8</ele>
        <time>2019-03-31T12:58:19Z</time>
      </trkpt>
      <trkpt lat="45.28811" lon="6.21377">
        <ele>1177.2</ele>
        <time>2019-03-31T12:58:24Z</time>
      </trkpt>
      <trkpt lat="45.28807" lon="6.21373">
        <ele>1178.4</ele>
        <time>2019-03-31T12:58:29Z</time>
      </trkpt>
      <trkpt lat="45.28803" lon="6.21369">
        <ele>1180.8</ele>
        <time>2019-03-31T12:58:34Z</time>
      </trkpt>
      <trkpt lat="45.28798" lon="6.21365">
        <ele>1177.4</ele>
        <time>2019-03-31T12:58:39Z</time>
      </trkpt>
      <trkpt lat="45.28793" lon="6.21361">
        <ele>1178.2</ele>
        <time>2019-03-31T12:58:44Z</time>
      </trkpt>
      <trkpt lat="45.28788" lon="6.21356">
        <ele>1180.8</ele>
        <time>2019-03-31T12:58:49Z</time>
      </trkpt>
      <trkpt lat="45.28784" lon="6.21353">
        <ele>1179.2</ele>
        <time>2019-03-31T12:58:54Z</time>
      </trkpt>
      <trkpt lat="45.28779" lon="6.21347">
        <ele>1180</ele>
        <time>2019-03-31T12:58:59Z</time>
      </trkpt>
      <trkpt lat="45.28776" lon="6.21343">
        <ele>1180.2</ele>
        <time>2019-03-31T12:59:04Z</time>
      </trkpt>
      <trkpt lat="45.28771" lon="6.21336">
        <ele>1181.8</ele>
        <time>2019-03-31T12:59:09Z</time>
      </trkpt>
      <trkpt lat="45.28766" lon="6.2133">
        <ele>1181</ele>
        <time>2019-03-31T12:59:14Z</time>
      </trkpt>
      <trkpt lat="45.28762" lon="6.21324">
        <ele>1180.4</ele>
        <time>2019-03-31T12:59:19Z</time>
      </trkpt>
      <trkpt lat="45.28759" lon="6.21319">
        <ele>1184.2</ele>
        <time>2019-03-31T12:59:24Z</time>
      </trkpt>
      <trkpt lat="45.28754" lon="6.21313">
        <ele>1181.4</ele>
        <time>2019-03-31T12:59:29Z</time>
      </trkpt>
      <trkpt lat="45.28751" lon="6.21308">
        <ele>1182.6</ele>
        <time>2019-03-31T12:59:34Z</time>
      </trkpt>
      <trkpt lat="45.28747" lon="6.21304">
        <ele>1180.6</ele>
        <time>2019-03-31T12:59:39Z</time>
      </trkpt>
      <trkpt lat="45.28743" lon="6.21298">
        <ele>1183</ele>
        <time>2019-03-31T12:59:44Z</time>
      </trkpt>
      <trkpt lat="45.28739" lon="6.21294">
        <ele>1183.6</ele>
        <time>2019-03-31T12:59:49Z</time>
      </trkpt>
      <trkpt lat="45.28735" lon="6.2129">
        <ele>1182.4</ele>
        <time>2019-03-31T12:59:54Z</time>
      </trkpt>
      <trkpt lat="45.28731" lon="6.21285">
        <ele>1184</ele>
        <time>2019-03-31T12:59:59Z</time>
      </trkpt>
      <trkpt lat="45.28727" lon="6.21281">
        <ele>1185.8</ele>
        <time>2019-03-31T13:00:04Z</time>
      </trkpt>
      <trkpt lat="45.28722" lon="6.21277">
        <ele>1185.2</ele>
        <time>2019-03-31T13:00:09Z</time>
      </trkpt>
      <trkpt lat="45.28717" lon="6.21272">
        <ele>1186.4</ele>
        <time>2019-03-31T13:00:14Z</time>
      </trkpt>
      <trkpt lat="45.28712" lon="6.21268">
        <ele>1185.8</ele>
        <time>2019-03-31T13:00:19Z</time>
      </trkpt>
      <trkpt lat="45.28706" lon="6.21264">
        <ele>1188.2</ele>
        <time>2019-03-31T13:00:24Z</time>
      </trkpt>
      <trkpt lat="45.28701" lon="6.2126">
        <ele>1188.4</ele>
        <time>2019-03-31T13:00:29Z</time>
      </trkpt>
      <trkpt lat="45.28696" lon="6.21255">
        <ele>1186.2</ele>
        <time>2019-03-31T13:00:34Z</time>
      </trkpt>
      <trkpt lat="45.28691" lon="6.2125">
        <ele>1183.8</ele>
        <time>2019-03-31T13:00:39Z</time>
      </trkpt>
      <trkpt lat="45.28686" lon="6.21246">
        <ele>1183.8</ele>
        <time>2019-03-31T13:00:44Z</time>
      </trkpt>
      <trkpt lat="45.28681" lon="6.2124">
        <ele>1187.8</ele>
        <time>2019-03-31T13:00:49Z</time>
      </trkpt>
      <trkpt lat="45.28676" lon="6.21235">
        <ele>1184.6</ele>
        <time>2019-03-31T13:00:54Z</time>
      </trkpt>
      <trkpt lat="45.28671" lon="6.2123">
        <ele>1186</ele>
        <time>2019-03-31T13:00:59Z</time>
      </trkpt>
      <trkpt lat="45.28666" lon="6.21226">
        <ele>1185.8</ele>
        <time>2019-03-31T13:01:04Z</time>
      </trkpt>
      <trkpt lat="45.28661" lon="6.21222">
        <ele>1188.8</ele>
        <time>2019-03-31T13:01:09Z</time>
      </trkpt>
      <trkpt lat="45.28656" lon="6.21219">
        <ele>1187.8</ele>
        <time>2019-03-31T13:01:14Z</time>
      </trkpt>
      <trkpt lat="45.28652" lon="6.21217">
        <ele>1187.8</ele>
        <time>2019-03-31T13:01:19Z</time>
      </trkpt>
      <trkpt lat="45.28649" lon="6.21216">
        <ele>1185.8</ele>
        <time>2019-03-31T13:01:24Z</time>
      </trkpt>
      <trkpt lat="45.28646" lon="6.21213">
        <ele>1187.6</ele>
        <time>2019-03-31T13:01:29Z</time>
      </trkpt>
      <trkpt lat="45.28642" lon="6.21209">
        <ele>1188.6</ele>
        <time>2019-03-31T13:01:34Z</time>
      </trkpt>
      <trkpt lat="45.28638" lon="6.21206">
        <ele>1187.4</ele>
        <time>2019-03-31T13:01:39Z</time>
      </trkpt>
      <trkpt lat="45.28634" lon="6.21201">
        <ele>1190.6</ele>
        <time>2019-03-31T13:01:44Z</time>
      </trkpt>
      <trkpt lat="45.28629" lon="6.21197">
        <ele>1191.4</ele>
        <time>2019-03-31T13:01:49Z</time>
      </trkpt>
      <trkpt lat="45.28625" lon="6.21193">
        <ele>1192.4</ele>
        <time>2019-03-31T13:01:54Z</time>
      </trkpt>
      <trkpt lat="45.28625" lon="6.21192">
        <ele>1191.8</ele>
        <time>2019-03-31T13:01:59Z</time>
      </trkpt>
      <trkpt lat="45.28621" lon="6.21189">
        <ele>1191.4</ele>
        <time>2019-03-31T13:02:04Z</time>
      </trkpt>
      <trkpt lat="45.28617" lon="6.21185">
        <ele>1190.6</ele>
        <time>2019-03-31T13:02:09Z</time>
      </trkpt>
      <trkpt lat="45.28613" lon="6.21181">
        <ele>1192.4</ele>
        <time>2019-03-31T13:02:14Z</time>
      </trkpt>
      <trkpt lat="45.2861" lon="6.21178">
        <ele>1193.2</ele>
        <time>2019-03-31T13:02:19Z</time>
      </trkpt>
      <trkpt lat="45.28606" lon="6.21176">
        <ele>1192.8</ele>
        <time>2019-03-31T13:02:24Z</time>
      </trkpt>
      <trkpt lat="45.28602" lon="6.21174">
        <ele>1193</ele>
        <time>2019-03-31T13:02:29Z</time>
      </trkpt>
      <trkpt lat="45.28598" lon="6.21172">
        <ele>1192.6</ele>
        <time>2019-03-31T13:02:34Z</time>
      </trkpt>
      <trkpt lat="45.28593" lon="6.21169">
        <ele>1193</ele>
        <time>2019-03-31T13:02:39Z</time>
      </trkpt>
      <trkpt lat="45.28589" lon="6.21167">
        <ele>1193.8</ele>
        <time>2019-03-31T13:02:44Z</time>
      </trkpt>
      <trkpt lat="45.28585" lon="6.21164">
        <ele>1195</ele>
        <time>2019-03-31T13:02:49Z</time>
      </trkpt>
      <trkpt lat="45.2858" lon="6.21163">
        <ele>1196.8</ele>
        <time>2019-03-31T13:02:54Z</time>
      </trkpt>
      <trkpt lat="45.28576" lon="6.2116">
        <ele>1195.4</ele>
        <time>2019-03-31T13:02:59Z</time>
      </trkpt>
      <trkpt lat="45.28571" lon="6.21158">
        <ele>1195.2</ele>
        <time>2019-03-31T13:03:04Z</time>
      </trkpt>
      <trkpt lat="45.28568" lon="6.21157">
        <ele>1196.8</ele>
        <time>2019-03-31T13:03:09Z</time>
      </trkpt>
      <trkpt lat="45.28563" lon="6.21155">
        <ele>1195.2</ele>
        <time>2019-03-31T13:03:14Z</time>
      </trkpt>
      <trkpt lat="45.28558" lon="6.21153">
        <ele>1197.4</ele>
        <time>2019-03-31T13:03:19Z</time>
      </trkpt>
      <trkpt lat="45.28554" lon="6.2115">
        <ele>1199.2</ele>
        <time>2019-03-31T13:03:24Z</time>
      </trkpt>
      <trkpt lat="45.28549" lon="6.21148">
        <ele>1199.4</ele>
        <time>2019-03-31T13:03:29Z</time>
      </trkpt>
      <trkpt lat="45.28545" lon="6.21141">
        <ele>1200.8</ele>
        <time>2019-03-31T13:03:34Z</time>
      </trkpt>
      <trkpt lat="45.2854" lon="6.21135">
        <ele>1199.8</ele>
        <time>2019-03-31T13:03:39Z</time>
      </trkpt>
      <trkpt lat="45.28535" lon="6.2113">
        <ele>1200.8</ele>
        <time>2019-03-31T13:03:44Z</time>
      </trkpt>
      <trkpt lat="45.28531" lon="6.21126">
        <ele>1203.4</ele>
        <time>2019-03-31T13:03:49Z</time>
      </trkpt>
      <trkpt lat="45.28526" lon="6.21122">
        <ele>1201.6</ele>
        <time>2019-03-31T13:03:54Z</time>
      </trkpt>
      <trkpt lat="45.28521" lon="6.21118">
        <ele>1203.8</ele>
        <time>2019-03-31T13:03:59Z</time>
      </trkpt>
      <trkpt lat="45.28516" lon="6.21114">
        <ele>1202.8</ele>
        <time>2019-03-31T13:04:04Z</time>
      </trkpt>
      <trkpt lat="45.28511" lon="6.2111">
        <ele>1204.6</ele>
        <time>2019-03-31T13:04:09Z</time>
      </trkpt>
      <trkpt lat="45.28506" lon="6.21108">
        <ele>1203</ele>
        <time>2019-03-31T13:04:14Z</time>
      </trkpt>
      <trkpt lat="45.28502" lon="6.21105">
        <ele>1204.4</ele>
        <time>2019-03-31T13:04:19Z</time>
      </trkpt>
      <trkpt lat="45.28497" lon="6.21101">
        <ele>1206.2</ele>
        <time>2019-03-31T13:04:24Z</time>
      </trkpt>
      <trkpt lat="45.28494" lon="6.21099">
        <ele>1205.6</ele>
        <time>2019-03-31T13:04:29Z</time>
      </trkpt>
      <trkpt lat="45.28491" lon="6.21095">
        <ele>1206.2</ele>
        <time>2019-03-31T13:04:34Z</time>
      </trkpt>
      <trkpt lat="45.28487" lon="6.21091">
        <ele>1205</ele>
        <time>2019-03-31T13:04:39Z</time>
      </trkpt>
      <trkpt lat="45.28484" lon="6.21087">
        <ele>1206</ele>
        <time>2019-03-31T13:04:44Z</time>
      </trkpt>
      <trkpt lat="45.28481" lon="6.21084">
        <ele>1206</ele>
        <time>2019-03-31T13:04:49Z</time>
      </trkpt>
      <trkpt lat="45.28477" lon="6.2108">
        <ele>1205.6</ele>
        <time>2019-03-31T13:04:54Z</time>
      </trkpt>
      <trkpt lat="45.28472" lon="6.21076">
        <ele>1206.6</ele>
        <time>2019-03-31T13:04:59Z</time>
      </trkpt>
      <trkpt lat="45.28467" lon="6.21071">
        <ele>1207.6</ele>
        <time>2019-03-31T13:05:04Z</time>
      </trkpt>
      <trkpt lat="45.28462" lon="6.21068">
        <ele>1207.4</ele>
        <time>2019-03-31T13:05:09Z</time>
      </trkpt>
      <trkpt lat="45.28457" lon="6.21064">
        <ele>1210</ele>
        <time>2019-03-31T13:05:14Z</time>
      </trkpt>
      <trkpt lat="45.28455" lon="6.21064">
        <ele>1210</ele>
        <time>2019-03-31T13:05:19Z</time>
      </trkpt>
      <trkpt lat="45.28452" lon="6.21065">
        <ele>1209.8</ele>
        <time>2019-03-31T13:05:24Z</time>
      </trkpt>
      <trkpt lat="45.28449" lon="6.21066">
        <ele>1209.6</ele>
        <time>2019-03-31T13:05:29Z</time>
      </trkpt>
      <trkpt lat="45.28447" lon="6.21067">
        <ele>1209.2</ele>
        <time>2019-03-31T13:05:34Z</time>
      </trkpt>
      <trkpt lat="45.28444" lon="6.2107">
        <ele>1211</ele>
        <time>2019-03-31T13:05:39Z</time>
      </trkpt>
      <trkpt lat="45.2844" lon="6.21074">
        <ele>1212.6</ele>
        <time>2019-03-31T13:05:44Z</time>
      </trkpt>
      <trkpt lat="45.28435" lon="6.21076">
        <ele>1214.4</ele>
        <time>2019-03-31T13:05:49Z</time>
      </trkpt>
      <trkpt lat="45.2843" lon="6.21079">
        <ele>1213</ele>
        <time>2019-03-31T13:05:54Z</time>
      </trkpt>
      <trkpt lat="45.28427" lon="6.2108">
        <ele>1216.4</ele>
        <time>2019-03-31T13:05:59Z</time>
      </trkpt>
      <trkpt lat="45.28426" lon="6.2108">
        <ele>1216.2</ele>
        <time>2019-03-31T13:06:04Z</time>
      </trkpt>
      <trkpt lat="45.28425" lon="6.2108">
        <ele>1215.8</ele>
        <time>2019-03-31T13:06:09Z</time>
      </trkpt>
      <trkpt lat="45.28425" lon="6.21076">
        <ele>1217.4</ele>
        <time>2019-03-31T13:06:14Z</time>
      </trkpt>
      <trkpt lat="45.28422" lon="6.21072">
        <ele>1214.6</ele>
        <time>2019-03-31T13:06:19Z</time>
      </trkpt>
      <trkpt lat="45.28412" lon="6.2107">
        <ele>1216</ele>
        <time>2019-03-31T13:06:24Z</time>
      </trkpt>
      <trkpt lat="45.28405" lon="6.21066">
        <ele>1215.4</ele>
        <time>2019-03-31T13:06:29Z</time>
      </trkpt>
      <trkpt lat="45.28399" lon="6.21061">
        <ele>1214.6</ele>
        <time>2019-03-31T13:06:34Z</time>
      </trkpt>
      <trkpt lat="45.28395" lon="6.21055">
        <ele>1213.2</ele>
        <time>2019-03-31T13:06:39Z</time>
      </trkpt>
      <trkpt lat="45.2839" lon="6.2105">
        <ele>1213.2</ele>
        <time>2019-03-31T13:06:44Z</time>
      </trkpt>
      <trkpt lat="45.28384" lon="6.21047">
        <ele>1208.4</ele>
        <time>2019-03-31T13:06:49Z</time>
      </trkpt>
      <trkpt lat="45.28378" lon="6.21043">
        <ele>1211.4</ele>
        <time>2019-03-31T13:06:54Z</time>
      </trkpt>
      <trkpt lat="45.28372" lon="6.2104">
        <ele>1210.8</ele>
        <time>2019-03-31T13:06:59Z</time>
      </trkpt>
      <trkpt lat="45.28367" lon="6.21037">
        <ele>1210.4</ele>
        <time>2019-03-31T13:07:04Z</time>
      </trkpt>
      <trkpt lat="45.28361" lon="6.21033">
        <ele>1208.8</ele>
        <time>2019-03-31T13:07:09Z</time>
      </trkpt>
      <trkpt lat="45.28356" lon="6.21029">
        <ele>1207.2</ele>
        <time>2019-03-31T13:07:14Z</time>
      </trkpt>
      <trkpt lat="45.2835" lon="6.21026">
        <ele>1209.8</ele>
        <time>2019-03-31T13:07:19Z</time>
      </trkpt>
      <trkpt lat="45.28344" lon="6.21023">
        <ele>1210.8</ele>
        <time>2019-03-31T13:07:24Z</time>
      </trkpt>
      <trkpt lat="45.28338" lon="6.21021">
        <ele>1208.2</ele>
        <time>2019-03-31T13:07:29Z</time>
      </trkpt>
      <trkpt lat="45.28333" lon="6.21019">
        <ele>1208</ele>
        <time>2019-03-31T13:07:34Z</time>
      </trkpt>
      <trkpt lat="45.28327" lon="6.21018">
        <ele>1207.8</ele>
        <time>2019-03-31T13:07:39Z</time>
      </trkpt>
      <trkpt lat="45.28322" lon="6.21016">
        <ele>1206.8</ele>
        <time>2019-03-31T13:07:44Z</time>
      </trkpt>
      <trkpt lat="45.28317" lon="6.21013">
        <ele>1205.6</ele>
        <time>2019-03-31T13:07:49Z</time>
      </trkpt>
      <trkpt lat="45.28311" lon="6.2101">
        <ele>1205.6</ele>
        <time>2019-03-31T13:07:54Z</time>
      </trkpt>
      <trkpt lat="45.28307" lon="6.21006">
        <ele>1204.2</ele>
        <time>2019-03-31T13:07:59Z</time>
      </trkpt>
      <trkpt lat="45.28303" lon="6.20999">
        <ele>1203</ele>
        <time>2019-03-31T13:08:34Z</time>
      </trkpt>
      <trkpt lat="45.28304" lon="6.21">
        <ele>1205.2</ele>
        <time>2019-03-31T13:11:14Z</time>
      </trkpt>
      <trkpt lat="45.28304" lon="6.21">
        <ele>1205.6</ele>
        <time>2019-03-31T13:16:24Z</time>
      </trkpt>
    </trkseg>
  </trk>
</gpx>